<?xml version="1.0" encoding="UTF-8"?>
<gpx version="1.1" creator="https://www.youtrack.es" xsi:schemaLocation="http://www.topografix.com/GPX/1/1 http://www.topografix.com/GPX/1/1/gpx.xsd http://www.garmin.com/xmlschemas/GpxExtensions/v3 http://www.garmin.com/xmlschemas/GpxExtensionsv3.xsd http://www.garmin.com/xmlschemas/TrackPointExtension/v1 http://www.garmin.com/xmlschemas/TrackPointExtensionv1.xsd" xmlns:gpxtpx="http://www.garmin.com/xmlschemas/TrackPointExtension/v1" xmlns:gpxx="http://www.garmin.com/xmlschemas/GpxExtensions/v3" xmlns:xsi="http://www.w3.org/2001/XMLSchema-instance">
  <metadata>
    <link href="https://www.youtrack.es">
      <text>YouTrack.es</text>
    </link>
    <time>2026-05-08T12:20:08Z</time>
  </metadata>
  <trk>
    <src>https://www.youtrack.es</src>
    <link href="https://www.youtrack.es/ruta/35736-crono-vuelta22">
      <text>YouTrack.es</text>
    </link>
    <trkseg>
      <trkpt lat="38.3484250" lon="-0.4752400">
        <ele>17.0</ele>
        <time>2022-08-30T08:27:29Z</time>
      </trkpt>
      <trkpt lat="38.3484840" lon="-0.4751670">
        <ele>35.2</ele>
        <time>2022-08-30T08:27:30Z</time>
      </trkpt>
      <trkpt lat="38.3486070" lon="-0.4750080">
        <ele>35.6</ele>
        <time>2022-08-30T08:27:34Z</time>
      </trkpt>
      <trkpt lat="38.3486700" lon="-0.4749300">
        <ele>35.4</ele>
        <time>2022-08-30T08:27:36Z</time>
      </trkpt>
      <trkpt lat="38.3486980" lon="-0.4748790">
        <ele>35.6</ele>
        <time>2022-08-30T08:27:37Z</time>
      </trkpt>
      <trkpt lat="38.3487600" lon="-0.4747890">
        <ele>36.0</ele>
        <time>2022-08-30T08:27:39Z</time>
      </trkpt>
      <trkpt lat="38.3488190" lon="-0.4747320">
        <ele>36.0</ele>
        <time>2022-08-30T08:27:41Z</time>
      </trkpt>
      <trkpt lat="38.3489030" lon="-0.4746670">
        <ele>36.0</ele>
        <time>2022-08-30T08:27:43Z</time>
      </trkpt>
      <trkpt lat="38.3489870" lon="-0.4746180">
        <ele>36.0</ele>
        <time>2022-08-30T08:27:45Z</time>
      </trkpt>
      <trkpt lat="38.3490330" lon="-0.4745880">
        <ele>36.0</ele>
        <time>2022-08-30T08:27:46Z</time>
      </trkpt>
      <trkpt lat="38.3490720" lon="-0.4745540">
        <ele>36.0</ele>
        <time>2022-08-30T08:27:47Z</time>
      </trkpt>
      <trkpt lat="38.3491050" lon="-0.4745310">
        <ele>36.0</ele>
        <time>2022-08-30T08:27:48Z</time>
      </trkpt>
      <trkpt lat="38.3491180" lon="-0.4745270">
        <ele>36.2</ele>
        <time>2022-08-30T08:27:49Z</time>
      </trkpt>
      <trkpt lat="38.3491330" lon="-0.4745140">
        <ele>36.2</ele>
        <time>2022-08-30T08:27:50Z</time>
      </trkpt>
      <trkpt lat="38.3491900" lon="-0.4745120">
        <ele>36.4</ele>
        <time>2022-08-30T08:27:52Z</time>
      </trkpt>
      <trkpt lat="38.3492080" lon="-0.4745180">
        <ele>36.4</ele>
        <time>2022-08-30T08:27:53Z</time>
      </trkpt>
      <trkpt lat="38.3492460" lon="-0.4745500">
        <ele>36.8</ele>
        <time>2022-08-30T08:28:01Z</time>
      </trkpt>
      <trkpt lat="38.3492630" lon="-0.4745310">
        <ele>36.8</ele>
        <time>2022-08-30T08:28:02Z</time>
      </trkpt>
      <trkpt lat="38.3492680" lon="-0.4745550">
        <ele>36.8</ele>
        <time>2022-08-30T08:28:03Z</time>
      </trkpt>
      <trkpt lat="38.3493220" lon="-0.4745580">
        <ele>37.2</ele>
        <time>2022-08-30T08:28:05Z</time>
      </trkpt>
      <trkpt lat="38.3494160" lon="-0.4744730">
        <ele>37.4</ele>
        <time>2022-08-30T08:28:06Z</time>
      </trkpt>
      <trkpt lat="38.3494570" lon="-0.4745120">
        <ele>37.6</ele>
        <time>2022-08-30T08:28:08Z</time>
      </trkpt>
      <trkpt lat="38.3494520" lon="-0.4745560">
        <ele>37.8</ele>
        <time>2022-08-30T08:28:09Z</time>
      </trkpt>
      <trkpt lat="38.3494460" lon="-0.4746040">
        <ele>38.2</ele>
        <time>2022-08-30T08:28:11Z</time>
      </trkpt>
      <trkpt lat="38.3494650" lon="-0.4745930">
        <ele>38.4</ele>
        <time>2022-08-30T08:28:12Z</time>
      </trkpt>
      <trkpt lat="38.3495990" lon="-0.4744730">
        <ele>39.0</ele>
        <time>2022-08-30T08:28:15Z</time>
      </trkpt>
      <trkpt lat="38.3496920" lon="-0.4744380">
        <ele>39.0</ele>
        <time>2022-08-30T08:28:16Z</time>
      </trkpt>
      <trkpt lat="38.3497880" lon="-0.4744150">
        <ele>39.2</ele>
        <time>2022-08-30T08:28:17Z</time>
      </trkpt>
      <trkpt lat="38.3498830" lon="-0.4743960">
        <ele>39.4</ele>
        <time>2022-08-30T08:28:18Z</time>
      </trkpt>
      <trkpt lat="38.3504720" lon="-0.4740210">
        <ele>39.6</ele>
        <time>2022-08-30T08:28:21Z</time>
      </trkpt>
      <trkpt lat="38.3507710" lon="-0.4739230">
        <ele>39.8</ele>
        <time>2022-08-30T08:28:26Z</time>
      </trkpt>
      <trkpt lat="38.3508820" lon="-0.4739020">
        <ele>40.2</ele>
        <time>2022-08-30T08:28:28Z</time>
      </trkpt>
      <trkpt lat="38.3510240" lon="-0.4738710">
        <ele>40.4</ele>
        <time>2022-08-30T08:28:31Z</time>
      </trkpt>
      <trkpt lat="38.3511500" lon="-0.4739030">
        <ele>40.4</ele>
        <time>2022-08-30T08:28:33Z</time>
      </trkpt>
      <trkpt lat="38.3512420" lon="-0.4740460">
        <ele>40.6</ele>
        <time>2022-08-30T08:28:35Z</time>
      </trkpt>
      <trkpt lat="38.3513500" lon="-0.4741680">
        <ele>40.8</ele>
        <time>2022-08-30T08:28:38Z</time>
      </trkpt>
      <trkpt lat="38.3514280" lon="-0.4742480">
        <ele>41.0</ele>
        <time>2022-08-30T08:28:40Z</time>
      </trkpt>
      <trkpt lat="38.3514660" lon="-0.4742830">
        <ele>41.4</ele>
        <time>2022-08-30T08:28:41Z</time>
      </trkpt>
      <trkpt lat="38.3514870" lon="-0.4743310">
        <ele>41.6</ele>
        <time>2022-08-30T08:28:42Z</time>
      </trkpt>
      <trkpt lat="38.3515120" lon="-0.4743880">
        <ele>41.8</ele>
        <time>2022-08-30T08:28:43Z</time>
      </trkpt>
      <trkpt lat="38.3515280" lon="-0.4744300">
        <ele>42.2</ele>
        <time>2022-08-30T08:28:44Z</time>
      </trkpt>
      <trkpt lat="38.3515450" lon="-0.4744530">
        <ele>42.4</ele>
        <time>2022-08-30T08:28:45Z</time>
      </trkpt>
      <trkpt lat="38.3515710" lon="-0.4744900">
        <ele>42.8</ele>
        <time>2022-08-30T08:28:46Z</time>
      </trkpt>
      <trkpt lat="38.3516210" lon="-0.4746540">
        <ele>43.6</ele>
        <time>2022-08-30T08:28:49Z</time>
      </trkpt>
      <trkpt lat="38.3516820" lon="-0.4747340">
        <ele>44.4</ele>
        <time>2022-08-30T08:28:51Z</time>
      </trkpt>
      <trkpt lat="38.3517470" lon="-0.4748010">
        <ele>45.2</ele>
        <time>2022-08-30T08:28:53Z</time>
      </trkpt>
      <trkpt lat="38.3517830" lon="-0.4748940">
        <ele>45.8</ele>
        <time>2022-08-30T08:28:55Z</time>
      </trkpt>
      <trkpt lat="38.3518110" lon="-0.4749350">
        <ele>46.0</ele>
        <time>2022-08-30T08:28:56Z</time>
      </trkpt>
      <trkpt lat="38.3518450" lon="-0.4749420">
        <ele>46.4</ele>
        <time>2022-08-30T08:28:57Z</time>
      </trkpt>
      <trkpt lat="38.3519020" lon="-0.4749840">
        <ele>46.8</ele>
        <time>2022-08-30T08:28:59Z</time>
      </trkpt>
      <trkpt lat="38.3519620" lon="-0.4750540">
        <ele>47.4</ele>
        <time>2022-08-30T08:29:01Z</time>
      </trkpt>
      <trkpt lat="38.3519910" lon="-0.4750940">
        <ele>48.0</ele>
        <time>2022-08-30T08:29:02Z</time>
      </trkpt>
      <trkpt lat="38.3520190" lon="-0.4751340">
        <ele>48.2</ele>
        <time>2022-08-30T08:29:03Z</time>
      </trkpt>
      <trkpt lat="38.3520430" lon="-0.4751850">
        <ele>48.6</ele>
        <time>2022-08-30T08:29:04Z</time>
      </trkpt>
      <trkpt lat="38.3520630" lon="-0.4752210">
        <ele>48.8</ele>
        <time>2022-08-30T08:29:05Z</time>
      </trkpt>
      <trkpt lat="38.3520840" lon="-0.4752440">
        <ele>49.4</ele>
        <time>2022-08-30T08:29:06Z</time>
      </trkpt>
      <trkpt lat="38.3521080" lon="-0.4752630">
        <ele>49.6</ele>
        <time>2022-08-30T08:29:07Z</time>
      </trkpt>
      <trkpt lat="38.3522390" lon="-0.4753160">
        <ele>50.6</ele>
        <time>2022-08-30T08:29:10Z</time>
      </trkpt>
      <trkpt lat="38.3523120" lon="-0.4753600">
        <ele>51.2</ele>
        <time>2022-08-30T08:29:12Z</time>
      </trkpt>
      <trkpt lat="38.3523440" lon="-0.4753770">
        <ele>51.8</ele>
        <time>2022-08-30T08:29:13Z</time>
      </trkpt>
      <trkpt lat="38.3524290" lon="-0.4754840">
        <ele>52.2</ele>
        <time>2022-08-30T08:29:16Z</time>
      </trkpt>
      <trkpt lat="38.3524410" lon="-0.4755260">
        <ele>52.4</ele>
        <time>2022-08-30T08:29:17Z</time>
      </trkpt>
      <trkpt lat="38.3524440" lon="-0.4755650">
        <ele>52.6</ele>
        <time>2022-08-30T08:29:18Z</time>
      </trkpt>
      <trkpt lat="38.3524260" lon="-0.4757010">
        <ele>52.8</ele>
        <time>2022-08-30T08:29:20Z</time>
      </trkpt>
      <trkpt lat="38.3523920" lon="-0.4758430">
        <ele>53.4</ele>
        <time>2022-08-30T08:29:22Z</time>
      </trkpt>
      <trkpt lat="38.3523950" lon="-0.4759270">
        <ele>54.0</ele>
        <time>2022-08-30T08:29:24Z</time>
      </trkpt>
      <trkpt lat="38.3524280" lon="-0.4760210">
        <ele>54.8</ele>
        <time>2022-08-30T08:29:27Z</time>
      </trkpt>
      <trkpt lat="38.3524350" lon="-0.4760400">
        <ele>55.2</ele>
        <time>2022-08-30T08:29:28Z</time>
      </trkpt>
      <trkpt lat="38.3524270" lon="-0.4761450">
        <ele>56.4</ele>
        <time>2022-08-30T08:29:31Z</time>
      </trkpt>
      <trkpt lat="38.3524260" lon="-0.4761570">
        <ele>56.6</ele>
        <time>2022-08-30T08:29:32Z</time>
      </trkpt>
      <trkpt lat="38.3523910" lon="-0.4763870">
        <ele>58.2</ele>
        <time>2022-08-30T08:29:56Z</time>
      </trkpt>
      <trkpt lat="38.3523950" lon="-0.4764020">
        <ele>58.2</ele>
        <time>2022-08-30T08:29:57Z</time>
      </trkpt>
      <trkpt lat="38.3523970" lon="-0.4764450">
        <ele>58.2</ele>
        <time>2022-08-30T08:29:59Z</time>
      </trkpt>
      <trkpt lat="38.3524010" lon="-0.4764700">
        <ele>58.4</ele>
        <time>2022-08-30T08:30:00Z</time>
      </trkpt>
      <trkpt lat="38.3524320" lon="-0.4765480">
        <ele>58.6</ele>
        <time>2022-08-30T08:30:03Z</time>
      </trkpt>
      <trkpt lat="38.3524440" lon="-0.4765820">
        <ele>58.6</ele>
        <time>2022-08-30T08:30:04Z</time>
      </trkpt>
      <trkpt lat="38.3524660" lon="-0.4766200">
        <ele>58.8</ele>
        <time>2022-08-30T08:30:05Z</time>
      </trkpt>
      <trkpt lat="38.3524990" lon="-0.4767410">
        <ele>59.4</ele>
        <time>2022-08-30T08:30:07Z</time>
      </trkpt>
      <trkpt lat="38.3525180" lon="-0.4767970">
        <ele>59.4</ele>
        <time>2022-08-30T08:30:08Z</time>
      </trkpt>
      <trkpt lat="38.3524850" lon="-0.4768530">
        <ele>59.6</ele>
        <time>2022-08-30T08:30:09Z</time>
      </trkpt>
      <trkpt lat="38.3525100" lon="-0.4769600">
        <ele>59.8</ele>
        <time>2022-08-30T08:30:11Z</time>
      </trkpt>
      <trkpt lat="38.3525320" lon="-0.4770570">
        <ele>60.4</ele>
        <time>2022-08-30T08:30:13Z</time>
      </trkpt>
      <trkpt lat="38.3525440" lon="-0.4771180">
        <ele>61.2</ele>
        <time>2022-08-30T08:30:14Z</time>
      </trkpt>
      <trkpt lat="38.3525710" lon="-0.4773500">
        <ele>62.2</ele>
        <time>2022-08-30T08:30:18Z</time>
      </trkpt>
      <trkpt lat="38.3525740" lon="-0.4774160">
        <ele>62.4</ele>
        <time>2022-08-30T08:30:19Z</time>
      </trkpt>
      <trkpt lat="38.3525160" lon="-0.4776190">
        <ele>62.8</ele>
        <time>2022-08-30T08:30:22Z</time>
      </trkpt>
      <trkpt lat="38.3525240" lon="-0.4776610">
        <ele>63.2</ele>
        <time>2022-08-30T08:30:23Z</time>
      </trkpt>
      <trkpt lat="38.3524870" lon="-0.4777500">
        <ele>63.6</ele>
        <time>2022-08-30T08:30:25Z</time>
      </trkpt>
      <trkpt lat="38.3524480" lon="-0.4778620">
        <ele>63.8</ele>
        <time>2022-08-30T08:30:27Z</time>
      </trkpt>
      <trkpt lat="38.3524420" lon="-0.4778930">
        <ele>63.8</ele>
        <time>2022-08-30T08:30:28Z</time>
      </trkpt>
      <trkpt lat="38.3524410" lon="-0.4779260">
        <ele>63.8</ele>
        <time>2022-08-30T08:30:29Z</time>
      </trkpt>
      <trkpt lat="38.3524470" lon="-0.4780270">
        <ele>63.8</ele>
        <time>2022-08-30T08:30:31Z</time>
      </trkpt>
      <trkpt lat="38.3524340" lon="-0.4786020">
        <ele>62.4</ele>
        <time>2022-08-30T08:31:01Z</time>
      </trkpt>
      <trkpt lat="38.3524310" lon="-0.4786300">
        <ele>62.4</ele>
        <time>2022-08-30T08:31:02Z</time>
      </trkpt>
      <trkpt lat="38.3524270" lon="-0.4787330">
        <ele>62.4</ele>
        <time>2022-08-30T08:31:04Z</time>
      </trkpt>
      <trkpt lat="38.3524250" lon="-0.4787830">
        <ele>62.4</ele>
        <time>2022-08-30T08:31:05Z</time>
      </trkpt>
      <trkpt lat="38.3524200" lon="-0.4789050">
        <ele>62.4</ele>
        <time>2022-08-30T08:31:07Z</time>
      </trkpt>
      <trkpt lat="38.3524290" lon="-0.4789750">
        <ele>62.4</ele>
        <time>2022-08-30T08:31:08Z</time>
      </trkpt>
      <trkpt lat="38.3524470" lon="-0.4791780">
        <ele>62.2</ele>
        <time>2022-08-30T08:31:10Z</time>
      </trkpt>
      <trkpt lat="38.3524470" lon="-0.4793430">
        <ele>62.2</ele>
        <time>2022-08-30T08:31:12Z</time>
      </trkpt>
      <trkpt lat="38.3524240" lon="-0.4795990">
        <ele>62.0</ele>
        <time>2022-08-30T08:31:15Z</time>
      </trkpt>
      <trkpt lat="38.3524000" lon="-0.4796830">
        <ele>61.8</ele>
        <time>2022-08-30T08:31:16Z</time>
      </trkpt>
      <trkpt lat="38.3523150" lon="-0.4799150">
        <ele>61.8</ele>
        <time>2022-08-30T08:31:19Z</time>
      </trkpt>
      <trkpt lat="38.3522440" lon="-0.4800600">
        <ele>61.8</ele>
        <time>2022-08-30T08:31:21Z</time>
      </trkpt>
      <trkpt lat="38.3521730" lon="-0.4801820">
        <ele>61.8</ele>
        <time>2022-08-30T08:31:23Z</time>
      </trkpt>
      <trkpt lat="38.3521420" lon="-0.4803870">
        <ele>61.6</ele>
        <time>2022-08-30T08:31:26Z</time>
      </trkpt>
      <trkpt lat="38.3521080" lon="-0.4804580">
        <ele>61.6</ele>
        <time>2022-08-30T08:31:28Z</time>
      </trkpt>
      <trkpt lat="38.3520340" lon="-0.4804930">
        <ele>61.6</ele>
        <time>2022-08-30T08:31:31Z</time>
      </trkpt>
      <trkpt lat="38.3520160" lon="-0.4805230">
        <ele>61.4</ele>
        <time>2022-08-30T08:31:32Z</time>
      </trkpt>
      <trkpt lat="38.3519920" lon="-0.4805590">
        <ele>61.4</ele>
        <time>2022-08-30T08:31:33Z</time>
      </trkpt>
      <trkpt lat="38.3519630" lon="-0.4806030">
        <ele>61.4</ele>
        <time>2022-08-30T08:31:34Z</time>
      </trkpt>
      <trkpt lat="38.3518930" lon="-0.4806990">
        <ele>61.4</ele>
        <time>2022-08-30T08:31:36Z</time>
      </trkpt>
      <trkpt lat="38.3518050" lon="-0.4807730">
        <ele>61.4</ele>
        <time>2022-08-30T08:31:38Z</time>
      </trkpt>
      <trkpt lat="38.3516490" lon="-0.4808670">
        <ele>61.8</ele>
        <time>2022-08-30T08:31:41Z</time>
      </trkpt>
      <trkpt lat="38.3515390" lon="-0.4809390">
        <ele>62.0</ele>
        <time>2022-08-30T08:31:43Z</time>
      </trkpt>
      <trkpt lat="38.3514230" lon="-0.4810200">
        <ele>62.6</ele>
        <time>2022-08-30T08:31:45Z</time>
      </trkpt>
      <trkpt lat="38.3513640" lon="-0.4810600">
        <ele>63.2</ele>
        <time>2022-08-30T08:31:46Z</time>
      </trkpt>
      <trkpt lat="38.3512380" lon="-0.4811340">
        <ele>64.0</ele>
        <time>2022-08-30T08:31:48Z</time>
      </trkpt>
      <trkpt lat="38.3510030" lon="-0.4813060">
        <ele>65.4</ele>
        <time>2022-08-30T08:31:52Z</time>
      </trkpt>
      <trkpt lat="38.3509040" lon="-0.4813780">
        <ele>65.8</ele>
        <time>2022-08-30T08:31:54Z</time>
      </trkpt>
      <trkpt lat="38.3505740" lon="-0.4815990">
        <ele>65.8</ele>
        <time>2022-08-30T08:32:00Z</time>
      </trkpt>
      <trkpt lat="38.3505170" lon="-0.4816410">
        <ele>65.8</ele>
        <time>2022-08-30T08:32:01Z</time>
      </trkpt>
      <trkpt lat="38.3504650" lon="-0.4816900">
        <ele>65.6</ele>
        <time>2022-08-30T08:32:02Z</time>
      </trkpt>
      <trkpt lat="38.3504150" lon="-0.4817530">
        <ele>65.6</ele>
        <time>2022-08-30T08:32:03Z</time>
      </trkpt>
      <trkpt lat="38.3503270" lon="-0.4818960">
        <ele>65.4</ele>
        <time>2022-08-30T08:32:05Z</time>
      </trkpt>
      <trkpt lat="38.3502920" lon="-0.4819680">
        <ele>65.2</ele>
        <time>2022-08-30T08:32:06Z</time>
      </trkpt>
      <trkpt lat="38.3501850" lon="-0.4821960">
        <ele>64.6</ele>
        <time>2022-08-30T08:32:09Z</time>
      </trkpt>
      <trkpt lat="38.3501430" lon="-0.4822740">
        <ele>64.2</ele>
        <time>2022-08-30T08:32:10Z</time>
      </trkpt>
      <trkpt lat="38.3500490" lon="-0.4824240">
        <ele>64.0</ele>
        <time>2022-08-30T08:32:12Z</time>
      </trkpt>
      <trkpt lat="38.3499370" lon="-0.4825670">
        <ele>63.4</ele>
        <time>2022-08-30T08:32:14Z</time>
      </trkpt>
      <trkpt lat="38.3498890" lon="-0.4826170">
        <ele>63.0</ele>
        <time>2022-08-30T08:32:15Z</time>
      </trkpt>
      <trkpt lat="38.3498450" lon="-0.4826560">
        <ele>62.8</ele>
        <time>2022-08-30T08:32:16Z</time>
      </trkpt>
      <trkpt lat="38.3496820" lon="-0.4827640">
        <ele>61.8</ele>
        <time>2022-08-30T08:32:19Z</time>
      </trkpt>
      <trkpt lat="38.3496260" lon="-0.4828000">
        <ele>61.6</ele>
        <time>2022-08-30T08:32:20Z</time>
      </trkpt>
      <trkpt lat="38.3495200" lon="-0.4828680">
        <ele>61.2</ele>
        <time>2022-08-30T08:32:22Z</time>
      </trkpt>
      <trkpt lat="38.3493700" lon="-0.4829670">
        <ele>60.6</ele>
        <time>2022-08-30T08:32:25Z</time>
      </trkpt>
      <trkpt lat="38.3493220" lon="-0.4830010">
        <ele>60.4</ele>
        <time>2022-08-30T08:32:26Z</time>
      </trkpt>
      <trkpt lat="38.3491640" lon="-0.4830920">
        <ele>59.2</ele>
        <time>2022-08-30T08:32:29Z</time>
      </trkpt>
      <trkpt lat="38.3489930" lon="-0.4831810">
        <ele>58.0</ele>
        <time>2022-08-30T08:32:32Z</time>
      </trkpt>
      <trkpt lat="38.3488770" lon="-0.4832850">
        <ele>57.0</ele>
        <time>2022-08-30T08:32:34Z</time>
      </trkpt>
      <trkpt lat="38.3487680" lon="-0.4834170">
        <ele>55.8</ele>
        <time>2022-08-30T08:32:36Z</time>
      </trkpt>
      <trkpt lat="38.3487200" lon="-0.4834980">
        <ele>55.4</ele>
        <time>2022-08-30T08:32:37Z</time>
      </trkpt>
      <trkpt lat="38.3486140" lon="-0.4836750">
        <ele>54.0</ele>
        <time>2022-08-30T08:32:39Z</time>
      </trkpt>
      <trkpt lat="38.3485550" lon="-0.4837680">
        <ele>53.4</ele>
        <time>2022-08-30T08:32:40Z</time>
      </trkpt>
      <trkpt lat="38.3485000" lon="-0.4838560">
        <ele>53.0</ele>
        <time>2022-08-30T08:32:41Z</time>
      </trkpt>
      <trkpt lat="38.3484120" lon="-0.4840060">
        <ele>51.6</ele>
        <time>2022-08-30T08:32:43Z</time>
      </trkpt>
      <trkpt lat="38.3483700" lon="-0.4841030">
        <ele>50.0</ele>
        <time>2022-08-30T08:32:44Z</time>
      </trkpt>
      <trkpt lat="38.3483410" lon="-0.4841860">
        <ele>49.4</ele>
        <time>2022-08-30T08:32:45Z</time>
      </trkpt>
      <trkpt lat="38.3483180" lon="-0.4842510">
        <ele>49.0</ele>
        <time>2022-08-30T08:32:46Z</time>
      </trkpt>
      <trkpt lat="38.3482490" lon="-0.4844550">
        <ele>47.2</ele>
        <time>2022-08-30T08:32:49Z</time>
      </trkpt>
      <trkpt lat="38.3482300" lon="-0.4845020">
        <ele>47.2</ele>
        <time>2022-08-30T08:32:50Z</time>
      </trkpt>
      <trkpt lat="38.3482160" lon="-0.4845390">
        <ele>46.2</ele>
        <time>2022-08-30T08:32:51Z</time>
      </trkpt>
      <trkpt lat="38.3482100" lon="-0.4845830">
        <ele>45.0</ele>
        <time>2022-08-30T08:32:53Z</time>
      </trkpt>
      <trkpt lat="38.3482100" lon="-0.4845890">
        <ele>43.8</ele>
        <time>2022-08-30T08:32:55Z</time>
      </trkpt>
      <trkpt lat="38.3482270" lon="-0.4846310">
        <ele>43.0</ele>
        <time>2022-08-30T08:32:58Z</time>
      </trkpt>
      <trkpt lat="38.3482400" lon="-0.4846480">
        <ele>42.8</ele>
        <time>2022-08-30T08:32:59Z</time>
      </trkpt>
      <trkpt lat="38.3482560" lon="-0.4846560">
        <ele>42.6</ele>
        <time>2022-08-30T08:33:00Z</time>
      </trkpt>
      <trkpt lat="38.3482540" lon="-0.4846660">
        <ele>42.4</ele>
        <time>2022-08-30T08:33:02Z</time>
      </trkpt>
      <trkpt lat="38.3482350" lon="-0.4846770">
        <ele>42.2</ele>
        <time>2022-08-30T08:33:03Z</time>
      </trkpt>
      <trkpt lat="38.3482170" lon="-0.4846870">
        <ele>42.0</ele>
        <time>2022-08-30T08:33:04Z</time>
      </trkpt>
      <trkpt lat="38.3481990" lon="-0.4847070">
        <ele>41.8</ele>
        <time>2022-08-30T08:33:06Z</time>
      </trkpt>
      <trkpt lat="38.3481960" lon="-0.4847100">
        <ele>41.6</ele>
        <time>2022-08-30T08:33:08Z</time>
      </trkpt>
      <trkpt lat="38.3481890" lon="-0.4847230">
        <ele>41.4</ele>
        <time>2022-08-30T08:33:10Z</time>
      </trkpt>
      <trkpt lat="38.3481850" lon="-0.4847540">
        <ele>41.4</ele>
        <time>2022-08-30T08:33:11Z</time>
      </trkpt>
      <trkpt lat="38.3481700" lon="-0.4848690">
        <ele>41.4</ele>
        <time>2022-08-30T08:33:12Z</time>
      </trkpt>
      <trkpt lat="38.3481500" lon="-0.4849540">
        <ele>41.2</ele>
        <time>2022-08-30T08:33:13Z</time>
      </trkpt>
      <trkpt lat="38.3479430" lon="-0.4852060">
        <ele>41.2</ele>
        <time>2022-08-30T08:33:16Z</time>
      </trkpt>
      <trkpt lat="38.3479030" lon="-0.4853580">
        <ele>41.0</ele>
        <time>2022-08-30T08:33:18Z</time>
      </trkpt>
      <trkpt lat="38.3478620" lon="-0.4855370">
        <ele>40.8</ele>
        <time>2022-08-30T08:33:20Z</time>
      </trkpt>
      <trkpt lat="38.3478440" lon="-0.4855930">
        <ele>40.6</ele>
        <time>2022-08-30T08:33:21Z</time>
      </trkpt>
      <trkpt lat="38.3478290" lon="-0.4856450">
        <ele>40.2</ele>
        <time>2022-08-30T08:33:23Z</time>
      </trkpt>
      <trkpt lat="38.3478450" lon="-0.4857130">
        <ele>39.6</ele>
        <time>2022-08-30T08:33:26Z</time>
      </trkpt>
      <trkpt lat="38.3478750" lon="-0.4857180">
        <ele>39.6</ele>
        <time>2022-08-30T08:33:27Z</time>
      </trkpt>
      <trkpt lat="38.3478230" lon="-0.4858530">
        <ele>39.4</ele>
        <time>2022-08-30T08:33:29Z</time>
      </trkpt>
      <trkpt lat="38.3477800" lon="-0.4859490">
        <ele>39.4</ele>
        <time>2022-08-30T08:33:30Z</time>
      </trkpt>
      <trkpt lat="38.3476940" lon="-0.4862170">
        <ele>38.6</ele>
        <time>2022-08-30T08:33:34Z</time>
      </trkpt>
      <trkpt lat="38.3476700" lon="-0.4862790">
        <ele>38.4</ele>
        <time>2022-08-30T08:33:35Z</time>
      </trkpt>
      <trkpt lat="38.3475210" lon="-0.4865750">
        <ele>37.4</ele>
        <time>2022-08-30T08:33:40Z</time>
      </trkpt>
      <trkpt lat="38.3474950" lon="-0.4866880">
        <ele>37.2</ele>
        <time>2022-08-30T08:33:42Z</time>
      </trkpt>
      <trkpt lat="38.3474630" lon="-0.4867990">
        <ele>37.2</ele>
        <time>2022-08-30T08:33:44Z</time>
      </trkpt>
      <trkpt lat="38.3474030" lon="-0.4869550">
        <ele>37.0</ele>
        <time>2022-08-30T08:33:47Z</time>
      </trkpt>
      <trkpt lat="38.3473780" lon="-0.4870450">
        <ele>37.0</ele>
        <time>2022-08-30T08:33:49Z</time>
      </trkpt>
      <trkpt lat="38.3473530" lon="-0.4871360">
        <ele>37.0</ele>
        <time>2022-08-30T08:33:51Z</time>
      </trkpt>
      <trkpt lat="38.3473040" lon="-0.4872610">
        <ele>37.0</ele>
        <time>2022-08-30T08:33:53Z</time>
      </trkpt>
      <trkpt lat="38.3472690" lon="-0.4873270">
        <ele>37.0</ele>
        <time>2022-08-30T08:33:54Z</time>
      </trkpt>
      <trkpt lat="38.3472210" lon="-0.4874260">
        <ele>37.0</ele>
        <time>2022-08-30T08:33:56Z</time>
      </trkpt>
      <trkpt lat="38.3472100" lon="-0.4874790">
        <ele>37.0</ele>
        <time>2022-08-30T08:33:57Z</time>
      </trkpt>
      <trkpt lat="38.3472060" lon="-0.4875170">
        <ele>37.0</ele>
        <time>2022-08-30T08:33:58Z</time>
      </trkpt>
      <trkpt lat="38.3472000" lon="-0.4875460">
        <ele>37.2</ele>
        <time>2022-08-30T08:33:59Z</time>
      </trkpt>
      <trkpt lat="38.3471400" lon="-0.4876580">
        <ele>37.2</ele>
        <time>2022-08-30T08:34:02Z</time>
      </trkpt>
      <trkpt lat="38.3471160" lon="-0.4876960">
        <ele>37.2</ele>
        <time>2022-08-30T08:34:03Z</time>
      </trkpt>
      <trkpt lat="38.3470930" lon="-0.4877460">
        <ele>37.4</ele>
        <time>2022-08-30T08:34:05Z</time>
      </trkpt>
      <trkpt lat="38.3470860" lon="-0.4878050">
        <ele>37.4</ele>
        <time>2022-08-30T08:34:07Z</time>
      </trkpt>
      <trkpt lat="38.3470430" lon="-0.4878680">
        <ele>37.8</ele>
        <time>2022-08-30T08:34:09Z</time>
      </trkpt>
      <trkpt lat="38.3469990" lon="-0.4879340">
        <ele>38.0</ele>
        <time>2022-08-30T08:34:11Z</time>
      </trkpt>
      <trkpt lat="38.3469470" lon="-0.4880450">
        <ele>38.0</ele>
        <time>2022-08-30T08:34:13Z</time>
      </trkpt>
      <trkpt lat="38.3468370" lon="-0.4882430">
        <ele>38.0</ele>
        <time>2022-08-30T08:34:15Z</time>
      </trkpt>
      <trkpt lat="38.3467990" lon="-0.4884700">
        <ele>38.2</ele>
        <time>2022-08-30T08:34:17Z</time>
      </trkpt>
      <trkpt lat="38.3467800" lon="-0.4885640">
        <ele>38.2</ele>
        <time>2022-08-30T08:34:18Z</time>
      </trkpt>
      <trkpt lat="38.3467050" lon="-0.4887690">
        <ele>38.4</ele>
        <time>2022-08-30T08:34:22Z</time>
      </trkpt>
      <trkpt lat="38.3466850" lon="-0.4888230">
        <ele>38.6</ele>
        <time>2022-08-30T08:34:23Z</time>
      </trkpt>
      <trkpt lat="38.3466650" lon="-0.4889290">
        <ele>38.8</ele>
        <time>2022-08-30T08:34:25Z</time>
      </trkpt>
      <trkpt lat="38.3465850" lon="-0.4891310">
        <ele>39.6</ele>
        <time>2022-08-30T08:34:28Z</time>
      </trkpt>
      <trkpt lat="38.3465340" lon="-0.4893430">
        <ele>39.8</ele>
        <time>2022-08-30T08:34:30Z</time>
      </trkpt>
      <trkpt lat="38.3465160" lon="-0.4894130">
        <ele>40.0</ele>
        <time>2022-08-30T08:34:31Z</time>
      </trkpt>
      <trkpt lat="38.3464600" lon="-0.4896190">
        <ele>40.2</ele>
        <time>2022-08-30T08:34:34Z</time>
      </trkpt>
      <trkpt lat="38.3463550" lon="-0.4897550">
        <ele>40.6</ele>
        <time>2022-08-30T08:34:37Z</time>
      </trkpt>
      <trkpt lat="38.3463100" lon="-0.4898370">
        <ele>40.6</ele>
        <time>2022-08-30T08:34:39Z</time>
      </trkpt>
      <trkpt lat="38.3462290" lon="-0.4899520">
        <ele>41.2</ele>
        <time>2022-08-30T08:34:41Z</time>
      </trkpt>
      <trkpt lat="38.3461460" lon="-0.4900960">
        <ele>41.4</ele>
        <time>2022-08-30T08:34:43Z</time>
      </trkpt>
      <trkpt lat="38.3461130" lon="-0.4901790">
        <ele>41.8</ele>
        <time>2022-08-30T08:34:46Z</time>
      </trkpt>
      <trkpt lat="38.3460370" lon="-0.4902990">
        <ele>42.0</ele>
        <time>2022-08-30T08:34:49Z</time>
      </trkpt>
      <trkpt lat="38.3460070" lon="-0.4903330">
        <ele>42.2</ele>
        <time>2022-08-30T08:34:50Z</time>
      </trkpt>
      <trkpt lat="38.3459680" lon="-0.4903590">
        <ele>42.2</ele>
        <time>2022-08-30T08:34:51Z</time>
      </trkpt>
      <trkpt lat="38.3458750" lon="-0.4904040">
        <ele>42.2</ele>
        <time>2022-08-30T08:34:53Z</time>
      </trkpt>
      <trkpt lat="38.3458350" lon="-0.4904230">
        <ele>42.2</ele>
        <time>2022-08-30T08:34:54Z</time>
      </trkpt>
      <trkpt lat="38.3457880" lon="-0.4904340">
        <ele>42.2</ele>
        <time>2022-08-30T08:34:55Z</time>
      </trkpt>
      <trkpt lat="38.3457260" lon="-0.4904600">
        <ele>42.2</ele>
        <time>2022-08-30T08:34:57Z</time>
      </trkpt>
      <trkpt lat="38.3457150" lon="-0.4904700">
        <ele>41.8</ele>
        <time>2022-08-30T08:34:58Z</time>
      </trkpt>
      <trkpt lat="38.3457100" lon="-0.4905680">
        <ele>41.8</ele>
        <time>2022-08-30T08:35:00Z</time>
      </trkpt>
      <trkpt lat="38.3456980" lon="-0.4906500">
        <ele>41.8</ele>
        <time>2022-08-30T08:35:01Z</time>
      </trkpt>
      <trkpt lat="38.3456710" lon="-0.4907980">
        <ele>42.0</ele>
        <time>2022-08-30T08:35:03Z</time>
      </trkpt>
      <trkpt lat="38.3457000" lon="-0.4909920">
        <ele>42.2</ele>
        <time>2022-08-30T08:35:06Z</time>
      </trkpt>
      <trkpt lat="38.3457320" lon="-0.4910790">
        <ele>42.2</ele>
        <time>2022-08-30T08:35:08Z</time>
      </trkpt>
      <trkpt lat="38.3457310" lon="-0.4911610">
        <ele>42.2</ele>
        <time>2022-08-30T08:35:10Z</time>
      </trkpt>
      <trkpt lat="38.3457140" lon="-0.4912490">
        <ele>42.4</ele>
        <time>2022-08-30T08:35:13Z</time>
      </trkpt>
      <trkpt lat="38.3444660" lon="-0.4947880">
        <ele>41.0</ele>
        <time>2022-08-30T08:41:17Z</time>
      </trkpt>
      <trkpt lat="38.3444350" lon="-0.4947980">
        <ele>41.0</ele>
        <time>2022-08-30T08:41:18Z</time>
      </trkpt>
      <trkpt lat="38.3443940" lon="-0.4948010">
        <ele>41.0</ele>
        <time>2022-08-30T08:41:19Z</time>
      </trkpt>
      <trkpt lat="38.3443100" lon="-0.4947890">
        <ele>41.2</ele>
        <time>2022-08-30T08:41:21Z</time>
      </trkpt>
      <trkpt lat="38.3442610" lon="-0.4947810">
        <ele>41.2</ele>
        <time>2022-08-30T08:41:22Z</time>
      </trkpt>
      <trkpt lat="38.3440720" lon="-0.4947430">
        <ele>40.8</ele>
        <time>2022-08-30T08:41:26Z</time>
      </trkpt>
      <trkpt lat="38.3440040" lon="-0.4947370">
        <ele>40.6</ele>
        <time>2022-08-30T08:41:27Z</time>
      </trkpt>
      <trkpt lat="38.3437010" lon="-0.4946910">
        <ele>40.0</ele>
        <time>2022-08-30T08:41:32Z</time>
      </trkpt>
      <trkpt lat="38.3435190" lon="-0.4946940">
        <ele>39.8</ele>
        <time>2022-08-30T08:41:34Z</time>
      </trkpt>
      <trkpt lat="38.3433690" lon="-0.4946980">
        <ele>39.6</ele>
        <time>2022-08-30T08:41:35Z</time>
      </trkpt>
      <trkpt lat="38.3432460" lon="-0.4946940">
        <ele>39.4</ele>
        <time>2022-08-30T08:41:36Z</time>
      </trkpt>
      <trkpt lat="38.3431580" lon="-0.4946760">
        <ele>39.4</ele>
        <time>2022-08-30T08:41:37Z</time>
      </trkpt>
      <trkpt lat="38.3430220" lon="-0.4946530">
        <ele>39.0</ele>
        <time>2022-08-30T08:41:39Z</time>
      </trkpt>
      <trkpt lat="38.3429820" lon="-0.4945480">
        <ele>38.4</ele>
        <time>2022-08-30T08:41:41Z</time>
      </trkpt>
      <trkpt lat="38.3429410" lon="-0.4945080">
        <ele>38.2</ele>
        <time>2022-08-30T08:41:42Z</time>
      </trkpt>
      <trkpt lat="38.3428830" lon="-0.4944780">
        <ele>38.0</ele>
        <time>2022-08-30T08:41:43Z</time>
      </trkpt>
      <trkpt lat="38.3428070" lon="-0.4944540">
        <ele>37.8</ele>
        <time>2022-08-30T08:41:44Z</time>
      </trkpt>
      <trkpt lat="38.3426450" lon="-0.4944090">
        <ele>37.6</ele>
        <time>2022-08-30T08:41:46Z</time>
      </trkpt>
      <trkpt lat="38.3422290" lon="-0.4942830">
        <ele>36.8</ele>
        <time>2022-08-30T08:41:51Z</time>
      </trkpt>
      <trkpt lat="38.3418840" lon="-0.4941750">
        <ele>35.8</ele>
        <time>2022-08-30T08:41:55Z</time>
      </trkpt>
      <trkpt lat="38.3418020" lon="-0.4941490">
        <ele>35.6</ele>
        <time>2022-08-30T08:41:56Z</time>
      </trkpt>
      <trkpt lat="38.3413800" lon="-0.4940170">
        <ele>34.6</ele>
        <time>2022-08-30T08:42:01Z</time>
      </trkpt>
      <trkpt lat="38.3409890" lon="-0.4938990">
        <ele>34.0</ele>
        <time>2022-08-30T08:42:05Z</time>
      </trkpt>
      <trkpt lat="38.3408300" lon="-0.4938480">
        <ele>33.6</ele>
        <time>2022-08-30T08:42:07Z</time>
      </trkpt>
      <trkpt lat="38.3406730" lon="-0.4938000">
        <ele>33.0</ele>
        <time>2022-08-30T08:42:09Z</time>
      </trkpt>
      <trkpt lat="38.3384460" lon="-0.4941740">
        <ele>24.6</ele>
        <time>2022-08-30T08:43:45Z</time>
      </trkpt>
      <trkpt lat="38.3384370" lon="-0.4942080">
        <ele>24.6</ele>
        <time>2022-08-30T08:43:46Z</time>
      </trkpt>
      <trkpt lat="38.3384030" lon="-0.4943300">
        <ele>24.6</ele>
        <time>2022-08-30T08:43:48Z</time>
      </trkpt>
      <trkpt lat="38.3383800" lon="-0.4944640">
        <ele>24.8</ele>
        <time>2022-08-30T08:43:51Z</time>
      </trkpt>
      <trkpt lat="38.3383460" lon="-0.4946590">
        <ele>24.8</ele>
        <time>2022-08-30T08:43:55Z</time>
      </trkpt>
      <trkpt lat="38.3383380" lon="-0.4947110">
        <ele>24.8</ele>
        <time>2022-08-30T08:43:56Z</time>
      </trkpt>
      <trkpt lat="38.3383440" lon="-0.4948340">
        <ele>24.8</ele>
        <time>2022-08-30T08:43:58Z</time>
      </trkpt>
      <trkpt lat="38.3383150" lon="-0.4950470">
        <ele>24.8</ele>
        <time>2022-08-30T08:44:01Z</time>
      </trkpt>
      <trkpt lat="38.3383010" lon="-0.4951240">
        <ele>24.8</ele>
        <time>2022-08-30T08:44:02Z</time>
      </trkpt>
      <trkpt lat="38.3382760" lon="-0.4952780">
        <ele>24.8</ele>
        <time>2022-08-30T08:44:04Z</time>
      </trkpt>
      <trkpt lat="38.3382610" lon="-0.4953580">
        <ele>24.8</ele>
        <time>2022-08-30T08:44:05Z</time>
      </trkpt>
      <trkpt lat="38.3382330" lon="-0.4955250">
        <ele>25.0</ele>
        <time>2022-08-30T08:44:07Z</time>
      </trkpt>
      <trkpt lat="38.3382200" lon="-0.4956140">
        <ele>25.0</ele>
        <time>2022-08-30T08:44:08Z</time>
      </trkpt>
      <trkpt lat="38.3381950" lon="-0.4957890">
        <ele>25.0</ele>
        <time>2022-08-30T08:44:10Z</time>
      </trkpt>
      <trkpt lat="38.3381560" lon="-0.4960470">
        <ele>25.0</ele>
        <time>2022-08-30T08:44:13Z</time>
      </trkpt>
      <trkpt lat="38.3381280" lon="-0.4962330">
        <ele>25.2</ele>
        <time>2022-08-30T08:44:15Z</time>
      </trkpt>
      <trkpt lat="38.3380380" lon="-0.4967960">
        <ele>25.0</ele>
        <time>2022-08-30T08:44:21Z</time>
      </trkpt>
      <trkpt lat="38.3380030" lon="-0.4970830">
        <ele>25.0</ele>
        <time>2022-08-30T08:44:24Z</time>
      </trkpt>
      <trkpt lat="38.3379460" lon="-0.4974650">
        <ele>25.0</ele>
        <time>2022-08-30T08:44:28Z</time>
      </trkpt>
      <trkpt lat="38.3378700" lon="-0.4979560">
        <ele>25.0</ele>
        <time>2022-08-30T08:44:33Z</time>
      </trkpt>
      <trkpt lat="38.3377560" lon="-0.4986590">
        <ele>25.2</ele>
        <time>2022-08-30T08:44:40Z</time>
      </trkpt>
      <trkpt lat="38.3377020" lon="-0.4989640">
        <ele>25.2</ele>
        <time>2022-08-30T08:44:43Z</time>
      </trkpt>
      <trkpt lat="38.3375900" lon="-0.4996690">
        <ele>25.2</ele>
        <time>2022-08-30T08:44:50Z</time>
      </trkpt>
      <trkpt lat="38.3375510" lon="-0.4998670">
        <ele>25.0</ele>
        <time>2022-08-30T08:44:52Z</time>
      </trkpt>
      <trkpt lat="38.3375220" lon="-0.4999630">
        <ele>25.0</ele>
        <time>2022-08-30T08:44:53Z</time>
      </trkpt>
      <trkpt lat="38.3373850" lon="-0.5002330">
        <ele>25.0</ele>
        <time>2022-08-30T08:44:56Z</time>
      </trkpt>
      <trkpt lat="38.3370020" lon="-0.5007950">
        <ele>24.8</ele>
        <time>2022-08-30T08:45:03Z</time>
      </trkpt>
      <trkpt lat="38.3368360" lon="-0.5010430">
        <ele>24.4</ele>
        <time>2022-08-30T08:45:06Z</time>
      </trkpt>
      <trkpt lat="38.3364520" lon="-0.5016190">
        <ele>24.6</ele>
        <time>2022-08-30T08:45:13Z</time>
      </trkpt>
      <trkpt lat="38.3363400" lon="-0.5017810">
        <ele>24.4</ele>
        <time>2022-08-30T08:45:15Z</time>
      </trkpt>
      <trkpt lat="38.3361220" lon="-0.5021130">
        <ele>24.4</ele>
        <time>2022-08-30T08:45:19Z</time>
      </trkpt>
      <trkpt lat="38.3360100" lon="-0.5022720">
        <ele>24.2</ele>
        <time>2022-08-30T08:45:21Z</time>
      </trkpt>
      <trkpt lat="38.3356350" lon="-0.5028320">
        <ele>24.4</ele>
        <time>2022-08-30T08:45:28Z</time>
      </trkpt>
      <trkpt lat="38.3354720" lon="-0.5030700">
        <ele>24.2</ele>
        <time>2022-08-30T08:45:31Z</time>
      </trkpt>
      <trkpt lat="38.3350980" lon="-0.5036320">
        <ele>24.0</ele>
        <time>2022-08-30T08:45:38Z</time>
      </trkpt>
      <trkpt lat="38.3349390" lon="-0.5038690">
        <ele>24.2</ele>
        <time>2022-08-30T08:45:41Z</time>
      </trkpt>
      <trkpt lat="38.3345530" lon="-0.5044220">
        <ele>24.6</ele>
        <time>2022-08-30T08:45:48Z</time>
      </trkpt>
      <trkpt lat="38.3344950" lon="-0.5044970">
        <ele>24.6</ele>
        <time>2022-08-30T08:45:49Z</time>
      </trkpt>
      <trkpt lat="38.3340670" lon="-0.5049930">
        <ele>24.6</ele>
        <time>2022-08-30T08:45:56Z</time>
      </trkpt>
      <trkpt lat="38.3340040" lon="-0.5050590">
        <ele>24.4</ele>
        <time>2022-08-30T08:45:57Z</time>
      </trkpt>
      <trkpt lat="38.3337440" lon="-0.5053120">
        <ele>24.4</ele>
        <time>2022-08-30T08:46:01Z</time>
      </trkpt>
      <trkpt lat="38.3335990" lon="-0.5054280">
        <ele>24.2</ele>
        <time>2022-08-30T08:46:03Z</time>
      </trkpt>
      <trkpt lat="38.3330850" lon="-0.5057940">
        <ele>24.0</ele>
        <time>2022-08-30T08:46:10Z</time>
      </trkpt>
      <trkpt lat="38.3325810" lon="-0.5061540">
        <ele>24.0</ele>
        <time>2022-08-30T08:46:17Z</time>
      </trkpt>
      <trkpt lat="38.3324400" lon="-0.5062550">
        <ele>24.0</ele>
        <time>2022-08-30T08:46:19Z</time>
      </trkpt>
      <trkpt lat="38.3319490" lon="-0.5066290">
        <ele>24.0</ele>
        <time>2022-08-30T08:46:26Z</time>
      </trkpt>
      <trkpt lat="38.3317390" lon="-0.5067930">
        <ele>24.0</ele>
        <time>2022-08-30T08:46:29Z</time>
      </trkpt>
      <trkpt lat="38.3312330" lon="-0.5071720">
        <ele>24.0</ele>
        <time>2022-08-30T08:46:36Z</time>
      </trkpt>
      <trkpt lat="38.3311620" lon="-0.5072290">
        <ele>24.2</ele>
        <time>2022-08-30T08:46:37Z</time>
      </trkpt>
      <trkpt lat="38.3306990" lon="-0.5076610">
        <ele>24.0</ele>
        <time>2022-08-30T08:46:44Z</time>
      </trkpt>
      <trkpt lat="38.3303070" lon="-0.5080090">
        <ele>24.0</ele>
        <time>2022-08-30T08:46:50Z</time>
      </trkpt>
      <trkpt lat="38.3301080" lon="-0.5081680">
        <ele>24.0</ele>
        <time>2022-08-30T08:46:53Z</time>
      </trkpt>
      <trkpt lat="38.3296650" lon="-0.5085550">
        <ele>24.6</ele>
        <time>2022-08-30T08:47:00Z</time>
      </trkpt>
      <trkpt lat="38.3294700" lon="-0.5087180">
        <ele>24.8</ele>
        <time>2022-08-30T08:47:03Z</time>
      </trkpt>
      <trkpt lat="38.3291110" lon="-0.5090580">
        <ele>24.8</ele>
        <time>2022-08-30T08:47:09Z</time>
      </trkpt>
      <trkpt lat="38.3289970" lon="-0.5091620">
        <ele>24.6</ele>
        <time>2022-08-30T08:47:11Z</time>
      </trkpt>
      <trkpt lat="38.3288410" lon="-0.5093160">
        <ele>24.8</ele>
        <time>2022-08-30T08:47:14Z</time>
      </trkpt>
      <trkpt lat="38.3287110" lon="-0.5094500">
        <ele>24.8</ele>
        <time>2022-08-30T08:47:17Z</time>
      </trkpt>
      <trkpt lat="38.3284670" lon="-0.5097050">
        <ele>25.2</ele>
        <time>2022-08-30T08:47:22Z</time>
      </trkpt>
      <trkpt lat="38.3284180" lon="-0.5097600">
        <ele>25.4</ele>
        <time>2022-08-30T08:47:23Z</time>
      </trkpt>
      <trkpt lat="38.3283690" lon="-0.5098160">
        <ele>25.6</ele>
        <time>2022-08-30T08:47:24Z</time>
      </trkpt>
      <trkpt lat="38.3282230" lon="-0.5099730">
        <ele>26.0</ele>
        <time>2022-08-30T08:47:27Z</time>
      </trkpt>
      <trkpt lat="38.3281270" lon="-0.5100730">
        <ele>26.4</ele>
        <time>2022-08-30T08:47:29Z</time>
      </trkpt>
      <trkpt lat="38.3279880" lon="-0.5102100">
        <ele>27.0</ele>
        <time>2022-08-30T08:47:32Z</time>
      </trkpt>
      <trkpt lat="38.3279410" lon="-0.5102530">
        <ele>27.4</ele>
        <time>2022-08-30T08:47:33Z</time>
      </trkpt>
      <trkpt lat="38.3278370" lon="-0.5103300">
        <ele>28.0</ele>
        <time>2022-08-30T08:47:35Z</time>
      </trkpt>
      <trkpt lat="38.3277330" lon="-0.5104060">
        <ele>28.6</ele>
        <time>2022-08-30T08:47:37Z</time>
      </trkpt>
      <trkpt lat="38.3275740" lon="-0.5105240">
        <ele>29.4</ele>
        <time>2022-08-30T08:47:40Z</time>
      </trkpt>
      <trkpt lat="38.3274060" lon="-0.5106300">
        <ele>30.0</ele>
        <time>2022-08-30T08:47:43Z</time>
      </trkpt>
      <trkpt lat="38.3272770" lon="-0.5106920">
        <ele>30.4</ele>
        <time>2022-08-30T08:47:45Z</time>
      </trkpt>
      <trkpt lat="38.3269300" lon="-0.5108400">
        <ele>31.4</ele>
        <time>2022-08-30T08:47:51Z</time>
      </trkpt>
      <trkpt lat="38.3266990" lon="-0.5109290">
        <ele>32.0</ele>
        <time>2022-08-30T08:47:55Z</time>
      </trkpt>
      <trkpt lat="38.3265140" lon="-0.5109940">
        <ele>32.0</ele>
        <time>2022-08-30T08:47:58Z</time>
      </trkpt>
      <trkpt lat="38.3263920" lon="-0.5110410">
        <ele>32.0</ele>
        <time>2022-08-30T08:48:00Z</time>
      </trkpt>
      <trkpt lat="38.3262010" lon="-0.5111150">
        <ele>31.6</ele>
        <time>2022-08-30T08:48:03Z</time>
      </trkpt>
      <trkpt lat="38.3260040" lon="-0.5111880">
        <ele>31.2</ele>
        <time>2022-08-30T08:48:06Z</time>
      </trkpt>
      <trkpt lat="38.3258690" lon="-0.5112390">
        <ele>31.0</ele>
        <time>2022-08-30T08:48:08Z</time>
      </trkpt>
      <trkpt lat="38.3256770" lon="-0.5113170">
        <ele>30.4</ele>
        <time>2022-08-30T08:48:11Z</time>
      </trkpt>
      <trkpt lat="38.3253300" lon="-0.5114690">
        <ele>29.0</ele>
        <time>2022-08-30T08:48:16Z</time>
      </trkpt>
      <trkpt lat="38.3251040" lon="-0.5115680">
        <ele>28.6</ele>
        <time>2022-08-30T08:48:19Z</time>
      </trkpt>
      <trkpt lat="38.3249470" lon="-0.5116290">
        <ele>28.2</ele>
        <time>2022-08-30T08:48:21Z</time>
      </trkpt>
      <trkpt lat="38.3246250" lon="-0.5117570">
        <ele>26.8</ele>
        <time>2022-08-30T08:48:25Z</time>
      </trkpt>
      <trkpt lat="38.3245420" lon="-0.5117900">
        <ele>26.6</ele>
        <time>2022-08-30T08:48:26Z</time>
      </trkpt>
      <trkpt lat="38.3244590" lon="-0.5118230">
        <ele>26.4</ele>
        <time>2022-08-30T08:48:27Z</time>
      </trkpt>
      <trkpt lat="38.3242950" lon="-0.5118890">
        <ele>25.8</ele>
        <time>2022-08-30T08:48:29Z</time>
      </trkpt>
      <trkpt lat="38.3239840" lon="-0.5120010">
        <ele>25.4</ele>
        <time>2022-08-30T08:48:33Z</time>
      </trkpt>
      <trkpt lat="38.3236750" lon="-0.5121080">
        <ele>25.0</ele>
        <time>2022-08-30T08:48:37Z</time>
      </trkpt>
      <trkpt lat="38.3234420" lon="-0.5122060">
        <ele>25.0</ele>
        <time>2022-08-30T08:48:40Z</time>
      </trkpt>
      <trkpt lat="38.3228950" lon="-0.5124420">
        <ele>24.8</ele>
        <time>2022-08-30T08:48:47Z</time>
      </trkpt>
      <trkpt lat="38.3226530" lon="-0.5125420">
        <ele>24.8</ele>
        <time>2022-08-30T08:48:50Z</time>
      </trkpt>
      <trkpt lat="38.3220810" lon="-0.5127870">
        <ele>24.6</ele>
        <time>2022-08-30T08:48:57Z</time>
      </trkpt>
      <trkpt lat="38.3217590" lon="-0.5129300">
        <ele>24.6</ele>
        <time>2022-08-30T08:49:01Z</time>
      </trkpt>
      <trkpt lat="38.3212010" lon="-0.5131730">
        <ele>24.4</ele>
        <time>2022-08-30T08:49:08Z</time>
      </trkpt>
      <trkpt lat="38.3211210" lon="-0.5132060">
        <ele>24.4</ele>
        <time>2022-08-30T08:49:09Z</time>
      </trkpt>
      <trkpt lat="38.3205590" lon="-0.5134510">
        <ele>24.4</ele>
        <time>2022-08-30T08:49:16Z</time>
      </trkpt>
      <trkpt lat="38.3203970" lon="-0.5135190">
        <ele>24.4</ele>
        <time>2022-08-30T08:49:18Z</time>
      </trkpt>
      <trkpt lat="38.3198320" lon="-0.5137570">
        <ele>24.2</ele>
        <time>2022-08-30T08:49:25Z</time>
      </trkpt>
      <trkpt lat="38.3194290" lon="-0.5139270">
        <ele>24.4</ele>
        <time>2022-08-30T08:49:30Z</time>
      </trkpt>
      <trkpt lat="38.3190310" lon="-0.5140970">
        <ele>24.2</ele>
        <time>2022-08-30T08:49:35Z</time>
      </trkpt>
      <trkpt lat="38.3185480" lon="-0.5143080">
        <ele>24.2</ele>
        <time>2022-08-30T08:49:41Z</time>
      </trkpt>
      <trkpt lat="38.3184640" lon="-0.5143400">
        <ele>24.2</ele>
        <time>2022-08-30T08:49:42Z</time>
      </trkpt>
      <trkpt lat="38.3181160" lon="-0.5144710">
        <ele>24.4</ele>
        <time>2022-08-30T08:49:46Z</time>
      </trkpt>
      <trkpt lat="38.3178550" lon="-0.5145580">
        <ele>24.4</ele>
        <time>2022-08-30T08:49:49Z</time>
      </trkpt>
      <trkpt lat="38.3175060" lon="-0.5146780">
        <ele>24.4</ele>
        <time>2022-08-30T08:49:53Z</time>
      </trkpt>
      <trkpt lat="38.3169150" lon="-0.5148790">
        <ele>24.8</ele>
        <time>2022-08-30T08:50:00Z</time>
      </trkpt>
      <trkpt lat="38.3165830" lon="-0.5149970">
        <ele>25.0</ele>
        <time>2022-08-30T08:50:04Z</time>
      </trkpt>
      <trkpt lat="38.3159990" lon="-0.5151760">
        <ele>26.0</ele>
        <time>2022-08-30T08:50:11Z</time>
      </trkpt>
      <trkpt lat="38.3159160" lon="-0.5152020">
        <ele>26.0</ele>
        <time>2022-08-30T08:50:12Z</time>
      </trkpt>
      <trkpt lat="38.3153450" lon="-0.5154160">
        <ele>26.4</ele>
        <time>2022-08-30T08:50:19Z</time>
      </trkpt>
      <trkpt lat="38.3151870" lon="-0.5154860">
        <ele>26.4</ele>
        <time>2022-08-30T08:50:21Z</time>
      </trkpt>
      <trkpt lat="38.3148010" lon="-0.5156860">
        <ele>26.4</ele>
        <time>2022-08-30T08:50:26Z</time>
      </trkpt>
      <trkpt lat="38.3146540" lon="-0.5157840">
        <ele>26.4</ele>
        <time>2022-08-30T08:50:28Z</time>
      </trkpt>
      <trkpt lat="38.3141320" lon="-0.5160770">
        <ele>26.2</ele>
        <time>2022-08-30T08:50:35Z</time>
      </trkpt>
      <trkpt lat="38.3140610" lon="-0.5161100">
        <ele>26.2</ele>
        <time>2022-08-30T08:50:36Z</time>
      </trkpt>
      <trkpt lat="38.3139240" lon="-0.5161770">
        <ele>26.4</ele>
        <time>2022-08-30T08:50:38Z</time>
      </trkpt>
      <trkpt lat="38.3137930" lon="-0.5162350">
        <ele>26.4</ele>
        <time>2022-08-30T08:50:40Z</time>
      </trkpt>
      <trkpt lat="38.3136120" lon="-0.5163240">
        <ele>26.6</ele>
        <time>2022-08-30T08:50:43Z</time>
      </trkpt>
      <trkpt lat="38.3134970" lon="-0.5163830">
        <ele>26.6</ele>
        <time>2022-08-30T08:50:45Z</time>
      </trkpt>
      <trkpt lat="38.3133860" lon="-0.5164390">
        <ele>26.8</ele>
        <time>2022-08-30T08:50:47Z</time>
      </trkpt>
      <trkpt lat="38.3126460" lon="-0.5167700">
        <ele>27.4</ele>
        <time>2022-08-30T08:51:09Z</time>
      </trkpt>
      <trkpt lat="38.3126120" lon="-0.5167800">
        <ele>27.6</ele>
        <time>2022-08-30T08:51:10Z</time>
      </trkpt>
      <trkpt lat="38.3125340" lon="-0.5167970">
        <ele>27.6</ele>
        <time>2022-08-30T08:51:12Z</time>
      </trkpt>
      <trkpt lat="38.3124870" lon="-0.5168110">
        <ele>27.6</ele>
        <time>2022-08-30T08:51:13Z</time>
      </trkpt>
      <trkpt lat="38.3124370" lon="-0.5168290">
        <ele>27.8</ele>
        <time>2022-08-30T08:51:14Z</time>
      </trkpt>
      <trkpt lat="38.3123160" lon="-0.5168640">
        <ele>28.2</ele>
        <time>2022-08-30T08:51:16Z</time>
      </trkpt>
      <trkpt lat="38.3122520" lon="-0.5168870">
        <ele>28.2</ele>
        <time>2022-08-30T08:51:17Z</time>
      </trkpt>
      <trkpt lat="38.3121840" lon="-0.5169120">
        <ele>28.2</ele>
        <time>2022-08-30T08:51:18Z</time>
      </trkpt>
      <trkpt lat="38.3121140" lon="-0.5169310">
        <ele>28.4</ele>
        <time>2022-08-30T08:51:19Z</time>
      </trkpt>
      <trkpt lat="38.3119750" lon="-0.5169700">
        <ele>28.8</ele>
        <time>2022-08-30T08:51:21Z</time>
      </trkpt>
      <trkpt lat="38.3118370" lon="-0.5170070">
        <ele>29.0</ele>
        <time>2022-08-30T08:51:23Z</time>
      </trkpt>
      <trkpt lat="38.3116290" lon="-0.5170540">
        <ele>29.2</ele>
        <time>2022-08-30T08:51:26Z</time>
      </trkpt>
      <trkpt lat="38.3114250" lon="-0.5170990">
        <ele>30.2</ele>
        <time>2022-08-30T08:51:29Z</time>
      </trkpt>
      <trkpt lat="38.3112210" lon="-0.5171450">
        <ele>30.8</ele>
        <time>2022-08-30T08:51:32Z</time>
      </trkpt>
      <trkpt lat="38.3108080" lon="-0.5172520">
        <ele>31.2</ele>
        <time>2022-08-30T08:51:38Z</time>
      </trkpt>
      <trkpt lat="38.3104450" lon="-0.5173470">
        <ele>31.4</ele>
        <time>2022-08-30T08:51:43Z</time>
      </trkpt>
      <trkpt lat="38.3098690" lon="-0.5175150">
        <ele>31.6</ele>
        <time>2022-08-30T08:51:51Z</time>
      </trkpt>
      <trkpt lat="38.3097960" lon="-0.5175400">
        <ele>31.6</ele>
        <time>2022-08-30T08:51:52Z</time>
      </trkpt>
      <trkpt lat="38.3097210" lon="-0.5175590">
        <ele>31.6</ele>
        <time>2022-08-30T08:51:53Z</time>
      </trkpt>
      <trkpt lat="38.3094240" lon="-0.5176350">
        <ele>31.4</ele>
        <time>2022-08-30T08:51:57Z</time>
      </trkpt>
      <trkpt lat="38.3088360" lon="-0.5178030">
        <ele>31.6</ele>
        <time>2022-08-30T08:52:05Z</time>
      </trkpt>
      <trkpt lat="38.3084720" lon="-0.5179030">
        <ele>31.4</ele>
        <time>2022-08-30T08:52:10Z</time>
      </trkpt>
      <trkpt lat="38.3082650" lon="-0.5179650">
        <ele>31.4</ele>
        <time>2022-08-30T08:52:13Z</time>
      </trkpt>
      <trkpt lat="38.3081960" lon="-0.5179840">
        <ele>31.2</ele>
        <time>2022-08-30T08:52:14Z</time>
      </trkpt>
      <trkpt lat="38.3080720" lon="-0.5180160">
        <ele>31.2</ele>
        <time>2022-08-30T08:52:16Z</time>
      </trkpt>
      <trkpt lat="38.3079610" lon="-0.5180390">
        <ele>31.0</ele>
        <time>2022-08-30T08:52:18Z</time>
      </trkpt>
      <trkpt lat="38.3079070" lon="-0.5180500">
        <ele>31.0</ele>
        <time>2022-08-30T08:52:19Z</time>
      </trkpt>
      <trkpt lat="38.3070810" lon="-0.5182250">
        <ele>30.4</ele>
        <time>2022-08-30T08:52:47Z</time>
      </trkpt>
      <trkpt lat="38.3069420" lon="-0.5182570">
        <ele>30.4</ele>
        <time>2022-08-30T08:52:49Z</time>
      </trkpt>
      <trkpt lat="38.3068720" lon="-0.5182720">
        <ele>30.4</ele>
        <time>2022-08-30T08:52:50Z</time>
      </trkpt>
      <trkpt lat="38.3065060" lon="-0.5183570">
        <ele>30.4</ele>
        <time>2022-08-30T08:52:55Z</time>
      </trkpt>
      <trkpt lat="38.3062100" lon="-0.5184230">
        <ele>30.4</ele>
        <time>2022-08-30T08:52:59Z</time>
      </trkpt>
      <trkpt lat="38.3059130" lon="-0.5184690">
        <ele>30.6</ele>
        <time>2022-08-30T08:53:03Z</time>
      </trkpt>
      <trkpt lat="38.3056170" lon="-0.5185240">
        <ele>30.8</ele>
        <time>2022-08-30T08:53:07Z</time>
      </trkpt>
      <trkpt lat="38.3053970" lon="-0.5185810">
        <ele>31.2</ele>
        <time>2022-08-30T08:53:10Z</time>
      </trkpt>
      <trkpt lat="38.3052520" lon="-0.5186330">
        <ele>31.4</ele>
        <time>2022-08-30T08:53:12Z</time>
      </trkpt>
      <trkpt lat="38.3051150" lon="-0.5187060">
        <ele>31.6</ele>
        <time>2022-08-30T08:53:14Z</time>
      </trkpt>
      <trkpt lat="38.3049780" lon="-0.5187860">
        <ele>31.8</ele>
        <time>2022-08-30T08:53:16Z</time>
      </trkpt>
      <trkpt lat="38.3049110" lon="-0.5188320">
        <ele>31.8</ele>
        <time>2022-08-30T08:53:17Z</time>
      </trkpt>
      <trkpt lat="38.3046620" lon="-0.5190590">
        <ele>32.0</ele>
        <time>2022-08-30T08:53:21Z</time>
      </trkpt>
      <trkpt lat="38.3045390" lon="-0.5191740">
        <ele>32.6</ele>
        <time>2022-08-30T08:53:23Z</time>
      </trkpt>
      <trkpt lat="38.3043480" lon="-0.5193380">
        <ele>33.6</ele>
        <time>2022-08-30T08:53:26Z</time>
      </trkpt>
      <trkpt lat="38.3041480" lon="-0.5194610">
        <ele>34.4</ele>
        <time>2022-08-30T08:53:29Z</time>
      </trkpt>
      <trkpt lat="38.3040120" lon="-0.5195160">
        <ele>35.0</ele>
        <time>2022-08-30T08:53:31Z</time>
      </trkpt>
      <trkpt lat="38.3038770" lon="-0.5195470">
        <ele>35.4</ele>
        <time>2022-08-30T08:53:33Z</time>
      </trkpt>
      <trkpt lat="38.3038060" lon="-0.5195520">
        <ele>35.4</ele>
        <time>2022-08-30T08:53:34Z</time>
      </trkpt>
      <trkpt lat="38.3037340" lon="-0.5195530">
        <ele>35.8</ele>
        <time>2022-08-30T08:53:35Z</time>
      </trkpt>
      <trkpt lat="38.3035830" lon="-0.5195350">
        <ele>36.2</ele>
        <time>2022-08-30T08:53:37Z</time>
      </trkpt>
      <trkpt lat="38.3035090" lon="-0.5195160">
        <ele>36.6</ele>
        <time>2022-08-30T08:53:38Z</time>
      </trkpt>
      <trkpt lat="38.3030840" lon="-0.5194070">
        <ele>37.4</ele>
        <time>2022-08-30T08:53:44Z</time>
      </trkpt>
      <trkpt lat="38.3029270" lon="-0.5193980">
        <ele>37.4</ele>
        <time>2022-08-30T08:53:46Z</time>
      </trkpt>
      <trkpt lat="38.3025910" lon="-0.5194630">
        <ele>36.6</ele>
        <time>2022-08-30T08:53:50Z</time>
      </trkpt>
      <trkpt lat="38.3025050" lon="-0.5194900">
        <ele>36.2</ele>
        <time>2022-08-30T08:53:51Z</time>
      </trkpt>
      <trkpt lat="38.3020640" lon="-0.5196540">
        <ele>35.4</ele>
        <time>2022-08-30T08:53:56Z</time>
      </trkpt>
      <trkpt lat="38.3017900" lon="-0.5197490">
        <ele>34.6</ele>
        <time>2022-08-30T08:53:59Z</time>
      </trkpt>
      <trkpt lat="38.3016990" lon="-0.5197830">
        <ele>34.0</ele>
        <time>2022-08-30T08:54:00Z</time>
      </trkpt>
      <trkpt lat="38.3014260" lon="-0.5198770">
        <ele>33.2</ele>
        <time>2022-08-30T08:54:03Z</time>
      </trkpt>
      <trkpt lat="38.3013360" lon="-0.5199110">
        <ele>33.0</ele>
        <time>2022-08-30T08:54:04Z</time>
      </trkpt>
      <trkpt lat="38.3011560" lon="-0.5199770">
        <ele>32.4</ele>
        <time>2022-08-30T08:54:06Z</time>
      </trkpt>
      <trkpt lat="38.3008840" lon="-0.5200770">
        <ele>31.6</ele>
        <time>2022-08-30T08:54:09Z</time>
      </trkpt>
      <trkpt lat="38.3006150" lon="-0.5201890">
        <ele>31.0</ele>
        <time>2022-08-30T08:54:12Z</time>
      </trkpt>
      <trkpt lat="38.3004330" lon="-0.5202590">
        <ele>30.6</ele>
        <time>2022-08-30T08:54:14Z</time>
      </trkpt>
      <trkpt lat="38.3000810" lon="-0.5204440">
        <ele>29.4</ele>
        <time>2022-08-30T08:54:18Z</time>
      </trkpt>
      <trkpt lat="38.2999990" lon="-0.5204970">
        <ele>29.0</ele>
        <time>2022-08-30T08:54:19Z</time>
      </trkpt>
      <trkpt lat="38.2998530" lon="-0.5206170">
        <ele>28.2</ele>
        <time>2022-08-30T08:54:21Z</time>
      </trkpt>
      <trkpt lat="38.2998000" lon="-0.5206980">
        <ele>27.8</ele>
        <time>2022-08-30T08:54:22Z</time>
      </trkpt>
      <trkpt lat="38.2997530" lon="-0.5207860">
        <ele>27.4</ele>
        <time>2022-08-30T08:54:23Z</time>
      </trkpt>
      <trkpt lat="38.2997260" lon="-0.5208850">
        <ele>27.2</ele>
        <time>2022-08-30T08:54:24Z</time>
      </trkpt>
      <trkpt lat="38.2996960" lon="-0.5209820">
        <ele>27.0</ele>
        <time>2022-08-30T08:54:25Z</time>
      </trkpt>
      <trkpt lat="38.2996630" lon="-0.5210640">
        <ele>26.8</ele>
        <time>2022-08-30T08:54:26Z</time>
      </trkpt>
      <trkpt lat="38.2995880" lon="-0.5211820">
        <ele>26.4</ele>
        <time>2022-08-30T08:54:28Z</time>
      </trkpt>
      <trkpt lat="38.2995500" lon="-0.5212110">
        <ele>26.2</ele>
        <time>2022-08-30T08:54:29Z</time>
      </trkpt>
      <trkpt lat="38.2995160" lon="-0.5212310">
        <ele>26.2</ele>
        <time>2022-08-30T08:54:30Z</time>
      </trkpt>
      <trkpt lat="38.2991760" lon="-0.5210370">
        <ele>24.8</ele>
        <time>2022-08-30T08:55:40Z</time>
      </trkpt>
      <trkpt lat="38.2991700" lon="-0.5210130">
        <ele>24.8</ele>
        <time>2022-08-30T08:55:41Z</time>
      </trkpt>
      <trkpt lat="38.2991490" lon="-0.5208910">
        <ele>25.0</ele>
        <time>2022-08-30T08:55:43Z</time>
      </trkpt>
      <trkpt lat="38.2991280" lon="-0.5208320">
        <ele>25.0</ele>
        <time>2022-08-30T08:55:44Z</time>
      </trkpt>
      <trkpt lat="38.2990940" lon="-0.5207800">
        <ele>25.0</ele>
        <time>2022-08-30T08:55:45Z</time>
      </trkpt>
      <trkpt lat="38.2990030" lon="-0.5207180">
        <ele>25.0</ele>
        <time>2022-08-30T08:55:47Z</time>
      </trkpt>
      <trkpt lat="38.2988810" lon="-0.5206920">
        <ele>25.2</ele>
        <time>2022-08-30T08:55:49Z</time>
      </trkpt>
      <trkpt lat="38.2987310" lon="-0.5206760">
        <ele>25.2</ele>
        <time>2022-08-30T08:55:51Z</time>
      </trkpt>
      <trkpt lat="38.2985760" lon="-0.5206580">
        <ele>25.2</ele>
        <time>2022-08-30T08:55:53Z</time>
      </trkpt>
      <trkpt lat="38.2984140" lon="-0.5206430">
        <ele>25.0</ele>
        <time>2022-08-30T08:55:55Z</time>
      </trkpt>
      <trkpt lat="38.2982460" lon="-0.5206300">
        <ele>25.0</ele>
        <time>2022-08-30T08:55:57Z</time>
      </trkpt>
      <trkpt lat="38.2980760" lon="-0.5206150">
        <ele>25.0</ele>
        <time>2022-08-30T08:55:59Z</time>
      </trkpt>
      <trkpt lat="38.2976500" lon="-0.5205780">
        <ele>24.8</ele>
        <time>2022-08-30T08:56:04Z</time>
      </trkpt>
      <trkpt lat="38.2973940" lon="-0.5205540">
        <ele>24.4</ele>
        <time>2022-08-30T08:56:07Z</time>
      </trkpt>
      <trkpt lat="38.2968740" lon="-0.5205070">
        <ele>24.2</ele>
        <time>2022-08-30T08:56:13Z</time>
      </trkpt>
      <trkpt lat="38.2965220" lon="-0.5204830">
        <ele>24.0</ele>
        <time>2022-08-30T08:56:17Z</time>
      </trkpt>
      <trkpt lat="38.2959170" lon="-0.5204910">
        <ele>24.2</ele>
        <time>2022-08-30T08:56:24Z</time>
      </trkpt>
      <trkpt lat="38.2953240" lon="-0.5205170">
        <ele>24.2</ele>
        <time>2022-08-30T08:56:31Z</time>
      </trkpt>
      <trkpt lat="38.2951570" lon="-0.5205170">
        <ele>24.2</ele>
        <time>2022-08-30T08:56:33Z</time>
      </trkpt>
      <trkpt lat="38.2945730" lon="-0.5205370">
        <ele>24.2</ele>
        <time>2022-08-30T08:56:40Z</time>
      </trkpt>
      <trkpt lat="38.2941640" lon="-0.5205570">
        <ele>24.0</ele>
        <time>2022-08-30T08:56:45Z</time>
      </trkpt>
      <trkpt lat="38.2935660" lon="-0.5205810">
        <ele>23.6</ele>
        <time>2022-08-30T08:56:52Z</time>
      </trkpt>
      <trkpt lat="38.2934800" lon="-0.5205850">
        <ele>23.6</ele>
        <time>2022-08-30T08:56:53Z</time>
      </trkpt>
      <trkpt lat="38.2928800" lon="-0.5206040">
        <ele>23.6</ele>
        <time>2022-08-30T08:57:00Z</time>
      </trkpt>
      <trkpt lat="38.2927960" lon="-0.5206080">
        <ele>23.4</ele>
        <time>2022-08-30T08:57:01Z</time>
      </trkpt>
      <trkpt lat="38.2927130" lon="-0.5206160">
        <ele>23.4</ele>
        <time>2022-08-30T08:57:02Z</time>
      </trkpt>
      <trkpt lat="38.2922240" lon="-0.5206860">
        <ele>23.2</ele>
        <time>2022-08-30T08:57:08Z</time>
      </trkpt>
      <trkpt lat="38.2916350" lon="-0.5207840">
        <ele>23.4</ele>
        <time>2022-08-30T08:57:15Z</time>
      </trkpt>
      <trkpt lat="38.2912250" lon="-0.5208480">
        <ele>23.6</ele>
        <time>2022-08-30T08:57:20Z</time>
      </trkpt>
      <trkpt lat="38.2906560" lon="-0.5209380">
        <ele>23.6</ele>
        <time>2022-08-30T08:57:27Z</time>
      </trkpt>
      <trkpt lat="38.2905740" lon="-0.5209480">
        <ele>23.6</ele>
        <time>2022-08-30T08:57:28Z</time>
      </trkpt>
      <trkpt lat="38.2900070" lon="-0.5209810">
        <ele>15.6</ele>
        <time>2022-08-30T08:57:35Z</time>
      </trkpt>
      <trkpt lat="38.2898450" lon="-0.5209860">
        <ele>24.6</ele>
        <time>2022-08-30T08:57:37Z</time>
      </trkpt>
      <trkpt lat="38.2896020" lon="-0.5210190">
        <ele>24.6</ele>
        <time>2022-08-30T08:57:40Z</time>
      </trkpt>
      <trkpt lat="38.2893580" lon="-0.5210390">
        <ele>24.6</ele>
        <time>2022-08-30T08:57:43Z</time>
      </trkpt>
      <trkpt lat="38.2892780" lon="-0.5210520">
        <ele>24.8</ele>
        <time>2022-08-30T08:57:44Z</time>
      </trkpt>
      <trkpt lat="38.2889730" lon="-0.5211560">
        <ele>25.0</ele>
        <time>2022-08-30T08:57:48Z</time>
      </trkpt>
      <trkpt lat="38.2887050" lon="-0.5212410">
        <ele>25.6</ele>
        <time>2022-08-30T08:57:52Z</time>
      </trkpt>
      <trkpt lat="38.2886390" lon="-0.5212750">
        <ele>26.0</ele>
        <time>2022-08-30T08:57:53Z</time>
      </trkpt>
      <trkpt lat="38.2883420" lon="-0.5214180">
        <ele>26.2</ele>
        <time>2022-08-30T08:57:57Z</time>
      </trkpt>
      <trkpt lat="38.2878730" lon="-0.5216890">
        <ele>26.2</ele>
        <time>2022-08-30T08:58:03Z</time>
      </trkpt>
      <trkpt lat="38.2872960" lon="-0.5219630">
        <ele>25.4</ele>
        <time>2022-08-30T08:58:10Z</time>
      </trkpt>
      <trkpt lat="38.2872170" lon="-0.5219950">
        <ele>25.2</ele>
        <time>2022-08-30T08:58:11Z</time>
      </trkpt>
      <trkpt lat="38.2870540" lon="-0.5220460">
        <ele>25.0</ele>
        <time>2022-08-30T08:58:13Z</time>
      </trkpt>
      <trkpt lat="38.2867250" lon="-0.5221160">
        <ele>25.0</ele>
        <time>2022-08-30T08:58:17Z</time>
      </trkpt>
      <trkpt lat="38.2861450" lon="-0.5222000">
        <ele>25.0</ele>
        <time>2022-08-30T08:58:24Z</time>
      </trkpt>
      <trkpt lat="38.2856580" lon="-0.5222790">
        <ele>24.8</ele>
        <time>2022-08-30T08:58:30Z</time>
      </trkpt>
      <trkpt lat="38.2850960" lon="-0.5223710">
        <ele>24.8</ele>
        <time>2022-08-30T08:58:37Z</time>
      </trkpt>
      <trkpt lat="38.2850160" lon="-0.5223800">
        <ele>24.8</ele>
        <time>2022-08-30T08:58:38Z</time>
      </trkpt>
      <trkpt lat="38.2844580" lon="-0.5224790">
        <ele>24.8</ele>
        <time>2022-08-30T08:58:45Z</time>
      </trkpt>
      <trkpt lat="38.2839230" lon="-0.5225970">
        <ele>25.0</ele>
        <time>2022-08-30T08:58:52Z</time>
      </trkpt>
      <trkpt lat="38.2837760" lon="-0.5226530">
        <ele>25.2</ele>
        <time>2022-08-30T08:58:54Z</time>
      </trkpt>
      <trkpt lat="38.2833490" lon="-0.5229130">
        <ele>25.2</ele>
        <time>2022-08-30T08:59:00Z</time>
      </trkpt>
      <trkpt lat="38.2828660" lon="-0.5232710">
        <ele>25.0</ele>
        <time>2022-08-30T08:59:07Z</time>
      </trkpt>
      <trkpt lat="38.2827270" lon="-0.5233860">
        <ele>25.0</ele>
        <time>2022-08-30T08:59:09Z</time>
      </trkpt>
      <trkpt lat="38.2822350" lon="-0.5237550">
        <ele>25.2</ele>
        <time>2022-08-30T08:59:16Z</time>
      </trkpt>
      <trkpt lat="38.2821660" lon="-0.5238090">
        <ele>25.2</ele>
        <time>2022-08-30T08:59:17Z</time>
      </trkpt>
      <trkpt lat="38.2817300" lon="-0.5240830">
        <ele>25.4</ele>
        <time>2022-08-30T08:59:23Z</time>
      </trkpt>
      <trkpt lat="38.2811800" lon="-0.5242610">
        <ele>25.2</ele>
        <time>2022-08-30T08:59:30Z</time>
      </trkpt>
      <trkpt lat="38.2805680" lon="-0.5243370">
        <ele>25.2</ele>
        <time>2022-08-30T08:59:38Z</time>
      </trkpt>
      <trkpt lat="38.2803630" lon="-0.5243400">
        <ele>25.4</ele>
        <time>2022-08-30T08:59:41Z</time>
      </trkpt>
      <trkpt lat="38.2801630" lon="-0.5243210">
        <ele>25.4</ele>
        <time>2022-08-30T08:59:44Z</time>
      </trkpt>
      <trkpt lat="38.2797920" lon="-0.5243820">
        <ele>26.0</ele>
        <time>2022-08-30T08:59:49Z</time>
      </trkpt>
      <trkpt lat="38.2795520" lon="-0.5243930">
        <ele>26.2</ele>
        <time>2022-08-30T08:59:52Z</time>
      </trkpt>
      <trkpt lat="38.2793930" lon="-0.5243690">
        <ele>26.4</ele>
        <time>2022-08-30T08:59:54Z</time>
      </trkpt>
      <trkpt lat="38.2789210" lon="-0.5242900">
        <ele>26.4</ele>
        <time>2022-08-30T09:00:00Z</time>
      </trkpt>
      <trkpt lat="38.2788430" lon="-0.5242840">
        <ele>26.4</ele>
        <time>2022-08-30T09:00:01Z</time>
      </trkpt>
      <trkpt lat="38.2785290" lon="-0.5243080">
        <ele>26.8</ele>
        <time>2022-08-30T09:00:05Z</time>
      </trkpt>
      <trkpt lat="38.2784520" lon="-0.5243280">
        <ele>26.8</ele>
        <time>2022-08-30T09:00:06Z</time>
      </trkpt>
      <trkpt lat="38.2778960" lon="-0.5245210">
        <ele>27.6</ele>
        <time>2022-08-30T09:00:13Z</time>
      </trkpt>
      <trkpt lat="38.2778170" lon="-0.5245480">
        <ele>27.8</ele>
        <time>2022-08-30T09:00:14Z</time>
      </trkpt>
      <trkpt lat="38.2772490" lon="-0.5247080">
        <ele>27.8</ele>
        <time>2022-08-30T09:00:21Z</time>
      </trkpt>
      <trkpt lat="38.2769150" lon="-0.5247800">
        <ele>27.6</ele>
        <time>2022-08-30T09:00:25Z</time>
      </trkpt>
      <trkpt lat="38.2764950" lon="-0.5247880">
        <ele>27.8</ele>
        <time>2022-08-30T09:00:30Z</time>
      </trkpt>
      <trkpt lat="38.2762540" lon="-0.5247390">
        <ele>28.0</ele>
        <time>2022-08-30T09:00:33Z</time>
      </trkpt>
      <trkpt lat="38.2760960" lon="-0.5247010">
        <ele>28.8</ele>
        <time>2022-08-30T09:00:35Z</time>
      </trkpt>
      <trkpt lat="38.2758510" lon="-0.5246590">
        <ele>29.0</ele>
        <time>2022-08-30T09:00:38Z</time>
      </trkpt>
      <trkpt lat="38.2756880" lon="-0.5246530">
        <ele>29.2</ele>
        <time>2022-08-30T09:00:40Z</time>
      </trkpt>
      <trkpt lat="38.2751930" lon="-0.5247180">
        <ele>29.4</ele>
        <time>2022-08-30T09:00:46Z</time>
      </trkpt>
      <trkpt lat="38.2747010" lon="-0.5247890">
        <ele>29.4</ele>
        <time>2022-08-30T09:00:52Z</time>
      </trkpt>
      <trkpt lat="38.2741330" lon="-0.5248760">
        <ele>30.0</ele>
        <time>2022-08-30T09:00:59Z</time>
      </trkpt>
      <trkpt lat="38.2738950" lon="-0.5249150">
        <ele>30.0</ele>
        <time>2022-08-30T09:01:02Z</time>
      </trkpt>
      <trkpt lat="38.2737390" lon="-0.5249430">
        <ele>30.4</ele>
        <time>2022-08-30T09:01:04Z</time>
      </trkpt>
      <trkpt lat="38.2734390" lon="-0.5249820">
        <ele>30.8</ele>
        <time>2022-08-30T09:01:08Z</time>
      </trkpt>
      <trkpt lat="38.2732130" lon="-0.5250090">
        <ele>31.4</ele>
        <time>2022-08-30T09:01:11Z</time>
      </trkpt>
      <trkpt lat="38.2729740" lon="-0.5250500">
        <ele>31.8</ele>
        <time>2022-08-30T09:01:14Z</time>
      </trkpt>
      <trkpt lat="38.2726650" lon="-0.5250760">
        <ele>32.6</ele>
        <time>2022-08-30T09:01:18Z</time>
      </trkpt>
      <trkpt lat="38.2722720" lon="-0.5251050">
        <ele>33.2</ele>
        <time>2022-08-30T09:01:23Z</time>
      </trkpt>
      <trkpt lat="38.2717770" lon="-0.5251040">
        <ele>32.8</ele>
        <time>2022-08-30T09:01:29Z</time>
      </trkpt>
      <trkpt lat="38.2713640" lon="-0.5250940">
        <ele>32.6</ele>
        <time>2022-08-30T09:01:34Z</time>
      </trkpt>
      <trkpt lat="38.2708760" lon="-0.5251040">
        <ele>32.2</ele>
        <time>2022-08-30T09:01:40Z</time>
      </trkpt>
      <trkpt lat="38.2707220" lon="-0.5251170">
        <ele>32.2</ele>
        <time>2022-08-30T09:01:42Z</time>
      </trkpt>
      <trkpt lat="38.2704960" lon="-0.5251310">
        <ele>32.0</ele>
        <time>2022-08-30T09:01:45Z</time>
      </trkpt>
      <trkpt lat="38.2702660" lon="-0.5251410">
        <ele>31.8</ele>
        <time>2022-08-30T09:01:48Z</time>
      </trkpt>
      <trkpt lat="38.2701020" lon="-0.5251380">
        <ele>31.8</ele>
        <time>2022-08-30T09:01:50Z</time>
      </trkpt>
      <trkpt lat="38.2696650" lon="-0.5250830">
        <ele>30.4</ele>
        <time>2022-08-30T09:01:55Z</time>
      </trkpt>
      <trkpt lat="38.2694010" lon="-0.5250440">
        <ele>29.4</ele>
        <time>2022-08-30T09:01:58Z</time>
      </trkpt>
      <trkpt lat="38.2692300" lon="-0.5250170">
        <ele>29.0</ele>
        <time>2022-08-30T09:02:00Z</time>
      </trkpt>
      <trkpt lat="38.2690620" lon="-0.5249960">
        <ele>28.4</ele>
        <time>2022-08-30T09:02:02Z</time>
      </trkpt>
      <trkpt lat="38.2689790" lon="-0.5249990">
        <ele>28.4</ele>
        <time>2022-08-30T09:02:03Z</time>
      </trkpt>
      <trkpt lat="38.2688180" lon="-0.5250620">
        <ele>28.2</ele>
        <time>2022-08-30T09:02:05Z</time>
      </trkpt>
      <trkpt lat="38.2686830" lon="-0.5251910">
        <ele>27.6</ele>
        <time>2022-08-30T09:02:07Z</time>
      </trkpt>
      <trkpt lat="38.2686310" lon="-0.5252770">
        <ele>27.6</ele>
        <time>2022-08-30T09:02:08Z</time>
      </trkpt>
      <trkpt lat="38.2685910" lon="-0.5253760">
        <ele>27.4</ele>
        <time>2022-08-30T09:02:09Z</time>
      </trkpt>
      <trkpt lat="38.2685470" lon="-0.5255940">
        <ele>27.2</ele>
        <time>2022-08-30T09:02:11Z</time>
      </trkpt>
      <trkpt lat="38.2684730" lon="-0.5261610">
        <ele>26.4</ele>
        <time>2022-08-30T09:02:16Z</time>
      </trkpt>
      <trkpt lat="38.2684690" lon="-0.5263920">
        <ele>26.4</ele>
        <time>2022-08-30T09:02:18Z</time>
      </trkpt>
      <trkpt lat="38.2685410" lon="-0.5268390">
        <ele>26.4</ele>
        <time>2022-08-30T09:02:22Z</time>
      </trkpt>
      <trkpt lat="38.2685710" lon="-0.5269430">
        <ele>26.4</ele>
        <time>2022-08-30T09:02:23Z</time>
      </trkpt>
      <trkpt lat="38.2687320" lon="-0.5274390">
        <ele>26.4</ele>
        <time>2022-08-30T09:02:28Z</time>
      </trkpt>
      <trkpt lat="38.2687970" lon="-0.5276130">
        <ele>26.6</ele>
        <time>2022-08-30T09:02:30Z</time>
      </trkpt>
      <trkpt lat="38.2688870" lon="-0.5278770">
        <ele>27.2</ele>
        <time>2022-08-30T09:02:33Z</time>
      </trkpt>
      <trkpt lat="38.2689140" lon="-0.5279680">
        <ele>27.6</ele>
        <time>2022-08-30T09:02:34Z</time>
      </trkpt>
      <trkpt lat="38.2689440" lon="-0.5280540">
        <ele>27.8</ele>
        <time>2022-08-30T09:02:35Z</time>
      </trkpt>
      <trkpt lat="38.2689760" lon="-0.5281420">
        <ele>28.8</ele>
        <time>2022-08-30T09:02:36Z</time>
      </trkpt>
      <trkpt lat="38.2690090" lon="-0.5282310">
        <ele>29.0</ele>
        <time>2022-08-30T09:02:37Z</time>
      </trkpt>
      <trkpt lat="38.2690800" lon="-0.5284070">
        <ele>29.6</ele>
        <time>2022-08-30T09:02:39Z</time>
      </trkpt>
      <trkpt lat="38.2691110" lon="-0.5284950">
        <ele>30.2</ele>
        <time>2022-08-30T09:02:40Z</time>
      </trkpt>
      <trkpt lat="38.2691650" lon="-0.5286750">
        <ele>31.0</ele>
        <time>2022-08-30T09:02:42Z</time>
      </trkpt>
      <trkpt lat="38.2691960" lon="-0.5287640">
        <ele>31.4</ele>
        <time>2022-08-30T09:02:43Z</time>
      </trkpt>
      <trkpt lat="38.2692900" lon="-0.5290370">
        <ele>32.8</ele>
        <time>2022-08-30T09:02:46Z</time>
      </trkpt>
      <trkpt lat="38.2693680" lon="-0.5293130">
        <ele>33.8</ele>
        <time>2022-08-30T09:02:49Z</time>
      </trkpt>
      <trkpt lat="38.2694910" lon="-0.5297860">
        <ele>34.4</ele>
        <time>2022-08-30T09:02:54Z</time>
      </trkpt>
      <trkpt lat="38.2695970" lon="-0.5299300">
        <ele>34.4</ele>
        <time>2022-08-30T09:02:56Z</time>
      </trkpt>
      <trkpt lat="38.2696580" lon="-0.5299950">
        <ele>34.4</ele>
        <time>2022-08-30T09:02:57Z</time>
      </trkpt>
      <trkpt lat="38.2697490" lon="-0.5301550">
        <ele>34.4</ele>
        <time>2022-08-30T09:02:59Z</time>
      </trkpt>
      <trkpt lat="38.2697750" lon="-0.5303470">
        <ele>34.2</ele>
        <time>2022-08-30T09:03:01Z</time>
      </trkpt>
      <trkpt lat="38.2697690" lon="-0.5304480">
        <ele>34.2</ele>
        <time>2022-08-30T09:03:02Z</time>
      </trkpt>
      <trkpt lat="38.2697680" lon="-0.5305500">
        <ele>34.0</ele>
        <time>2022-08-30T09:03:03Z</time>
      </trkpt>
      <trkpt lat="38.2698110" lon="-0.5307470">
        <ele>34.0</ele>
        <time>2022-08-30T09:03:05Z</time>
      </trkpt>
      <trkpt lat="38.2699430" lon="-0.5309840">
        <ele>33.4</ele>
        <time>2022-08-30T09:03:08Z</time>
      </trkpt>
      <trkpt lat="38.2709460" lon="-0.5327520">
        <ele>29.6</ele>
        <time>2022-08-30T09:03:38Z</time>
      </trkpt>
      <trkpt lat="38.2709680" lon="-0.5327890">
        <ele>29.6</ele>
        <time>2022-08-30T09:03:39Z</time>
      </trkpt>
      <trkpt lat="38.2712240" lon="-0.5332380">
        <ele>29.2</ele>
        <time>2022-08-30T09:03:45Z</time>
      </trkpt>
      <trkpt lat="38.2714350" lon="-0.5336140">
        <ele>29.2</ele>
        <time>2022-08-30T09:03:50Z</time>
      </trkpt>
      <trkpt lat="38.2716060" lon="-0.5339080">
        <ele>29.4</ele>
        <time>2022-08-30T09:03:54Z</time>
      </trkpt>
      <trkpt lat="38.2717690" lon="-0.5341770">
        <ele>30.2</ele>
        <time>2022-08-30T09:03:58Z</time>
      </trkpt>
      <trkpt lat="38.2718400" lon="-0.5342660">
        <ele>30.6</ele>
        <time>2022-08-30T09:04:00Z</time>
      </trkpt>
      <trkpt lat="38.2719250" lon="-0.5343130">
        <ele>30.8</ele>
        <time>2022-08-30T09:04:02Z</time>
      </trkpt>
      <trkpt lat="38.2719750" lon="-0.5343220">
        <ele>30.8</ele>
        <time>2022-08-30T09:04:03Z</time>
      </trkpt>
      <trkpt lat="38.2720270" lon="-0.5343350">
        <ele>31.0</ele>
        <time>2022-08-30T09:04:04Z</time>
      </trkpt>
      <trkpt lat="38.2721340" lon="-0.5343800">
        <ele>31.2</ele>
        <time>2022-08-30T09:04:06Z</time>
      </trkpt>
      <trkpt lat="38.2721830" lon="-0.5344280">
        <ele>31.2</ele>
        <time>2022-08-30T09:04:07Z</time>
      </trkpt>
      <trkpt lat="38.2722260" lon="-0.5344890">
        <ele>31.4</ele>
        <time>2022-08-30T09:04:08Z</time>
      </trkpt>
      <trkpt lat="38.2722640" lon="-0.5346420">
        <ele>31.8</ele>
        <time>2022-08-30T09:04:10Z</time>
      </trkpt>
      <trkpt lat="38.2722550" lon="-0.5347230">
        <ele>32.0</ele>
        <time>2022-08-30T09:04:11Z</time>
      </trkpt>
      <trkpt lat="38.2722310" lon="-0.5348020">
        <ele>32.2</ele>
        <time>2022-08-30T09:04:12Z</time>
      </trkpt>
      <trkpt lat="38.2721970" lon="-0.5348720">
        <ele>32.4</ele>
        <time>2022-08-30T09:04:13Z</time>
      </trkpt>
      <trkpt lat="38.2720840" lon="-0.5350610">
        <ele>32.6</ele>
        <time>2022-08-30T09:04:16Z</time>
      </trkpt>
      <trkpt lat="38.2720660" lon="-0.5351330">
        <ele>32.6</ele>
        <time>2022-08-30T09:04:17Z</time>
      </trkpt>
      <trkpt lat="38.2720620" lon="-0.5352100">
        <ele>32.6</ele>
        <time>2022-08-30T09:04:18Z</time>
      </trkpt>
      <trkpt lat="38.2720800" lon="-0.5354610">
        <ele>32.6</ele>
        <time>2022-08-30T09:04:21Z</time>
      </trkpt>
      <trkpt lat="38.2721240" lon="-0.5359470">
        <ele>32.6</ele>
        <time>2022-08-30T09:04:27Z</time>
      </trkpt>
      <trkpt lat="38.2721530" lon="-0.5363450">
        <ele>33.0</ele>
        <time>2022-08-30T09:04:31Z</time>
      </trkpt>
      <trkpt lat="38.2723910" lon="-0.5391680">
        <ele>32.2</ele>
        <time>2022-08-30T09:35:02Z</time>
      </trkpt>
      <trkpt lat="38.2723960" lon="-0.5391960">
        <ele>32.2</ele>
        <time>2022-08-30T09:35:03Z</time>
      </trkpt>
      <trkpt lat="38.2724020" lon="-0.5392610">
        <ele>32.2</ele>
        <time>2022-08-30T09:35:04Z</time>
      </trkpt>
      <trkpt lat="38.2724030" lon="-0.5393300">
        <ele>32.2</ele>
        <time>2022-08-30T09:35:05Z</time>
      </trkpt>
      <trkpt lat="38.2723990" lon="-0.5394840">
        <ele>32.4</ele>
        <time>2022-08-30T09:35:07Z</time>
      </trkpt>
      <trkpt lat="38.2724040" lon="-0.5396100">
        <ele>32.4</ele>
        <time>2022-08-30T09:35:09Z</time>
      </trkpt>
      <trkpt lat="38.2724040" lon="-0.5397440">
        <ele>32.6</ele>
        <time>2022-08-30T09:35:11Z</time>
      </trkpt>
      <trkpt lat="38.2724020" lon="-0.5398820">
        <ele>32.6</ele>
        <time>2022-08-30T09:35:13Z</time>
      </trkpt>
      <trkpt lat="38.2724000" lon="-0.5399500">
        <ele>32.8</ele>
        <time>2022-08-30T09:35:14Z</time>
      </trkpt>
      <trkpt lat="38.2723960" lon="-0.5400860">
        <ele>33.0</ele>
        <time>2022-08-30T09:35:16Z</time>
      </trkpt>
      <trkpt lat="38.2723890" lon="-0.5402250">
        <ele>33.2</ele>
        <time>2022-08-30T09:35:18Z</time>
      </trkpt>
      <trkpt lat="38.2723810" lon="-0.5404440">
        <ele>34.0</ele>
        <time>2022-08-30T09:35:21Z</time>
      </trkpt>
      <trkpt lat="38.2723790" lon="-0.5405840">
        <ele>34.2</ele>
        <time>2022-08-30T09:35:23Z</time>
      </trkpt>
      <trkpt lat="38.2723620" lon="-0.5408850">
        <ele>35.0</ele>
        <time>2022-08-30T09:35:27Z</time>
      </trkpt>
      <trkpt lat="38.2723510" lon="-0.5410350">
        <ele>35.4</ele>
        <time>2022-08-30T09:35:29Z</time>
      </trkpt>
      <trkpt lat="38.2723520" lon="-0.5414880">
        <ele>35.6</ele>
        <time>2022-08-30T09:35:35Z</time>
      </trkpt>
      <trkpt lat="38.2723920" lon="-0.5420400">
        <ele>35.8</ele>
        <time>2022-08-30T09:35:42Z</time>
      </trkpt>
      <trkpt lat="38.2724090" lon="-0.5422110">
        <ele>35.8</ele>
        <time>2022-08-30T09:35:44Z</time>
      </trkpt>
      <trkpt lat="38.2724640" lon="-0.5425400">
        <ele>35.8</ele>
        <time>2022-08-30T09:35:48Z</time>
      </trkpt>
      <trkpt lat="38.2724940" lon="-0.5428000">
        <ele>35.6</ele>
        <time>2022-08-30T09:35:51Z</time>
      </trkpt>
      <trkpt lat="38.2725090" lon="-0.5429670">
        <ele>35.4</ele>
        <time>2022-08-30T09:35:53Z</time>
      </trkpt>
      <trkpt lat="38.2725270" lon="-0.5431390">
        <ele>35.2</ele>
        <time>2022-08-30T09:35:55Z</time>
      </trkpt>
      <trkpt lat="38.2725570" lon="-0.5433040">
        <ele>35.0</ele>
        <time>2022-08-30T09:35:57Z</time>
      </trkpt>
      <trkpt lat="38.2726180" lon="-0.5434390">
        <ele>34.8</ele>
        <time>2022-08-30T09:35:59Z</time>
      </trkpt>
      <trkpt lat="38.2726430" lon="-0.5435100">
        <ele>34.6</ele>
        <time>2022-08-30T09:36:00Z</time>
      </trkpt>
      <trkpt lat="38.2726520" lon="-0.5436640">
        <ele>34.4</ele>
        <time>2022-08-30T09:36:02Z</time>
      </trkpt>
      <trkpt lat="38.2726290" lon="-0.5437400">
        <ele>34.4</ele>
        <time>2022-08-30T09:36:03Z</time>
      </trkpt>
      <trkpt lat="38.2725840" lon="-0.5438810">
        <ele>34.4</ele>
        <time>2022-08-30T09:36:05Z</time>
      </trkpt>
      <trkpt lat="38.2725750" lon="-0.5439590">
        <ele>34.4</ele>
        <time>2022-08-30T09:36:06Z</time>
      </trkpt>
      <trkpt lat="38.2725740" lon="-0.5440460">
        <ele>34.4</ele>
        <time>2022-08-30T09:36:07Z</time>
      </trkpt>
      <trkpt lat="38.2725930" lon="-0.5443400">
        <ele>34.4</ele>
        <time>2022-08-30T09:36:10Z</time>
      </trkpt>
      <trkpt lat="38.2726090" lon="-0.5445590">
        <ele>34.4</ele>
        <time>2022-08-30T09:36:12Z</time>
      </trkpt>
      <trkpt lat="38.2726200" lon="-0.5448760">
        <ele>33.4</ele>
        <time>2022-08-30T09:36:15Z</time>
      </trkpt>
      <trkpt lat="38.2726200" lon="-0.5449960">
        <ele>33.0</ele>
        <time>2022-08-30T09:36:16Z</time>
      </trkpt>
      <trkpt lat="38.2726210" lon="-0.5451900">
        <ele>32.8</ele>
        <time>2022-08-30T09:36:18Z</time>
      </trkpt>
      <trkpt lat="38.2726250" lon="-0.5455560">
        <ele>33.0</ele>
        <time>2022-08-30T09:36:22Z</time>
      </trkpt>
      <trkpt lat="38.2726270" lon="-0.5457440">
        <ele>33.2</ele>
        <time>2022-08-30T09:36:24Z</time>
      </trkpt>
      <trkpt lat="38.2726530" lon="-0.5464530">
        <ele>33.8</ele>
        <time>2022-08-30T09:36:32Z</time>
      </trkpt>
      <trkpt lat="38.2726860" lon="-0.5467170">
        <ele>34.6</ele>
        <time>2022-08-30T09:36:35Z</time>
      </trkpt>
      <trkpt lat="38.2727100" lon="-0.5468970">
        <ele>34.8</ele>
        <time>2022-08-30T09:36:37Z</time>
      </trkpt>
      <trkpt lat="38.2727470" lon="-0.5471580">
        <ele>35.0</ele>
        <time>2022-08-30T09:36:40Z</time>
      </trkpt>
      <trkpt lat="38.2727600" lon="-0.5472440">
        <ele>35.2</ele>
        <time>2022-08-30T09:36:41Z</time>
      </trkpt>
      <trkpt lat="38.2727810" lon="-0.5474120">
        <ele>35.8</ele>
        <time>2022-08-30T09:36:43Z</time>
      </trkpt>
      <trkpt lat="38.2728280" lon="-0.5478170">
        <ele>36.4</ele>
        <time>2022-08-30T09:36:48Z</time>
      </trkpt>
      <trkpt lat="38.2728470" lon="-0.5479530">
        <ele>36.8</ele>
        <time>2022-08-30T09:36:50Z</time>
      </trkpt>
      <trkpt lat="38.2728580" lon="-0.5480130">
        <ele>37.0</ele>
        <time>2022-08-30T09:36:51Z</time>
      </trkpt>
      <trkpt lat="38.2728800" lon="-0.5481210">
        <ele>37.4</ele>
        <time>2022-08-30T09:36:53Z</time>
      </trkpt>
      <trkpt lat="38.2728930" lon="-0.5482010">
        <ele>37.8</ele>
        <time>2022-08-30T09:36:55Z</time>
      </trkpt>
      <trkpt lat="38.2728980" lon="-0.5482260">
        <ele>38.0</ele>
        <time>2022-08-30T09:36:56Z</time>
      </trkpt>
      <trkpt lat="38.2718250" lon="-0.5487860">
        <ele>39.4</ele>
        <time>2022-08-30T09:37:48Z</time>
      </trkpt>
      <trkpt lat="38.2718050" lon="-0.5487920">
        <ele>39.4</ele>
        <time>2022-08-30T09:37:49Z</time>
      </trkpt>
      <trkpt lat="38.2716230" lon="-0.5488660">
        <ele>39.6</ele>
        <time>2022-08-30T09:37:53Z</time>
      </trkpt>
      <trkpt lat="38.2715680" lon="-0.5488790">
        <ele>39.6</ele>
        <time>2022-08-30T09:37:54Z</time>
      </trkpt>
      <trkpt lat="38.2713740" lon="-0.5489050">
        <ele>39.8</ele>
        <time>2022-08-30T09:37:57Z</time>
      </trkpt>
      <trkpt lat="38.2712300" lon="-0.5489190">
        <ele>39.8</ele>
        <time>2022-08-30T09:37:59Z</time>
      </trkpt>
      <trkpt lat="38.2707530" lon="-0.5488870">
        <ele>40.2</ele>
        <time>2022-08-30T09:38:06Z</time>
      </trkpt>
      <trkpt lat="38.2702050" lon="-0.5487680">
        <ele>39.4</ele>
        <time>2022-08-30T09:38:14Z</time>
      </trkpt>
      <trkpt lat="38.2699210" lon="-0.5487020">
        <ele>38.8</ele>
        <time>2022-08-30T09:38:18Z</time>
      </trkpt>
      <trkpt lat="38.2696310" lon="-0.5486320">
        <ele>38.2</ele>
        <time>2022-08-30T09:38:22Z</time>
      </trkpt>
      <trkpt lat="38.2692520" lon="-0.5485020">
        <ele>37.2</ele>
        <time>2022-08-30T09:38:27Z</time>
      </trkpt>
      <trkpt lat="38.2689540" lon="-0.5483700">
        <ele>36.0</ele>
        <time>2022-08-30T09:38:31Z</time>
      </trkpt>
      <trkpt lat="38.2687340" lon="-0.5482660">
        <ele>35.0</ele>
        <time>2022-08-30T09:38:34Z</time>
      </trkpt>
      <trkpt lat="38.2686590" lon="-0.5482300">
        <ele>34.4</ele>
        <time>2022-08-30T09:38:35Z</time>
      </trkpt>
      <trkpt lat="38.2685090" lon="-0.5481630">
        <ele>34.0</ele>
        <time>2022-08-30T09:38:37Z</time>
      </trkpt>
      <trkpt lat="38.2679240" lon="-0.5479340">
        <ele>33.2</ele>
        <time>2022-08-30T09:38:45Z</time>
      </trkpt>
      <trkpt lat="38.2678530" lon="-0.5479120">
        <ele>33.2</ele>
        <time>2022-08-30T09:38:46Z</time>
      </trkpt>
      <trkpt lat="38.2676460" lon="-0.5478440">
        <ele>33.0</ele>
        <time>2022-08-30T09:38:49Z</time>
      </trkpt>
      <trkpt lat="38.2673780" lon="-0.5477360">
        <ele>33.0</ele>
        <time>2022-08-30T09:38:53Z</time>
      </trkpt>
      <trkpt lat="38.2671120" lon="-0.5476030">
        <ele>33.4</ele>
        <time>2022-08-30T09:38:57Z</time>
      </trkpt>
      <trkpt lat="38.2667250" lon="-0.5473720">
        <ele>33.4</ele>
        <time>2022-08-30T09:39:03Z</time>
      </trkpt>
      <trkpt lat="38.2664670" lon="-0.5472320">
        <ele>33.4</ele>
        <time>2022-08-30T09:39:07Z</time>
      </trkpt>
      <trkpt lat="38.2663960" lon="-0.5472270">
        <ele>33.4</ele>
        <time>2022-08-30T09:39:08Z</time>
      </trkpt>
      <trkpt lat="38.2660470" lon="-0.5473170">
        <ele>33.2</ele>
        <time>2022-08-30T09:39:13Z</time>
      </trkpt>
      <trkpt lat="38.2656370" lon="-0.5474830">
        <ele>33.2</ele>
        <time>2022-08-30T09:39:19Z</time>
      </trkpt>
      <trkpt lat="38.2652130" lon="-0.5474980">
        <ele>33.2</ele>
        <time>2022-08-30T09:39:25Z</time>
      </trkpt>
      <trkpt lat="38.2646480" lon="-0.5474620">
        <ele>33.0</ele>
        <time>2022-08-30T09:39:33Z</time>
      </trkpt>
      <trkpt lat="38.2645080" lon="-0.5474390">
        <ele>33.0</ele>
        <time>2022-08-30T09:39:35Z</time>
      </trkpt>
      <trkpt lat="38.2641780" lon="-0.5473180">
        <ele>32.8</ele>
        <time>2022-08-30T09:39:40Z</time>
      </trkpt>
      <trkpt lat="38.2641200" lon="-0.5472790">
        <ele>32.6</ele>
        <time>2022-08-30T09:39:41Z</time>
      </trkpt>
      <trkpt lat="38.2638030" lon="-0.5469750">
        <ele>32.2</ele>
        <time>2022-08-30T09:39:47Z</time>
      </trkpt>
      <trkpt lat="38.2636180" lon="-0.5468490">
        <ele>32.2</ele>
        <time>2022-08-30T09:39:50Z</time>
      </trkpt>
      <trkpt lat="38.2635510" lon="-0.5468190">
        <ele>32.0</ele>
        <time>2022-08-30T09:39:51Z</time>
      </trkpt>
      <trkpt lat="38.2634810" lon="-0.5467980">
        <ele>32.0</ele>
        <time>2022-08-30T09:39:52Z</time>
      </trkpt>
      <trkpt lat="38.2634080" lon="-0.5467880">
        <ele>31.8</ele>
        <time>2022-08-30T09:39:53Z</time>
      </trkpt>
      <trkpt lat="38.2631870" lon="-0.5467900">
        <ele>31.6</ele>
        <time>2022-08-30T09:39:56Z</time>
      </trkpt>
      <trkpt lat="38.2628890" lon="-0.5467880">
        <ele>31.0</ele>
        <time>2022-08-30T09:40:00Z</time>
      </trkpt>
      <trkpt lat="38.2626670" lon="-0.5467630">
        <ele>30.8</ele>
        <time>2022-08-30T09:40:03Z</time>
      </trkpt>
      <trkpt lat="38.2621660" lon="-0.5466710">
        <ele>30.8</ele>
        <time>2022-08-30T09:40:10Z</time>
      </trkpt>
      <trkpt lat="38.2616180" lon="-0.5465530">
        <ele>31.0</ele>
        <time>2022-08-30T09:40:18Z</time>
      </trkpt>
      <trkpt lat="38.2610720" lon="-0.5464180">
        <ele>31.0</ele>
        <time>2022-08-30T09:40:26Z</time>
      </trkpt>
      <trkpt lat="38.2605310" lon="-0.5462400">
        <ele>31.0</ele>
        <time>2022-08-30T09:40:34Z</time>
      </trkpt>
      <trkpt lat="38.2600000" lon="-0.5460340">
        <ele>31.0</ele>
        <time>2022-08-30T09:40:42Z</time>
      </trkpt>
      <trkpt lat="38.2599320" lon="-0.5460100">
        <ele>31.0</ele>
        <time>2022-08-30T09:40:43Z</time>
      </trkpt>
      <trkpt lat="38.2594220" lon="-0.5457920">
        <ele>31.4</ele>
        <time>2022-08-30T09:40:51Z</time>
      </trkpt>
      <trkpt lat="38.2593150" lon="-0.5456950">
        <ele>31.6</ele>
        <time>2022-08-30T09:40:53Z</time>
      </trkpt>
      <trkpt lat="38.2591930" lon="-0.5456400">
        <ele>31.6</ele>
        <time>2022-08-30T09:40:55Z</time>
      </trkpt>
      <trkpt lat="38.2590770" lon="-0.5456690">
        <ele>31.8</ele>
        <time>2022-08-30T09:40:57Z</time>
      </trkpt>
      <trkpt lat="38.2590250" lon="-0.5457160">
        <ele>31.8</ele>
        <time>2022-08-30T09:40:58Z</time>
      </trkpt>
      <trkpt lat="38.2589770" lon="-0.5457830">
        <ele>31.8</ele>
        <time>2022-08-30T09:40:59Z</time>
      </trkpt>
      <trkpt lat="38.2588270" lon="-0.5459950">
        <ele>32.0</ele>
        <time>2022-08-30T09:41:02Z</time>
      </trkpt>
      <trkpt lat="38.2586190" lon="-0.5462700">
        <ele>32.0</ele>
        <time>2022-08-30T09:41:06Z</time>
      </trkpt>
      <trkpt lat="38.2585180" lon="-0.5464050">
        <ele>32.2</ele>
        <time>2022-08-30T09:41:08Z</time>
      </trkpt>
      <trkpt lat="38.2584170" lon="-0.5465380">
        <ele>32.4</ele>
        <time>2022-08-30T09:41:10Z</time>
      </trkpt>
      <trkpt lat="38.2580770" lon="-0.5469910">
        <ele>33.0</ele>
        <time>2022-08-30T09:41:17Z</time>
      </trkpt>
      <trkpt lat="38.2579840" lon="-0.5471200">
        <ele>33.4</ele>
        <time>2022-08-30T09:41:19Z</time>
      </trkpt>
      <trkpt lat="38.2576900" lon="-0.5474990">
        <ele>34.2</ele>
        <time>2022-08-30T09:41:25Z</time>
      </trkpt>
      <trkpt lat="38.2573940" lon="-0.5478680">
        <ele>34.4</ele>
        <time>2022-08-30T09:41:31Z</time>
      </trkpt>
      <trkpt lat="38.2572470" lon="-0.5480580">
        <ele>34.6</ele>
        <time>2022-08-30T09:41:34Z</time>
      </trkpt>
      <trkpt lat="38.2568480" lon="-0.5485550">
        <ele>34.8</ele>
        <time>2022-08-30T09:41:42Z</time>
      </trkpt>
      <trkpt lat="38.2566110" lon="-0.5488750">
        <ele>34.8</ele>
        <time>2022-08-30T09:41:47Z</time>
      </trkpt>
      <trkpt lat="38.2563270" lon="-0.5493620">
        <ele>35.4</ele>
        <time>2022-08-30T09:41:54Z</time>
      </trkpt>
      <trkpt lat="38.2562880" lon="-0.5494320">
        <ele>35.4</ele>
        <time>2022-08-30T09:41:55Z</time>
      </trkpt>
      <trkpt lat="38.2560230" lon="-0.5499410">
        <ele>36.0</ele>
        <time>2022-08-30T09:42:02Z</time>
      </trkpt>
      <trkpt lat="38.2557540" lon="-0.5504710">
        <ele>36.8</ele>
        <time>2022-08-30T09:42:09Z</time>
      </trkpt>
      <trkpt lat="38.2554880" lon="-0.5511070">
        <ele>37.4</ele>
        <time>2022-08-30T09:42:17Z</time>
      </trkpt>
      <trkpt lat="38.2554600" lon="-0.5511890">
        <ele>37.6</ele>
        <time>2022-08-30T09:42:18Z</time>
      </trkpt>
      <trkpt lat="38.2554290" lon="-0.5512720">
        <ele>37.8</ele>
        <time>2022-08-30T09:42:19Z</time>
      </trkpt>
      <trkpt lat="38.2551830" lon="-0.5519510">
        <ele>38.0</ele>
        <time>2022-08-30T09:42:27Z</time>
      </trkpt>
      <trkpt lat="38.2551520" lon="-0.5520340">
        <ele>38.0</ele>
        <time>2022-08-30T09:42:28Z</time>
      </trkpt>
      <trkpt lat="38.2549120" lon="-0.5527110">
        <ele>37.6</ele>
        <time>2022-08-30T09:42:36Z</time>
      </trkpt>
      <trkpt lat="38.2548810" lon="-0.5527950">
        <ele>37.4</ele>
        <time>2022-08-30T09:42:37Z</time>
      </trkpt>
      <trkpt lat="38.2547200" lon="-0.5532040">
        <ele>37.2</ele>
        <time>2022-08-30T09:42:42Z</time>
      </trkpt>
      <trkpt lat="38.2546020" lon="-0.5534350">
        <ele>37.2</ele>
        <time>2022-08-30T09:42:45Z</time>
      </trkpt>
      <trkpt lat="38.2542080" lon="-0.5540150">
        <ele>36.8</ele>
        <time>2022-08-30T09:42:53Z</time>
      </trkpt>
      <trkpt lat="38.2541080" lon="-0.5541640">
        <ele>36.8</ele>
        <time>2022-08-30T09:42:55Z</time>
      </trkpt>
      <trkpt lat="38.2539590" lon="-0.5543910">
        <ele>36.6</ele>
        <time>2022-08-30T09:42:58Z</time>
      </trkpt>
      <trkpt lat="38.2537200" lon="-0.5547740">
        <ele>36.6</ele>
        <time>2022-08-30T09:43:03Z</time>
      </trkpt>
      <trkpt lat="38.2533550" lon="-0.5553890">
        <ele>36.4</ele>
        <time>2022-08-30T09:43:11Z</time>
      </trkpt>
      <trkpt lat="38.2533080" lon="-0.5554660">
        <ele>36.4</ele>
        <time>2022-08-30T09:43:12Z</time>
      </trkpt>
      <trkpt lat="38.2529420" lon="-0.5560620">
        <ele>36.6</ele>
        <time>2022-08-30T09:43:20Z</time>
      </trkpt>
      <trkpt lat="38.2525730" lon="-0.5566610">
        <ele>36.4</ele>
        <time>2022-08-30T09:43:28Z</time>
      </trkpt>
      <trkpt lat="38.2523910" lon="-0.5569570">
        <ele>36.6</ele>
        <time>2022-08-30T09:43:32Z</time>
      </trkpt>
      <trkpt lat="38.2520210" lon="-0.5575720">
        <ele>36.4</ele>
        <time>2022-08-30T09:43:40Z</time>
      </trkpt>
      <trkpt lat="38.2519760" lon="-0.5576510">
        <ele>36.4</ele>
        <time>2022-08-30T09:43:41Z</time>
      </trkpt>
      <trkpt lat="38.2516050" lon="-0.5582740">
        <ele>36.4</ele>
        <time>2022-08-30T09:43:49Z</time>
      </trkpt>
      <trkpt lat="38.2515090" lon="-0.5584230">
        <ele>36.4</ele>
        <time>2022-08-30T09:43:51Z</time>
      </trkpt>
      <trkpt lat="38.2511030" lon="-0.5589790">
        <ele>36.8</ele>
        <time>2022-08-30T09:43:59Z</time>
      </trkpt>
      <trkpt lat="38.2506820" lon="-0.5595200">
        <ele>37.0</ele>
        <time>2022-08-30T09:44:07Z</time>
      </trkpt>
      <trkpt lat="38.2505800" lon="-0.5596470">
        <ele>37.4</ele>
        <time>2022-08-30T09:44:09Z</time>
      </trkpt>
      <trkpt lat="38.2504820" lon="-0.5597700">
        <ele>37.8</ele>
        <time>2022-08-30T09:44:11Z</time>
      </trkpt>
      <trkpt lat="38.2503810" lon="-0.5598910">
        <ele>38.0</ele>
        <time>2022-08-30T09:44:13Z</time>
      </trkpt>
      <trkpt lat="38.2503280" lon="-0.5599500">
        <ele>38.2</ele>
        <time>2022-08-30T09:44:14Z</time>
      </trkpt>
      <trkpt lat="38.2502730" lon="-0.5600060">
        <ele>38.4</ele>
        <time>2022-08-30T09:44:15Z</time>
      </trkpt>
      <trkpt lat="38.2500950" lon="-0.5601710">
        <ele>38.8</ele>
        <time>2022-08-30T09:44:18Z</time>
      </trkpt>
      <trkpt lat="38.2498380" lon="-0.5603520">
        <ele>40.0</ele>
        <time>2022-08-30T09:44:22Z</time>
      </trkpt>
      <trkpt lat="38.2496370" lon="-0.5604840">
        <ele>40.2</ele>
        <time>2022-08-30T09:44:25Z</time>
      </trkpt>
      <trkpt lat="38.2492140" lon="-0.5607590">
        <ele>40.0</ele>
        <time>2022-08-30T09:44:31Z</time>
      </trkpt>
      <trkpt lat="38.2491390" lon="-0.5608060">
        <ele>39.8</ele>
        <time>2022-08-30T09:44:32Z</time>
      </trkpt>
      <trkpt lat="38.2489170" lon="-0.5609530">
        <ele>39.2</ele>
        <time>2022-08-30T09:44:35Z</time>
      </trkpt>
      <trkpt lat="38.2488440" lon="-0.5610060">
        <ele>38.8</ele>
        <time>2022-08-30T09:44:36Z</time>
      </trkpt>
      <trkpt lat="38.2486260" lon="-0.5611770">
        <ele>38.0</ele>
        <time>2022-08-30T09:44:39Z</time>
      </trkpt>
      <trkpt lat="38.2484900" lon="-0.5613110">
        <ele>37.6</ele>
        <time>2022-08-30T09:44:41Z</time>
      </trkpt>
      <trkpt lat="38.2482980" lon="-0.5615340">
        <ele>37.0</ele>
        <time>2022-08-30T09:44:44Z</time>
      </trkpt>
      <trkpt lat="38.2481750" lon="-0.5616820">
        <ele>36.4</ele>
        <time>2022-08-30T09:44:46Z</time>
      </trkpt>
      <trkpt lat="38.2480550" lon="-0.5618320">
        <ele>36.2</ele>
        <time>2022-08-30T09:44:48Z</time>
      </trkpt>
      <trkpt lat="38.2478350" lon="-0.5621340">
        <ele>35.8</ele>
        <time>2022-08-30T09:44:52Z</time>
      </trkpt>
      <trkpt lat="38.2474950" lon="-0.5625200">
        <ele>35.6</ele>
        <time>2022-08-30T09:44:58Z</time>
      </trkpt>
      <trkpt lat="38.2471270" lon="-0.5628360">
        <ele>35.6</ele>
        <time>2022-08-30T09:45:04Z</time>
      </trkpt>
      <trkpt lat="38.2469280" lon="-0.5629260">
        <ele>35.6</ele>
        <time>2022-08-30T09:45:07Z</time>
      </trkpt>
      <trkpt lat="38.2467860" lon="-0.5629630">
        <ele>35.8</ele>
        <time>2022-08-30T09:45:09Z</time>
      </trkpt>
      <trkpt lat="38.2462390" lon="-0.5631190">
        <ele>35.8</ele>
        <time>2022-08-30T09:45:17Z</time>
      </trkpt>
      <trkpt lat="38.2458230" lon="-0.5631800">
        <ele>35.8</ele>
        <time>2022-08-30T09:45:23Z</time>
      </trkpt>
      <trkpt lat="38.2456830" lon="-0.5631510">
        <ele>35.8</ele>
        <time>2022-08-30T09:45:25Z</time>
      </trkpt>
      <trkpt lat="38.2454800" lon="-0.5630660">
        <ele>35.6</ele>
        <time>2022-08-30T09:45:28Z</time>
      </trkpt>
      <trkpt lat="38.2453480" lon="-0.5630020">
        <ele>35.4</ele>
        <time>2022-08-30T09:45:30Z</time>
      </trkpt>
      <trkpt lat="38.2451400" lon="-0.5629080">
        <ele>34.8</ele>
        <time>2022-08-30T09:45:33Z</time>
      </trkpt>
      <trkpt lat="38.2450640" lon="-0.5628840">
        <ele>34.8</ele>
        <time>2022-08-30T09:45:34Z</time>
      </trkpt>
      <trkpt lat="38.2449860" lon="-0.5628760">
        <ele>34.4</ele>
        <time>2022-08-30T09:45:35Z</time>
      </trkpt>
      <trkpt lat="38.2449050" lon="-0.5628750">
        <ele>34.4</ele>
        <time>2022-08-30T09:45:36Z</time>
      </trkpt>
      <trkpt lat="38.2445750" lon="-0.5628970">
        <ele>33.2</ele>
        <time>2022-08-30T09:45:40Z</time>
      </trkpt>
      <trkpt lat="38.2444920" lon="-0.5629120">
        <ele>32.8</ele>
        <time>2022-08-30T09:45:41Z</time>
      </trkpt>
      <trkpt lat="38.2443360" lon="-0.5629930">
        <ele>32.6</ele>
        <time>2022-08-30T09:45:43Z</time>
      </trkpt>
      <trkpt lat="38.2442690" lon="-0.5630560">
        <ele>32.4</ele>
        <time>2022-08-30T09:45:44Z</time>
      </trkpt>
      <trkpt lat="38.2442110" lon="-0.5631310">
        <ele>32.2</ele>
        <time>2022-08-30T09:45:45Z</time>
      </trkpt>
      <trkpt lat="38.2441330" lon="-0.5633080">
        <ele>31.8</ele>
        <time>2022-08-30T09:45:47Z</time>
      </trkpt>
      <trkpt lat="38.2441040" lon="-0.5634080">
        <ele>31.2</ele>
        <time>2022-08-30T09:45:48Z</time>
      </trkpt>
      <trkpt lat="38.2440480" lon="-0.5637200">
        <ele>30.6</ele>
        <time>2022-08-30T09:45:51Z</time>
      </trkpt>
      <trkpt lat="38.2440340" lon="-0.5638260">
        <ele>30.6</ele>
        <time>2022-08-30T09:45:52Z</time>
      </trkpt>
      <trkpt lat="38.2439260" lon="-0.5645660">
        <ele>30.6</ele>
        <time>2022-08-30T09:45:59Z</time>
      </trkpt>
      <trkpt lat="38.2438870" lon="-0.5647740">
        <ele>30.6</ele>
        <time>2022-08-30T09:46:01Z</time>
      </trkpt>
      <trkpt lat="38.2437710" lon="-0.5654890">
        <ele>30.8</ele>
        <time>2022-08-30T09:46:08Z</time>
      </trkpt>
      <trkpt lat="38.2437520" lon="-0.5655850">
        <ele>30.8</ele>
        <time>2022-08-30T09:46:09Z</time>
      </trkpt>
      <trkpt lat="38.2436180" lon="-0.5662160">
        <ele>31.2</ele>
        <time>2022-08-30T09:46:16Z</time>
      </trkpt>
      <trkpt lat="38.2435130" lon="-0.5665760">
        <ele>31.6</ele>
        <time>2022-08-30T09:46:20Z</time>
      </trkpt>
      <trkpt lat="38.2434790" lon="-0.5666660">
        <ele>31.6</ele>
        <time>2022-08-30T09:46:21Z</time>
      </trkpt>
      <trkpt lat="38.2434390" lon="-0.5667510">
        <ele>31.6</ele>
        <time>2022-08-30T09:46:22Z</time>
      </trkpt>
      <trkpt lat="38.2431480" lon="-0.5672200">
        <ele>31.6</ele>
        <time>2022-08-30T09:46:28Z</time>
      </trkpt>
      <trkpt lat="38.2428460" lon="-0.5678100">
        <ele>31.8</ele>
        <time>2022-08-30T09:46:35Z</time>
      </trkpt>
      <trkpt lat="38.2426270" lon="-0.5684550">
        <ele>32.4</ele>
        <time>2022-08-30T09:46:42Z</time>
      </trkpt>
      <trkpt lat="38.2425640" lon="-0.5686370">
        <ele>32.4</ele>
        <time>2022-08-30T09:46:44Z</time>
      </trkpt>
      <trkpt lat="38.2423040" lon="-0.5692420">
        <ele>32.8</ele>
        <time>2022-08-30T09:46:51Z</time>
      </trkpt>
      <trkpt lat="38.2419770" lon="-0.5697930">
        <ele>33.0</ele>
        <time>2022-08-30T09:46:58Z</time>
      </trkpt>
      <trkpt lat="38.2418840" lon="-0.5699460">
        <ele>33.2</ele>
        <time>2022-08-30T09:47:00Z</time>
      </trkpt>
      <trkpt lat="38.2416980" lon="-0.5702570">
        <ele>33.4</ele>
        <time>2022-08-30T09:47:04Z</time>
      </trkpt>
      <trkpt lat="38.2414700" lon="-0.5706420">
        <ele>33.8</ele>
        <time>2022-08-30T09:47:09Z</time>
      </trkpt>
      <trkpt lat="38.2411410" lon="-0.5711880">
        <ele>34.0</ele>
        <time>2022-08-30T09:47:16Z</time>
      </trkpt>
      <trkpt lat="38.2410470" lon="-0.5713450">
        <ele>34.0</ele>
        <time>2022-08-30T09:47:18Z</time>
      </trkpt>
      <trkpt lat="38.2407300" lon="-0.5719220">
        <ele>34.0</ele>
        <time>2022-08-30T09:47:25Z</time>
      </trkpt>
      <trkpt lat="38.2405970" lon="-0.5721740">
        <ele>34.0</ele>
        <time>2022-08-30T09:47:28Z</time>
      </trkpt>
      <trkpt lat="38.2402810" lon="-0.5727500">
        <ele>34.0</ele>
        <time>2022-08-30T09:47:35Z</time>
      </trkpt>
      <trkpt lat="38.2401840" lon="-0.5729090">
        <ele>34.0</ele>
        <time>2022-08-30T09:47:37Z</time>
      </trkpt>
      <trkpt lat="38.2398400" lon="-0.5734700">
        <ele>34.2</ele>
        <time>2022-08-30T09:47:44Z</time>
      </trkpt>
      <trkpt lat="38.2397930" lon="-0.5735560">
        <ele>34.4</ele>
        <time>2022-08-30T09:47:45Z</time>
      </trkpt>
      <trkpt lat="38.2395590" lon="-0.5741140">
        <ele>34.0</ele>
        <time>2022-08-30T09:47:51Z</time>
      </trkpt>
      <trkpt lat="38.2393350" lon="-0.5746830">
        <ele>33.6</ele>
        <time>2022-08-30T09:47:57Z</time>
      </trkpt>
      <trkpt lat="38.2392290" lon="-0.5749730">
        <ele>33.6</ele>
        <time>2022-08-30T09:48:00Z</time>
      </trkpt>
      <trkpt lat="38.2390710" lon="-0.5755700">
        <ele>33.4</ele>
        <time>2022-08-30T09:48:06Z</time>
      </trkpt>
      <trkpt lat="38.2390730" lon="-0.5760920">
        <ele>33.4</ele>
        <time>2022-08-30T09:48:11Z</time>
      </trkpt>
      <trkpt lat="38.2391350" lon="-0.5768050">
        <ele>33.4</ele>
        <time>2022-08-30T09:48:18Z</time>
      </trkpt>
      <trkpt lat="38.2391520" lon="-0.5770080">
        <ele>33.8</ele>
        <time>2022-08-30T09:48:20Z</time>
      </trkpt>
      <trkpt lat="38.2392130" lon="-0.5777240">
        <ele>34.4</ele>
        <time>2022-08-30T09:48:27Z</time>
      </trkpt>
      <trkpt lat="38.2392350" lon="-0.5780310">
        <ele>34.2</ele>
        <time>2022-08-30T09:48:30Z</time>
      </trkpt>
      <trkpt lat="38.2392970" lon="-0.5787480">
        <ele>34.2</ele>
        <time>2022-08-30T09:48:37Z</time>
      </trkpt>
      <trkpt lat="38.2393410" lon="-0.5792540">
        <ele>34.4</ele>
        <time>2022-08-30T09:48:42Z</time>
      </trkpt>
      <trkpt lat="38.2393960" lon="-0.5799630">
        <ele>34.6</ele>
        <time>2022-08-30T09:48:49Z</time>
      </trkpt>
      <trkpt lat="38.2394120" lon="-0.5801680">
        <ele>34.6</ele>
        <time>2022-08-30T09:48:51Z</time>
      </trkpt>
      <trkpt lat="38.2394700" lon="-0.5808830">
        <ele>34.6</ele>
        <time>2022-08-30T09:48:58Z</time>
      </trkpt>
      <trkpt lat="38.2394870" lon="-0.5810850">
        <ele>34.6</ele>
        <time>2022-08-30T09:49:00Z</time>
      </trkpt>
      <trkpt lat="38.2395410" lon="-0.5818030">
        <ele>34.6</ele>
        <time>2022-08-30T09:49:07Z</time>
      </trkpt>
      <trkpt lat="38.2395580" lon="-0.5820050">
        <ele>34.6</ele>
        <time>2022-08-30T09:49:09Z</time>
      </trkpt>
      <trkpt lat="38.2396180" lon="-0.5827110">
        <ele>34.8</ele>
        <time>2022-08-30T09:49:16Z</time>
      </trkpt>
      <trkpt lat="38.2396250" lon="-0.5828090">
        <ele>34.8</ele>
        <time>2022-08-30T09:49:17Z</time>
      </trkpt>
      <trkpt lat="38.2396760" lon="-0.5835010">
        <ele>34.8</ele>
        <time>2022-08-30T09:49:24Z</time>
      </trkpt>
      <trkpt lat="38.2396890" lon="-0.5836960">
        <ele>35.4</ele>
        <time>2022-08-30T09:49:26Z</time>
      </trkpt>
      <trkpt lat="38.2397390" lon="-0.5842890">
        <ele>35.6</ele>
        <time>2022-08-30T09:49:32Z</time>
      </trkpt>
      <trkpt lat="38.2397570" lon="-0.5844890">
        <ele>35.8</ele>
        <time>2022-08-30T09:49:34Z</time>
      </trkpt>
      <trkpt lat="38.2398070" lon="-0.5850890">
        <ele>36.0</ele>
        <time>2022-08-30T09:49:40Z</time>
      </trkpt>
      <trkpt lat="38.2398620" lon="-0.5857680">
        <ele>36.0</ele>
        <time>2022-08-30T09:49:47Z</time>
      </trkpt>
      <trkpt lat="38.2398750" lon="-0.5864600">
        <ele>36.6</ele>
        <time>2022-08-30T09:49:54Z</time>
      </trkpt>
      <trkpt lat="38.2398700" lon="-0.5865590">
        <ele>36.8</ele>
        <time>2022-08-30T09:49:55Z</time>
      </trkpt>
      <trkpt lat="38.2397980" lon="-0.5872390">
        <ele>37.0</ele>
        <time>2022-08-30T09:50:02Z</time>
      </trkpt>
      <trkpt lat="38.2397070" lon="-0.5879290">
        <ele>36.8</ele>
        <time>2022-08-30T09:50:09Z</time>
      </trkpt>
      <trkpt lat="38.2396090" lon="-0.5887120">
        <ele>36.6</ele>
        <time>2022-08-30T09:50:17Z</time>
      </trkpt>
      <trkpt lat="38.2395950" lon="-0.5888100">
        <ele>36.6</ele>
        <time>2022-08-30T09:50:18Z</time>
      </trkpt>
      <trkpt lat="38.2395030" lon="-0.5895770">
        <ele>37.0</ele>
        <time>2022-08-30T09:50:26Z</time>
      </trkpt>
      <trkpt lat="38.2394790" lon="-0.5897670">
        <ele>37.4</ele>
        <time>2022-08-30T09:50:28Z</time>
      </trkpt>
      <trkpt lat="38.2394210" lon="-0.5902450">
        <ele>37.8</ele>
        <time>2022-08-30T09:50:33Z</time>
      </trkpt>
      <trkpt lat="38.2393430" lon="-0.5909100">
        <ele>38.6</ele>
        <time>2022-08-30T09:50:40Z</time>
      </trkpt>
      <trkpt lat="38.2392460" lon="-0.5916800">
        <ele>38.8</ele>
        <time>2022-08-30T09:50:48Z</time>
      </trkpt>
      <trkpt lat="38.2392240" lon="-0.5918700">
        <ele>38.8</ele>
        <time>2022-08-30T09:50:50Z</time>
      </trkpt>
      <trkpt lat="38.2391050" lon="-0.5926180">
        <ele>39.0</ele>
        <time>2022-08-30T09:50:58Z</time>
      </trkpt>
      <trkpt lat="38.2390740" lon="-0.5927050">
        <ele>39.0</ele>
        <time>2022-08-30T09:50:59Z</time>
      </trkpt>
      <trkpt lat="38.2390380" lon="-0.5927880">
        <ele>39.2</ele>
        <time>2022-08-30T09:51:00Z</time>
      </trkpt>
      <trkpt lat="38.2389020" lon="-0.5930100">
        <ele>39.2</ele>
        <time>2022-08-30T09:51:03Z</time>
      </trkpt>
      <trkpt lat="38.2387380" lon="-0.5933080">
        <ele>40.2</ele>
        <time>2022-08-30T09:51:07Z</time>
      </trkpt>
      <trkpt lat="38.2387060" lon="-0.5933890">
        <ele>40.2</ele>
        <time>2022-08-30T09:51:08Z</time>
      </trkpt>
      <trkpt lat="38.2386520" lon="-0.5936580">
        <ele>40.4</ele>
        <time>2022-08-30T09:51:11Z</time>
      </trkpt>
      <trkpt lat="38.2386450" lon="-0.5937530">
        <ele>40.6</ele>
        <time>2022-08-30T09:51:12Z</time>
      </trkpt>
      <trkpt lat="38.2385480" lon="-0.5944290">
        <ele>40.4</ele>
        <time>2022-08-30T09:51:19Z</time>
      </trkpt>
      <trkpt lat="38.2384400" lon="-0.5948860">
        <ele>40.2</ele>
        <time>2022-08-30T09:51:24Z</time>
      </trkpt>
      <trkpt lat="38.2383200" lon="-0.5953230">
        <ele>40.4</ele>
        <time>2022-08-30T09:51:29Z</time>
      </trkpt>
      <trkpt lat="38.2382640" lon="-0.5955840">
        <ele>40.4</ele>
        <time>2022-08-30T09:51:32Z</time>
      </trkpt>
      <trkpt lat="38.2382840" lon="-0.5957500">
        <ele>40.8</ele>
        <time>2022-08-30T09:51:34Z</time>
      </trkpt>
      <trkpt lat="38.2384210" lon="-0.5959210">
        <ele>41.0</ele>
        <time>2022-08-30T09:51:37Z</time>
      </trkpt>
      <trkpt lat="38.2384710" lon="-0.5959750">
        <ele>41.2</ele>
        <time>2022-08-30T09:51:38Z</time>
      </trkpt>
      <trkpt lat="38.2386440" lon="-0.5961120">
        <ele>41.4</ele>
        <time>2022-08-30T09:51:41Z</time>
      </trkpt>
      <trkpt lat="38.2387760" lon="-0.5961930">
        <ele>41.4</ele>
        <time>2022-08-30T09:51:43Z</time>
      </trkpt>
      <trkpt lat="38.2389180" lon="-0.5962490">
        <ele>41.8</ele>
        <time>2022-08-30T09:51:45Z</time>
      </trkpt>
      <trkpt lat="38.2391190" lon="-0.5963630">
        <ele>42.0</ele>
        <time>2022-08-30T09:51:48Z</time>
      </trkpt>
      <trkpt lat="38.2391790" lon="-0.5964110">
        <ele>42.2</ele>
        <time>2022-08-30T09:51:49Z</time>
      </trkpt>
      <trkpt lat="38.2395000" lon="-0.5967690">
        <ele>43.0</ele>
        <time>2022-08-30T09:51:55Z</time>
      </trkpt>
      <trkpt lat="38.2395990" lon="-0.5969020">
        <ele>43.4</ele>
        <time>2022-08-30T09:51:57Z</time>
      </trkpt>
      <trkpt lat="38.2399260" lon="-0.5973750">
        <ele>44.2</ele>
        <time>2022-08-30T09:52:04Z</time>
      </trkpt>
      <trkpt lat="38.2399660" lon="-0.5974460">
        <ele>44.4</ele>
        <time>2022-08-30T09:52:05Z</time>
      </trkpt>
      <trkpt lat="38.2401180" lon="-0.5978350">
        <ele>44.8</ele>
        <time>2022-08-30T09:52:10Z</time>
      </trkpt>
      <trkpt lat="38.2402750" lon="-0.5983100">
        <ele>45.4</ele>
        <time>2022-08-30T09:52:16Z</time>
      </trkpt>
      <trkpt lat="38.2403200" lon="-0.5984690">
        <ele>45.4</ele>
        <time>2022-08-30T09:52:18Z</time>
      </trkpt>
      <trkpt lat="38.2403480" lon="-0.5985520">
        <ele>45.4</ele>
        <time>2022-08-30T09:52:19Z</time>
      </trkpt>
      <trkpt lat="38.2404420" lon="-0.5988220">
        <ele>45.2</ele>
        <time>2022-08-30T09:52:22Z</time>
      </trkpt>
      <trkpt lat="38.2405060" lon="-0.5989970">
        <ele>44.8</ele>
        <time>2022-08-30T09:52:24Z</time>
      </trkpt>
      <trkpt lat="38.2406920" lon="-0.5995420">
        <ele>43.6</ele>
        <time>2022-08-30T09:52:30Z</time>
      </trkpt>
      <trkpt lat="38.2407520" lon="-0.5997210">
        <ele>43.6</ele>
        <time>2022-08-30T09:52:32Z</time>
      </trkpt>
      <trkpt lat="38.2409930" lon="-0.6003970">
        <ele>44.8</ele>
        <time>2022-08-30T09:52:40Z</time>
      </trkpt>
      <trkpt lat="38.2410200" lon="-0.6004780">
        <ele>45.2</ele>
        <time>2022-08-30T09:52:41Z</time>
      </trkpt>
      <trkpt lat="38.2410730" lon="-0.6006320">
        <ele>45.6</ele>
        <time>2022-08-30T09:52:43Z</time>
      </trkpt>
      <trkpt lat="38.2410980" lon="-0.6007110">
        <ele>45.6</ele>
        <time>2022-08-30T09:52:44Z</time>
      </trkpt>
      <trkpt lat="38.2411250" lon="-0.6007910">
        <ele>46.2</ele>
        <time>2022-08-30T09:52:45Z</time>
      </trkpt>
      <trkpt lat="38.2412190" lon="-0.6010350">
        <ele>47.0</ele>
        <time>2022-08-30T09:52:48Z</time>
      </trkpt>
      <trkpt lat="38.2412880" lon="-0.6011930">
        <ele>47.6</ele>
        <time>2022-08-30T09:52:50Z</time>
      </trkpt>
      <trkpt lat="38.2415980" lon="-0.6018110">
        <ele>48.0</ele>
        <time>2022-08-30T09:52:58Z</time>
      </trkpt>
      <trkpt lat="38.2419260" lon="-0.6024120">
        <ele>49.0</ele>
        <time>2022-08-30T09:53:06Z</time>
      </trkpt>
      <trkpt lat="38.2419620" lon="-0.6024830">
        <ele>49.0</ele>
        <time>2022-08-30T09:53:07Z</time>
      </trkpt>
      <trkpt lat="38.2420010" lon="-0.6025550">
        <ele>49.2</ele>
        <time>2022-08-30T09:53:08Z</time>
      </trkpt>
      <trkpt lat="38.2420830" lon="-0.6027010">
        <ele>49.4</ele>
        <time>2022-08-30T09:53:10Z</time>
      </trkpt>
      <trkpt lat="38.2422470" lon="-0.6030030">
        <ele>50.2</ele>
        <time>2022-08-30T09:53:14Z</time>
      </trkpt>
      <trkpt lat="38.2423570" lon="-0.6032160">
        <ele>50.6</ele>
        <time>2022-08-30T09:53:17Z</time>
      </trkpt>
      <trkpt lat="38.2424270" lon="-0.6033540">
        <ele>51.4</ele>
        <time>2022-08-30T09:53:19Z</time>
      </trkpt>
      <trkpt lat="38.2426500" lon="-0.6037750">
        <ele>51.8</ele>
        <time>2022-08-30T09:53:25Z</time>
      </trkpt>
      <trkpt lat="38.2429080" lon="-0.6042810">
        <ele>52.2</ele>
        <time>2022-08-30T09:53:32Z</time>
      </trkpt>
      <trkpt lat="38.2429860" lon="-0.6044260">
        <ele>52.4</ele>
        <time>2022-08-30T09:53:34Z</time>
      </trkpt>
      <trkpt lat="38.2432600" lon="-0.6049510">
        <ele>52.6</ele>
        <time>2022-08-30T09:53:41Z</time>
      </trkpt>
      <trkpt lat="38.2435710" lon="-0.6055330">
        <ele>52.8</ele>
        <time>2022-08-30T09:53:49Z</time>
      </trkpt>
      <trkpt lat="38.2436910" lon="-0.6057520">
        <ele>53.0</ele>
        <time>2022-08-30T09:53:52Z</time>
      </trkpt>
      <trkpt lat="38.2439600" lon="-0.6062670">
        <ele>53.4</ele>
        <time>2022-08-30T09:53:59Z</time>
      </trkpt>
      <trkpt lat="38.2439980" lon="-0.6063390">
        <ele>53.4</ele>
        <time>2022-08-30T09:54:00Z</time>
      </trkpt>
      <trkpt lat="38.2442710" lon="-0.6068610">
        <ele>54.4</ele>
        <time>2022-08-30T09:54:07Z</time>
      </trkpt>
      <trkpt lat="38.2443500" lon="-0.6070120">
        <ele>54.8</ele>
        <time>2022-08-30T09:54:09Z</time>
      </trkpt>
      <trkpt lat="38.2446660" lon="-0.6076150">
        <ele>55.4</ele>
        <time>2022-08-30T09:54:17Z</time>
      </trkpt>
      <trkpt lat="38.2448660" lon="-0.6079820">
        <ele>55.4</ele>
        <time>2022-08-30T09:54:22Z</time>
      </trkpt>
      <trkpt lat="38.2449070" lon="-0.6080580">
        <ele>55.6</ele>
        <time>2022-08-30T09:54:23Z</time>
      </trkpt>
      <trkpt lat="38.2451010" lon="-0.6084380">
        <ele>56.0</ele>
        <time>2022-08-30T09:54:28Z</time>
      </trkpt>
      <trkpt lat="38.2452570" lon="-0.6087460">
        <ele>56.0</ele>
        <time>2022-08-30T09:54:32Z</time>
      </trkpt>
      <trkpt lat="38.2454870" lon="-0.6091930">
        <ele>55.8</ele>
        <time>2022-08-30T09:54:38Z</time>
      </trkpt>
      <trkpt lat="38.2458120" lon="-0.6098050">
        <ele>55.8</ele>
        <time>2022-08-30T09:54:46Z</time>
      </trkpt>
      <trkpt lat="38.2459320" lon="-0.6100290">
        <ele>55.8</ele>
        <time>2022-08-30T09:54:49Z</time>
      </trkpt>
      <trkpt lat="38.2462550" lon="-0.6106280">
        <ele>56.0</ele>
        <time>2022-08-30T09:54:57Z</time>
      </trkpt>
      <trkpt lat="38.2463760" lon="-0.6108570">
        <ele>56.2</ele>
        <time>2022-08-30T09:55:00Z</time>
      </trkpt>
      <trkpt lat="38.2466000" lon="-0.6113610">
        <ele>55.8</ele>
        <time>2022-08-30T09:55:06Z</time>
      </trkpt>
      <trkpt lat="38.2467120" lon="-0.6118750">
        <ele>55.2</ele>
        <time>2022-08-30T09:55:11Z</time>
      </trkpt>
      <trkpt lat="38.2467350" lon="-0.6124150">
        <ele>54.8</ele>
        <time>2022-08-30T09:55:16Z</time>
      </trkpt>
      <trkpt lat="38.2467960" lon="-0.6131310">
        <ele>54.6</ele>
        <time>2022-08-30T09:55:23Z</time>
      </trkpt>
      <trkpt lat="38.2468850" lon="-0.6134660">
        <ele>55.0</ele>
        <time>2022-08-30T09:55:27Z</time>
      </trkpt>
      <trkpt lat="38.2469130" lon="-0.6135480">
        <ele>55.0</ele>
        <time>2022-08-30T09:55:28Z</time>
      </trkpt>
      <trkpt lat="38.2469440" lon="-0.6136320">
        <ele>55.6</ele>
        <time>2022-08-30T09:55:29Z</time>
      </trkpt>
      <trkpt lat="38.2470060" lon="-0.6138060">
        <ele>56.0</ele>
        <time>2022-08-30T09:55:31Z</time>
      </trkpt>
      <trkpt lat="38.2470990" lon="-0.6140640">
        <ele>56.6</ele>
        <time>2022-08-30T09:55:34Z</time>
      </trkpt>
      <trkpt lat="38.2472580" lon="-0.6144910">
        <ele>57.6</ele>
        <time>2022-08-30T09:55:39Z</time>
      </trkpt>
      <trkpt lat="38.2472890" lon="-0.6145770">
        <ele>57.8</ele>
        <time>2022-08-30T09:55:40Z</time>
      </trkpt>
      <trkpt lat="38.2475410" lon="-0.6152550">
        <ele>58.6</ele>
        <time>2022-08-30T09:55:48Z</time>
      </trkpt>
      <trkpt lat="38.2475730" lon="-0.6153400">
        <ele>58.6</ele>
        <time>2022-08-30T09:55:49Z</time>
      </trkpt>
      <trkpt lat="38.2476900" lon="-0.6156790">
        <ele>58.8</ele>
        <time>2022-08-30T09:55:53Z</time>
      </trkpt>
      <trkpt lat="38.2479300" lon="-0.6163340">
        <ele>59.4</ele>
        <time>2022-08-30T09:56:01Z</time>
      </trkpt>
      <trkpt lat="38.2479600" lon="-0.6164150">
        <ele>59.6</ele>
        <time>2022-08-30T09:56:02Z</time>
      </trkpt>
      <trkpt lat="38.2480190" lon="-0.6165760">
        <ele>59.6</ele>
        <time>2022-08-30T09:56:04Z</time>
      </trkpt>
      <trkpt lat="38.2482270" lon="-0.6171470">
        <ele>60.0</ele>
        <time>2022-08-30T09:56:11Z</time>
      </trkpt>
      <trkpt lat="38.2484610" lon="-0.6178060">
        <ele>60.2</ele>
        <time>2022-08-30T09:56:19Z</time>
      </trkpt>
      <trkpt lat="38.2484910" lon="-0.6178880">
        <ele>60.4</ele>
        <time>2022-08-30T09:56:20Z</time>
      </trkpt>
      <trkpt lat="38.2485780" lon="-0.6181340">
        <ele>60.6</ele>
        <time>2022-08-30T09:56:23Z</time>
      </trkpt>
      <trkpt lat="38.2488320" lon="-0.6187880">
        <ele>61.2</ele>
        <time>2022-08-30T09:56:31Z</time>
      </trkpt>
      <trkpt lat="38.2489820" lon="-0.6190970">
        <ele>61.2</ele>
        <time>2022-08-30T09:56:35Z</time>
      </trkpt>
      <trkpt lat="38.2490900" lon="-0.6193280">
        <ele>61.2</ele>
        <time>2022-08-30T09:56:38Z</time>
      </trkpt>
      <trkpt lat="38.2491990" lon="-0.6197670">
        <ele>61.0</ele>
        <time>2022-08-30T09:56:43Z</time>
      </trkpt>
      <trkpt lat="38.2492930" lon="-0.6205130">
        <ele>61.2</ele>
        <time>2022-08-30T09:56:51Z</time>
      </trkpt>
      <trkpt lat="38.2493030" lon="-0.6206030">
        <ele>61.0</ele>
        <time>2022-08-30T09:56:52Z</time>
      </trkpt>
      <trkpt lat="38.2493710" lon="-0.6211620">
        <ele>61.4</ele>
        <time>2022-08-30T09:56:58Z</time>
      </trkpt>
      <trkpt lat="38.2493930" lon="-0.6213430">
        <ele>61.6</ele>
        <time>2022-08-30T09:57:00Z</time>
      </trkpt>
      <trkpt lat="38.2494060" lon="-0.6214330">
        <ele>61.8</ele>
        <time>2022-08-30T09:57:01Z</time>
      </trkpt>
      <trkpt lat="38.2495180" lon="-0.6219720">
        <ele>62.0</ele>
        <time>2022-08-30T09:57:07Z</time>
      </trkpt>
      <trkpt lat="38.2496470" lon="-0.6227240">
        <ele>62.2</ele>
        <time>2022-08-30T09:57:15Z</time>
      </trkpt>
      <trkpt lat="38.2497300" lon="-0.6234110">
        <ele>62.4</ele>
        <time>2022-08-30T09:57:22Z</time>
      </trkpt>
      <trkpt lat="38.2497720" lon="-0.6238010">
        <ele>62.6</ele>
        <time>2022-08-30T09:57:26Z</time>
      </trkpt>
      <trkpt lat="38.2497800" lon="-0.6238950">
        <ele>62.8</ele>
        <time>2022-08-30T09:57:27Z</time>
      </trkpt>
      <trkpt lat="38.2498300" lon="-0.6245670">
        <ele>62.8</ele>
        <time>2022-08-30T09:57:34Z</time>
      </trkpt>
      <trkpt lat="38.2498530" lon="-0.6250450">
        <ele>63.4</ele>
        <time>2022-08-30T09:57:39Z</time>
      </trkpt>
      <trkpt lat="38.2498840" lon="-0.6252330">
        <ele>63.6</ele>
        <time>2022-08-30T09:57:41Z</time>
      </trkpt>
      <trkpt lat="38.2500310" lon="-0.6257740">
        <ele>64.0</ele>
        <time>2022-08-30T09:57:47Z</time>
      </trkpt>
      <trkpt lat="38.2500900" lon="-0.6259460">
        <ele>64.0</ele>
        <time>2022-08-30T09:57:49Z</time>
      </trkpt>
      <trkpt lat="38.2501690" lon="-0.6262100">
        <ele>64.0</ele>
        <time>2022-08-30T09:57:52Z</time>
      </trkpt>
      <trkpt lat="38.2501840" lon="-0.6263030">
        <ele>64.0</ele>
        <time>2022-08-30T09:57:53Z</time>
      </trkpt>
      <trkpt lat="38.2502780" lon="-0.6270410">
        <ele>64.2</ele>
        <time>2022-08-30T09:58:01Z</time>
      </trkpt>
      <trkpt lat="38.2502880" lon="-0.6271310">
        <ele>64.2</ele>
        <time>2022-08-30T09:58:02Z</time>
      </trkpt>
      <trkpt lat="38.2503750" lon="-0.6278690">
        <ele>64.6</ele>
        <time>2022-08-30T09:58:10Z</time>
      </trkpt>
      <trkpt lat="38.2503830" lon="-0.6279640">
        <ele>64.6</ele>
        <time>2022-08-30T09:58:11Z</time>
      </trkpt>
      <trkpt lat="38.2504130" lon="-0.6286220">
        <ele>64.8</ele>
        <time>2022-08-30T09:58:18Z</time>
      </trkpt>
      <trkpt lat="38.2504230" lon="-0.6293780">
        <ele>64.8</ele>
        <time>2022-08-30T09:58:26Z</time>
      </trkpt>
      <trkpt lat="38.2504250" lon="-0.6294730">
        <ele>64.8</ele>
        <time>2022-08-30T09:58:27Z</time>
      </trkpt>
      <trkpt lat="38.2504380" lon="-0.6297550">
        <ele>65.0</ele>
        <time>2022-08-30T09:58:30Z</time>
      </trkpt>
      <trkpt lat="38.2504980" lon="-0.6304050">
        <ele>65.0</ele>
        <time>2022-08-30T09:58:37Z</time>
      </trkpt>
      <trkpt lat="38.2505980" lon="-0.6311310">
        <ele>65.2</ele>
        <time>2022-08-30T09:58:45Z</time>
      </trkpt>
      <trkpt lat="38.2506610" lon="-0.6315870">
        <ele>65.4</ele>
        <time>2022-08-30T09:58:50Z</time>
      </trkpt>
      <trkpt lat="38.2507700" lon="-0.6322040">
        <ele>65.4</ele>
        <time>2022-08-30T09:58:57Z</time>
      </trkpt>
      <trkpt lat="38.2508410" lon="-0.6327260">
        <ele>66.0</ele>
        <time>2022-08-30T09:59:03Z</time>
      </trkpt>
      <trkpt lat="38.2508500" lon="-0.6329040">
        <ele>66.4</ele>
        <time>2022-08-30T09:59:05Z</time>
      </trkpt>
      <trkpt lat="38.2508740" lon="-0.6333430">
        <ele>67.0</ele>
        <time>2022-08-30T09:59:10Z</time>
      </trkpt>
      <trkpt lat="38.2509050" lon="-0.6335170">
        <ele>67.2</ele>
        <time>2022-08-30T09:59:12Z</time>
      </trkpt>
      <trkpt lat="38.2509260" lon="-0.6336010">
        <ele>67.2</ele>
        <time>2022-08-30T09:59:13Z</time>
      </trkpt>
      <trkpt lat="38.2510390" lon="-0.6339290">
        <ele>67.6</ele>
        <time>2022-08-30T09:59:17Z</time>
      </trkpt>
      <trkpt lat="38.2511740" lon="-0.6342200">
        <ele>68.0</ele>
        <time>2022-08-30T09:59:21Z</time>
      </trkpt>
      <trkpt lat="38.2512170" lon="-0.6342960">
        <ele>68.0</ele>
        <time>2022-08-30T09:59:22Z</time>
      </trkpt>
      <trkpt lat="38.2514280" lon="-0.6347790">
        <ele>68.4</ele>
        <time>2022-08-30T09:59:28Z</time>
      </trkpt>
      <trkpt lat="38.2516940" lon="-0.6353110">
        <ele>68.8</ele>
        <time>2022-08-30T09:59:35Z</time>
      </trkpt>
      <trkpt lat="38.2518780" lon="-0.6357170">
        <ele>68.8</ele>
        <time>2022-08-30T09:59:40Z</time>
      </trkpt>
      <trkpt lat="38.2518990" lon="-0.6358080">
        <ele>69.0</ele>
        <time>2022-08-30T09:59:41Z</time>
      </trkpt>
      <trkpt lat="38.2519480" lon="-0.6360870">
        <ele>69.0</ele>
        <time>2022-08-30T09:59:44Z</time>
      </trkpt>
      <trkpt lat="38.2519910" lon="-0.6364650">
        <ele>69.2</ele>
        <time>2022-08-30T09:59:48Z</time>
      </trkpt>
      <trkpt lat="38.2521080" lon="-0.6372180">
        <ele>69.6</ele>
        <time>2022-08-30T09:59:56Z</time>
      </trkpt>
      <trkpt lat="38.2522490" lon="-0.6379490">
        <ele>69.6</ele>
        <time>2022-08-30T10:00:04Z</time>
      </trkpt>
      <trkpt lat="38.2523400" lon="-0.6387190">
        <ele>69.8</ele>
        <time>2022-08-30T10:00:12Z</time>
      </trkpt>
      <trkpt lat="38.2523680" lon="-0.6389090">
        <ele>70.0</ele>
        <time>2022-08-30T10:00:14Z</time>
      </trkpt>
      <trkpt lat="38.2524350" lon="-0.6392880">
        <ele>70.2</ele>
        <time>2022-08-30T10:00:18Z</time>
      </trkpt>
      <trkpt lat="38.2525280" lon="-0.6398460">
        <ele>70.4</ele>
        <time>2022-08-30T10:00:24Z</time>
      </trkpt>
      <trkpt lat="38.2527000" lon="-0.6404730">
        <ele>71.2</ele>
        <time>2022-08-30T10:00:31Z</time>
      </trkpt>
      <trkpt lat="38.2529080" lon="-0.6411800">
        <ele>71.6</ele>
        <time>2022-08-30T10:00:39Z</time>
      </trkpt>
      <trkpt lat="38.2531350" lon="-0.6417630">
        <ele>72.0</ele>
        <time>2022-08-30T10:00:46Z</time>
      </trkpt>
      <trkpt lat="38.2532550" lon="-0.6419880">
        <ele>72.2</ele>
        <time>2022-08-30T10:00:49Z</time>
      </trkpt>
      <trkpt lat="38.2534700" lon="-0.6423490">
        <ele>72.4</ele>
        <time>2022-08-30T10:00:54Z</time>
      </trkpt>
      <trkpt lat="38.2536890" lon="-0.6428230">
        <ele>73.2</ele>
        <time>2022-08-30T10:01:00Z</time>
      </trkpt>
      <trkpt lat="38.2538110" lon="-0.6432750">
        <ele>73.2</ele>
        <time>2022-08-30T10:01:05Z</time>
      </trkpt>
      <trkpt lat="38.2538810" lon="-0.6435540">
        <ele>73.4</ele>
        <time>2022-08-30T10:01:08Z</time>
      </trkpt>
      <trkpt lat="38.2540710" lon="-0.6442920">
        <ele>73.4</ele>
        <time>2022-08-30T10:01:16Z</time>
      </trkpt>
      <trkpt lat="38.2540970" lon="-0.6443850">
        <ele>73.4</ele>
        <time>2022-08-30T10:01:17Z</time>
      </trkpt>
      <trkpt lat="38.2542960" lon="-0.6450250">
        <ele>73.6</ele>
        <time>2022-08-30T10:01:24Z</time>
      </trkpt>
      <trkpt lat="38.2543890" lon="-0.6453010">
        <ele>73.8</ele>
        <time>2022-08-30T10:01:27Z</time>
      </trkpt>
      <trkpt lat="38.2546320" lon="-0.6460150">
        <ele>74.2</ele>
        <time>2022-08-30T10:01:35Z</time>
      </trkpt>
      <trkpt lat="38.2546970" lon="-0.6461890">
        <ele>74.2</ele>
        <time>2022-08-30T10:01:37Z</time>
      </trkpt>
      <trkpt lat="38.2547590" lon="-0.6463630">
        <ele>74.6</ele>
        <time>2022-08-30T10:01:39Z</time>
      </trkpt>
      <trkpt lat="38.2550090" lon="-0.6470640">
        <ele>74.8</ele>
        <time>2022-08-30T10:01:47Z</time>
      </trkpt>
      <trkpt lat="38.2550400" lon="-0.6471520">
        <ele>74.8</ele>
        <time>2022-08-30T10:01:48Z</time>
      </trkpt>
      <trkpt lat="38.2553080" lon="-0.6478600">
        <ele>75.2</ele>
        <time>2022-08-30T10:01:56Z</time>
      </trkpt>
      <trkpt lat="38.2554140" lon="-0.6481280">
        <ele>75.4</ele>
        <time>2022-08-30T10:01:59Z</time>
      </trkpt>
      <trkpt lat="38.2556990" lon="-0.6487280">
        <ele>75.4</ele>
        <time>2022-08-30T10:02:06Z</time>
      </trkpt>
      <trkpt lat="38.2557410" lon="-0.6488100">
        <ele>75.4</ele>
        <time>2022-08-30T10:02:07Z</time>
      </trkpt>
      <trkpt lat="38.2557830" lon="-0.6488910">
        <ele>75.6</ele>
        <time>2022-08-30T10:02:08Z</time>
      </trkpt>
      <trkpt lat="38.2561450" lon="-0.6495020">
        <ele>76.2</ele>
        <time>2022-08-30T10:02:16Z</time>
      </trkpt>
      <trkpt lat="38.2565440" lon="-0.6499350">
        <ele>76.6</ele>
        <time>2022-08-30T10:02:23Z</time>
      </trkpt>
      <trkpt lat="38.2566030" lon="-0.6499910">
        <ele>76.6</ele>
        <time>2022-08-30T10:02:24Z</time>
      </trkpt>
      <trkpt lat="38.2570090" lon="-0.6503990">
        <ele>77.0</ele>
        <time>2022-08-30T10:02:31Z</time>
      </trkpt>
      <trkpt lat="38.2572290" lon="-0.6506250">
        <ele>77.8</ele>
        <time>2022-08-30T10:02:35Z</time>
      </trkpt>
      <trkpt lat="38.2574620" lon="-0.6508270">
        <ele>78.2</ele>
        <time>2022-08-30T10:02:39Z</time>
      </trkpt>
      <trkpt lat="38.2579540" lon="-0.6511910">
        <ele>78.6</ele>
        <time>2022-08-30T10:02:47Z</time>
      </trkpt>
      <trkpt lat="38.2580150" lon="-0.6512370">
        <ele>78.8</ele>
        <time>2022-08-30T10:02:48Z</time>
      </trkpt>
      <trkpt lat="38.2582890" lon="-0.6515010">
        <ele>79.8</ele>
        <time>2022-08-30T10:02:53Z</time>
      </trkpt>
      <trkpt lat="38.2583420" lon="-0.6515580">
        <ele>79.8</ele>
        <time>2022-08-30T10:02:54Z</time>
      </trkpt>
      <trkpt lat="38.2586110" lon="-0.6518670">
        <ele>79.8</ele>
        <time>2022-08-30T10:02:59Z</time>
      </trkpt>
      <trkpt lat="38.2586950" lon="-0.6520130">
        <ele>79.6</ele>
        <time>2022-08-30T10:03:01Z</time>
      </trkpt>
      <trkpt lat="38.2588600" lon="-0.6524290">
        <ele>80.0</ele>
        <time>2022-08-30T10:03:06Z</time>
      </trkpt>
      <trkpt lat="38.2589820" lon="-0.6528690">
        <ele>80.6</ele>
        <time>2022-08-30T10:03:11Z</time>
      </trkpt>
      <trkpt lat="38.2590040" lon="-0.6530600">
        <ele>80.8</ele>
        <time>2022-08-30T10:03:13Z</time>
      </trkpt>
      <trkpt lat="38.2590280" lon="-0.6534410">
        <ele>80.8</ele>
        <time>2022-08-30T10:03:17Z</time>
      </trkpt>
      <trkpt lat="38.2590500" lon="-0.6541020">
        <ele>81.4</ele>
        <time>2022-08-30T10:03:24Z</time>
      </trkpt>
      <trkpt lat="38.2591460" lon="-0.6545800">
        <ele>81.6</ele>
        <time>2022-08-30T10:03:29Z</time>
      </trkpt>
      <trkpt lat="38.2592550" lon="-0.6551590">
        <ele>81.4</ele>
        <time>2022-08-30T10:03:35Z</time>
      </trkpt>
      <trkpt lat="38.2593310" lon="-0.6557520">
        <ele>81.6</ele>
        <time>2022-08-30T10:03:41Z</time>
      </trkpt>
      <trkpt lat="38.2593610" lon="-0.6558430">
        <ele>81.6</ele>
        <time>2022-08-30T10:03:42Z</time>
      </trkpt>
      <trkpt lat="38.2594470" lon="-0.6560110">
        <ele>81.4</ele>
        <time>2022-08-30T10:03:44Z</time>
      </trkpt>
      <trkpt lat="38.2595540" lon="-0.6561570">
        <ele>81.2</ele>
        <time>2022-08-30T10:03:46Z</time>
      </trkpt>
      <trkpt lat="38.2599100" lon="-0.6565260">
        <ele>81.0</ele>
        <time>2022-08-30T10:03:52Z</time>
      </trkpt>
      <trkpt lat="38.2603730" lon="-0.6570140">
        <ele>81.2</ele>
        <time>2022-08-30T10:04:00Z</time>
      </trkpt>
      <trkpt lat="38.2607120" lon="-0.6574910">
        <ele>81.4</ele>
        <time>2022-08-30T10:04:07Z</time>
      </trkpt>
      <trkpt lat="38.2608200" lon="-0.6576340">
        <ele>81.4</ele>
        <time>2022-08-30T10:04:10Z</time>
      </trkpt>
      <trkpt lat="38.2608550" lon="-0.6576640">
        <ele>81.6</ele>
        <time>2022-08-30T10:04:11Z</time>
      </trkpt>
      <trkpt lat="38.2609470" lon="-0.6577070">
        <ele>81.8</ele>
        <time>2022-08-30T10:04:14Z</time>
      </trkpt>
      <trkpt lat="38.2609720" lon="-0.6577140">
        <ele>82.0</ele>
        <time>2022-08-30T10:04:15Z</time>
      </trkpt>
      <trkpt lat="38.2609930" lon="-0.6577310">
        <ele>82.2</ele>
        <time>2022-08-30T10:04:16Z</time>
      </trkpt>
      <trkpt lat="38.2610030" lon="-0.6578060">
        <ele>82.4</ele>
        <time>2022-08-30T10:04:18Z</time>
      </trkpt>
      <trkpt lat="38.2610050" lon="-0.6579490">
        <ele>82.6</ele>
        <time>2022-08-30T10:04:21Z</time>
      </trkpt>
      <trkpt lat="38.2610340" lon="-0.6580510">
        <ele>82.6</ele>
        <time>2022-08-30T10:04:23Z</time>
      </trkpt>
      <trkpt lat="38.2610950" lon="-0.6581380">
        <ele>83.0</ele>
        <time>2022-08-30T10:04:25Z</time>
      </trkpt>
      <trkpt lat="38.2611790" lon="-0.6581870">
        <ele>83.0</ele>
        <time>2022-08-30T10:04:27Z</time>
      </trkpt>
      <trkpt lat="38.2612670" lon="-0.6581880">
        <ele>83.0</ele>
        <time>2022-08-30T10:04:29Z</time>
      </trkpt>
      <trkpt lat="38.2613440" lon="-0.6581560">
        <ele>83.0</ele>
        <time>2022-08-30T10:04:31Z</time>
      </trkpt>
      <trkpt lat="38.2614210" lon="-0.6580950">
        <ele>83.4</ele>
        <time>2022-08-30T10:04:35Z</time>
      </trkpt>
      <trkpt lat="38.2614320" lon="-0.6580830">
        <ele>83.6</ele>
        <time>2022-08-30T10:04:36Z</time>
      </trkpt>
      <trkpt lat="38.2622950" lon="-0.6586640">
        <ele>88.0</ele>
        <time>2022-08-30T10:05:08Z</time>
      </trkpt>
      <trkpt lat="38.2623140" lon="-0.6586770">
        <ele>88.0</ele>
        <time>2022-08-30T10:05:09Z</time>
      </trkpt>
      <trkpt lat="38.2623400" lon="-0.6586910">
        <ele>88.0</ele>
        <time>2022-08-30T10:05:10Z</time>
      </trkpt>
      <trkpt lat="38.2624050" lon="-0.6587070">
        <ele>88.4</ele>
        <time>2022-08-30T10:05:12Z</time>
      </trkpt>
      <trkpt lat="38.2624970" lon="-0.6587250">
        <ele>88.4</ele>
        <time>2022-08-30T10:05:14Z</time>
      </trkpt>
      <trkpt lat="38.2626050" lon="-0.6588030">
        <ele>88.6</ele>
        <time>2022-08-30T10:05:16Z</time>
      </trkpt>
      <trkpt lat="38.2626570" lon="-0.6588560">
        <ele>88.6</ele>
        <time>2022-08-30T10:05:17Z</time>
      </trkpt>
      <trkpt lat="38.2627030" lon="-0.6589140">
        <ele>88.6</ele>
        <time>2022-08-30T10:05:18Z</time>
      </trkpt>
      <trkpt lat="38.2627770" lon="-0.6590530">
        <ele>88.6</ele>
        <time>2022-08-30T10:05:20Z</time>
      </trkpt>
      <trkpt lat="38.2628050" lon="-0.6591330">
        <ele>88.6</ele>
        <time>2022-08-30T10:05:21Z</time>
      </trkpt>
      <trkpt lat="38.2628250" lon="-0.6592170">
        <ele>88.6</ele>
        <time>2022-08-30T10:05:22Z</time>
      </trkpt>
      <trkpt lat="38.2628360" lon="-0.6594770">
        <ele>88.6</ele>
        <time>2022-08-30T10:05:25Z</time>
      </trkpt>
      <trkpt lat="38.2628030" lon="-0.6596430">
        <ele>88.6</ele>
        <time>2022-08-30T10:05:27Z</time>
      </trkpt>
      <trkpt lat="38.2627670" lon="-0.6597160">
        <ele>88.6</ele>
        <time>2022-08-30T10:05:28Z</time>
      </trkpt>
      <trkpt lat="38.2626740" lon="-0.6598410">
        <ele>88.6</ele>
        <time>2022-08-30T10:05:30Z</time>
      </trkpt>
      <trkpt lat="38.2625590" lon="-0.6599370">
        <ele>88.4</ele>
        <time>2022-08-30T10:05:32Z</time>
      </trkpt>
      <trkpt lat="38.2624270" lon="-0.6599950">
        <ele>88.6</ele>
        <time>2022-08-30T10:05:34Z</time>
      </trkpt>
      <trkpt lat="38.2622860" lon="-0.6600160">
        <ele>88.6</ele>
        <time>2022-08-30T10:05:36Z</time>
      </trkpt>
      <trkpt lat="38.2622140" lon="-0.6600290">
        <ele>88.6</ele>
        <time>2022-08-30T10:05:37Z</time>
      </trkpt>
      <trkpt lat="38.2620780" lon="-0.6600990">
        <ele>88.4</ele>
        <time>2022-08-30T10:05:39Z</time>
      </trkpt>
      <trkpt lat="38.2620230" lon="-0.6601600">
        <ele>88.4</ele>
        <time>2022-08-30T10:05:40Z</time>
      </trkpt>
      <trkpt lat="38.2619820" lon="-0.6602360">
        <ele>88.4</ele>
        <time>2022-08-30T10:05:41Z</time>
      </trkpt>
      <trkpt lat="38.2619360" lon="-0.6604110">
        <ele>88.4</ele>
        <time>2022-08-30T10:05:43Z</time>
      </trkpt>
      <trkpt lat="38.2619220" lon="-0.6605040">
        <ele>88.4</ele>
        <time>2022-08-30T10:05:44Z</time>
      </trkpt>
      <trkpt lat="38.2619130" lon="-0.6607860">
        <ele>88.2</ele>
        <time>2022-08-30T10:05:47Z</time>
      </trkpt>
      <trkpt lat="38.2618800" lon="-0.6615290">
        <ele>88.4</ele>
        <time>2022-08-30T10:05:55Z</time>
      </trkpt>
      <trkpt lat="38.2617860" lon="-0.6621960">
        <ele>88.4</ele>
        <time>2022-08-30T10:06:02Z</time>
      </trkpt>
      <trkpt lat="38.2617360" lon="-0.6624960">
        <ele>88.4</ele>
        <time>2022-08-30T10:06:05Z</time>
      </trkpt>
      <trkpt lat="38.2616100" lon="-0.6632240">
        <ele>88.0</ele>
        <time>2022-08-30T10:06:12Z</time>
      </trkpt>
      <trkpt lat="38.2615920" lon="-0.6633290">
        <ele>88.0</ele>
        <time>2022-08-30T10:06:13Z</time>
      </trkpt>
      <trkpt lat="38.2614630" lon="-0.6640570">
        <ele>87.0</ele>
        <time>2022-08-30T10:06:20Z</time>
      </trkpt>
      <trkpt lat="38.2614430" lon="-0.6641610">
        <ele>86.8</ele>
        <time>2022-08-30T10:06:21Z</time>
      </trkpt>
      <trkpt lat="38.2613170" lon="-0.6648870">
        <ele>87.2</ele>
        <time>2022-08-30T10:06:28Z</time>
      </trkpt>
      <trkpt lat="38.2612970" lon="-0.6649900">
        <ele>87.2</ele>
        <time>2022-08-30T10:06:29Z</time>
      </trkpt>
      <trkpt lat="38.2611720" lon="-0.6657100">
        <ele>87.2</ele>
        <time>2022-08-30T10:06:36Z</time>
      </trkpt>
      <trkpt lat="38.2610890" lon="-0.6661200">
        <ele>87.0</ele>
        <time>2022-08-30T10:06:40Z</time>
      </trkpt>
      <trkpt lat="38.2609650" lon="-0.6668290">
        <ele>86.8</ele>
        <time>2022-08-30T10:06:47Z</time>
      </trkpt>
      <trkpt lat="38.2608920" lon="-0.6672300">
        <ele>86.8</ele>
        <time>2022-08-30T10:06:51Z</time>
      </trkpt>
      <trkpt lat="38.2607860" lon="-0.6678320">
        <ele>86.8</ele>
        <time>2022-08-30T10:06:57Z</time>
      </trkpt>
      <trkpt lat="38.2607270" lon="-0.6681250">
        <ele>86.6</ele>
        <time>2022-08-30T10:07:00Z</time>
      </trkpt>
      <trkpt lat="38.2606740" lon="-0.6684200">
        <ele>86.4</ele>
        <time>2022-08-30T10:07:03Z</time>
      </trkpt>
      <trkpt lat="38.2605650" lon="-0.6690200">
        <ele>86.2</ele>
        <time>2022-08-30T10:07:09Z</time>
      </trkpt>
      <trkpt lat="38.2605250" lon="-0.6692190">
        <ele>86.0</ele>
        <time>2022-08-30T10:07:11Z</time>
      </trkpt>
      <trkpt lat="38.2604480" lon="-0.6697000">
        <ele>85.8</ele>
        <time>2022-08-30T10:07:16Z</time>
      </trkpt>
      <trkpt lat="38.2603340" lon="-0.6702770">
        <ele>85.4</ele>
        <time>2022-08-30T10:07:22Z</time>
      </trkpt>
      <trkpt lat="38.2601990" lon="-0.6710330">
        <ele>85.0</ele>
        <time>2022-08-30T10:07:30Z</time>
      </trkpt>
      <trkpt lat="38.2601810" lon="-0.6711270">
        <ele>84.8</ele>
        <time>2022-08-30T10:07:31Z</time>
      </trkpt>
      <trkpt lat="38.2601650" lon="-0.6712200">
        <ele>84.8</ele>
        <time>2022-08-30T10:07:32Z</time>
      </trkpt>
      <trkpt lat="38.2601190" lon="-0.6715770">
        <ele>84.6</ele>
        <time>2022-08-30T10:07:36Z</time>
      </trkpt>
      <trkpt lat="38.2601180" lon="-0.6716590">
        <ele>84.4</ele>
        <time>2022-08-30T10:07:37Z</time>
      </trkpt>
      <trkpt lat="38.2601340" lon="-0.6718280">
        <ele>84.4</ele>
        <time>2022-08-30T10:07:40Z</time>
      </trkpt>
      <trkpt lat="38.2601790" lon="-0.6719800">
        <ele>84.6</ele>
        <time>2022-08-30T10:07:44Z</time>
      </trkpt>
      <trkpt lat="38.2602030" lon="-0.6720220">
        <ele>84.6</ele>
        <time>2022-08-30T10:07:45Z</time>
      </trkpt>
      <trkpt lat="38.2602300" lon="-0.6720710">
        <ele>84.6</ele>
        <time>2022-08-30T10:07:46Z</time>
      </trkpt>
      <trkpt lat="38.2602730" lon="-0.6721820">
        <ele>84.8</ele>
        <time>2022-08-30T10:07:48Z</time>
      </trkpt>
      <trkpt lat="38.2602860" lon="-0.6722470">
        <ele>84.8</ele>
        <time>2022-08-30T10:07:49Z</time>
      </trkpt>
      <trkpt lat="38.2602990" lon="-0.6723940">
        <ele>84.8</ele>
        <time>2022-08-30T10:07:51Z</time>
      </trkpt>
      <trkpt lat="38.2603020" lon="-0.6725460">
        <ele>84.8</ele>
        <time>2022-08-30T10:07:53Z</time>
      </trkpt>
      <trkpt lat="38.2603070" lon="-0.6726270">
        <ele>84.8</ele>
        <time>2022-08-30T10:07:54Z</time>
      </trkpt>
      <trkpt lat="38.2603490" lon="-0.6728740">
        <ele>84.8</ele>
        <time>2022-08-30T10:07:57Z</time>
      </trkpt>
      <trkpt lat="38.2604970" lon="-0.6733750">
        <ele>84.6</ele>
        <time>2022-08-30T10:08:03Z</time>
      </trkpt>
      <trkpt lat="38.2606660" lon="-0.6737830">
        <ele>84.8</ele>
        <time>2022-08-30T10:08:08Z</time>
      </trkpt>
      <trkpt lat="38.2607070" lon="-0.6738620">
        <ele>84.8</ele>
        <time>2022-08-30T10:08:09Z</time>
      </trkpt>
      <trkpt lat="38.2610360" lon="-0.6744690">
        <ele>85.6</ele>
        <time>2022-08-30T10:08:17Z</time>
      </trkpt>
      <trkpt lat="38.2610770" lon="-0.6745460">
        <ele>85.6</ele>
        <time>2022-08-30T10:08:18Z</time>
      </trkpt>
      <trkpt lat="38.2611600" lon="-0.6747020">
        <ele>86.0</ele>
        <time>2022-08-30T10:08:20Z</time>
      </trkpt>
      <trkpt lat="38.2615040" lon="-0.6753240">
        <ele>86.8</ele>
        <time>2022-08-30T10:08:28Z</time>
      </trkpt>
      <trkpt lat="38.2615860" lon="-0.6754760">
        <ele>87.0</ele>
        <time>2022-08-30T10:08:30Z</time>
      </trkpt>
      <trkpt lat="38.2618610" lon="-0.6759890">
        <ele>87.8</ele>
        <time>2022-08-30T10:08:37Z</time>
      </trkpt>
      <trkpt lat="38.2620150" lon="-0.6762750">
        <ele>88.0</ele>
        <time>2022-08-30T10:08:41Z</time>
      </trkpt>
      <trkpt lat="38.2620940" lon="-0.6764030">
        <ele>88.2</ele>
        <time>2022-08-30T10:08:43Z</time>
      </trkpt>
      <trkpt lat="38.2621480" lon="-0.6764460">
        <ele>88.4</ele>
        <time>2022-08-30T10:08:44Z</time>
      </trkpt>
      <trkpt lat="38.2622050" lon="-0.6764650">
        <ele>88.4</ele>
        <time>2022-08-30T10:08:45Z</time>
      </trkpt>
      <trkpt lat="38.2623430" lon="-0.6764500">
        <ele>88.2</ele>
        <time>2022-08-30T10:08:47Z</time>
      </trkpt>
      <trkpt lat="38.2624150" lon="-0.6764460">
        <ele>88.2</ele>
        <time>2022-08-30T10:08:48Z</time>
      </trkpt>
      <trkpt lat="38.2625570" lon="-0.6764840">
        <ele>88.4</ele>
        <time>2022-08-30T10:08:50Z</time>
      </trkpt>
      <trkpt lat="38.2626770" lon="-0.6765870">
        <ele>88.6</ele>
        <time>2022-08-30T10:08:52Z</time>
      </trkpt>
      <trkpt lat="38.2627210" lon="-0.6766580">
        <ele>88.6</ele>
        <time>2022-08-30T10:08:53Z</time>
      </trkpt>
      <trkpt lat="38.2627520" lon="-0.6767400">
        <ele>88.6</ele>
        <time>2022-08-30T10:08:54Z</time>
      </trkpt>
      <trkpt lat="38.2627820" lon="-0.6769220">
        <ele>88.8</ele>
        <time>2022-08-30T10:08:56Z</time>
      </trkpt>
      <trkpt lat="38.2627900" lon="-0.6771150">
        <ele>89.0</ele>
        <time>2022-08-30T10:08:58Z</time>
      </trkpt>
      <trkpt lat="38.2628170" lon="-0.6774080">
        <ele>89.2</ele>
        <time>2022-08-30T10:09:01Z</time>
      </trkpt>
      <trkpt lat="38.2629530" lon="-0.6779590">
        <ele>89.4</ele>
        <time>2022-08-30T10:09:07Z</time>
      </trkpt>
      <trkpt lat="38.2630700" lon="-0.6782990">
        <ele>90.2</ele>
        <time>2022-08-30T10:09:11Z</time>
      </trkpt>
      <trkpt lat="38.2631710" lon="-0.6785450">
        <ele>90.6</ele>
        <time>2022-08-30T10:09:14Z</time>
      </trkpt>
      <trkpt lat="38.2634990" lon="-0.6791490">
        <ele>91.0</ele>
        <time>2022-08-30T10:09:22Z</time>
      </trkpt>
      <trkpt lat="38.2635410" lon="-0.6792280">
        <ele>91.2</ele>
        <time>2022-08-30T10:09:23Z</time>
      </trkpt>
      <trkpt lat="38.2638750" lon="-0.6798410">
        <ele>92.0</ele>
        <time>2022-08-30T10:09:31Z</time>
      </trkpt>
      <trkpt lat="38.2639970" lon="-0.6800740">
        <ele>92.2</ele>
        <time>2022-08-30T10:09:34Z</time>
      </trkpt>
      <trkpt lat="38.2642020" lon="-0.6804430">
        <ele>92.8</ele>
        <time>2022-08-30T10:09:39Z</time>
      </trkpt>
      <trkpt lat="38.2644020" lon="-0.6808100">
        <ele>93.2</ele>
        <time>2022-08-30T10:09:44Z</time>
      </trkpt>
      <trkpt lat="38.2645170" lon="-0.6810380">
        <ele>93.6</ele>
        <time>2022-08-30T10:09:47Z</time>
      </trkpt>
      <trkpt lat="38.2647960" lon="-0.6815630">
        <ele>94.0</ele>
        <time>2022-08-30T10:09:54Z</time>
      </trkpt>
      <trkpt lat="38.2648380" lon="-0.6816400">
        <ele>94.0</ele>
        <time>2022-08-30T10:09:55Z</time>
      </trkpt>
      <trkpt lat="38.2651590" lon="-0.6822420">
        <ele>94.4</ele>
        <time>2022-08-30T10:10:03Z</time>
      </trkpt>
      <trkpt lat="38.2653370" lon="-0.6825770">
        <ele>95.0</ele>
        <time>2022-08-30T10:10:08Z</time>
      </trkpt>
      <trkpt lat="38.2653720" lon="-0.6826410">
        <ele>95.0</ele>
        <time>2022-08-30T10:10:09Z</time>
      </trkpt>
      <trkpt lat="38.2654060" lon="-0.6827030">
        <ele>95.2</ele>
        <time>2022-08-30T10:10:10Z</time>
      </trkpt>
      <trkpt lat="38.2654950" lon="-0.6828770">
        <ele>95.4</ele>
        <time>2022-08-30T10:10:13Z</time>
      </trkpt>
      <trkpt lat="38.2655600" lon="-0.6829900">
        <ele>95.6</ele>
        <time>2022-08-30T10:10:15Z</time>
      </trkpt>
      <trkpt lat="38.2659060" lon="-0.6837010">
        <ele>95.8</ele>
        <time>2022-08-30T10:11:17Z</time>
      </trkpt>
      <trkpt lat="38.2659770" lon="-0.6838090">
        <ele>95.8</ele>
        <time>2022-08-30T10:11:20Z</time>
      </trkpt>
      <trkpt lat="38.2660420" lon="-0.6839070">
        <ele>95.8</ele>
        <time>2022-08-30T10:11:22Z</time>
      </trkpt>
      <trkpt lat="38.2661050" lon="-0.6840350">
        <ele>96.0</ele>
        <time>2022-08-30T10:11:24Z</time>
      </trkpt>
      <trkpt lat="38.2662160" lon="-0.6842450">
        <ele>96.0</ele>
        <time>2022-08-30T10:11:27Z</time>
      </trkpt>
      <trkpt lat="38.2662540" lon="-0.6843130">
        <ele>96.2</ele>
        <time>2022-08-30T10:11:28Z</time>
      </trkpt>
      <trkpt lat="38.2664620" lon="-0.6847020">
        <ele>96.6</ele>
        <time>2022-08-30T10:11:34Z</time>
      </trkpt>
      <trkpt lat="38.2667100" lon="-0.6851630">
        <ele>97.2</ele>
        <time>2022-08-30T10:11:41Z</time>
      </trkpt>
      <trkpt lat="38.2669560" lon="-0.6856730">
        <ele>98.0</ele>
        <time>2022-08-30T10:11:49Z</time>
      </trkpt>
      <trkpt lat="38.2670430" lon="-0.6858400">
        <ele>98.2</ele>
        <time>2022-08-30T10:11:52Z</time>
      </trkpt>
      <trkpt lat="38.2670690" lon="-0.6858920">
        <ele>98.2</ele>
        <time>2022-08-30T10:11:53Z</time>
      </trkpt>
      <trkpt lat="38.2670810" lon="-0.6859460">
        <ele>98.4</ele>
        <time>2022-08-30T10:11:54Z</time>
      </trkpt>
      <trkpt lat="38.2670800" lon="-0.6859980">
        <ele>98.4</ele>
        <time>2022-08-30T10:11:55Z</time>
      </trkpt>
      <trkpt lat="38.2670410" lon="-0.6861030">
        <ele>98.4</ele>
        <time>2022-08-30T10:11:57Z</time>
      </trkpt>
      <trkpt lat="38.2668430" lon="-0.6863830">
        <ele>98.4</ele>
        <time>2022-08-30T10:12:02Z</time>
      </trkpt>
      <trkpt lat="38.2665790" lon="-0.6867820">
        <ele>98.0</ele>
        <time>2022-08-30T10:12:08Z</time>
      </trkpt>
      <trkpt lat="38.2662740" lon="-0.6872710">
        <ele>97.6</ele>
        <time>2022-08-30T10:12:15Z</time>
      </trkpt>
      <trkpt lat="38.2660570" lon="-0.6874900">
        <ele>97.6</ele>
        <time>2022-08-30T10:12:19Z</time>
      </trkpt>
      <trkpt lat="38.2659940" lon="-0.6875360">
        <ele>97.4</ele>
        <time>2022-08-30T10:12:20Z</time>
      </trkpt>
      <trkpt lat="38.2659310" lon="-0.6875810">
        <ele>97.2</ele>
        <time>2022-08-30T10:12:21Z</time>
      </trkpt>
      <trkpt lat="38.2655110" lon="-0.6878890">
        <ele>97.0</ele>
        <time>2022-08-30T10:12:28Z</time>
      </trkpt>
      <trkpt lat="38.2654010" lon="-0.6879910">
        <ele>97.0</ele>
        <time>2022-08-30T10:12:30Z</time>
      </trkpt>
      <trkpt lat="38.2653030" lon="-0.6881290">
        <ele>97.0</ele>
        <time>2022-08-30T10:12:32Z</time>
      </trkpt>
      <trkpt lat="38.2652670" lon="-0.6882060">
        <ele>97.0</ele>
        <time>2022-08-30T10:12:33Z</time>
      </trkpt>
      <trkpt lat="38.2652060" lon="-0.6883600">
        <ele>96.8</ele>
        <time>2022-08-30T10:12:35Z</time>
      </trkpt>
      <trkpt lat="38.2651640" lon="-0.6885270">
        <ele>96.8</ele>
        <time>2022-08-30T10:12:37Z</time>
      </trkpt>
      <trkpt lat="38.2650380" lon="-0.6890950">
        <ele>96.6</ele>
        <time>2022-08-30T10:12:44Z</time>
      </trkpt>
      <trkpt lat="38.2648390" lon="-0.6896080">
        <ele>96.6</ele>
        <time>2022-08-30T10:12:50Z</time>
      </trkpt>
      <trkpt lat="38.2647120" lon="-0.6898220">
        <ele>96.0</ele>
        <time>2022-08-30T10:12:53Z</time>
      </trkpt>
      <trkpt lat="38.2646170" lon="-0.6899460">
        <ele>96.0</ele>
        <time>2022-08-30T10:12:55Z</time>
      </trkpt>
      <trkpt lat="38.2645730" lon="-0.6900060">
        <ele>95.8</ele>
        <time>2022-08-30T10:12:56Z</time>
      </trkpt>
      <trkpt lat="38.2645150" lon="-0.6901320">
        <ele>95.8</ele>
        <time>2022-08-30T10:12:58Z</time>
      </trkpt>
      <trkpt lat="38.2645140" lon="-0.6901960">
        <ele>96.0</ele>
        <time>2022-08-30T10:12:59Z</time>
      </trkpt>
      <trkpt lat="38.2645350" lon="-0.6902550">
        <ele>96.0</ele>
        <time>2022-08-30T10:13:00Z</time>
      </trkpt>
      <trkpt lat="38.2645980" lon="-0.6903660">
        <ele>96.0</ele>
        <time>2022-08-30T10:13:02Z</time>
      </trkpt>
      <trkpt lat="38.2646870" lon="-0.6904880">
        <ele>96.0</ele>
        <time>2022-08-30T10:13:04Z</time>
      </trkpt>
      <trkpt lat="38.2647240" lon="-0.6905540">
        <ele>96.0</ele>
        <time>2022-08-30T10:13:05Z</time>
      </trkpt>
      <trkpt lat="38.2647600" lon="-0.6906270">
        <ele>96.0</ele>
        <time>2022-08-30T10:13:06Z</time>
      </trkpt>
      <trkpt lat="38.2649250" lon="-0.6910190">
        <ele>96.0</ele>
        <time>2022-08-30T10:13:11Z</time>
      </trkpt>
      <trkpt lat="38.2650430" lon="-0.6913090">
        <ele>96.2</ele>
        <time>2022-08-30T10:13:15Z</time>
      </trkpt>
      <trkpt lat="38.2650820" lon="-0.6913730">
        <ele>96.2</ele>
        <time>2022-08-30T10:13:16Z</time>
      </trkpt>
      <trkpt lat="38.2651250" lon="-0.6914320">
        <ele>96.2</ele>
        <time>2022-08-30T10:13:17Z</time>
      </trkpt>
      <trkpt lat="38.2652150" lon="-0.6915360">
        <ele>96.4</ele>
        <time>2022-08-30T10:13:19Z</time>
      </trkpt>
      <trkpt lat="38.2652620" lon="-0.6915830">
        <ele>96.4</ele>
        <time>2022-08-30T10:13:20Z</time>
      </trkpt>
      <trkpt lat="38.2654060" lon="-0.6917100">
        <ele>96.6</ele>
        <time>2022-08-30T10:13:23Z</time>
      </trkpt>
      <trkpt lat="38.2655400" lon="-0.6917820">
        <ele>96.8</ele>
        <time>2022-08-30T10:13:25Z</time>
      </trkpt>
      <trkpt lat="38.2656470" lon="-0.6918660">
        <ele>96.8</ele>
        <time>2022-08-30T10:13:27Z</time>
      </trkpt>
      <trkpt lat="38.2656760" lon="-0.6920030">
        <ele>97.0</ele>
        <time>2022-08-30T10:13:29Z</time>
      </trkpt>
      <trkpt lat="38.2656760" lon="-0.6921540">
        <ele>97.0</ele>
        <time>2022-08-30T10:13:31Z</time>
      </trkpt>
      <trkpt lat="38.2656780" lon="-0.6922900">
        <ele>97.0</ele>
        <time>2022-08-30T10:13:33Z</time>
      </trkpt>
      <trkpt lat="38.2656930" lon="-0.6923610">
        <ele>97.2</ele>
        <time>2022-08-30T10:13:34Z</time>
      </trkpt>
      <trkpt lat="38.2657260" lon="-0.6925730">
        <ele>97.4</ele>
        <time>2022-08-30T10:13:37Z</time>
      </trkpt>
      <trkpt lat="38.2657340" lon="-0.6927130">
        <ele>97.4</ele>
        <time>2022-08-30T10:13:39Z</time>
      </trkpt>
      <trkpt lat="38.2657470" lon="-0.6928300">
        <ele>97.6</ele>
        <time>2022-08-30T10:13:41Z</time>
      </trkpt>
      <trkpt lat="38.2657520" lon="-0.6928870">
        <ele>97.6</ele>
        <time>2022-08-30T10:13:42Z</time>
      </trkpt>
      <trkpt lat="38.2657610" lon="-0.6929570">
        <ele>97.8</ele>
        <time>2022-08-30T10:13:43Z</time>
      </trkpt>
      <trkpt lat="38.2657830" lon="-0.6930770">
        <ele>97.8</ele>
        <time>2022-08-30T10:13:45Z</time>
      </trkpt>
      <trkpt lat="38.2657970" lon="-0.6931390">
        <ele>97.8</ele>
        <time>2022-08-30T10:13:46Z</time>
      </trkpt>
      <trkpt lat="38.2658050" lon="-0.6932010">
        <ele>98.0</ele>
        <time>2022-08-30T10:13:47Z</time>
      </trkpt>
      <trkpt lat="38.2658020" lon="-0.6932980">
        <ele>98.0</ele>
        <time>2022-08-30T10:13:49Z</time>
      </trkpt>
      <trkpt lat="38.2657760" lon="-0.6933350">
        <ele>98.0</ele>
        <time>2022-08-30T10:13:50Z</time>
      </trkpt>
      <trkpt lat="38.2657800" lon="-0.6933760">
        <ele>98.2</ele>
        <time>2022-08-30T10:13:51Z</time>
      </trkpt>
      <trkpt lat="38.2658210" lon="-0.6934570">
        <ele>98.4</ele>
        <time>2022-08-30T10:13:53Z</time>
      </trkpt>
      <trkpt lat="38.2658670" lon="-0.6934510">
        <ele>98.8</ele>
        <time>2022-08-30T10:13:55Z</time>
      </trkpt>
      <trkpt lat="38.2659060" lon="-0.6934440">
        <ele>99.0</ele>
        <time>2022-08-30T10:13:56Z</time>
      </trkpt>
      <trkpt lat="38.2661030" lon="-0.6934340">
        <ele>99.2</ele>
        <time>2022-08-30T10:14:00Z</time>
      </trkpt>
      <trkpt lat="38.2661590" lon="-0.6934320">
        <ele>99.2</ele>
        <time>2022-08-30T10:14:01Z</time>
      </trkpt>
      <trkpt lat="38.2662620" lon="-0.6934280">
        <ele>99.4</ele>
        <time>2022-08-30T10:14:03Z</time>
      </trkpt>
      <trkpt lat="38.2663120" lon="-0.6934320">
        <ele>99.4</ele>
        <time>2022-08-30T10:14:04Z</time>
      </trkpt>
      <trkpt lat="38.2667830" lon="-0.6936560">
        <ele>100.0</ele>
        <time>2022-08-30T10:14:15Z</time>
      </trkpt>
      <trkpt lat="38.2668500" lon="-0.6936870">
        <ele>100.0</ele>
        <time>2022-08-30T10:14:17Z</time>
      </trkpt>
      <trkpt lat="38.2669570" lon="-0.6937130">
        <ele>100.2</ele>
        <time>2022-08-30T10:14:19Z</time>
      </trkpt>
      <trkpt lat="38.2670710" lon="-0.6936930">
        <ele>100.4</ele>
        <time>2022-08-30T10:14:21Z</time>
      </trkpt>
      <trkpt lat="38.2672140" lon="-0.6937590">
        <ele>100.6</ele>
        <time>2022-08-30T10:14:23Z</time>
      </trkpt>
      <trkpt lat="38.2672920" lon="-0.6937930">
        <ele>100.6</ele>
        <time>2022-08-30T10:14:24Z</time>
      </trkpt>
      <trkpt lat="38.2676260" lon="-0.6937510">
        <ele>100.8</ele>
        <time>2022-08-30T10:14:30Z</time>
      </trkpt>
      <trkpt lat="38.2677150" lon="-0.6936980">
        <ele>100.8</ele>
        <time>2022-08-30T10:14:32Z</time>
      </trkpt>
      <trkpt lat="38.2678230" lon="-0.6936880">
        <ele>100.8</ele>
        <time>2022-08-30T10:14:34Z</time>
      </trkpt>
      <trkpt lat="38.2680170" lon="-0.6936810">
        <ele>100.8</ele>
        <time>2022-08-30T10:14:38Z</time>
      </trkpt>
      <trkpt lat="38.2681100" lon="-0.6936830">
        <ele>100.8</ele>
        <time>2022-08-30T10:14:40Z</time>
      </trkpt>
      <trkpt lat="38.2681830" lon="-0.6936930">
        <ele>100.8</ele>
        <time>2022-08-30T10:14:42Z</time>
      </trkpt>
      <trkpt lat="38.2678870" lon="-0.6940430">
        <ele>100.6</ele>
        <time>2022-08-30T10:16:12Z</time>
      </trkpt>
      <trkpt lat="38.2678890" lon="-0.6940770">
        <ele>100.4</ele>
        <time>2022-08-30T10:16:13Z</time>
      </trkpt>
      <trkpt lat="38.2679030" lon="-0.6941880">
        <ele>100.4</ele>
        <time>2022-08-30T10:16:15Z</time>
      </trkpt>
      <trkpt lat="38.2678870" lon="-0.6943490">
        <ele>100.2</ele>
        <time>2022-08-30T10:16:17Z</time>
      </trkpt>
      <trkpt lat="38.2678870" lon="-0.6945080">
        <ele>100.2</ele>
        <time>2022-08-30T10:16:19Z</time>
      </trkpt>
      <trkpt lat="38.2678800" lon="-0.6946810">
        <ele>100.0</ele>
        <time>2022-08-30T10:16:21Z</time>
      </trkpt>
      <trkpt lat="38.2678760" lon="-0.6947470">
        <ele>100.0</ele>
        <time>2022-08-30T10:16:22Z</time>
      </trkpt>
      <trkpt lat="38.2678700" lon="-0.6948160">
        <ele>100.0</ele>
        <time>2022-08-30T10:16:23Z</time>
      </trkpt>
      <trkpt lat="38.2678610" lon="-0.6949000">
        <ele>100.2</ele>
        <time>2022-08-30T10:16:24Z</time>
      </trkpt>
      <trkpt lat="38.2678430" lon="-0.6950140">
        <ele>100.2</ele>
        <time>2022-08-30T10:16:26Z</time>
      </trkpt>
      <trkpt lat="38.2678350" lon="-0.6950580">
        <ele>100.4</ele>
        <time>2022-08-30T10:16:27Z</time>
      </trkpt>
      <trkpt lat="38.2678180" lon="-0.6951640">
        <ele>100.6</ele>
        <time>2022-08-30T10:16:30Z</time>
      </trkpt>
      <trkpt lat="38.2677980" lon="-0.6952780">
        <ele>100.6</ele>
        <time>2022-08-30T10:16:32Z</time>
      </trkpt>
      <trkpt lat="38.2677810" lon="-0.6953810">
        <ele>100.8</ele>
        <time>2022-08-30T10:16:34Z</time>
      </trkpt>
      <trkpt lat="38.2677970" lon="-0.6954450">
        <ele>100.8</ele>
        <time>2022-08-30T10:16:35Z</time>
      </trkpt>
      <trkpt lat="38.2678360" lon="-0.6956150">
        <ele>100.6</ele>
        <time>2022-08-30T10:16:37Z</time>
      </trkpt>
      <trkpt lat="38.2678180" lon="-0.6957250">
        <ele>100.6</ele>
        <time>2022-08-30T10:16:39Z</time>
      </trkpt>
      <trkpt lat="38.2677830" lon="-0.6958950">
        <ele>100.8</ele>
        <time>2022-08-30T10:16:42Z</time>
      </trkpt>
      <trkpt lat="38.2677500" lon="-0.6960020">
        <ele>100.8</ele>
        <time>2022-08-30T10:16:44Z</time>
      </trkpt>
      <trkpt lat="38.2677340" lon="-0.6960430">
        <ele>100.8</ele>
        <time>2022-08-30T10:16:45Z</time>
      </trkpt>
      <trkpt lat="38.2677040" lon="-0.6960600">
        <ele>101.0</ele>
        <time>2022-08-30T10:16:46Z</time>
      </trkpt>
      <trkpt lat="38.2676640" lon="-0.6960660">
        <ele>101.0</ele>
        <time>2022-08-30T10:16:47Z</time>
      </trkpt>
      <trkpt lat="38.2668840" lon="-0.6952220">
        <ele>98.6</ele>
        <time>2022-08-30T10:24:42Z</time>
      </trkpt>
      <trkpt lat="38.2668610" lon="-0.6952230">
        <ele>98.6</ele>
        <time>2022-08-30T10:24:43Z</time>
      </trkpt>
      <trkpt lat="38.2668240" lon="-0.6952280">
        <ele>98.6</ele>
        <time>2022-08-30T10:24:44Z</time>
      </trkpt>
      <trkpt lat="38.2666720" lon="-0.6952560">
        <ele>98.6</ele>
        <time>2022-08-30T10:24:47Z</time>
      </trkpt>
      <trkpt lat="38.2664980" lon="-0.6952840">
        <ele>98.4</ele>
        <time>2022-08-30T10:24:50Z</time>
      </trkpt>
      <trkpt lat="38.2664080" lon="-0.6953250">
        <ele>98.4</ele>
        <time>2022-08-30T10:24:52Z</time>
      </trkpt>
      <trkpt lat="38.2663090" lon="-0.6953570">
        <ele>98.4</ele>
        <time>2022-08-30T10:24:54Z</time>
      </trkpt>
      <trkpt lat="38.2662240" lon="-0.6953760">
        <ele>98.4</ele>
        <time>2022-08-30T10:24:56Z</time>
      </trkpt>
      <trkpt lat="38.2661700" lon="-0.6954000">
        <ele>98.2</ele>
        <time>2022-08-30T10:24:57Z</time>
      </trkpt>
      <trkpt lat="38.2660140" lon="-0.6954460">
        <ele>98.2</ele>
        <time>2022-08-30T10:25:00Z</time>
      </trkpt>
      <trkpt lat="38.2659680" lon="-0.6954480">
        <ele>98.2</ele>
        <time>2022-08-30T10:25:01Z</time>
      </trkpt>
      <trkpt lat="38.2658700" lon="-0.6954510">
        <ele>98.2</ele>
        <time>2022-08-30T10:25:03Z</time>
      </trkpt>
      <trkpt lat="38.2657660" lon="-0.6954590">
        <ele>98.2</ele>
        <time>2022-08-30T10:25:05Z</time>
      </trkpt>
      <trkpt lat="38.2657180" lon="-0.6954700">
        <ele>98.2</ele>
        <time>2022-08-30T10:25:06Z</time>
      </trkpt>
      <trkpt lat="38.2655950" lon="-0.6954860">
        <ele>98.2</ele>
        <time>2022-08-30T10:25:09Z</time>
      </trkpt>
      <trkpt lat="38.2654710" lon="-0.6955260">
        <ele>98.2</ele>
        <time>2022-08-30T10:25:12Z</time>
      </trkpt>
      <trkpt lat="38.2654060" lon="-0.6955330">
        <ele>98.2</ele>
        <time>2022-08-30T10:25:13Z</time>
      </trkpt>
      <trkpt lat="38.2653640" lon="-0.6955330">
        <ele>98.2</ele>
        <time>2022-08-30T10:25:14Z</time>
      </trkpt>
      <trkpt lat="38.2652740" lon="-0.6955260">
        <ele>98.2</ele>
        <time>2022-08-30T10:25:16Z</time>
      </trkpt>
      <trkpt lat="38.2651780" lon="-0.6955340">
        <ele>98.0</ele>
        <time>2022-08-30T10:25:18Z</time>
      </trkpt>
      <trkpt lat="38.2650870" lon="-0.6955540">
        <ele>98.0</ele>
        <time>2022-08-30T10:25:20Z</time>
      </trkpt>
      <trkpt lat="38.2649900" lon="-0.6955640">
        <ele>98.0</ele>
        <time>2022-08-30T10:25:22Z</time>
      </trkpt>
      <trkpt lat="38.2649410" lon="-0.6955740">
        <ele>97.8</ele>
        <time>2022-08-30T10:25:24Z</time>
      </trkpt>
      <trkpt lat="38.2649310" lon="-0.6955770">
        <ele>97.8</ele>
        <time>2022-08-30T10:25:25Z</time>
      </trkpt>
      <trkpt lat="38.2649220" lon="-0.6955120">
        <ele>97.6</ele>
        <time>2022-08-30T10:25:27Z</time>
      </trkpt>
      <trkpt lat="38.2649070" lon="-0.6954600">
        <ele>97.4</ele>
        <time>2022-08-30T10:25:28Z</time>
      </trkpt>
      <trkpt lat="38.2649010" lon="-0.6953980">
        <ele>97.4</ele>
        <time>2022-08-30T10:25:29Z</time>
      </trkpt>
      <trkpt lat="38.2649010" lon="-0.6953390">
        <ele>97.4</ele>
        <time>2022-08-30T10:25:30Z</time>
      </trkpt>
      <trkpt lat="38.2648930" lon="-0.6952920">
        <ele>97.4</ele>
        <time>2022-08-30T10:25:31Z</time>
      </trkpt>
      <trkpt lat="38.2648800" lon="-0.6952250">
        <ele>97.4</ele>
        <time>2022-08-30T10:25:32Z</time>
      </trkpt>
      <trkpt lat="38.2648580" lon="-0.6950340">
        <ele>97.4</ele>
        <time>2022-08-30T10:25:35Z</time>
      </trkpt>
      <trkpt lat="38.2648600" lon="-0.6949780">
        <ele>97.4</ele>
        <time>2022-08-30T10:25:36Z</time>
      </trkpt>
      <trkpt lat="38.2648580" lon="-0.6948990">
        <ele>97.4</ele>
        <time>2022-08-30T10:25:38Z</time>
      </trkpt>
      <trkpt lat="38.2648660" lon="-0.6948540">
        <ele>97.4</ele>
        <time>2022-08-30T10:25:40Z</time>
      </trkpt>
      <trkpt lat="38.2648750" lon="-0.6948040">
        <ele>97.4</ele>
        <time>2022-08-30T10:25:41Z</time>
      </trkpt>
      <trkpt lat="38.2648570" lon="-0.6945640">
        <ele>97.4</ele>
        <time>2022-08-30T10:25:45Z</time>
      </trkpt>
      <trkpt lat="38.2648460" lon="-0.6945100">
        <ele>97.4</ele>
        <time>2022-08-30T10:25:46Z</time>
      </trkpt>
      <trkpt lat="38.2648570" lon="-0.6943400">
        <ele>97.4</ele>
        <time>2022-08-30T10:25:49Z</time>
      </trkpt>
      <trkpt lat="38.2648350" lon="-0.6942430">
        <ele>97.4</ele>
        <time>2022-08-30T10:25:52Z</time>
      </trkpt>
      <trkpt lat="38.2648270" lon="-0.6941560">
        <ele>97.4</ele>
        <time>2022-08-30T10:25:59Z</time>
      </trkpt>
      <trkpt lat="38.2648380" lon="-0.6940170">
        <ele>97.2</ele>
        <time>2022-08-30T10:26:02Z</time>
      </trkpt>
      <trkpt lat="38.2648190" lon="-0.6937760">
        <ele>97.4</ele>
        <time>2022-08-30T10:26:06Z</time>
      </trkpt>
      <trkpt lat="38.2648250" lon="-0.6936270">
        <ele>97.2</ele>
        <time>2022-08-30T10:26:08Z</time>
      </trkpt>
      <trkpt lat="38.2648340" lon="-0.6935560">
        <ele>97.4</ele>
        <time>2022-08-30T10:26:09Z</time>
      </trkpt>
      <trkpt lat="38.2648060" lon="-0.6933520">
        <ele>97.2</ele>
        <time>2022-08-30T10:26:13Z</time>
      </trkpt>
      <trkpt lat="38.2647850" lon="-0.6933290">
        <ele>97.2</ele>
        <time>2022-08-30T10:26:14Z</time>
      </trkpt>
      <trkpt lat="38.2647450" lon="-0.6931780">
        <ele>97.2</ele>
        <time>2022-08-30T10:26:17Z</time>
      </trkpt>
      <trkpt lat="38.2647600" lon="-0.6929600">
        <ele>97.2</ele>
        <time>2022-08-30T10:26:21Z</time>
      </trkpt>
      <trkpt lat="38.2647500" lon="-0.6928200">
        <ele>97.0</ele>
        <time>2022-08-30T10:26:24Z</time>
      </trkpt>
      <trkpt lat="38.2647630" lon="-0.6927750">
        <ele>96.8</ele>
        <time>2022-08-30T10:26:27Z</time>
      </trkpt>
      <trkpt lat="38.2647890" lon="-0.6927750">
        <ele>96.8</ele>
        <time>2022-08-30T10:26:28Z</time>
      </trkpt>
      <trkpt lat="38.2648250" lon="-0.6927740">
        <ele>96.8</ele>
        <time>2022-08-30T10:26:29Z</time>
      </trkpt>
      <trkpt lat="38.2649030" lon="-0.6927670">
        <ele>96.6</ele>
        <time>2022-08-30T10:26:31Z</time>
      </trkpt>
      <trkpt lat="38.2650110" lon="-0.6927370">
        <ele>96.6</ele>
        <time>2022-08-30T10:26:33Z</time>
      </trkpt>
      <trkpt lat="38.2650970" lon="-0.6926960">
        <ele>96.4</ele>
        <time>2022-08-30T10:26:35Z</time>
      </trkpt>
      <trkpt lat="38.2651560" lon="-0.6926680">
        <ele>96.8</ele>
        <time>2022-08-30T10:26:38Z</time>
      </trkpt>
      <trkpt lat="38.2651970" lon="-0.6926560">
        <ele>96.8</ele>
        <time>2022-08-30T10:26:39Z</time>
      </trkpt>
      <trkpt lat="38.2652410" lon="-0.6926450">
        <ele>97.0</ele>
        <time>2022-08-30T10:26:40Z</time>
      </trkpt>
      <trkpt lat="38.2654430" lon="-0.6926210">
        <ele>97.2</ele>
        <time>2022-08-30T10:26:44Z</time>
      </trkpt>
      <trkpt lat="38.2654900" lon="-0.6926140">
        <ele>97.2</ele>
        <time>2022-08-30T10:26:45Z</time>
      </trkpt>
      <trkpt lat="38.2655750" lon="-0.6926010">
        <ele>97.4</ele>
        <time>2022-08-30T10:26:47Z</time>
      </trkpt>
      <trkpt lat="38.2656130" lon="-0.6926060">
        <ele>97.4</ele>
        <time>2022-08-30T10:26:48Z</time>
      </trkpt>
      <trkpt lat="38.2656410" lon="-0.6926240">
        <ele>97.4</ele>
        <time>2022-08-30T10:26:49Z</time>
      </trkpt>
      <trkpt lat="38.2656750" lon="-0.6926810">
        <ele>97.4</ele>
        <time>2022-08-30T10:26:51Z</time>
      </trkpt>
      <trkpt lat="38.2656840" lon="-0.6927190">
        <ele>97.4</ele>
        <time>2022-08-30T10:26:52Z</time>
      </trkpt>
      <trkpt lat="38.2657180" lon="-0.6928230">
        <ele>97.6</ele>
        <time>2022-08-30T10:26:54Z</time>
      </trkpt>
      <trkpt lat="38.2657240" lon="-0.6929360">
        <ele>97.6</ele>
        <time>2022-08-30T10:26:56Z</time>
      </trkpt>
      <trkpt lat="38.2657260" lon="-0.6929950">
        <ele>97.6</ele>
        <time>2022-08-30T10:26:57Z</time>
      </trkpt>
      <trkpt lat="38.2657240" lon="-0.6930840">
        <ele>97.8</ele>
        <time>2022-08-30T10:26:59Z</time>
      </trkpt>
      <trkpt lat="38.2656690" lon="-0.6931520">
        <ele>98.0</ele>
        <time>2022-08-30T10:27:02Z</time>
      </trkpt>
      <trkpt lat="38.2656870" lon="-0.6932200">
        <ele>98.0</ele>
        <time>2022-08-30T10:27:05Z</time>
      </trkpt>
      <trkpt lat="38.2668280" lon="-0.6933260">
        <ele>99.4</ele>
        <time>2022-08-30T10:28:04Z</time>
      </trkpt>
      <trkpt lat="38.2668390" lon="-0.6932710">
        <ele>99.8</ele>
        <time>2022-08-30T10:28:05Z</time>
      </trkpt>
      <trkpt lat="38.2668530" lon="-0.6932020">
        <ele>99.8</ele>
        <time>2022-08-30T10:28:06Z</time>
      </trkpt>
      <trkpt lat="38.2668700" lon="-0.6931500">
        <ele>99.8</ele>
        <time>2022-08-30T10:28:07Z</time>
      </trkpt>
      <trkpt lat="38.2668800" lon="-0.6930810">
        <ele>99.6</ele>
        <time>2022-08-30T10:28:08Z</time>
      </trkpt>
      <trkpt lat="38.2668930" lon="-0.6929880">
        <ele>99.8</ele>
        <time>2022-08-30T10:28:09Z</time>
      </trkpt>
      <trkpt lat="38.2669190" lon="-0.6928700">
        <ele>99.8</ele>
        <time>2022-08-30T10:28:10Z</time>
      </trkpt>
      <trkpt lat="38.2669590" lon="-0.6926900">
        <ele>99.8</ele>
        <time>2022-08-30T10:28:12Z</time>
      </trkpt>
      <trkpt lat="38.2669730" lon="-0.6925990">
        <ele>99.8</ele>
        <time>2022-08-30T10:28:13Z</time>
      </trkpt>
      <trkpt lat="38.2669890" lon="-0.6925110">
        <ele>99.8</ele>
        <time>2022-08-30T10:28:14Z</time>
      </trkpt>
      <trkpt lat="38.2670370" lon="-0.6923580">
        <ele>99.8</ele>
        <time>2022-08-30T10:28:16Z</time>
      </trkpt>
      <trkpt lat="38.2670680" lon="-0.6922110">
        <ele>99.6</ele>
        <time>2022-08-30T10:28:18Z</time>
      </trkpt>
      <trkpt lat="38.2670900" lon="-0.6921470">
        <ele>99.6</ele>
        <time>2022-08-30T10:28:19Z</time>
      </trkpt>
      <trkpt lat="38.2670990" lon="-0.6920670">
        <ele>99.6</ele>
        <time>2022-08-30T10:28:20Z</time>
      </trkpt>
      <trkpt lat="38.2672090" lon="-0.6916180">
        <ele>99.4</ele>
        <time>2022-08-30T10:28:26Z</time>
      </trkpt>
      <trkpt lat="38.2672330" lon="-0.6915340">
        <ele>99.4</ele>
        <time>2022-08-30T10:28:27Z</time>
      </trkpt>
      <trkpt lat="38.2672510" lon="-0.6914580">
        <ele>99.2</ele>
        <time>2022-08-30T10:28:28Z</time>
      </trkpt>
      <trkpt lat="38.2673100" lon="-0.6912420">
        <ele>99.2</ele>
        <time>2022-08-30T10:28:31Z</time>
      </trkpt>
      <trkpt lat="38.2673420" lon="-0.6910860">
        <ele>99.2</ele>
        <time>2022-08-30T10:28:33Z</time>
      </trkpt>
      <trkpt lat="38.2673800" lon="-0.6909040">
        <ele>99.2</ele>
        <time>2022-08-30T10:28:35Z</time>
      </trkpt>
      <trkpt lat="38.2674240" lon="-0.6907440">
        <ele>99.2</ele>
        <time>2022-08-30T10:28:37Z</time>
      </trkpt>
      <trkpt lat="38.2674240" lon="-0.6907440">
        <ele>99.4</ele>
        <time>2022-08-30T10:28:38Z</time>
      </trkpt>
      <trkpt lat="38.2674960" lon="-0.6905020">
        <ele>99.4</ele>
        <time>2022-08-30T10:28:40Z</time>
      </trkpt>
      <trkpt lat="38.2675120" lon="-0.6903300">
        <ele>99.4</ele>
        <time>2022-08-30T10:28:42Z</time>
      </trkpt>
      <trkpt lat="38.2675350" lon="-0.6902510">
        <ele>99.4</ele>
        <time>2022-08-30T10:28:43Z</time>
      </trkpt>
      <trkpt lat="38.2675890" lon="-0.6901040">
        <ele>99.6</ele>
        <time>2022-08-30T10:28:45Z</time>
      </trkpt>
      <trkpt lat="38.2676120" lon="-0.6900210">
        <ele>99.6</ele>
        <time>2022-08-30T10:28:46Z</time>
      </trkpt>
      <trkpt lat="38.2676580" lon="-0.6897770">
        <ele>99.8</ele>
        <time>2022-08-30T10:28:49Z</time>
      </trkpt>
      <trkpt lat="38.2677430" lon="-0.6893580">
        <ele>99.8</ele>
        <time>2022-08-30T10:28:54Z</time>
      </trkpt>
      <trkpt lat="38.2677780" lon="-0.6891990">
        <ele>99.8</ele>
        <time>2022-08-30T10:28:57Z</time>
      </trkpt>
      <trkpt lat="38.2678930" lon="-0.6888070">
        <ele>99.6</ele>
        <time>2022-08-30T10:29:01Z</time>
      </trkpt>
      <trkpt lat="38.2679930" lon="-0.6885870">
        <ele>99.6</ele>
        <time>2022-08-30T10:29:05Z</time>
      </trkpt>
      <trkpt lat="38.2681050" lon="-0.6882560">
        <ele>99.8</ele>
        <time>2022-08-30T10:29:10Z</time>
      </trkpt>
      <trkpt lat="38.2681950" lon="-0.6880080">
        <ele>100.0</ele>
        <time>2022-08-30T10:29:14Z</time>
      </trkpt>
      <trkpt lat="38.2681380" lon="-0.6878280">
        <ele>100.2</ele>
        <time>2022-08-30T10:29:19Z</time>
      </trkpt>
      <trkpt lat="38.2680140" lon="-0.6876660">
        <ele>100.0</ele>
        <time>2022-08-30T10:29:24Z</time>
      </trkpt>
      <trkpt lat="38.2679040" lon="-0.6874860">
        <ele>99.8</ele>
        <time>2022-08-30T10:29:26Z</time>
      </trkpt>
      <trkpt lat="38.2677800" lon="-0.6872950">
        <ele>99.6</ele>
        <time>2022-08-30T10:29:29Z</time>
      </trkpt>
      <trkpt lat="38.2677000" lon="-0.6871670">
        <ele>99.6</ele>
        <time>2022-08-30T10:29:31Z</time>
      </trkpt>
      <trkpt lat="38.2676390" lon="-0.6870330">
        <ele>99.4</ele>
        <time>2022-08-30T10:29:33Z</time>
      </trkpt>
      <trkpt lat="38.2676110" lon="-0.6869720">
        <ele>99.4</ele>
        <time>2022-08-30T10:29:34Z</time>
      </trkpt>
      <trkpt lat="38.2674610" lon="-0.6866850">
        <ele>99.2</ele>
        <time>2022-08-30T10:29:39Z</time>
      </trkpt>
      <trkpt lat="38.2673800" lon="-0.6865070">
        <ele>99.2</ele>
        <time>2022-08-30T10:29:43Z</time>
      </trkpt>
      <trkpt lat="38.2673050" lon="-0.6863600">
        <ele>98.8</ele>
        <time>2022-08-30T10:29:47Z</time>
      </trkpt>
      <trkpt lat="38.2672710" lon="-0.6863020">
        <ele>98.8</ele>
        <time>2022-08-30T10:29:49Z</time>
      </trkpt>
      <trkpt lat="38.2672600" lon="-0.6862850">
        <ele>98.8</ele>
        <time>2022-08-30T10:29:50Z</time>
      </trkpt>
      <trkpt lat="38.2672070" lon="-0.6861860">
        <ele>98.6</ele>
        <time>2022-08-30T10:29:56Z</time>
      </trkpt>
      <trkpt lat="38.2671920" lon="-0.6861610">
        <ele>98.4</ele>
        <time>2022-08-30T10:29:57Z</time>
      </trkpt>
      <trkpt lat="38.2671210" lon="-0.6860400">
        <ele>98.2</ele>
        <time>2022-08-30T10:30:00Z</time>
      </trkpt>
      <trkpt lat="38.2670840" lon="-0.6859830">
        <ele>98.0</ele>
        <time>2022-08-30T10:30:01Z</time>
      </trkpt>
      <trkpt lat="38.2670060" lon="-0.6858450">
        <ele>98.0</ele>
        <time>2022-08-30T10:30:03Z</time>
      </trkpt>
      <trkpt lat="38.2669670" lon="-0.6857770">
        <ele>97.8</ele>
        <time>2022-08-30T10:30:04Z</time>
      </trkpt>
      <trkpt lat="38.2668880" lon="-0.6856360">
        <ele>97.8</ele>
        <time>2022-08-30T10:30:06Z</time>
      </trkpt>
      <trkpt lat="38.2666530" lon="-0.6851940">
        <ele>97.4</ele>
        <time>2022-08-30T10:30:12Z</time>
      </trkpt>
      <trkpt lat="38.2664470" lon="-0.6848220">
        <ele>97.0</ele>
        <time>2022-08-30T10:30:17Z</time>
      </trkpt>
      <trkpt lat="38.2664090" lon="-0.6847470">
        <ele>96.8</ele>
        <time>2022-08-30T10:30:18Z</time>
      </trkpt>
      <trkpt lat="38.2663730" lon="-0.6846770">
        <ele>96.8</ele>
        <time>2022-08-30T10:30:19Z</time>
      </trkpt>
      <trkpt lat="38.2661820" lon="-0.6843190">
        <ele>96.0</ele>
        <time>2022-08-30T10:30:24Z</time>
      </trkpt>
      <trkpt lat="38.2660380" lon="-0.6840330">
        <ele>95.8</ele>
        <time>2022-08-30T10:30:28Z</time>
      </trkpt>
      <trkpt lat="38.2658760" lon="-0.6837470">
        <ele>95.8</ele>
        <time>2022-08-30T10:30:33Z</time>
      </trkpt>
      <trkpt lat="38.2658580" lon="-0.6837160">
        <ele>95.8</ele>
        <time>2022-08-30T10:30:34Z</time>
      </trkpt>
      <trkpt lat="38.2658420" lon="-0.6836940">
        <ele>95.6</ele>
        <time>2022-08-30T10:30:35Z</time>
      </trkpt>
      <trkpt lat="38.2657910" lon="-0.6836540">
        <ele>95.8</ele>
        <time>2022-08-30T10:30:38Z</time>
      </trkpt>
      <trkpt lat="38.2657770" lon="-0.6836500">
        <ele>95.6</ele>
        <time>2022-08-30T10:30:39Z</time>
      </trkpt>
      <trkpt lat="38.2657550" lon="-0.6836360">
        <ele>95.6</ele>
        <time>2022-08-30T10:30:41Z</time>
      </trkpt>
      <trkpt lat="38.2656690" lon="-0.6836230">
        <ele>95.0</ele>
        <time>2022-08-30T10:30:58Z</time>
      </trkpt>
      <trkpt lat="38.2656300" lon="-0.6836200">
        <ele>95.0</ele>
        <time>2022-08-30T10:31:00Z</time>
      </trkpt>
      <trkpt lat="38.2655130" lon="-0.6835030">
        <ele>94.8</ele>
        <time>2022-08-30T10:31:05Z</time>
      </trkpt>
      <trkpt lat="38.2654830" lon="-0.6833840">
        <ele>94.8</ele>
        <time>2022-08-30T10:31:07Z</time>
      </trkpt>
      <trkpt lat="38.2654850" lon="-0.6833120">
        <ele>94.8</ele>
        <time>2022-08-30T10:31:08Z</time>
      </trkpt>
      <trkpt lat="38.2654890" lon="-0.6832360">
        <ele>94.8</ele>
        <time>2022-08-30T10:31:09Z</time>
      </trkpt>
      <trkpt lat="38.2654730" lon="-0.6830770">
        <ele>94.8</ele>
        <time>2022-08-30T10:31:11Z</time>
      </trkpt>
      <trkpt lat="38.2654450" lon="-0.6830030">
        <ele>94.6</ele>
        <time>2022-08-30T10:31:12Z</time>
      </trkpt>
      <trkpt lat="38.2654090" lon="-0.6829300">
        <ele>94.6</ele>
        <time>2022-08-30T10:31:13Z</time>
      </trkpt>
      <trkpt lat="38.2653280" lon="-0.6827890">
        <ele>94.2</ele>
        <time>2022-08-30T10:31:15Z</time>
      </trkpt>
      <trkpt lat="38.2652040" lon="-0.6825630">
        <ele>94.0</ele>
        <time>2022-08-30T10:31:18Z</time>
      </trkpt>
      <trkpt lat="38.2648700" lon="-0.6819360">
        <ele>93.6</ele>
        <time>2022-08-30T10:31:26Z</time>
      </trkpt>
      <trkpt lat="38.2648280" lon="-0.6818570">
        <ele>93.4</ele>
        <time>2022-08-30T10:31:27Z</time>
      </trkpt>
      <trkpt lat="38.2645370" lon="-0.6813160">
        <ele>93.0</ele>
        <time>2022-08-30T10:31:34Z</time>
      </trkpt>
      <trkpt lat="38.2643350" lon="-0.6809340">
        <ele>92.4</ele>
        <time>2022-08-30T10:31:39Z</time>
      </trkpt>
      <trkpt lat="38.2640870" lon="-0.6804660">
        <ele>92.0</ele>
        <time>2022-08-30T10:31:45Z</time>
      </trkpt>
      <trkpt lat="38.2638760" lon="-0.6800900">
        <ele>91.6</ele>
        <time>2022-08-30T10:31:51Z</time>
      </trkpt>
      <trkpt lat="38.2636850" lon="-0.6797100">
        <ele>91.4</ele>
        <time>2022-08-30T10:31:55Z</time>
      </trkpt>
      <trkpt lat="38.2635770" lon="-0.6794990">
        <ele>91.4</ele>
        <time>2022-08-30T10:31:58Z</time>
      </trkpt>
      <trkpt lat="38.2634700" lon="-0.6792920">
        <ele>91.2</ele>
        <time>2022-08-30T10:32:01Z</time>
      </trkpt>
      <trkpt lat="38.2632980" lon="-0.6789740">
        <ele>90.6</ele>
        <time>2022-08-30T10:32:06Z</time>
      </trkpt>
      <trkpt lat="38.2632650" lon="-0.6789140">
        <ele>90.6</ele>
        <time>2022-08-30T10:32:07Z</time>
      </trkpt>
      <trkpt lat="38.2632000" lon="-0.6788010">
        <ele>90.4</ele>
        <time>2022-08-30T10:32:09Z</time>
      </trkpt>
      <trkpt lat="38.2631200" lon="-0.6786520">
        <ele>90.2</ele>
        <time>2022-08-30T10:32:12Z</time>
      </trkpt>
      <trkpt lat="38.2629800" lon="-0.6783790">
        <ele>89.6</ele>
        <time>2022-08-30T10:32:17Z</time>
      </trkpt>
      <trkpt lat="38.2629470" lon="-0.6783210">
        <ele>89.6</ele>
        <time>2022-08-30T10:32:18Z</time>
      </trkpt>
      <trkpt lat="38.2628850" lon="-0.6781910">
        <ele>89.6</ele>
        <time>2022-08-30T10:32:20Z</time>
      </trkpt>
      <trkpt lat="38.2627080" lon="-0.6778770">
        <ele>89.4</ele>
        <time>2022-08-30T10:32:25Z</time>
      </trkpt>
      <trkpt lat="38.2626370" lon="-0.6777500">
        <ele>89.4</ele>
        <time>2022-08-30T10:32:27Z</time>
      </trkpt>
      <trkpt lat="38.2625220" lon="-0.6775390">
        <ele>89.0</ele>
        <time>2022-08-30T10:32:31Z</time>
      </trkpt>
      <trkpt lat="38.2624440" lon="-0.6774420">
        <ele>88.6</ele>
        <time>2022-08-30T10:32:34Z</time>
      </trkpt>
      <trkpt lat="38.2624050" lon="-0.6774150">
        <ele>88.6</ele>
        <time>2022-08-30T10:32:35Z</time>
      </trkpt>
      <trkpt lat="38.2623550" lon="-0.6773900">
        <ele>88.6</ele>
        <time>2022-08-30T10:32:36Z</time>
      </trkpt>
      <trkpt lat="38.2622330" lon="-0.6773360">
        <ele>88.4</ele>
        <time>2022-08-30T10:32:38Z</time>
      </trkpt>
      <trkpt lat="38.2621730" lon="-0.6773020">
        <ele>88.4</ele>
        <time>2022-08-30T10:32:39Z</time>
      </trkpt>
      <trkpt lat="38.2620810" lon="-0.6771910">
        <ele>88.2</ele>
        <time>2022-08-30T10:32:41Z</time>
      </trkpt>
      <trkpt lat="38.2620510" lon="-0.6771180">
        <ele>88.2</ele>
        <time>2022-08-30T10:32:42Z</time>
      </trkpt>
      <trkpt lat="38.2620300" lon="-0.6770380">
        <ele>88.0</ele>
        <time>2022-08-30T10:32:43Z</time>
      </trkpt>
      <trkpt lat="38.2620100" lon="-0.6767670">
        <ele>87.8</ele>
        <time>2022-08-30T10:32:46Z</time>
      </trkpt>
      <trkpt lat="38.2619930" lon="-0.6766770">
        <ele>87.6</ele>
        <time>2022-08-30T10:32:47Z</time>
      </trkpt>
      <trkpt lat="38.2619660" lon="-0.6765910">
        <ele>87.6</ele>
        <time>2022-08-30T10:32:48Z</time>
      </trkpt>
      <trkpt lat="38.2618940" lon="-0.6764180">
        <ele>87.4</ele>
        <time>2022-08-30T10:32:50Z</time>
      </trkpt>
      <trkpt lat="38.2617360" lon="-0.6760810">
        <ele>87.0</ele>
        <time>2022-08-30T10:32:54Z</time>
      </trkpt>
      <trkpt lat="38.2615800" lon="-0.6757490">
        <ele>86.6</ele>
        <time>2022-08-30T10:32:58Z</time>
      </trkpt>
      <trkpt lat="38.2615030" lon="-0.6756020">
        <ele>86.6</ele>
        <time>2022-08-30T10:33:00Z</time>
      </trkpt>
      <trkpt lat="38.2611960" lon="-0.6750110">
        <ele>86.2</ele>
        <time>2022-08-30T10:33:07Z</time>
      </trkpt>
      <trkpt lat="38.2610220" lon="-0.6746830">
        <ele>85.8</ele>
        <time>2022-08-30T10:33:11Z</time>
      </trkpt>
      <trkpt lat="38.2608970" lon="-0.6744390">
        <ele>85.6</ele>
        <time>2022-08-30T10:33:14Z</time>
      </trkpt>
      <trkpt lat="38.2607740" lon="-0.6742020">
        <ele>85.4</ele>
        <time>2022-08-30T10:33:17Z</time>
      </trkpt>
      <trkpt lat="38.2604630" lon="-0.6735840">
        <ele>84.8</ele>
        <time>2022-08-30T10:33:25Z</time>
      </trkpt>
      <trkpt lat="38.2604290" lon="-0.6735070">
        <ele>84.8</ele>
        <time>2022-08-30T10:33:26Z</time>
      </trkpt>
      <trkpt lat="38.2603960" lon="-0.6734300">
        <ele>84.6</ele>
        <time>2022-08-30T10:33:27Z</time>
      </trkpt>
      <trkpt lat="38.2602320" lon="-0.6730660">
        <ele>84.0</ele>
        <time>2022-08-30T10:33:32Z</time>
      </trkpt>
      <trkpt lat="38.2601910" lon="-0.6730210">
        <ele>84.0</ele>
        <time>2022-08-30T10:33:33Z</time>
      </trkpt>
      <trkpt lat="38.2600990" lon="-0.6729450">
        <ele>84.0</ele>
        <time>2022-08-30T10:33:35Z</time>
      </trkpt>
      <trkpt lat="38.2600420" lon="-0.6729140">
        <ele>83.8</ele>
        <time>2022-08-30T10:33:37Z</time>
      </trkpt>
      <trkpt lat="38.2599110" lon="-0.6728900">
        <ele>83.8</ele>
        <time>2022-08-30T10:33:38Z</time>
      </trkpt>
      <trkpt lat="38.2598420" lon="-0.6728910">
        <ele>83.8</ele>
        <time>2022-08-30T10:33:39Z</time>
      </trkpt>
      <trkpt lat="38.2597700" lon="-0.6728850">
        <ele>83.8</ele>
        <time>2022-08-30T10:33:40Z</time>
      </trkpt>
      <trkpt lat="38.2596330" lon="-0.6728290">
        <ele>83.6</ele>
        <time>2022-08-30T10:33:42Z</time>
      </trkpt>
      <trkpt lat="38.2595730" lon="-0.6727810">
        <ele>83.6</ele>
        <time>2022-08-30T10:33:43Z</time>
      </trkpt>
      <trkpt lat="38.2595210" lon="-0.6727190">
        <ele>83.6</ele>
        <time>2022-08-30T10:33:44Z</time>
      </trkpt>
      <trkpt lat="38.2594470" lon="-0.6725640">
        <ele>83.6</ele>
        <time>2022-08-30T10:33:46Z</time>
      </trkpt>
      <trkpt lat="38.2594240" lon="-0.6724810">
        <ele>83.6</ele>
        <time>2022-08-30T10:33:47Z</time>
      </trkpt>
      <trkpt lat="38.2594120" lon="-0.6722920">
        <ele>83.4</ele>
        <time>2022-08-30T10:33:49Z</time>
      </trkpt>
      <trkpt lat="38.2594600" lon="-0.6721160">
        <ele>83.4</ele>
        <time>2022-08-30T10:33:51Z</time>
      </trkpt>
      <trkpt lat="38.2595000" lon="-0.6720380">
        <ele>83.2</ele>
        <time>2022-08-30T10:33:52Z</time>
      </trkpt>
      <trkpt lat="38.2595470" lon="-0.6719670">
        <ele>83.2</ele>
        <time>2022-08-30T10:33:53Z</time>
      </trkpt>
      <trkpt lat="38.2597180" lon="-0.6717900">
        <ele>83.0</ele>
        <time>2022-08-30T10:33:56Z</time>
      </trkpt>
      <trkpt lat="38.2597730" lon="-0.6717290">
        <ele>83.0</ele>
        <time>2022-08-30T10:33:57Z</time>
      </trkpt>
      <trkpt lat="38.2598600" lon="-0.6715810">
        <ele>83.0</ele>
        <time>2022-08-30T10:33:59Z</time>
      </trkpt>
      <trkpt lat="38.2598920" lon="-0.6714970">
        <ele>83.0</ele>
        <time>2022-08-30T10:34:00Z</time>
      </trkpt>
      <trkpt lat="38.2599150" lon="-0.6714080">
        <ele>83.0</ele>
        <time>2022-08-30T10:34:01Z</time>
      </trkpt>
      <trkpt lat="38.2599670" lon="-0.6711290">
        <ele>83.2</ele>
        <time>2022-08-30T10:34:04Z</time>
      </trkpt>
      <trkpt lat="38.2599850" lon="-0.6710370">
        <ele>83.4</ele>
        <time>2022-08-30T10:34:05Z</time>
      </trkpt>
      <trkpt lat="38.2600420" lon="-0.6707510">
        <ele>83.6</ele>
        <time>2022-08-30T10:34:08Z</time>
      </trkpt>
      <trkpt lat="38.2601470" lon="-0.6701790">
        <ele>83.8</ele>
        <time>2022-08-30T10:34:14Z</time>
      </trkpt>
      <trkpt lat="38.2602860" lon="-0.6694380">
        <ele>84.0</ele>
        <time>2022-08-30T10:34:22Z</time>
      </trkpt>
      <trkpt lat="38.2604220" lon="-0.6686780">
        <ele>84.6</ele>
        <time>2022-08-30T10:34:30Z</time>
      </trkpt>
      <trkpt lat="38.2605550" lon="-0.6679210">
        <ele>84.8</ele>
        <time>2022-08-30T10:34:38Z</time>
      </trkpt>
      <trkpt lat="38.2606860" lon="-0.6671970">
        <ele>85.0</ele>
        <time>2022-08-30T10:34:46Z</time>
      </trkpt>
      <trkpt lat="38.2607320" lon="-0.6669200">
        <ele>85.0</ele>
        <time>2022-08-30T10:34:49Z</time>
      </trkpt>
      <trkpt lat="38.2608180" lon="-0.6664600">
        <ele>85.2</ele>
        <time>2022-08-30T10:34:54Z</time>
      </trkpt>
      <trkpt lat="38.2609280" lon="-0.6658350">
        <ele>85.8</ele>
        <time>2022-08-30T10:35:01Z</time>
      </trkpt>
      <trkpt lat="38.2610590" lon="-0.6651250">
        <ele>85.8</ele>
        <time>2022-08-30T10:35:09Z</time>
      </trkpt>
      <trkpt lat="38.2611360" lon="-0.6646800">
        <ele>86.0</ele>
        <time>2022-08-30T10:35:14Z</time>
      </trkpt>
      <trkpt lat="38.2612570" lon="-0.6639660">
        <ele>86.2</ele>
        <time>2022-08-30T10:35:22Z</time>
      </trkpt>
      <trkpt lat="38.2612720" lon="-0.6638780">
        <ele>86.2</ele>
        <time>2022-08-30T10:35:23Z</time>
      </trkpt>
      <trkpt lat="38.2613830" lon="-0.6632660">
        <ele>86.4</ele>
        <time>2022-08-30T10:35:30Z</time>
      </trkpt>
      <trkpt lat="38.2614450" lon="-0.6629190">
        <ele>86.4</ele>
        <time>2022-08-30T10:35:34Z</time>
      </trkpt>
      <trkpt lat="38.2615790" lon="-0.6622260">
        <ele>86.8</ele>
        <time>2022-08-30T10:35:42Z</time>
      </trkpt>
      <trkpt lat="38.2616090" lon="-0.6620500">
        <ele>86.8</ele>
        <time>2022-08-30T10:35:44Z</time>
      </trkpt>
      <trkpt lat="38.2616940" lon="-0.6614170">
        <ele>86.8</ele>
        <time>2022-08-30T10:35:51Z</time>
      </trkpt>
      <trkpt lat="38.2617300" lon="-0.6608000">
        <ele>86.8</ele>
        <time>2022-08-30T10:35:58Z</time>
      </trkpt>
      <trkpt lat="38.2617330" lon="-0.6607180">
        <ele>87.0</ele>
        <time>2022-08-30T10:35:59Z</time>
      </trkpt>
      <trkpt lat="38.2617390" lon="-0.6604820">
        <ele>87.0</ele>
        <time>2022-08-30T10:36:02Z</time>
      </trkpt>
      <trkpt lat="38.2617600" lon="-0.6603260">
        <ele>87.0</ele>
        <time>2022-08-30T10:36:04Z</time>
      </trkpt>
      <trkpt lat="38.2617800" lon="-0.6602520">
        <ele>87.2</ele>
        <time>2022-08-30T10:36:05Z</time>
      </trkpt>
      <trkpt lat="38.2619370" lon="-0.6598360">
        <ele>87.2</ele>
        <time>2022-08-30T10:36:11Z</time>
      </trkpt>
      <trkpt lat="38.2619350" lon="-0.6596840">
        <ele>87.2</ele>
        <time>2022-08-30T10:36:13Z</time>
      </trkpt>
      <trkpt lat="38.2619090" lon="-0.6596150">
        <ele>87.4</ele>
        <time>2022-08-30T10:36:14Z</time>
      </trkpt>
      <trkpt lat="38.2618830" lon="-0.6595420">
        <ele>87.4</ele>
        <time>2022-08-30T10:36:15Z</time>
      </trkpt>
      <trkpt lat="38.2618510" lon="-0.6593950">
        <ele>87.6</ele>
        <time>2022-08-30T10:36:17Z</time>
      </trkpt>
      <trkpt lat="38.2618510" lon="-0.6593200">
        <ele>87.6</ele>
        <time>2022-08-30T10:36:18Z</time>
      </trkpt>
      <trkpt lat="38.2618740" lon="-0.6590320">
        <ele>87.6</ele>
        <time>2022-08-30T10:36:22Z</time>
      </trkpt>
      <trkpt lat="38.2618450" lon="-0.6588910">
        <ele>87.6</ele>
        <time>2022-08-30T10:36:24Z</time>
      </trkpt>
      <trkpt lat="38.2616650" lon="-0.6585560">
        <ele>87.2</ele>
        <time>2022-08-30T10:36:29Z</time>
      </trkpt>
      <trkpt lat="38.2615840" lon="-0.6584290">
        <ele>86.8</ele>
        <time>2022-08-30T10:36:31Z</time>
      </trkpt>
      <trkpt lat="38.2614850" lon="-0.6583120">
        <ele>86.0</ele>
        <time>2022-08-30T10:36:33Z</time>
      </trkpt>
      <trkpt lat="38.2614300" lon="-0.6582690">
        <ele>85.4</ele>
        <time>2022-08-30T10:36:34Z</time>
      </trkpt>
      <trkpt lat="38.2613730" lon="-0.6582520">
        <ele>85.2</ele>
        <time>2022-08-30T10:36:35Z</time>
      </trkpt>
      <trkpt lat="38.2613110" lon="-0.6582470">
        <ele>84.8</ele>
        <time>2022-08-30T10:36:36Z</time>
      </trkpt>
      <trkpt lat="38.2612490" lon="-0.6582440">
        <ele>84.4</ele>
        <time>2022-08-30T10:36:37Z</time>
      </trkpt>
      <trkpt lat="38.2611870" lon="-0.6582350">
        <ele>84.2</ele>
        <time>2022-08-30T10:36:38Z</time>
      </trkpt>
      <trkpt lat="38.2610820" lon="-0.6581850">
        <ele>83.4</ele>
        <time>2022-08-30T10:36:40Z</time>
      </trkpt>
      <trkpt lat="38.2610820" lon="-0.6581850">
        <ele>83.0</ele>
        <time>2022-08-30T10:36:41Z</time>
      </trkpt>
      <trkpt lat="38.2610130" lon="-0.6581000">
        <ele>83.0</ele>
        <time>2022-08-30T10:36:42Z</time>
      </trkpt>
      <trkpt lat="38.2609940" lon="-0.6580550">
        <ele>82.6</ele>
        <time>2022-08-30T10:36:43Z</time>
      </trkpt>
      <trkpt lat="38.2609390" lon="-0.6578390">
        <ele>82.2</ele>
        <time>2022-08-30T10:36:50Z</time>
      </trkpt>
      <trkpt lat="38.2608350" lon="-0.6576890">
        <ele>82.0</ele>
        <time>2022-08-30T10:36:54Z</time>
      </trkpt>
      <trkpt lat="38.2606920" lon="-0.6575070">
        <ele>81.8</ele>
        <time>2022-08-30T10:36:57Z</time>
      </trkpt>
      <trkpt lat="38.2606360" lon="-0.6574370">
        <ele>81.6</ele>
        <time>2022-08-30T10:36:58Z</time>
      </trkpt>
      <trkpt lat="38.2605320" lon="-0.6573010">
        <ele>81.4</ele>
        <time>2022-08-30T10:37:00Z</time>
      </trkpt>
      <trkpt lat="38.2604330" lon="-0.6571610">
        <ele>81.2</ele>
        <time>2022-08-30T10:37:02Z</time>
      </trkpt>
      <trkpt lat="38.2603280" lon="-0.6570230">
        <ele>81.2</ele>
        <time>2022-08-30T10:37:04Z</time>
      </trkpt>
      <trkpt lat="38.2602750" lon="-0.6569570">
        <ele>81.0</ele>
        <time>2022-08-30T10:37:05Z</time>
      </trkpt>
      <trkpt lat="38.2598640" lon="-0.6565360">
        <ele>80.4</ele>
        <time>2022-08-30T10:37:12Z</time>
      </trkpt>
      <trkpt lat="38.2596880" lon="-0.6563750">
        <ele>80.4</ele>
        <time>2022-08-30T10:37:15Z</time>
      </trkpt>
      <trkpt lat="38.2594240" lon="-0.6560530">
        <ele>80.2</ele>
        <time>2022-08-30T10:37:20Z</time>
      </trkpt>
      <trkpt lat="38.2593420" lon="-0.6559020">
        <ele>80.2</ele>
        <time>2022-08-30T10:37:22Z</time>
      </trkpt>
      <trkpt lat="38.2592840" lon="-0.6557370">
        <ele>80.2</ele>
        <time>2022-08-30T10:37:24Z</time>
      </trkpt>
      <trkpt lat="38.2592170" lon="-0.6552870">
        <ele>80.4</ele>
        <time>2022-08-30T10:37:29Z</time>
      </trkpt>
      <trkpt lat="38.2592040" lon="-0.6551020">
        <ele>80.4</ele>
        <time>2022-08-30T10:37:31Z</time>
      </trkpt>
      <trkpt lat="38.2591370" lon="-0.6547360">
        <ele>80.2</ele>
        <time>2022-08-30T10:37:35Z</time>
      </trkpt>
      <trkpt lat="38.2589950" lon="-0.6541060">
        <ele>80.0</ele>
        <time>2022-08-30T10:37:42Z</time>
      </trkpt>
      <trkpt lat="38.2589770" lon="-0.6535590">
        <ele>80.2</ele>
        <time>2022-08-30T10:37:48Z</time>
      </trkpt>
      <trkpt lat="38.2589090" lon="-0.6527910">
        <ele>80.6</ele>
        <time>2022-08-30T10:37:56Z</time>
      </trkpt>
      <trkpt lat="38.2587390" lon="-0.6522470">
        <ele>79.4</ele>
        <time>2022-08-30T10:38:02Z</time>
      </trkpt>
      <trkpt lat="38.2586290" lon="-0.6519930">
        <ele>79.2</ele>
        <time>2022-08-30T10:38:05Z</time>
      </trkpt>
      <trkpt lat="38.2585320" lon="-0.6518410">
        <ele>79.0</ele>
        <time>2022-08-30T10:38:07Z</time>
      </trkpt>
      <trkpt lat="38.2581920" lon="-0.6514790">
        <ele>79.0</ele>
        <time>2022-08-30T10:38:13Z</time>
      </trkpt>
      <trkpt lat="38.2577590" lon="-0.6511070">
        <ele>78.8</ele>
        <time>2022-08-30T10:38:20Z</time>
      </trkpt>
      <trkpt lat="38.2576260" lon="-0.6510140">
        <ele>78.6</ele>
        <time>2022-08-30T10:38:23Z</time>
      </trkpt>
      <trkpt lat="38.2572310" lon="-0.6507120">
        <ele>78.0</ele>
        <time>2022-08-30T10:38:28Z</time>
      </trkpt>
      <trkpt lat="38.2571720" lon="-0.6506550">
        <ele>78.0</ele>
        <time>2022-08-30T10:38:29Z</time>
      </trkpt>
      <trkpt lat="38.2567570" lon="-0.6502150">
        <ele>77.6</ele>
        <time>2022-08-30T10:38:36Z</time>
      </trkpt>
      <trkpt lat="38.2566960" lon="-0.6501570">
        <ele>77.6</ele>
        <time>2022-08-30T10:38:37Z</time>
      </trkpt>
      <trkpt lat="38.2562160" lon="-0.6496790">
        <ele>76.8</ele>
        <time>2022-08-30T10:38:45Z</time>
      </trkpt>
      <trkpt lat="38.2560560" lon="-0.6494740">
        <ele>76.6</ele>
        <time>2022-08-30T10:38:48Z</time>
      </trkpt>
      <trkpt lat="38.2559100" lon="-0.6492500">
        <ele>76.0</ele>
        <time>2022-08-30T10:38:51Z</time>
      </trkpt>
      <trkpt lat="38.2556110" lon="-0.6486790">
        <ele>75.6</ele>
        <time>2022-08-30T10:38:58Z</time>
      </trkpt>
      <trkpt lat="38.2555300" lon="-0.6485070">
        <ele>75.4</ele>
        <time>2022-08-30T10:39:00Z</time>
      </trkpt>
      <trkpt lat="38.2552620" lon="-0.6478870">
        <ele>74.8</ele>
        <time>2022-08-30T10:39:07Z</time>
      </trkpt>
      <trkpt lat="38.2551900" lon="-0.6477080">
        <ele>74.8</ele>
        <time>2022-08-30T10:39:09Z</time>
      </trkpt>
      <trkpt lat="38.2551560" lon="-0.6476180">
        <ele>74.6</ele>
        <time>2022-08-30T10:39:10Z</time>
      </trkpt>
      <trkpt lat="38.2549290" lon="-0.6469940">
        <ele>74.4</ele>
        <time>2022-08-30T10:39:17Z</time>
      </trkpt>
      <trkpt lat="38.2548970" lon="-0.6469050">
        <ele>74.4</ele>
        <time>2022-08-30T10:39:18Z</time>
      </trkpt>
      <trkpt lat="38.2546720" lon="-0.6462730">
        <ele>73.8</ele>
        <time>2022-08-30T10:39:25Z</time>
      </trkpt>
      <trkpt lat="38.2545450" lon="-0.6459210">
        <ele>73.8</ele>
        <time>2022-08-30T10:39:29Z</time>
      </trkpt>
      <trkpt lat="38.2544000" lon="-0.6454720">
        <ele>74.0</ele>
        <time>2022-08-30T10:39:34Z</time>
      </trkpt>
      <trkpt lat="38.2541870" lon="-0.6448240">
        <ele>73.8</ele>
        <time>2022-08-30T10:39:41Z</time>
      </trkpt>
      <trkpt lat="38.2541010" lon="-0.6445470">
        <ele>73.6</ele>
        <time>2022-08-30T10:39:44Z</time>
      </trkpt>
      <trkpt lat="38.2539230" lon="-0.6438790">
        <ele>72.8</ele>
        <time>2022-08-30T10:39:51Z</time>
      </trkpt>
      <trkpt lat="38.2537590" lon="-0.6432210">
        <ele>72.6</ele>
        <time>2022-08-30T10:39:58Z</time>
      </trkpt>
      <trkpt lat="38.2537020" lon="-0.6430250">
        <ele>72.4</ele>
        <time>2022-08-30T10:40:00Z</time>
      </trkpt>
      <trkpt lat="38.2535430" lon="-0.6425670">
        <ele>72.4</ele>
        <time>2022-08-30T10:40:05Z</time>
      </trkpt>
      <trkpt lat="38.2535010" lon="-0.6424800">
        <ele>72.4</ele>
        <time>2022-08-30T10:40:06Z</time>
      </trkpt>
      <trkpt lat="38.2531690" lon="-0.6419120">
        <ele>72.4</ele>
        <time>2022-08-30T10:40:13Z</time>
      </trkpt>
      <trkpt lat="38.2529270" lon="-0.6413920">
        <ele>72.0</ele>
        <time>2022-08-30T10:40:19Z</time>
      </trkpt>
      <trkpt lat="38.2527470" lon="-0.6408140">
        <ele>70.8</ele>
        <time>2022-08-30T10:40:25Z</time>
      </trkpt>
      <trkpt lat="38.2525580" lon="-0.6401510">
        <ele>70.2</ele>
        <time>2022-08-30T10:40:32Z</time>
      </trkpt>
      <trkpt lat="38.2525170" lon="-0.6399590">
        <ele>69.8</ele>
        <time>2022-08-30T10:40:34Z</time>
      </trkpt>
      <trkpt lat="38.2523900" lon="-0.6392630">
        <ele>69.4</ele>
        <time>2022-08-30T10:40:41Z</time>
      </trkpt>
      <trkpt lat="38.2523430" lon="-0.6389630">
        <ele>69.2</ele>
        <time>2022-08-30T10:40:44Z</time>
      </trkpt>
      <trkpt lat="38.2522480" lon="-0.6383510">
        <ele>69.4</ele>
        <time>2022-08-30T10:40:50Z</time>
      </trkpt>
      <trkpt lat="38.2522380" lon="-0.6382480">
        <ele>69.4</ele>
        <time>2022-08-30T10:40:51Z</time>
      </trkpt>
      <trkpt lat="38.2521530" lon="-0.6376290">
        <ele>68.8</ele>
        <time>2022-08-30T10:40:57Z</time>
      </trkpt>
      <trkpt lat="38.2520840" lon="-0.6373260">
        <ele>68.4</ele>
        <time>2022-08-30T10:41:00Z</time>
      </trkpt>
      <trkpt lat="38.2519600" lon="-0.6366330">
        <ele>68.0</ele>
        <time>2022-08-30T10:41:07Z</time>
      </trkpt>
      <trkpt lat="38.2519480" lon="-0.6365320">
        <ele>68.0</ele>
        <time>2022-08-30T10:41:08Z</time>
      </trkpt>
      <trkpt lat="38.2519020" lon="-0.6361300">
        <ele>67.8</ele>
        <time>2022-08-30T10:41:12Z</time>
      </trkpt>
      <trkpt lat="38.2518530" lon="-0.6358460">
        <ele>67.6</ele>
        <time>2022-08-30T10:41:15Z</time>
      </trkpt>
      <trkpt lat="38.2518090" lon="-0.6356660">
        <ele>67.4</ele>
        <time>2022-08-30T10:41:17Z</time>
      </trkpt>
      <trkpt lat="38.2517390" lon="-0.6355010">
        <ele>67.4</ele>
        <time>2022-08-30T10:41:19Z</time>
      </trkpt>
      <trkpt lat="38.2516960" lon="-0.6354230">
        <ele>67.4</ele>
        <time>2022-08-30T10:41:20Z</time>
      </trkpt>
      <trkpt lat="38.2514490" lon="-0.6349640">
        <ele>67.4</ele>
        <time>2022-08-30T10:41:26Z</time>
      </trkpt>
      <trkpt lat="38.2514160" lon="-0.6348820">
        <ele>67.4</ele>
        <time>2022-08-30T10:41:27Z</time>
      </trkpt>
      <trkpt lat="38.2511700" lon="-0.6343290">
        <ele>67.4</ele>
        <time>2022-08-30T10:41:34Z</time>
      </trkpt>
      <trkpt lat="38.2509650" lon="-0.6338960">
        <ele>67.2</ele>
        <time>2022-08-30T10:41:40Z</time>
      </trkpt>
      <trkpt lat="38.2509110" lon="-0.6337290">
        <ele>67.2</ele>
        <time>2022-08-30T10:41:42Z</time>
      </trkpt>
      <trkpt lat="38.2508650" lon="-0.6335580">
        <ele>67.2</ele>
        <time>2022-08-30T10:41:44Z</time>
      </trkpt>
      <trkpt lat="38.2508130" lon="-0.6332850">
        <ele>67.2</ele>
        <time>2022-08-30T10:41:47Z</time>
      </trkpt>
      <trkpt lat="38.2508050" lon="-0.6331910">
        <ele>67.2</ele>
        <time>2022-08-30T10:41:48Z</time>
      </trkpt>
      <trkpt lat="38.2507970" lon="-0.6328110">
        <ele>66.6</ele>
        <time>2022-08-30T10:41:52Z</time>
      </trkpt>
      <trkpt lat="38.2507700" lon="-0.6325240">
        <ele>66.2</ele>
        <time>2022-08-30T10:41:55Z</time>
      </trkpt>
      <trkpt lat="38.2507380" lon="-0.6323380">
        <ele>66.0</ele>
        <time>2022-08-30T10:41:57Z</time>
      </trkpt>
      <trkpt lat="38.2506490" lon="-0.6318770">
        <ele>65.2</ele>
        <time>2022-08-30T10:42:02Z</time>
      </trkpt>
      <trkpt lat="38.2506350" lon="-0.6317800">
        <ele>64.8</ele>
        <time>2022-08-30T10:42:03Z</time>
      </trkpt>
      <trkpt lat="38.2505930" lon="-0.6314820">
        <ele>64.6</ele>
        <time>2022-08-30T10:42:06Z</time>
      </trkpt>
      <trkpt lat="38.2505390" lon="-0.6310830">
        <ele>64.4</ele>
        <time>2022-08-30T10:42:10Z</time>
      </trkpt>
      <trkpt lat="38.2504710" lon="-0.6305850">
        <ele>64.4</ele>
        <time>2022-08-30T10:42:15Z</time>
      </trkpt>
      <trkpt lat="38.2504260" lon="-0.6301880">
        <ele>64.6</ele>
        <time>2022-08-30T10:42:19Z</time>
      </trkpt>
      <trkpt lat="38.2503880" lon="-0.6294800">
        <ele>64.4</ele>
        <time>2022-08-30T10:42:26Z</time>
      </trkpt>
      <trkpt lat="38.2503800" lon="-0.6292780">
        <ele>64.2</ele>
        <time>2022-08-30T10:42:28Z</time>
      </trkpt>
      <trkpt lat="38.2503660" lon="-0.6286730">
        <ele>63.4</ele>
        <time>2022-08-30T10:42:34Z</time>
      </trkpt>
      <trkpt lat="38.2503550" lon="-0.6281650">
        <ele>63.0</ele>
        <time>2022-08-30T10:42:39Z</time>
      </trkpt>
      <trkpt lat="38.2503190" lon="-0.6277640">
        <ele>62.6</ele>
        <time>2022-08-30T10:42:43Z</time>
      </trkpt>
      <trkpt lat="38.2502360" lon="-0.6270730">
        <ele>62.6</ele>
        <time>2022-08-30T10:42:50Z</time>
      </trkpt>
      <trkpt lat="38.2502130" lon="-0.6268730">
        <ele>62.6</ele>
        <time>2022-08-30T10:42:52Z</time>
      </trkpt>
      <trkpt lat="38.2501490" lon="-0.6263650">
        <ele>62.2</ele>
        <time>2022-08-30T10:42:57Z</time>
      </trkpt>
      <trkpt lat="38.2500960" lon="-0.6260760">
        <ele>62.0</ele>
        <time>2022-08-30T10:43:00Z</time>
      </trkpt>
      <trkpt lat="38.2499230" lon="-0.6255260">
        <ele>61.8</ele>
        <time>2022-08-30T10:43:06Z</time>
      </trkpt>
      <trkpt lat="38.2498290" lon="-0.6250480">
        <ele>62.2</ele>
        <time>2022-08-30T10:43:11Z</time>
      </trkpt>
      <trkpt lat="38.2497770" lon="-0.6242640">
        <ele>62.4</ele>
        <time>2022-08-30T10:43:19Z</time>
      </trkpt>
      <trkpt lat="38.2497470" lon="-0.6238870">
        <ele>62.0</ele>
        <time>2022-08-30T10:43:23Z</time>
      </trkpt>
      <trkpt lat="38.2497070" lon="-0.6234970">
        <ele>61.6</ele>
        <time>2022-08-30T10:43:27Z</time>
      </trkpt>
      <trkpt lat="38.2496470" lon="-0.6230040">
        <ele>61.4</ele>
        <time>2022-08-30T10:43:32Z</time>
      </trkpt>
      <trkpt lat="38.2496090" lon="-0.6227020">
        <ele>61.2</ele>
        <time>2022-08-30T10:43:35Z</time>
      </trkpt>
      <trkpt lat="38.2494980" lon="-0.6220140">
        <ele>60.6</ele>
        <time>2022-08-30T10:43:42Z</time>
      </trkpt>
      <trkpt lat="38.2494150" lon="-0.6216450">
        <ele>60.4</ele>
        <time>2022-08-30T10:43:46Z</time>
      </trkpt>
      <trkpt lat="38.2493600" lon="-0.6213750">
        <ele>60.4</ele>
        <time>2022-08-30T10:43:49Z</time>
      </trkpt>
      <trkpt lat="38.2492840" lon="-0.6207150">
        <ele>60.4</ele>
        <time>2022-08-30T10:43:56Z</time>
      </trkpt>
      <trkpt lat="38.2492060" lon="-0.6200450">
        <ele>60.2</ele>
        <time>2022-08-30T10:44:03Z</time>
      </trkpt>
      <trkpt lat="38.2491930" lon="-0.6199510">
        <ele>60.0</ele>
        <time>2022-08-30T10:44:04Z</time>
      </trkpt>
      <trkpt lat="38.2491300" lon="-0.6195810">
        <ele>59.6</ele>
        <time>2022-08-30T10:44:08Z</time>
      </trkpt>
      <trkpt lat="38.2490490" lon="-0.6193100">
        <ele>59.2</ele>
        <time>2022-08-30T10:44:11Z</time>
      </trkpt>
      <trkpt lat="38.2488140" lon="-0.6188380">
        <ele>59.2</ele>
        <time>2022-08-30T10:44:17Z</time>
      </trkpt>
      <trkpt lat="38.2486120" lon="-0.6183370">
        <ele>59.0</ele>
        <time>2022-08-30T10:44:23Z</time>
      </trkpt>
      <trkpt lat="38.2484170" lon="-0.6178110">
        <ele>59.2</ele>
        <time>2022-08-30T10:44:29Z</time>
      </trkpt>
      <trkpt lat="38.2483210" lon="-0.6175500">
        <ele>59.2</ele>
        <time>2022-08-30T10:44:32Z</time>
      </trkpt>
      <trkpt lat="38.2480890" lon="-0.6169180">
        <ele>58.8</ele>
        <time>2022-08-30T10:44:39Z</time>
      </trkpt>
      <trkpt lat="38.2480570" lon="-0.6168280">
        <ele>58.6</ele>
        <time>2022-08-30T10:44:40Z</time>
      </trkpt>
      <trkpt lat="38.2479560" lon="-0.6165540">
        <ele>58.4</ele>
        <time>2022-08-30T10:44:43Z</time>
      </trkpt>
      <trkpt lat="38.2477230" lon="-0.6159230">
        <ele>58.0</ele>
        <time>2022-08-30T10:44:50Z</time>
      </trkpt>
      <trkpt lat="38.2475960" lon="-0.6155620">
        <ele>58.0</ele>
        <time>2022-08-30T10:44:54Z</time>
      </trkpt>
      <trkpt lat="38.2474280" lon="-0.6151160">
        <ele>57.6</ele>
        <time>2022-08-30T10:44:59Z</time>
      </trkpt>
      <trkpt lat="38.2472930" lon="-0.6147540">
        <ele>57.2</ele>
        <time>2022-08-30T10:45:03Z</time>
      </trkpt>
      <trkpt lat="38.2471580" lon="-0.6143910">
        <ele>56.6</ele>
        <time>2022-08-30T10:45:07Z</time>
      </trkpt>
      <trkpt lat="38.2470260" lon="-0.6140280">
        <ele>56.4</ele>
        <time>2022-08-30T10:45:11Z</time>
      </trkpt>
      <trkpt lat="38.2468070" lon="-0.6133770">
        <ele>56.0</ele>
        <time>2022-08-30T10:45:18Z</time>
      </trkpt>
      <trkpt lat="38.2467810" lon="-0.6132780">
        <ele>56.0</ele>
        <time>2022-08-30T10:45:19Z</time>
      </trkpt>
      <trkpt lat="38.2467560" lon="-0.6131720">
        <ele>55.6</ele>
        <time>2022-08-30T10:45:20Z</time>
      </trkpt>
      <trkpt lat="38.2467000" lon="-0.6128280">
        <ele>55.0</ele>
        <time>2022-08-30T10:45:23Z</time>
      </trkpt>
      <trkpt lat="38.2466860" lon="-0.6125880">
        <ele>54.6</ele>
        <time>2022-08-30T10:45:25Z</time>
      </trkpt>
      <trkpt lat="38.2466800" lon="-0.6123510">
        <ele>53.6</ele>
        <time>2022-08-30T10:45:27Z</time>
      </trkpt>
      <trkpt lat="38.2466740" lon="-0.6121210">
        <ele>53.0</ele>
        <time>2022-08-30T10:45:29Z</time>
      </trkpt>
      <trkpt lat="38.2466530" lon="-0.6117800">
        <ele>52.4</ele>
        <time>2022-08-30T10:45:32Z</time>
      </trkpt>
      <trkpt lat="38.2466140" lon="-0.6115640">
        <ele>52.6</ele>
        <time>2022-08-30T10:45:34Z</time>
      </trkpt>
      <trkpt lat="38.2465880" lon="-0.6114630">
        <ele>52.2</ele>
        <time>2022-08-30T10:45:35Z</time>
      </trkpt>
      <trkpt lat="38.2464960" lon="-0.6111840">
        <ele>52.2</ele>
        <time>2022-08-30T10:45:38Z</time>
      </trkpt>
      <trkpt lat="38.2464590" lon="-0.6110980">
        <ele>52.2</ele>
        <time>2022-08-30T10:45:39Z</time>
      </trkpt>
      <trkpt lat="38.2463770" lon="-0.6109340">
        <ele>52.2</ele>
        <time>2022-08-30T10:45:41Z</time>
      </trkpt>
      <trkpt lat="38.2462950" lon="-0.6107710">
        <ele>52.6</ele>
        <time>2022-08-30T10:45:43Z</time>
      </trkpt>
      <trkpt lat="38.2461230" lon="-0.6104550">
        <ele>53.6</ele>
        <time>2022-08-30T10:45:47Z</time>
      </trkpt>
      <trkpt lat="38.2460830" lon="-0.6103790">
        <ele>53.6</ele>
        <time>2022-08-30T10:45:48Z</time>
      </trkpt>
      <trkpt lat="38.2460390" lon="-0.6103020">
        <ele>54.0</ele>
        <time>2022-08-30T10:45:49Z</time>
      </trkpt>
      <trkpt lat="38.2457530" lon="-0.6097630">
        <ele>54.4</ele>
        <time>2022-08-30T10:45:56Z</time>
      </trkpt>
      <trkpt lat="38.2454160" lon="-0.6091300">
        <ele>54.4</ele>
        <time>2022-08-30T10:46:04Z</time>
      </trkpt>
      <trkpt lat="38.2450770" lon="-0.6084940">
        <ele>53.8</ele>
        <time>2022-08-30T10:46:12Z</time>
      </trkpt>
      <trkpt lat="38.2449870" lon="-0.6083350">
        <ele>53.8</ele>
        <time>2022-08-30T10:46:14Z</time>
      </trkpt>
      <trkpt lat="38.2446480" lon="-0.6076930">
        <ele>54.2</ele>
        <time>2022-08-30T10:46:22Z</time>
      </trkpt>
      <trkpt lat="38.2445610" lon="-0.6075320">
        <ele>54.2</ele>
        <time>2022-08-30T10:46:24Z</time>
      </trkpt>
      <trkpt lat="38.2442530" lon="-0.6069520">
        <ele>54.4</ele>
        <time>2022-08-30T10:46:31Z</time>
      </trkpt>
      <trkpt lat="38.2441250" lon="-0.6067040">
        <ele>54.0</ele>
        <time>2022-08-30T10:46:34Z</time>
      </trkpt>
      <trkpt lat="38.2438210" lon="-0.6061110">
        <ele>53.2</ele>
        <time>2022-08-30T10:46:41Z</time>
      </trkpt>
      <trkpt lat="38.2437290" lon="-0.6059370">
        <ele>53.0</ele>
        <time>2022-08-30T10:46:43Z</time>
      </trkpt>
      <trkpt lat="38.2434100" lon="-0.6053380">
        <ele>52.4</ele>
        <time>2022-08-30T10:46:50Z</time>
      </trkpt>
      <trkpt lat="38.2432750" lon="-0.6050760">
        <ele>52.2</ele>
        <time>2022-08-30T10:46:53Z</time>
      </trkpt>
      <trkpt lat="38.2430920" lon="-0.6047340">
        <ele>51.6</ele>
        <time>2022-08-30T10:46:57Z</time>
      </trkpt>
      <trkpt lat="38.2427760" lon="-0.6041510">
        <ele>51.2</ele>
        <time>2022-08-30T10:47:04Z</time>
      </trkpt>
      <trkpt lat="38.2427310" lon="-0.6040690">
        <ele>51.2</ele>
        <time>2022-08-30T10:47:05Z</time>
      </trkpt>
      <trkpt lat="38.2424340" lon="-0.6035080">
        <ele>51.2</ele>
        <time>2022-08-30T10:47:12Z</time>
      </trkpt>
      <trkpt lat="38.2420930" lon="-0.6028690">
        <ele>51.0</ele>
        <time>2022-08-30T10:47:20Z</time>
      </trkpt>
      <trkpt lat="38.2420510" lon="-0.6027890">
        <ele>51.0</ele>
        <time>2022-08-30T10:47:21Z</time>
      </trkpt>
      <trkpt lat="38.2417770" lon="-0.6022910">
        <ele>50.4</ele>
        <time>2022-08-30T10:47:27Z</time>
      </trkpt>
      <trkpt lat="38.2417280" lon="-0.6021980">
        <ele>50.4</ele>
        <time>2022-08-30T10:47:28Z</time>
      </trkpt>
      <trkpt lat="38.2415340" lon="-0.6018390">
        <ele>49.0</ele>
        <time>2022-08-30T10:47:32Z</time>
      </trkpt>
      <trkpt lat="38.2413540" lon="-0.6014900">
        <ele>48.0</ele>
        <time>2022-08-30T10:47:36Z</time>
      </trkpt>
      <trkpt lat="38.2413100" lon="-0.6014000">
        <ele>47.8</ele>
        <time>2022-08-30T10:47:37Z</time>
      </trkpt>
      <trkpt lat="38.2410870" lon="-0.6008290">
        <ele>47.2</ele>
        <time>2022-08-30T10:47:43Z</time>
      </trkpt>
      <trkpt lat="38.2409390" lon="-0.6004050">
        <ele>46.8</ele>
        <time>2022-08-30T10:47:47Z</time>
      </trkpt>
      <trkpt lat="38.2407990" lon="-0.6000000">
        <ele>46.2</ele>
        <time>2022-08-30T10:47:51Z</time>
      </trkpt>
      <trkpt lat="38.2407630" lon="-0.5998910">
        <ele>45.6</ele>
        <time>2022-08-30T10:47:52Z</time>
      </trkpt>
      <trkpt lat="38.2406510" lon="-0.5995770">
        <ele>44.4</ele>
        <time>2022-08-30T10:47:55Z</time>
      </trkpt>
      <trkpt lat="38.2405130" lon="-0.5991790">
        <ele>43.4</ele>
        <time>2022-08-30T10:47:59Z</time>
      </trkpt>
      <trkpt lat="38.2404800" lon="-0.5990820">
        <ele>43.4</ele>
        <time>2022-08-30T10:48:00Z</time>
      </trkpt>
      <trkpt lat="38.2403140" lon="-0.5985880">
        <ele>43.4</ele>
        <time>2022-08-30T10:48:05Z</time>
      </trkpt>
      <trkpt lat="38.2402390" lon="-0.5983380">
        <ele>43.4</ele>
        <time>2022-08-30T10:48:08Z</time>
      </trkpt>
      <trkpt lat="38.2401850" lon="-0.5981560">
        <ele>43.8</ele>
        <time>2022-08-30T10:48:10Z</time>
      </trkpt>
      <trkpt lat="38.2401490" lon="-0.5980420">
        <ele>44.0</ele>
        <time>2022-08-30T10:48:11Z</time>
      </trkpt>
      <trkpt lat="38.2400920" lon="-0.5978750">
        <ele>44.0</ele>
        <time>2022-08-30T10:48:13Z</time>
      </trkpt>
      <trkpt lat="38.2399030" lon="-0.5974310">
        <ele>44.2</ele>
        <time>2022-08-30T10:48:18Z</time>
      </trkpt>
      <trkpt lat="38.2396460" lon="-0.5970340">
        <ele>43.6</ele>
        <time>2022-08-30T10:48:23Z</time>
      </trkpt>
      <trkpt lat="38.2392310" lon="-0.5965230">
        <ele>43.0</ele>
        <time>2022-08-30T10:48:30Z</time>
      </trkpt>
      <trkpt lat="38.2391570" lon="-0.5964480">
        <ele>43.0</ele>
        <time>2022-08-30T10:48:31Z</time>
      </trkpt>
      <trkpt lat="38.2388780" lon="-0.5962610">
        <ele>42.8</ele>
        <time>2022-08-30T10:48:35Z</time>
      </trkpt>
      <trkpt lat="38.2388220" lon="-0.5962380">
        <ele>42.6</ele>
        <time>2022-08-30T10:48:36Z</time>
      </trkpt>
      <trkpt lat="38.2385540" lon="-0.5960970">
        <ele>42.2</ele>
        <time>2022-08-30T10:48:40Z</time>
      </trkpt>
      <trkpt lat="38.2384330" lon="-0.5960070">
        <ele>42.0</ele>
        <time>2022-08-30T10:48:42Z</time>
      </trkpt>
      <trkpt lat="38.2383160" lon="-0.5959060">
        <ele>41.8</ele>
        <time>2022-08-30T10:48:44Z</time>
      </trkpt>
      <trkpt lat="38.2382200" lon="-0.5958130">
        <ele>41.8</ele>
        <time>2022-08-30T10:48:46Z</time>
      </trkpt>
      <trkpt lat="38.2381850" lon="-0.5957720">
        <ele>41.6</ele>
        <time>2022-08-30T10:48:47Z</time>
      </trkpt>
      <trkpt lat="38.2381320" lon="-0.5956300">
        <ele>41.6</ele>
        <time>2022-08-30T10:48:49Z</time>
      </trkpt>
      <trkpt lat="38.2381390" lon="-0.5955700">
        <ele>41.6</ele>
        <time>2022-08-30T10:48:50Z</time>
      </trkpt>
      <trkpt lat="38.2381650" lon="-0.5954940">
        <ele>41.6</ele>
        <time>2022-08-30T10:48:51Z</time>
      </trkpt>
      <trkpt lat="38.2382420" lon="-0.5953180">
        <ele>41.4</ele>
        <time>2022-08-30T10:48:53Z</time>
      </trkpt>
      <trkpt lat="38.2382670" lon="-0.5952500">
        <ele>41.2</ele>
        <time>2022-08-30T10:48:54Z</time>
      </trkpt>
      <trkpt lat="38.2382950" lon="-0.5951620">
        <ele>41.0</ele>
        <time>2022-08-30T10:48:55Z</time>
      </trkpt>
      <trkpt lat="38.2383460" lon="-0.5949550">
        <ele>40.6</ele>
        <time>2022-08-30T10:48:57Z</time>
      </trkpt>
      <trkpt lat="38.2383910" lon="-0.5947840">
        <ele>40.6</ele>
        <time>2022-08-30T10:48:59Z</time>
      </trkpt>
      <trkpt lat="38.2385140" lon="-0.5942910">
        <ele>40.0</ele>
        <time>2022-08-30T10:49:04Z</time>
      </trkpt>
      <trkpt lat="38.2385530" lon="-0.5940880">
        <ele>40.2</ele>
        <time>2022-08-30T10:49:06Z</time>
      </trkpt>
      <trkpt lat="38.2386030" lon="-0.5935430">
        <ele>40.2</ele>
        <time>2022-08-30T10:49:11Z</time>
      </trkpt>
      <trkpt lat="38.2386650" lon="-0.5932710">
        <ele>40.4</ele>
        <time>2022-08-30T10:49:14Z</time>
      </trkpt>
      <trkpt lat="38.2387110" lon="-0.5931630">
        <ele>40.4</ele>
        <time>2022-08-30T10:49:15Z</time>
      </trkpt>
      <trkpt lat="38.2389490" lon="-0.5927870">
        <ele>40.4</ele>
        <time>2022-08-30T10:49:20Z</time>
      </trkpt>
      <trkpt lat="38.2390340" lon="-0.5926110">
        <ele>40.4</ele>
        <time>2022-08-30T10:49:22Z</time>
      </trkpt>
      <trkpt lat="38.2390910" lon="-0.5924100">
        <ele>40.2</ele>
        <time>2022-08-30T10:49:24Z</time>
      </trkpt>
      <trkpt lat="38.2391290" lon="-0.5922000">
        <ele>39.8</ele>
        <time>2022-08-30T10:49:26Z</time>
      </trkpt>
      <trkpt lat="38.2391680" lon="-0.5918820">
        <ele>39.6</ele>
        <time>2022-08-30T10:49:29Z</time>
      </trkpt>
      <trkpt lat="38.2392590" lon="-0.5911430">
        <ele>39.2</ele>
        <time>2022-08-30T10:49:36Z</time>
      </trkpt>
      <trkpt lat="38.2392740" lon="-0.5910200">
        <ele>39.0</ele>
        <time>2022-08-30T10:49:37Z</time>
      </trkpt>
      <trkpt lat="38.2392840" lon="-0.5909350">
        <ele>39.0</ele>
        <time>2022-08-30T10:49:38Z</time>
      </trkpt>
      <trkpt lat="38.2393730" lon="-0.5902070">
        <ele>38.6</ele>
        <time>2022-08-30T10:49:45Z</time>
      </trkpt>
      <trkpt lat="38.2393830" lon="-0.5901020">
        <ele>38.6</ele>
        <time>2022-08-30T10:49:46Z</time>
      </trkpt>
      <trkpt lat="38.2393950" lon="-0.5899950">
        <ele>38.6</ele>
        <time>2022-08-30T10:49:47Z</time>
      </trkpt>
      <trkpt lat="38.2394850" lon="-0.5892550">
        <ele>38.4</ele>
        <time>2022-08-30T10:49:54Z</time>
      </trkpt>
      <trkpt lat="38.2395100" lon="-0.5890410">
        <ele>38.0</ele>
        <time>2022-08-30T10:49:56Z</time>
      </trkpt>
      <trkpt lat="38.2395670" lon="-0.5886240">
        <ele>37.0</ele>
        <time>2022-08-30T10:50:00Z</time>
      </trkpt>
      <trkpt lat="38.2396130" lon="-0.5882080">
        <ele>36.6</ele>
        <time>2022-08-30T10:50:04Z</time>
      </trkpt>
      <trkpt lat="38.2397000" lon="-0.5874970">
        <ele>36.4</ele>
        <time>2022-08-30T10:50:11Z</time>
      </trkpt>
      <trkpt lat="38.2397250" lon="-0.5873000">
        <ele>36.4</ele>
        <time>2022-08-30T10:50:13Z</time>
      </trkpt>
      <trkpt lat="38.2397980" lon="-0.5868130">
        <ele>36.6</ele>
        <time>2022-08-30T10:50:18Z</time>
      </trkpt>
      <trkpt lat="38.2398330" lon="-0.5861120">
        <ele>36.2</ele>
        <time>2022-08-30T10:50:25Z</time>
      </trkpt>
      <trkpt lat="38.2398190" lon="-0.5858130">
        <ele>36.2</ele>
        <time>2022-08-30T10:50:28Z</time>
      </trkpt>
      <trkpt lat="38.2397860" lon="-0.5854150">
        <ele>35.8</ele>
        <time>2022-08-30T10:50:32Z</time>
      </trkpt>
      <trkpt lat="38.2397410" lon="-0.5848190">
        <ele>35.6</ele>
        <time>2022-08-30T10:50:38Z</time>
      </trkpt>
      <trkpt lat="38.2397110" lon="-0.5844330">
        <ele>35.2</ele>
        <time>2022-08-30T10:50:42Z</time>
      </trkpt>
      <trkpt lat="38.2396960" lon="-0.5842160">
        <ele>35.0</ele>
        <time>2022-08-30T10:50:44Z</time>
      </trkpt>
      <trkpt lat="38.2396730" lon="-0.5839550">
        <ele>35.0</ele>
        <time>2022-08-30T10:50:47Z</time>
      </trkpt>
      <trkpt lat="38.2396420" lon="-0.5835930">
        <ele>34.8</ele>
        <time>2022-08-30T10:50:51Z</time>
      </trkpt>
      <trkpt lat="38.2396000" lon="-0.5830820">
        <ele>34.6</ele>
        <time>2022-08-30T10:50:57Z</time>
      </trkpt>
      <trkpt lat="38.2395950" lon="-0.5829910">
        <ele>34.6</ele>
        <time>2022-08-30T10:50:58Z</time>
      </trkpt>
      <trkpt lat="38.2395980" lon="-0.5829200">
        <ele>34.6</ele>
        <time>2022-08-30T10:50:59Z</time>
      </trkpt>
      <trkpt lat="38.2396090" lon="-0.5828690">
        <ele>34.6</ele>
        <time>2022-08-30T10:51:00Z</time>
      </trkpt>
      <trkpt lat="38.2396870" lon="-0.5827820">
        <ele>34.6</ele>
        <time>2022-08-30T10:51:02Z</time>
      </trkpt>
      <trkpt lat="38.2398670" lon="-0.5827570">
        <ele>34.4</ele>
        <time>2022-08-30T10:51:05Z</time>
      </trkpt>
      <trkpt lat="38.2399200" lon="-0.5827510">
        <ele>34.4</ele>
        <time>2022-08-30T10:51:06Z</time>
      </trkpt>
      <trkpt lat="38.2400590" lon="-0.5827310">
        <ele>34.4</ele>
        <time>2022-08-30T10:51:08Z</time>
      </trkpt>
      <trkpt lat="38.2402020" lon="-0.5827120">
        <ele>34.4</ele>
        <time>2022-08-30T10:51:10Z</time>
      </trkpt>
      <trkpt lat="38.2403650" lon="-0.5826950">
        <ele>34.4</ele>
        <time>2022-08-30T10:51:12Z</time>
      </trkpt>
      <trkpt lat="38.2405720" lon="-0.5826700">
        <ele>34.6</ele>
        <time>2022-08-30T10:51:15Z</time>
      </trkpt>
      <trkpt lat="38.2408050" lon="-0.5826420">
        <ele>35.2</ele>
        <time>2022-08-30T10:51:18Z</time>
      </trkpt>
      <trkpt lat="38.2411570" lon="-0.5825970">
        <ele>35.4</ele>
        <time>2022-08-30T10:51:23Z</time>
      </trkpt>
      <trkpt lat="38.2412310" lon="-0.5825850">
        <ele>35.6</ele>
        <time>2022-08-30T10:51:24Z</time>
      </trkpt>
      <trkpt lat="38.2417550" lon="-0.5825130">
        <ele>36.4</ele>
        <time>2022-08-30T10:51:31Z</time>
      </trkpt>
      <trkpt lat="38.2418290" lon="-0.5825040">
        <ele>36.6</ele>
        <time>2022-08-30T10:51:32Z</time>
      </trkpt>
      <trkpt lat="38.2422810" lon="-0.5824330">
        <ele>37.6</ele>
        <time>2022-08-30T10:51:38Z</time>
      </trkpt>
      <trkpt lat="38.2423530" lon="-0.5824090">
        <ele>37.8</ele>
        <time>2022-08-30T10:51:39Z</time>
      </trkpt>
      <trkpt lat="38.2424080" lon="-0.5823850">
        <ele>38.0</ele>
        <time>2022-08-30T10:51:40Z</time>
      </trkpt>
      <trkpt lat="38.2427480" lon="-0.5821520">
        <ele>38.0</ele>
        <time>2022-08-30T10:51:45Z</time>
      </trkpt>
      <trkpt lat="38.2432070" lon="-0.5818080">
        <ele>38.6</ele>
        <time>2022-08-30T10:51:52Z</time>
      </trkpt>
      <trkpt lat="38.2432720" lon="-0.5817540">
        <ele>38.8</ele>
        <time>2022-08-30T10:51:53Z</time>
      </trkpt>
      <trkpt lat="38.2436920" lon="-0.5814410">
        <ele>38.6</ele>
        <time>2022-08-30T10:51:59Z</time>
      </trkpt>
      <trkpt lat="38.2441450" lon="-0.5812950">
        <ele>38.6</ele>
        <time>2022-08-30T10:52:05Z</time>
      </trkpt>
      <trkpt lat="38.2446810" lon="-0.5811640">
        <ele>39.2</ele>
        <time>2022-08-30T10:52:12Z</time>
      </trkpt>
      <trkpt lat="38.2448170" lon="-0.5811290">
        <ele>40.0</ele>
        <time>2022-08-30T10:52:14Z</time>
      </trkpt>
      <trkpt lat="38.2453630" lon="-0.5809920">
        <ele>40.4</ele>
        <time>2022-08-30T10:52:21Z</time>
      </trkpt>
      <trkpt lat="38.2457400" lon="-0.5809160">
        <ele>41.0</ele>
        <time>2022-08-30T10:52:26Z</time>
      </trkpt>
      <trkpt lat="38.2458150" lon="-0.5809000">
        <ele>41.2</ele>
        <time>2022-08-30T10:52:27Z</time>
      </trkpt>
      <trkpt lat="38.2464150" lon="-0.5807820">
        <ele>42.0</ele>
        <time>2022-08-30T10:52:35Z</time>
      </trkpt>
      <trkpt lat="38.2464740" lon="-0.5807750">
        <ele>42.0</ele>
        <time>2022-08-30T10:52:36Z</time>
      </trkpt>
      <trkpt lat="38.2466430" lon="-0.5807640">
        <ele>42.2</ele>
        <time>2022-08-30T10:52:38Z</time>
      </trkpt>
      <trkpt lat="38.2471040" lon="-0.5808020">
        <ele>42.6</ele>
        <time>2022-08-30T10:52:44Z</time>
      </trkpt>
      <trkpt lat="38.2476350" lon="-0.5809160">
        <ele>43.0</ele>
        <time>2022-08-30T10:52:51Z</time>
      </trkpt>
      <trkpt lat="38.2480450" lon="-0.5811070">
        <ele>43.2</ele>
        <time>2022-08-30T10:52:57Z</time>
      </trkpt>
      <trkpt lat="38.2481150" lon="-0.5811410">
        <ele>43.6</ele>
        <time>2022-08-30T10:52:58Z</time>
      </trkpt>
      <trkpt lat="38.2485440" lon="-0.5813390">
        <ele>43.8</ele>
        <time>2022-08-30T10:53:04Z</time>
      </trkpt>
      <trkpt lat="38.2486830" lon="-0.5813730">
        <ele>43.8</ele>
        <time>2022-08-30T10:53:06Z</time>
      </trkpt>
      <trkpt lat="38.2488300" lon="-0.5813770">
        <ele>43.8</ele>
        <time>2022-08-30T10:53:08Z</time>
      </trkpt>
      <trkpt lat="38.2489040" lon="-0.5813720">
        <ele>43.8</ele>
        <time>2022-08-30T10:53:09Z</time>
      </trkpt>
      <trkpt lat="38.2494330" lon="-0.5813290">
        <ele>44.2</ele>
        <time>2022-08-30T10:53:16Z</time>
      </trkpt>
      <trkpt lat="38.2498270" lon="-0.5813600">
        <ele>44.6</ele>
        <time>2022-08-30T10:53:21Z</time>
      </trkpt>
      <trkpt lat="38.2502070" lon="-0.5813510">
        <ele>45.2</ele>
        <time>2022-08-30T10:53:26Z</time>
      </trkpt>
      <trkpt lat="38.2503600" lon="-0.5813360">
        <ele>45.2</ele>
        <time>2022-08-30T10:53:28Z</time>
      </trkpt>
      <trkpt lat="38.2507350" lon="-0.5813580">
        <ele>45.4</ele>
        <time>2022-08-30T10:53:33Z</time>
      </trkpt>
      <trkpt lat="38.2509350" lon="-0.5814260">
        <ele>45.6</ele>
        <time>2022-08-30T10:53:36Z</time>
      </trkpt>
      <trkpt lat="38.2510770" lon="-0.5814960">
        <ele>45.8</ele>
        <time>2022-08-30T10:53:38Z</time>
      </trkpt>
      <trkpt lat="38.2511510" lon="-0.5815320">
        <ele>45.8</ele>
        <time>2022-08-30T10:53:39Z</time>
      </trkpt>
      <trkpt lat="38.2517170" lon="-0.5818380">
        <ele>46.0</ele>
        <time>2022-08-30T10:53:47Z</time>
      </trkpt>
      <trkpt lat="38.2522180" lon="-0.5821200">
        <ele>46.8</ele>
        <time>2022-08-30T10:53:54Z</time>
      </trkpt>
      <trkpt lat="38.2523540" lon="-0.5822100">
        <ele>47.0</ele>
        <time>2022-08-30T10:53:56Z</time>
      </trkpt>
      <trkpt lat="38.2529020" lon="-0.5825390">
        <ele>47.4</ele>
        <time>2022-08-30T10:54:04Z</time>
      </trkpt>
      <trkpt lat="38.2529740" lon="-0.5825570">
        <ele>47.4</ele>
        <time>2022-08-30T10:54:05Z</time>
      </trkpt>
      <trkpt lat="38.2531280" lon="-0.5825340">
        <ele>47.6</ele>
        <time>2022-08-30T10:54:07Z</time>
      </trkpt>
      <trkpt lat="38.2536650" lon="-0.5823290">
        <ele>48.0</ele>
        <time>2022-08-30T10:54:14Z</time>
      </trkpt>
      <trkpt lat="38.2538190" lon="-0.5822700">
        <ele>48.0</ele>
        <time>2022-08-30T10:54:16Z</time>
      </trkpt>
      <trkpt lat="38.2542720" lon="-0.5820950">
        <ele>48.6</ele>
        <time>2022-08-30T10:54:22Z</time>
      </trkpt>
      <trkpt lat="38.2547920" lon="-0.5819050">
        <ele>48.8</ele>
        <time>2022-08-30T10:54:29Z</time>
      </trkpt>
      <trkpt lat="38.2549370" lon="-0.5818460">
        <ele>49.0</ele>
        <time>2022-08-30T10:54:31Z</time>
      </trkpt>
      <trkpt lat="38.2550820" lon="-0.5817870">
        <ele>49.2</ele>
        <time>2022-08-30T10:54:33Z</time>
      </trkpt>
      <trkpt lat="38.2556640" lon="-0.5815730">
        <ele>49.6</ele>
        <time>2022-08-30T10:54:41Z</time>
      </trkpt>
      <trkpt lat="38.2562640" lon="-0.5813580">
        <ele>50.0</ele>
        <time>2022-08-30T10:54:49Z</time>
      </trkpt>
      <trkpt lat="38.2563380" lon="-0.5813280">
        <ele>50.0</ele>
        <time>2022-08-30T10:54:50Z</time>
      </trkpt>
      <trkpt lat="38.2565510" lon="-0.5812470">
        <ele>50.2</ele>
        <time>2022-08-30T10:54:53Z</time>
      </trkpt>
      <trkpt lat="38.2567810" lon="-0.5811940">
        <ele>50.6</ele>
        <time>2022-08-30T10:54:56Z</time>
      </trkpt>
      <trkpt lat="38.2572500" lon="-0.5811870">
        <ele>50.8</ele>
        <time>2022-08-30T10:55:02Z</time>
      </trkpt>
      <trkpt lat="38.2577970" lon="-0.5811930">
        <ele>51.0</ele>
        <time>2022-08-30T10:55:09Z</time>
      </trkpt>
      <trkpt lat="38.2582590" lon="-0.5812130">
        <ele>51.0</ele>
        <time>2022-08-30T10:55:15Z</time>
      </trkpt>
      <trkpt lat="38.2584100" lon="-0.5812300">
        <ele>51.2</ele>
        <time>2022-08-30T10:55:17Z</time>
      </trkpt>
      <trkpt lat="38.2586320" lon="-0.5812900">
        <ele>51.4</ele>
        <time>2022-08-30T10:55:20Z</time>
      </trkpt>
      <trkpt lat="38.2591650" lon="-0.5814310">
        <ele>51.8</ele>
        <time>2022-08-30T10:55:27Z</time>
      </trkpt>
      <trkpt lat="38.2592390" lon="-0.5814640">
        <ele>52.0</ele>
        <time>2022-08-30T10:55:28Z</time>
      </trkpt>
      <trkpt lat="38.2594400" lon="-0.5816020">
        <ele>52.4</ele>
        <time>2022-08-30T10:55:31Z</time>
      </trkpt>
      <trkpt lat="38.2598290" lon="-0.5818780">
        <ele>52.4</ele>
        <time>2022-08-30T10:55:37Z</time>
      </trkpt>
      <trkpt lat="38.2602960" lon="-0.5821940">
        <ele>52.4</ele>
        <time>2022-08-30T10:55:44Z</time>
      </trkpt>
      <trkpt lat="38.2603570" lon="-0.5822320">
        <ele>52.6</ele>
        <time>2022-08-30T10:55:45Z</time>
      </trkpt>
      <trkpt lat="38.2604850" lon="-0.5823050">
        <ele>52.6</ele>
        <time>2022-08-30T10:55:47Z</time>
      </trkpt>
      <trkpt lat="38.2605490" lon="-0.5823270">
        <ele>52.6</ele>
        <time>2022-08-30T10:55:48Z</time>
      </trkpt>
      <trkpt lat="38.2606190" lon="-0.5823310">
        <ele>52.6</ele>
        <time>2022-08-30T10:55:49Z</time>
      </trkpt>
      <trkpt lat="38.2606880" lon="-0.5823160">
        <ele>52.6</ele>
        <time>2022-08-30T10:55:50Z</time>
      </trkpt>
      <trkpt lat="38.2609060" lon="-0.5822690">
        <ele>52.8</ele>
        <time>2022-08-30T10:55:53Z</time>
      </trkpt>
      <trkpt lat="38.2609880" lon="-0.5822680">
        <ele>52.8</ele>
        <time>2022-08-30T10:55:54Z</time>
      </trkpt>
      <trkpt lat="38.2614680" lon="-0.5823220">
        <ele>53.2</ele>
        <time>2022-08-30T10:56:00Z</time>
      </trkpt>
      <trkpt lat="38.2617700" lon="-0.5823690">
        <ele>53.6</ele>
        <time>2022-08-30T10:56:04Z</time>
      </trkpt>
      <trkpt lat="38.2620250" lon="-0.5824060">
        <ele>53.6</ele>
        <time>2022-08-30T10:56:07Z</time>
      </trkpt>
      <trkpt lat="38.2625770" lon="-0.5825090">
        <ele>54.2</ele>
        <time>2022-08-30T10:56:14Z</time>
      </trkpt>
      <trkpt lat="38.2626540" lon="-0.5825180">
        <ele>54.2</ele>
        <time>2022-08-30T10:56:15Z</time>
      </trkpt>
      <trkpt lat="38.2629550" lon="-0.5825520">
        <ele>54.6</ele>
        <time>2022-08-30T10:56:19Z</time>
      </trkpt>
      <trkpt lat="38.2632040" lon="-0.5825830">
        <ele>54.6</ele>
        <time>2022-08-30T10:56:22Z</time>
      </trkpt>
      <trkpt lat="38.2634470" lon="-0.5826300">
        <ele>55.0</ele>
        <time>2022-08-30T10:56:25Z</time>
      </trkpt>
      <trkpt lat="38.2636760" lon="-0.5826480">
        <ele>55.0</ele>
        <time>2022-08-30T10:56:28Z</time>
      </trkpt>
      <trkpt lat="38.2638980" lon="-0.5826140">
        <ele>55.0</ele>
        <time>2022-08-30T10:56:31Z</time>
      </trkpt>
      <trkpt lat="38.2643510" lon="-0.5824860">
        <ele>55.6</ele>
        <time>2022-08-30T10:56:37Z</time>
      </trkpt>
      <trkpt lat="38.2644290" lon="-0.5824610">
        <ele>55.8</ele>
        <time>2022-08-30T10:56:38Z</time>
      </trkpt>
      <trkpt lat="38.2649620" lon="-0.5823000">
        <ele>56.2</ele>
        <time>2022-08-30T10:56:45Z</time>
      </trkpt>
      <trkpt lat="38.2654820" lon="-0.5821410">
        <ele>56.8</ele>
        <time>2022-08-30T10:56:52Z</time>
      </trkpt>
      <trkpt lat="38.2655560" lon="-0.5821170">
        <ele>56.8</ele>
        <time>2022-08-30T10:56:53Z</time>
      </trkpt>
      <trkpt lat="38.2657750" lon="-0.5820480">
        <ele>57.0</ele>
        <time>2022-08-30T10:56:56Z</time>
      </trkpt>
      <trkpt lat="38.2661980" lon="-0.5819110">
        <ele>57.0</ele>
        <time>2022-08-30T10:57:02Z</time>
      </trkpt>
      <trkpt lat="38.2667790" lon="-0.5817330">
        <ele>57.4</ele>
        <time>2022-08-30T10:57:10Z</time>
      </trkpt>
      <trkpt lat="38.2673620" lon="-0.5815530">
        <ele>57.6</ele>
        <time>2022-08-30T10:57:18Z</time>
      </trkpt>
      <trkpt lat="38.2675080" lon="-0.5815050">
        <ele>57.6</ele>
        <time>2022-08-30T10:57:20Z</time>
      </trkpt>
      <trkpt lat="38.2679890" lon="-0.5813760">
        <ele>58.0</ele>
        <time>2022-08-30T10:57:27Z</time>
      </trkpt>
      <trkpt lat="38.2680640" lon="-0.5813530">
        <ele>58.4</ele>
        <time>2022-08-30T10:57:28Z</time>
      </trkpt>
      <trkpt lat="38.2684030" lon="-0.5812690">
        <ele>59.2</ele>
        <time>2022-08-30T10:57:33Z</time>
      </trkpt>
      <trkpt lat="38.2684680" lon="-0.5812710">
        <ele>59.2</ele>
        <time>2022-08-30T10:57:34Z</time>
      </trkpt>
      <trkpt lat="38.2685370" lon="-0.5812820">
        <ele>59.2</ele>
        <time>2022-08-30T10:57:35Z</time>
      </trkpt>
      <trkpt lat="38.2687420" lon="-0.5813670">
        <ele>59.4</ele>
        <time>2022-08-30T10:57:38Z</time>
      </trkpt>
      <trkpt lat="38.2689400" lon="-0.5814580">
        <ele>59.4</ele>
        <time>2022-08-30T10:57:41Z</time>
      </trkpt>
      <trkpt lat="38.2692280" lon="-0.5815590">
        <ele>59.6</ele>
        <time>2022-08-30T10:57:45Z</time>
      </trkpt>
      <trkpt lat="38.2698030" lon="-0.5817690">
        <ele>59.6</ele>
        <time>2022-08-30T10:57:53Z</time>
      </trkpt>
      <trkpt lat="38.2701500" lon="-0.5818780">
        <ele>59.8</ele>
        <time>2022-08-30T10:57:58Z</time>
      </trkpt>
      <trkpt lat="38.2705130" lon="-0.5820070">
        <ele>60.2</ele>
        <time>2022-08-30T10:58:03Z</time>
      </trkpt>
      <trkpt lat="38.2707270" lon="-0.5820660">
        <ele>60.4</ele>
        <time>2022-08-30T10:58:06Z</time>
      </trkpt>
      <trkpt lat="38.2710140" lon="-0.5820960">
        <ele>60.8</ele>
        <time>2022-08-30T10:58:10Z</time>
      </trkpt>
      <trkpt lat="38.2729310" lon="-0.5821540">
        <ele>59.0</ele>
        <time>2022-08-30T11:04:41Z</time>
      </trkpt>
      <trkpt lat="38.2729310" lon="-0.5821540">
        <ele>61.2</ele>
        <time>2022-08-30T11:04:42Z</time>
      </trkpt>
      <trkpt lat="38.2729310" lon="-0.5821540">
        <ele>62.6</ele>
        <time>2022-08-30T11:04:44Z</time>
      </trkpt>
      <trkpt lat="38.2729730" lon="-0.5825830">
        <ele>62.8</ele>
        <time>2022-08-30T11:04:47Z</time>
      </trkpt>
      <trkpt lat="38.2735440" lon="-0.5825720">
        <ele>63.0</ele>
        <time>2022-08-30T11:04:50Z</time>
      </trkpt>
      <trkpt lat="38.2736640" lon="-0.5826730">
        <ele>63.4</ele>
        <time>2022-08-30T11:04:52Z</time>
      </trkpt>
      <trkpt lat="38.2738990" lon="-0.5828960">
        <ele>63.2</ele>
        <time>2022-08-30T11:04:56Z</time>
      </trkpt>
      <trkpt lat="38.2741960" lon="-0.5831750">
        <ele>63.6</ele>
        <time>2022-08-30T11:05:01Z</time>
      </trkpt>
      <trkpt lat="38.2744740" lon="-0.5834480">
        <ele>64.8</ele>
        <time>2022-08-30T11:05:06Z</time>
      </trkpt>
      <trkpt lat="38.2746870" lon="-0.5836500">
        <ele>65.2</ele>
        <time>2022-08-30T11:05:10Z</time>
      </trkpt>
      <trkpt lat="38.2748930" lon="-0.5838290">
        <ele>65.8</ele>
        <time>2022-08-30T11:05:14Z</time>
      </trkpt>
      <trkpt lat="38.2751130" lon="-0.5839820">
        <ele>67.0</ele>
        <time>2022-08-30T11:05:18Z</time>
      </trkpt>
      <trkpt lat="38.2752770" lon="-0.5840960">
        <ele>67.0</ele>
        <time>2022-08-30T11:05:21Z</time>
      </trkpt>
      <trkpt lat="38.2755340" lon="-0.5842590">
        <ele>67.2</ele>
        <time>2022-08-30T11:05:25Z</time>
      </trkpt>
      <trkpt lat="38.2757660" lon="-0.5844010">
        <ele>67.6</ele>
        <time>2022-08-30T11:05:29Z</time>
      </trkpt>
      <trkpt lat="38.2760080" lon="-0.5845540">
        <ele>67.8</ele>
        <time>2022-08-30T11:05:33Z</time>
      </trkpt>
      <trkpt lat="38.2762510" lon="-0.5847150">
        <ele>67.8</ele>
        <time>2022-08-30T11:05:37Z</time>
      </trkpt>
      <trkpt lat="38.2764430" lon="-0.5848470">
        <ele>67.6</ele>
        <time>2022-08-30T11:05:40Z</time>
      </trkpt>
      <trkpt lat="38.2768990" lon="-0.5851360">
        <ele>67.2</ele>
        <time>2022-08-30T11:05:47Z</time>
      </trkpt>
      <trkpt lat="38.2771620" lon="-0.5852970">
        <ele>67.0</ele>
        <time>2022-08-30T11:05:51Z</time>
      </trkpt>
      <trkpt lat="38.2774910" lon="-0.5855100">
        <ele>67.0</ele>
        <time>2022-08-30T11:05:56Z</time>
      </trkpt>
      <trkpt lat="38.2780270" lon="-0.5858330">
        <ele>67.6</ele>
        <time>2022-08-30T11:06:04Z</time>
      </trkpt>
      <trkpt lat="38.2780940" lon="-0.5858710">
        <ele>67.6</ele>
        <time>2022-08-30T11:06:05Z</time>
      </trkpt>
      <trkpt lat="38.2784200" lon="-0.5860540">
        <ele>68.0</ele>
        <time>2022-08-30T11:06:10Z</time>
      </trkpt>
      <trkpt lat="38.2786190" lon="-0.5861450">
        <ele>68.2</ele>
        <time>2022-08-30T11:06:13Z</time>
      </trkpt>
      <trkpt lat="38.2786890" lon="-0.5861610">
        <ele>68.2</ele>
        <time>2022-08-30T11:06:14Z</time>
      </trkpt>
      <trkpt lat="38.2787620" lon="-0.5861690">
        <ele>68.2</ele>
        <time>2022-08-30T11:06:15Z</time>
      </trkpt>
      <trkpt lat="38.2790450" lon="-0.5861510">
        <ele>68.6</ele>
        <time>2022-08-30T11:06:19Z</time>
      </trkpt>
      <trkpt lat="38.2793910" lon="-0.5860370">
        <ele>68.8</ele>
        <time>2022-08-30T11:06:24Z</time>
      </trkpt>
      <trkpt lat="38.2794530" lon="-0.5859940">
        <ele>68.8</ele>
        <time>2022-08-30T11:06:25Z</time>
      </trkpt>
      <trkpt lat="38.2796940" lon="-0.5858080">
        <ele>69.0</ele>
        <time>2022-08-30T11:06:29Z</time>
      </trkpt>
      <trkpt lat="38.2797540" lon="-0.5857640">
        <ele>69.0</ele>
        <time>2022-08-30T11:06:30Z</time>
      </trkpt>
      <trkpt lat="38.2800260" lon="-0.5856130">
        <ele>69.6</ele>
        <time>2022-08-30T11:06:34Z</time>
      </trkpt>
      <trkpt lat="38.2802320" lon="-0.5855200">
        <ele>70.2</ele>
        <time>2022-08-30T11:06:37Z</time>
      </trkpt>
      <trkpt lat="38.2803010" lon="-0.5854950">
        <ele>70.4</ele>
        <time>2022-08-30T11:06:38Z</time>
      </trkpt>
      <trkpt lat="38.2805890" lon="-0.5854050">
        <ele>71.0</ele>
        <time>2022-08-30T11:06:42Z</time>
      </trkpt>
      <trkpt lat="38.2810620" lon="-0.5852450">
        <ele>71.0</ele>
        <time>2022-08-30T11:06:49Z</time>
      </trkpt>
      <trkpt lat="38.2812590" lon="-0.5851800">
        <ele>71.2</ele>
        <time>2022-08-30T11:06:52Z</time>
      </trkpt>
      <trkpt lat="38.2813910" lon="-0.5851440">
        <ele>71.0</ele>
        <time>2022-08-30T11:06:54Z</time>
      </trkpt>
      <trkpt lat="38.2815940" lon="-0.5850930">
        <ele>71.0</ele>
        <time>2022-08-30T11:06:57Z</time>
      </trkpt>
      <trkpt lat="38.2818920" lon="-0.5849560">
        <ele>71.4</ele>
        <time>2022-08-30T11:07:02Z</time>
      </trkpt>
      <trkpt lat="38.2820970" lon="-0.5847400">
        <ele>71.6</ele>
        <time>2022-08-30T11:07:06Z</time>
      </trkpt>
      <trkpt lat="38.2822380" lon="-0.5845530">
        <ele>72.0</ele>
        <time>2022-08-30T11:07:09Z</time>
      </trkpt>
      <trkpt lat="38.2824330" lon="-0.5843080">
        <ele>72.2</ele>
        <time>2022-08-30T11:07:13Z</time>
      </trkpt>
      <trkpt lat="38.2827170" lon="-0.5839200">
        <ele>72.2</ele>
        <time>2022-08-30T11:07:19Z</time>
      </trkpt>
      <trkpt lat="38.2830490" lon="-0.5835080">
        <ele>72.0</ele>
        <time>2022-08-30T11:07:26Z</time>
      </trkpt>
      <trkpt lat="38.2831010" lon="-0.5834530">
        <ele>72.0</ele>
        <time>2022-08-30T11:07:27Z</time>
      </trkpt>
      <trkpt lat="38.2834130" lon="-0.5831400">
        <ele>72.0</ele>
        <time>2022-08-30T11:07:33Z</time>
      </trkpt>
      <trkpt lat="38.2834640" lon="-0.5830920">
        <ele>72.0</ele>
        <time>2022-08-30T11:07:34Z</time>
      </trkpt>
      <trkpt lat="38.2836080" lon="-0.5829530">
        <ele>72.2</ele>
        <time>2022-08-30T11:07:37Z</time>
      </trkpt>
      <trkpt lat="38.2836510" lon="-0.5829150">
        <ele>72.2</ele>
        <time>2022-08-30T11:07:38Z</time>
      </trkpt>
      <trkpt lat="38.2837360" lon="-0.5828420">
        <ele>72.0</ele>
        <time>2022-08-30T11:07:40Z</time>
      </trkpt>
      <trkpt lat="38.2838280" lon="-0.5827470">
        <ele>72.0</ele>
        <time>2022-08-30T11:07:43Z</time>
      </trkpt>
      <trkpt lat="38.2838460" lon="-0.5827210">
        <ele>72.0</ele>
        <time>2022-08-30T11:07:44Z</time>
      </trkpt>
      <trkpt lat="38.2839140" lon="-0.5825810">
        <ele>71.8</ele>
        <time>2022-08-30T11:07:49Z</time>
      </trkpt>
      <trkpt lat="38.2839430" lon="-0.5824720">
        <ele>71.8</ele>
        <time>2022-08-30T11:07:51Z</time>
      </trkpt>
      <trkpt lat="38.2839430" lon="-0.5824040">
        <ele>71.8</ele>
        <time>2022-08-30T11:07:52Z</time>
      </trkpt>
      <trkpt lat="38.2839240" lon="-0.5822490">
        <ele>71.6</ele>
        <time>2022-08-30T11:07:54Z</time>
      </trkpt>
      <trkpt lat="38.2839060" lon="-0.5820770">
        <ele>71.6</ele>
        <time>2022-08-30T11:07:56Z</time>
      </trkpt>
      <trkpt lat="38.2838970" lon="-0.5819890">
        <ele>71.4</ele>
        <time>2022-08-30T11:07:57Z</time>
      </trkpt>
      <trkpt lat="38.2838600" lon="-0.5817150">
        <ele>71.0</ele>
        <time>2022-08-30T11:08:00Z</time>
      </trkpt>
      <trkpt lat="38.2838340" lon="-0.5814380">
        <ele>70.6</ele>
        <time>2022-08-30T11:08:03Z</time>
      </trkpt>
      <trkpt lat="38.2837360" lon="-0.5806690">
        <ele>70.0</ele>
        <time>2022-08-30T11:08:11Z</time>
      </trkpt>
      <trkpt lat="38.2837270" lon="-0.5805740">
        <ele>70.0</ele>
        <time>2022-08-30T11:08:12Z</time>
      </trkpt>
      <trkpt lat="38.2836530" lon="-0.5799980">
        <ele>69.8</ele>
        <time>2022-08-30T11:08:18Z</time>
      </trkpt>
      <trkpt lat="38.2836270" lon="-0.5798070">
        <ele>69.6</ele>
        <time>2022-08-30T11:08:20Z</time>
      </trkpt>
      <trkpt lat="38.2835490" lon="-0.5792350">
        <ele>69.0</ele>
        <time>2022-08-30T11:08:26Z</time>
      </trkpt>
      <trkpt lat="38.2835340" lon="-0.5791410">
        <ele>68.8</ele>
        <time>2022-08-30T11:08:27Z</time>
      </trkpt>
      <trkpt lat="38.2834480" lon="-0.5785810">
        <ele>68.4</ele>
        <time>2022-08-30T11:08:33Z</time>
      </trkpt>
      <trkpt lat="38.2833270" lon="-0.5781290">
        <ele>68.2</ele>
        <time>2022-08-30T11:08:38Z</time>
      </trkpt>
      <trkpt lat="38.2832270" lon="-0.5778800">
        <ele>67.8</ele>
        <time>2022-08-30T11:08:41Z</time>
      </trkpt>
      <trkpt lat="38.2828850" lon="-0.5772510">
        <ele>67.2</ele>
        <time>2022-08-30T11:08:49Z</time>
      </trkpt>
      <trkpt lat="38.2827980" lon="-0.5770940">
        <ele>66.8</ele>
        <time>2022-08-30T11:08:51Z</time>
      </trkpt>
      <trkpt lat="38.2825770" lon="-0.5767030">
        <ele>65.4</ele>
        <time>2022-08-30T11:08:56Z</time>
      </trkpt>
      <trkpt lat="38.2823470" lon="-0.5761830">
        <ele>65.0</ele>
        <time>2022-08-30T11:09:02Z</time>
      </trkpt>
      <trkpt lat="38.2822960" lon="-0.5760310">
        <ele>65.0</ele>
        <time>2022-08-30T11:09:04Z</time>
      </trkpt>
      <trkpt lat="38.2822350" lon="-0.5757590">
        <ele>64.4</ele>
        <time>2022-08-30T11:09:07Z</time>
      </trkpt>
      <trkpt lat="38.2821310" lon="-0.5750870">
        <ele>63.6</ele>
        <time>2022-08-30T11:09:14Z</time>
      </trkpt>
      <trkpt lat="38.2821040" lon="-0.5748940">
        <ele>63.2</ele>
        <time>2022-08-30T11:09:16Z</time>
      </trkpt>
      <trkpt lat="38.2820400" lon="-0.5744200">
        <ele>62.8</ele>
        <time>2022-08-30T11:09:21Z</time>
      </trkpt>
      <trkpt lat="38.2819890" lon="-0.5740440">
        <ele>62.6</ele>
        <time>2022-08-30T11:09:25Z</time>
      </trkpt>
      <trkpt lat="38.2818870" lon="-0.5732950">
        <ele>62.2</ele>
        <time>2022-08-30T11:09:33Z</time>
      </trkpt>
      <trkpt lat="38.2818100" lon="-0.5727140">
        <ele>62.0</ele>
        <time>2022-08-30T11:09:39Z</time>
      </trkpt>
      <trkpt lat="38.2817760" lon="-0.5722380">
        <ele>61.8</ele>
        <time>2022-08-30T11:09:44Z</time>
      </trkpt>
      <trkpt lat="38.2817810" lon="-0.5720420">
        <ele>61.4</ele>
        <time>2022-08-30T11:09:46Z</time>
      </trkpt>
      <trkpt lat="38.2818010" lon="-0.5717590">
        <ele>61.2</ele>
        <time>2022-08-30T11:09:49Z</time>
      </trkpt>
      <trkpt lat="38.2818500" lon="-0.5714750">
        <ele>60.8</ele>
        <time>2022-08-30T11:09:52Z</time>
      </trkpt>
      <trkpt lat="38.2819820" lon="-0.5709210">
        <ele>60.0</ele>
        <time>2022-08-30T11:09:58Z</time>
      </trkpt>
      <trkpt lat="38.2820210" lon="-0.5707420">
        <ele>60.0</ele>
        <time>2022-08-30T11:10:00Z</time>
      </trkpt>
      <trkpt lat="38.2821400" lon="-0.5701190">
        <ele>59.2</ele>
        <time>2022-08-30T11:10:07Z</time>
      </trkpt>
      <trkpt lat="38.2821640" lon="-0.5697520">
        <ele>59.0</ele>
        <time>2022-08-30T11:10:11Z</time>
      </trkpt>
      <trkpt lat="38.2821630" lon="-0.5695640">
        <ele>58.8</ele>
        <time>2022-08-30T11:10:13Z</time>
      </trkpt>
      <trkpt lat="38.2821110" lon="-0.5689920">
        <ele>58.0</ele>
        <time>2022-08-30T11:10:19Z</time>
      </trkpt>
      <trkpt lat="38.2820160" lon="-0.5683060">
        <ele>57.0</ele>
        <time>2022-08-30T11:10:26Z</time>
      </trkpt>
      <trkpt lat="38.2820000" lon="-0.5682080">
        <ele>57.0</ele>
        <time>2022-08-30T11:10:27Z</time>
      </trkpt>
      <trkpt lat="38.2819220" lon="-0.5676210">
        <ele>55.8</ele>
        <time>2022-08-30T11:10:33Z</time>
      </trkpt>
      <trkpt lat="38.2819100" lon="-0.5675250">
        <ele>55.8</ele>
        <time>2022-08-30T11:10:34Z</time>
      </trkpt>
      <trkpt lat="38.2818350" lon="-0.5669520">
        <ele>54.8</ele>
        <time>2022-08-30T11:10:40Z</time>
      </trkpt>
      <trkpt lat="38.2817980" lon="-0.5666710">
        <ele>54.8</ele>
        <time>2022-08-30T11:10:43Z</time>
      </trkpt>
      <trkpt lat="38.2817100" lon="-0.5660150">
        <ele>54.2</ele>
        <time>2022-08-30T11:10:50Z</time>
      </trkpt>
      <trkpt lat="38.2816450" lon="-0.5655630">
        <ele>53.8</ele>
        <time>2022-08-30T11:10:55Z</time>
      </trkpt>
      <trkpt lat="38.2816060" lon="-0.5653010">
        <ele>53.6</ele>
        <time>2022-08-30T11:10:58Z</time>
      </trkpt>
      <trkpt lat="38.2815920" lon="-0.5652180">
        <ele>53.6</ele>
        <time>2022-08-30T11:10:59Z</time>
      </trkpt>
      <trkpt lat="38.2814570" lon="-0.5647010">
        <ele>53.4</ele>
        <time>2022-08-30T11:11:05Z</time>
      </trkpt>
      <trkpt lat="38.2812510" lon="-0.5642250">
        <ele>52.8</ele>
        <time>2022-08-30T11:11:11Z</time>
      </trkpt>
      <trkpt lat="38.2810720" lon="-0.5639420">
        <ele>52.6</ele>
        <time>2022-08-30T11:11:15Z</time>
      </trkpt>
      <trkpt lat="38.2808820" lon="-0.5636660">
        <ele>52.6</ele>
        <time>2022-08-30T11:11:19Z</time>
      </trkpt>
      <trkpt lat="38.2805130" lon="-0.5632250">
        <ele>52.4</ele>
        <time>2022-08-30T11:11:26Z</time>
      </trkpt>
      <trkpt lat="38.2804580" lon="-0.5631710">
        <ele>52.4</ele>
        <time>2022-08-30T11:11:27Z</time>
      </trkpt>
      <trkpt lat="38.2802870" lon="-0.5629960">
        <ele>51.6</ele>
        <time>2022-08-30T11:11:30Z</time>
      </trkpt>
      <trkpt lat="38.2800600" lon="-0.5627660">
        <ele>51.4</ele>
        <time>2022-08-30T11:11:34Z</time>
      </trkpt>
      <trkpt lat="38.2799590" lon="-0.5626650">
        <ele>51.0</ele>
        <time>2022-08-30T11:11:36Z</time>
      </trkpt>
      <trkpt lat="38.2796690" lon="-0.5623440">
        <ele>50.4</ele>
        <time>2022-08-30T11:11:42Z</time>
      </trkpt>
      <trkpt lat="38.2794670" lon="-0.5620990">
        <ele>49.8</ele>
        <time>2022-08-30T11:11:46Z</time>
      </trkpt>
      <trkpt lat="38.2794110" lon="-0.5620410">
        <ele>49.6</ele>
        <time>2022-08-30T11:11:47Z</time>
      </trkpt>
      <trkpt lat="38.2792880" lon="-0.5619420">
        <ele>49.2</ele>
        <time>2022-08-30T11:11:49Z</time>
      </trkpt>
      <trkpt lat="38.2791580" lon="-0.5618430">
        <ele>48.8</ele>
        <time>2022-08-30T11:11:51Z</time>
      </trkpt>
      <trkpt lat="38.2790980" lon="-0.5617790">
        <ele>48.6</ele>
        <time>2022-08-30T11:11:52Z</time>
      </trkpt>
      <trkpt lat="38.2790440" lon="-0.5617090">
        <ele>48.4</ele>
        <time>2022-08-30T11:11:53Z</time>
      </trkpt>
      <trkpt lat="38.2789470" lon="-0.5615560">
        <ele>48.2</ele>
        <time>2022-08-30T11:11:55Z</time>
      </trkpt>
      <trkpt lat="38.2788410" lon="-0.5614120">
        <ele>48.0</ele>
        <time>2022-08-30T11:11:57Z</time>
      </trkpt>
      <trkpt lat="38.2784890" lon="-0.5610570">
        <ele>47.6</ele>
        <time>2022-08-30T11:12:03Z</time>
      </trkpt>
      <trkpt lat="38.2782960" lon="-0.5609110">
        <ele>47.2</ele>
        <time>2022-08-30T11:12:06Z</time>
      </trkpt>
      <trkpt lat="38.2778200" lon="-0.5605790">
        <ele>46.4</ele>
        <time>2022-08-30T11:12:13Z</time>
      </trkpt>
      <trkpt lat="38.2776820" lon="-0.5604820">
        <ele>46.2</ele>
        <time>2022-08-30T11:12:15Z</time>
      </trkpt>
      <trkpt lat="38.2771870" lon="-0.5601690">
        <ele>45.6</ele>
        <time>2022-08-30T11:12:22Z</time>
      </trkpt>
      <trkpt lat="38.2768620" lon="-0.5598950">
        <ele>45.6</ele>
        <time>2022-08-30T11:12:27Z</time>
      </trkpt>
      <trkpt lat="38.2768010" lon="-0.5598350">
        <ele>45.6</ele>
        <time>2022-08-30T11:12:28Z</time>
      </trkpt>
      <trkpt lat="38.2765750" lon="-0.5595800">
        <ele>45.8</ele>
        <time>2022-08-30T11:12:32Z</time>
      </trkpt>
      <trkpt lat="38.2764220" lon="-0.5593560">
        <ele>45.8</ele>
        <time>2022-08-30T11:12:35Z</time>
      </trkpt>
      <trkpt lat="38.2761350" lon="-0.5587540">
        <ele>45.4</ele>
        <time>2022-08-30T11:12:42Z</time>
      </trkpt>
      <trkpt lat="38.2760960" lon="-0.5586640">
        <ele>45.2</ele>
        <time>2022-08-30T11:12:43Z</time>
      </trkpt>
      <trkpt lat="38.2759240" lon="-0.5582070">
        <ele>44.6</ele>
        <time>2022-08-30T11:12:48Z</time>
      </trkpt>
      <trkpt lat="38.2758590" lon="-0.5580260">
        <ele>44.4</ele>
        <time>2022-08-30T11:12:50Z</time>
      </trkpt>
      <trkpt lat="38.2756780" lon="-0.5575000">
        <ele>44.4</ele>
        <time>2022-08-30T11:12:56Z</time>
      </trkpt>
      <trkpt lat="38.2756150" lon="-0.5573300">
        <ele>44.4</ele>
        <time>2022-08-30T11:12:58Z</time>
      </trkpt>
      <trkpt lat="38.2755850" lon="-0.5572440">
        <ele>44.4</ele>
        <time>2022-08-30T11:12:59Z</time>
      </trkpt>
      <trkpt lat="38.2755250" lon="-0.5570650">
        <ele>44.4</ele>
        <time>2022-08-30T11:13:01Z</time>
      </trkpt>
      <trkpt lat="38.2754640" lon="-0.5568800">
        <ele>44.6</ele>
        <time>2022-08-30T11:13:03Z</time>
      </trkpt>
      <trkpt lat="38.2753600" lon="-0.5566170">
        <ele>44.8</ele>
        <time>2022-08-30T11:13:06Z</time>
      </trkpt>
      <trkpt lat="38.2751240" lon="-0.5559310">
        <ele>45.8</ele>
        <time>2022-08-30T11:13:14Z</time>
      </trkpt>
      <trkpt lat="38.2750600" lon="-0.5557690">
        <ele>46.4</ele>
        <time>2022-08-30T11:13:16Z</time>
      </trkpt>
      <trkpt lat="38.2749420" lon="-0.5554590">
        <ele>47.0</ele>
        <time>2022-08-30T11:13:20Z</time>
      </trkpt>
      <trkpt lat="38.2747460" lon="-0.5548820">
        <ele>47.0</ele>
        <time>2022-08-30T11:13:27Z</time>
      </trkpt>
      <trkpt lat="38.2745690" lon="-0.5542520">
        <ele>46.0</ele>
        <time>2022-08-30T11:13:34Z</time>
      </trkpt>
      <trkpt lat="38.2743910" lon="-0.5535920">
        <ele>45.2</ele>
        <time>2022-08-30T11:13:41Z</time>
      </trkpt>
      <trkpt lat="38.2743670" lon="-0.5534940">
        <ele>45.0</ele>
        <time>2022-08-30T11:13:42Z</time>
      </trkpt>
      <trkpt lat="38.2741840" lon="-0.5528060">
        <ele>44.2</ele>
        <time>2022-08-30T11:13:49Z</time>
      </trkpt>
      <trkpt lat="38.2741580" lon="-0.5527090">
        <ele>44.0</ele>
        <time>2022-08-30T11:13:50Z</time>
      </trkpt>
      <trkpt lat="38.2740880" lon="-0.5524190">
        <ele>43.8</ele>
        <time>2022-08-30T11:13:53Z</time>
      </trkpt>
      <trkpt lat="38.2739300" lon="-0.5518460">
        <ele>43.4</ele>
        <time>2022-08-30T11:13:59Z</time>
      </trkpt>
      <trkpt lat="38.2738530" lon="-0.5515650">
        <ele>43.0</ele>
        <time>2022-08-30T11:14:02Z</time>
      </trkpt>
      <trkpt lat="38.2737500" lon="-0.5511940">
        <ele>42.2</ele>
        <time>2022-08-30T11:14:06Z</time>
      </trkpt>
      <trkpt lat="38.2736880" lon="-0.5509250">
        <ele>42.0</ele>
        <time>2022-08-30T11:14:09Z</time>
      </trkpt>
      <trkpt lat="38.2736650" lon="-0.5508420">
        <ele>42.0</ele>
        <time>2022-08-30T11:14:10Z</time>
      </trkpt>
      <trkpt lat="38.2736210" lon="-0.5506890">
        <ele>42.0</ele>
        <time>2022-08-30T11:14:12Z</time>
      </trkpt>
      <trkpt lat="38.2734680" lon="-0.5501060">
        <ele>42.0</ele>
        <time>2022-08-30T11:14:19Z</time>
      </trkpt>
      <trkpt lat="38.2733510" lon="-0.5496080">
        <ele>41.6</ele>
        <time>2022-08-30T11:14:25Z</time>
      </trkpt>
      <trkpt lat="38.2708570" lon="-0.5402330">
        <ele>-0.2</ele>
        <time>2022-08-30T11:42:53Z</time>
      </trkpt>
      <trkpt lat="38.2707960" lon="-0.5402530">
        <ele>12.2</ele>
        <time>2022-08-30T11:42:54Z</time>
      </trkpt>
      <trkpt lat="38.2707340" lon="-0.5402750">
        <ele>14.4</ele>
        <time>2022-08-30T11:42:55Z</time>
      </trkpt>
      <trkpt lat="38.2706690" lon="-0.5402970">
        <ele>15.8</ele>
        <time>2022-08-30T11:42:56Z</time>
      </trkpt>
      <trkpt lat="38.2705400" lon="-0.5403400">
        <ele>15.4</ele>
        <time>2022-08-30T11:42:58Z</time>
      </trkpt>
      <trkpt lat="38.2703490" lon="-0.5403920">
        <ele>15.8</ele>
        <time>2022-08-30T11:43:01Z</time>
      </trkpt>
      <trkpt lat="38.2702270" lon="-0.5404300">
        <ele>16.0</ele>
        <time>2022-08-30T11:43:03Z</time>
      </trkpt>
      <trkpt lat="38.2701060" lon="-0.5404660">
        <ele>16.2</ele>
        <time>2022-08-30T11:43:05Z</time>
      </trkpt>
      <trkpt lat="38.2699800" lon="-0.5405160">
        <ele>16.4</ele>
        <time>2022-08-30T11:43:07Z</time>
      </trkpt>
      <trkpt lat="38.2699170" lon="-0.5405470">
        <ele>16.4</ele>
        <time>2022-08-30T11:43:08Z</time>
      </trkpt>
      <trkpt lat="38.2697880" lon="-0.5405950">
        <ele>16.6</ele>
        <time>2022-08-30T11:43:10Z</time>
      </trkpt>
      <trkpt lat="38.2695840" lon="-0.5406630">
        <ele>17.2</ele>
        <time>2022-08-30T11:43:13Z</time>
      </trkpt>
      <trkpt lat="38.2695120" lon="-0.5406920">
        <ele>17.4</ele>
        <time>2022-08-30T11:43:14Z</time>
      </trkpt>
      <trkpt lat="38.2692900" lon="-0.5407690">
        <ele>18.2</ele>
        <time>2022-08-30T11:43:17Z</time>
      </trkpt>
      <trkpt lat="38.2690800" lon="-0.5408370">
        <ele>19.2</ele>
        <time>2022-08-30T11:43:20Z</time>
      </trkpt>
      <trkpt lat="38.2688180" lon="-0.5409320">
        <ele>20.6</ele>
        <time>2022-08-30T11:43:24Z</time>
      </trkpt>
      <trkpt lat="38.2686190" lon="-0.5410050">
        <ele>21.2</ele>
        <time>2022-08-30T11:43:28Z</time>
      </trkpt>
      <trkpt lat="38.2684050" lon="-0.5410810">
        <ele>21.4</ele>
        <time>2022-08-30T11:43:31Z</time>
      </trkpt>
      <trkpt lat="38.2682030" lon="-0.5411450">
        <ele>21.6</ele>
        <time>2022-08-30T11:43:34Z</time>
      </trkpt>
      <trkpt lat="38.2680670" lon="-0.5411880">
        <ele>21.2</ele>
        <time>2022-08-30T11:43:36Z</time>
      </trkpt>
      <trkpt lat="38.2679370" lon="-0.5412360">
        <ele>20.8</ele>
        <time>2022-08-30T11:43:38Z</time>
      </trkpt>
      <trkpt lat="38.2677330" lon="-0.5413030">
        <ele>20.2</ele>
        <time>2022-08-30T11:43:41Z</time>
      </trkpt>
      <trkpt lat="38.2675310" lon="-0.5413610">
        <ele>20.2</ele>
        <time>2022-08-30T11:43:44Z</time>
      </trkpt>
      <trkpt lat="38.2674680" lon="-0.5413780">
        <ele>20.0</ele>
        <time>2022-08-30T11:43:45Z</time>
      </trkpt>
      <trkpt lat="38.2673550" lon="-0.5414140">
        <ele>20.0</ele>
        <time>2022-08-30T11:43:47Z</time>
      </trkpt>
      <trkpt lat="38.2673040" lon="-0.5414320">
        <ele>19.8</ele>
        <time>2022-08-30T11:43:48Z</time>
      </trkpt>
      <trkpt lat="38.2672020" lon="-0.5414650">
        <ele>19.4</ele>
        <time>2022-08-30T11:43:50Z</time>
      </trkpt>
      <trkpt lat="38.2671540" lon="-0.5414760">
        <ele>19.2</ele>
        <time>2022-08-30T11:43:51Z</time>
      </trkpt>
      <trkpt lat="38.2670540" lon="-0.5414520">
        <ele>18.8</ele>
        <time>2022-08-30T11:43:53Z</time>
      </trkpt>
      <trkpt lat="38.2670050" lon="-0.5414240">
        <ele>18.6</ele>
        <time>2022-08-30T11:43:54Z</time>
      </trkpt>
      <trkpt lat="38.2669030" lon="-0.5413640">
        <ele>18.0</ele>
        <time>2022-08-30T11:43:56Z</time>
      </trkpt>
      <trkpt lat="38.2667920" lon="-0.5412960">
        <ele>17.8</ele>
        <time>2022-08-30T11:43:58Z</time>
      </trkpt>
      <trkpt lat="38.2666700" lon="-0.5412330">
        <ele>17.6</ele>
        <time>2022-08-30T11:44:00Z</time>
      </trkpt>
      <trkpt lat="38.2664760" lon="-0.5411380">
        <ele>17.6</ele>
        <time>2022-08-30T11:44:03Z</time>
      </trkpt>
      <trkpt lat="38.2661380" lon="-0.5409900">
        <ele>17.4</ele>
        <time>2022-08-30T11:44:08Z</time>
      </trkpt>
      <trkpt lat="38.2657700" lon="-0.5407720">
        <ele>17.0</ele>
        <time>2022-08-30T11:44:13Z</time>
      </trkpt>
      <trkpt lat="38.2656980" lon="-0.5407120">
        <ele>16.8</ele>
        <time>2022-08-30T11:44:14Z</time>
      </trkpt>
      <trkpt lat="38.2655660" lon="-0.5405650">
        <ele>16.4</ele>
        <time>2022-08-30T11:44:16Z</time>
      </trkpt>
      <trkpt lat="38.2655080" lon="-0.5404860">
        <ele>15.8</ele>
        <time>2022-08-30T11:44:17Z</time>
      </trkpt>
      <trkpt lat="38.2654000" lon="-0.5403200">
        <ele>15.2</ele>
        <time>2022-08-30T11:44:19Z</time>
      </trkpt>
      <trkpt lat="38.2653110" lon="-0.5401500">
        <ele>14.6</ele>
        <time>2022-08-30T11:44:21Z</time>
      </trkpt>
      <trkpt lat="38.2652760" lon="-0.5400620">
        <ele>14.4</ele>
        <time>2022-08-30T11:44:22Z</time>
      </trkpt>
      <trkpt lat="38.2651000" lon="-0.5395020">
        <ele>14.0</ele>
        <time>2022-08-30T11:44:28Z</time>
      </trkpt>
      <trkpt lat="38.2648820" lon="-0.5388390">
        <ele>13.0</ele>
        <time>2022-08-30T11:44:35Z</time>
      </trkpt>
      <trkpt lat="38.2648470" lon="-0.5387490">
        <ele>12.8</ele>
        <time>2022-08-30T11:44:36Z</time>
      </trkpt>
      <trkpt lat="38.2648060" lon="-0.5386630">
        <ele>12.6</ele>
        <time>2022-08-30T11:44:37Z</time>
      </trkpt>
      <trkpt lat="38.2647560" lon="-0.5385850">
        <ele>12.4</ele>
        <time>2022-08-30T11:44:38Z</time>
      </trkpt>
      <trkpt lat="38.2645860" lon="-0.5383820">
        <ele>12.2</ele>
        <time>2022-08-30T11:44:41Z</time>
      </trkpt>
      <trkpt lat="38.2643980" lon="-0.5382200">
        <ele>11.8</ele>
        <time>2022-08-30T11:44:44Z</time>
      </trkpt>
      <trkpt lat="38.2642070" lon="-0.5380650">
        <ele>11.6</ele>
        <time>2022-08-30T11:44:47Z</time>
      </trkpt>
      <trkpt lat="38.2641430" lon="-0.5380140">
        <ele>11.6</ele>
        <time>2022-08-30T11:44:48Z</time>
      </trkpt>
      <trkpt lat="38.2636860" lon="-0.5376490">
        <ele>11.6</ele>
        <time>2022-08-30T11:44:55Z</time>
      </trkpt>
      <trkpt lat="38.2635540" lon="-0.5375430">
        <ele>11.6</ele>
        <time>2022-08-30T11:44:57Z</time>
      </trkpt>
      <trkpt lat="38.2634870" lon="-0.5374880">
        <ele>11.6</ele>
        <time>2022-08-30T11:44:58Z</time>
      </trkpt>
      <trkpt lat="38.2630130" lon="-0.5371050">
        <ele>11.2</ele>
        <time>2022-08-30T11:45:05Z</time>
      </trkpt>
      <trkpt lat="38.2628130" lon="-0.5369350">
        <ele>11.4</ele>
        <time>2022-08-30T11:45:08Z</time>
      </trkpt>
      <trkpt lat="38.2624760" lon="-0.5366690">
        <ele>11.4</ele>
        <time>2022-08-30T11:45:13Z</time>
      </trkpt>
      <trkpt lat="38.2623440" lon="-0.5365570">
        <ele>11.4</ele>
        <time>2022-08-30T11:45:15Z</time>
      </trkpt>
      <trkpt lat="38.2618310" lon="-0.5361310">
        <ele>11.4</ele>
        <time>2022-08-30T11:45:23Z</time>
      </trkpt>
      <trkpt lat="38.2617140" lon="-0.5360220">
        <ele>11.4</ele>
        <time>2022-08-30T11:45:25Z</time>
      </trkpt>
      <trkpt lat="38.2615520" lon="-0.5358530">
        <ele>11.6</ele>
        <time>2022-08-30T11:45:28Z</time>
      </trkpt>
      <trkpt lat="38.2615120" lon="-0.5357850">
        <ele>11.6</ele>
        <time>2022-08-30T11:45:29Z</time>
      </trkpt>
      <trkpt lat="38.2614230" lon="-0.5355490">
        <ele>12.2</ele>
        <time>2022-08-30T11:45:32Z</time>
      </trkpt>
      <trkpt lat="38.2613790" lon="-0.5353740">
        <ele>12.6</ele>
        <time>2022-08-30T11:45:34Z</time>
      </trkpt>
      <trkpt lat="38.2613500" lon="-0.5351950">
        <ele>13.0</ele>
        <time>2022-08-30T11:45:36Z</time>
      </trkpt>
      <trkpt lat="38.2613030" lon="-0.5348300">
        <ele>13.2</ele>
        <time>2022-08-30T11:45:40Z</time>
      </trkpt>
      <trkpt lat="38.2612930" lon="-0.5347410">
        <ele>13.2</ele>
        <time>2022-08-30T11:45:41Z</time>
      </trkpt>
      <trkpt lat="38.2612260" lon="-0.5342420">
        <ele>13.8</ele>
        <time>2022-08-30T11:45:47Z</time>
      </trkpt>
      <trkpt lat="38.2612150" lon="-0.5341600">
        <ele>14.2</ele>
        <time>2022-08-30T11:45:48Z</time>
      </trkpt>
      <trkpt lat="38.2611760" lon="-0.5338180">
        <ele>14.8</ele>
        <time>2022-08-30T11:45:52Z</time>
      </trkpt>
      <trkpt lat="38.2611730" lon="-0.5336430">
        <ele>15.0</ele>
        <time>2022-08-30T11:45:54Z</time>
      </trkpt>
      <trkpt lat="38.2611770" lon="-0.5335560">
        <ele>15.2</ele>
        <time>2022-08-30T11:45:55Z</time>
      </trkpt>
      <trkpt lat="38.2611830" lon="-0.5334690">
        <ele>15.2</ele>
        <time>2022-08-30T11:45:56Z</time>
      </trkpt>
      <trkpt lat="38.2612170" lon="-0.5332130">
        <ele>15.6</ele>
        <time>2022-08-30T11:45:59Z</time>
      </trkpt>
      <trkpt lat="38.2612650" lon="-0.5329620">
        <ele>16.0</ele>
        <time>2022-08-30T11:46:02Z</time>
      </trkpt>
      <trkpt lat="38.2613520" lon="-0.5325150">
        <ele>16.2</ele>
        <time>2022-08-30T11:46:07Z</time>
      </trkpt>
      <trkpt lat="38.2613820" lon="-0.5323250">
        <ele>16.0</ele>
        <time>2022-08-30T11:46:09Z</time>
      </trkpt>
      <trkpt lat="38.2614530" lon="-0.5317400">
        <ele>15.2</ele>
        <time>2022-08-30T11:46:15Z</time>
      </trkpt>
      <trkpt lat="38.2614610" lon="-0.5316340">
        <ele>15.2</ele>
        <time>2022-08-30T11:46:16Z</time>
      </trkpt>
      <trkpt lat="38.2614780" lon="-0.5313180">
        <ele>14.2</ele>
        <time>2022-08-30T11:46:19Z</time>
      </trkpt>
      <trkpt lat="38.2615110" lon="-0.5308910">
        <ele>13.4</ele>
        <time>2022-08-30T11:46:23Z</time>
      </trkpt>
      <trkpt lat="38.2615180" lon="-0.5307850">
        <ele>13.0</ele>
        <time>2022-08-30T11:46:24Z</time>
      </trkpt>
      <trkpt lat="38.2615760" lon="-0.5300450">
        <ele>12.4</ele>
        <time>2022-08-30T11:46:31Z</time>
      </trkpt>
      <trkpt lat="38.2615900" lon="-0.5298390">
        <ele>12.4</ele>
        <time>2022-08-30T11:46:33Z</time>
      </trkpt>
      <trkpt lat="38.2615970" lon="-0.5297330">
        <ele>12.4</ele>
        <time>2022-08-30T11:46:34Z</time>
      </trkpt>
      <trkpt lat="38.2616400" lon="-0.5290280">
        <ele>12.2</ele>
        <time>2022-08-30T11:46:41Z</time>
      </trkpt>
      <trkpt lat="38.2616500" lon="-0.5288230">
        <ele>12.0</ele>
        <time>2022-08-30T11:46:43Z</time>
      </trkpt>
      <trkpt lat="38.2616430" lon="-0.5282990">
        <ele>11.8</ele>
        <time>2022-08-30T11:46:48Z</time>
      </trkpt>
      <trkpt lat="38.2615520" lon="-0.5275980">
        <ele>11.2</ele>
        <time>2022-08-30T11:46:55Z</time>
      </trkpt>
      <trkpt lat="38.2614470" lon="-0.5268430">
        <ele>11.2</ele>
        <time>2022-08-30T11:47:03Z</time>
      </trkpt>
      <trkpt lat="38.2613530" lon="-0.5261440">
        <ele>11.2</ele>
        <time>2022-08-30T11:47:11Z</time>
      </trkpt>
      <trkpt lat="38.2612240" lon="-0.5253900">
        <ele>12.0</ele>
        <time>2022-08-30T11:47:20Z</time>
      </trkpt>
      <trkpt lat="38.2611490" lon="-0.5251640">
        <ele>12.0</ele>
        <time>2022-08-30T11:47:23Z</time>
      </trkpt>
      <trkpt lat="38.2610740" lon="-0.5250400">
        <ele>12.0</ele>
        <time>2022-08-30T11:47:25Z</time>
      </trkpt>
      <trkpt lat="38.2610340" lon="-0.5249840">
        <ele>12.2</ele>
        <time>2022-08-30T11:47:26Z</time>
      </trkpt>
      <trkpt lat="38.2609900" lon="-0.5249330">
        <ele>12.4</ele>
        <time>2022-08-30T11:47:27Z</time>
      </trkpt>
      <trkpt lat="38.2608940" lon="-0.5248440">
        <ele>13.0</ele>
        <time>2022-08-30T11:47:29Z</time>
      </trkpt>
      <trkpt lat="38.2608410" lon="-0.5248070">
        <ele>13.0</ele>
        <time>2022-08-30T11:47:30Z</time>
      </trkpt>
      <trkpt lat="38.2607290" lon="-0.5247530">
        <ele>13.2</ele>
        <time>2022-08-30T11:47:32Z</time>
      </trkpt>
      <trkpt lat="38.2606700" lon="-0.5247340">
        <ele>13.2</ele>
        <time>2022-08-30T11:47:33Z</time>
      </trkpt>
      <trkpt lat="38.2605470" lon="-0.5247100">
        <ele>13.6</ele>
        <time>2022-08-30T11:47:35Z</time>
      </trkpt>
      <trkpt lat="38.2602980" lon="-0.5246800">
        <ele>14.4</ele>
        <time>2022-08-30T11:47:39Z</time>
      </trkpt>
      <trkpt lat="38.2600460" lon="-0.5246870">
        <ele>15.2</ele>
        <time>2022-08-30T11:47:43Z</time>
      </trkpt>
      <trkpt lat="38.2599150" lon="-0.5246850">
        <ele>15.4</ele>
        <time>2022-08-30T11:47:45Z</time>
      </trkpt>
      <trkpt lat="38.2594810" lon="-0.5246530">
        <ele>16.0</ele>
        <time>2022-08-30T11:47:52Z</time>
      </trkpt>
      <trkpt lat="38.2589940" lon="-0.5246090">
        <ele>16.6</ele>
        <time>2022-08-30T11:48:00Z</time>
      </trkpt>
      <trkpt lat="38.2588790" lon="-0.5245990">
        <ele>16.8</ele>
        <time>2022-08-30T11:48:02Z</time>
      </trkpt>
      <trkpt lat="38.2587670" lon="-0.5245970">
        <ele>17.0</ele>
        <time>2022-08-30T11:48:04Z</time>
      </trkpt>
      <trkpt lat="38.2586600" lon="-0.5245890">
        <ele>17.4</ele>
        <time>2022-08-30T11:48:06Z</time>
      </trkpt>
      <trkpt lat="38.2586060" lon="-0.5245890">
        <ele>17.6</ele>
        <time>2022-08-30T11:48:07Z</time>
      </trkpt>
      <trkpt lat="38.2584400" lon="-0.5245770">
        <ele>18.0</ele>
        <time>2022-08-30T11:48:10Z</time>
      </trkpt>
      <trkpt lat="38.2583300" lon="-0.5245660">
        <ele>18.6</ele>
        <time>2022-08-30T11:48:12Z</time>
      </trkpt>
      <trkpt lat="38.2582750" lon="-0.5245670">
        <ele>18.8</ele>
        <time>2022-08-30T11:48:13Z</time>
      </trkpt>
      <trkpt lat="38.2581650" lon="-0.5245630">
        <ele>19.4</ele>
        <time>2022-08-30T11:48:15Z</time>
      </trkpt>
      <trkpt lat="38.2580540" lon="-0.5245600">
        <ele>19.8</ele>
        <time>2022-08-30T11:48:17Z</time>
      </trkpt>
      <trkpt lat="38.2579990" lon="-0.5245600">
        <ele>19.8</ele>
        <time>2022-08-30T11:48:18Z</time>
      </trkpt>
      <trkpt lat="38.2578320" lon="-0.5245510">
        <ele>20.6</ele>
        <time>2022-08-30T11:48:21Z</time>
      </trkpt>
      <trkpt lat="38.2577250" lon="-0.5245390">
        <ele>20.8</ele>
        <time>2022-08-30T11:48:23Z</time>
      </trkpt>
      <trkpt lat="38.2576720" lon="-0.5245370">
        <ele>21.0</ele>
        <time>2022-08-30T11:48:24Z</time>
      </trkpt>
      <trkpt lat="38.2574550" lon="-0.5245320">
        <ele>22.2</ele>
        <time>2022-08-30T11:48:28Z</time>
      </trkpt>
      <trkpt lat="38.2574000" lon="-0.5245250">
        <ele>22.6</ele>
        <time>2022-08-30T11:48:29Z</time>
      </trkpt>
      <trkpt lat="38.2572360" lon="-0.5244910">
        <ele>23.8</ele>
        <time>2022-08-30T11:48:32Z</time>
      </trkpt>
      <trkpt lat="38.2570680" lon="-0.5244860">
        <ele>24.8</ele>
        <time>2022-08-30T11:48:35Z</time>
      </trkpt>
      <trkpt lat="38.2570170" lon="-0.5244890">
        <ele>25.0</ele>
        <time>2022-08-30T11:48:36Z</time>
      </trkpt>
      <trkpt lat="38.2569700" lon="-0.5245060">
        <ele>25.2</ele>
        <time>2022-08-30T11:48:37Z</time>
      </trkpt>
      <trkpt lat="38.2569250" lon="-0.5245380">
        <ele>25.4</ele>
        <time>2022-08-30T11:48:38Z</time>
      </trkpt>
      <trkpt lat="38.2568270" lon="-0.5246040">
        <ele>26.0</ele>
        <time>2022-08-30T11:48:40Z</time>
      </trkpt>
      <trkpt lat="38.2567210" lon="-0.5246350">
        <ele>26.4</ele>
        <time>2022-08-30T11:48:42Z</time>
      </trkpt>
      <trkpt lat="38.2566140" lon="-0.5245970">
        <ele>26.8</ele>
        <time>2022-08-30T11:48:44Z</time>
      </trkpt>
      <trkpt lat="38.2565130" lon="-0.5245530">
        <ele>27.0</ele>
        <time>2022-08-30T11:48:46Z</time>
      </trkpt>
      <trkpt lat="38.2564030" lon="-0.5245440">
        <ele>27.2</ele>
        <time>2022-08-30T11:48:48Z</time>
      </trkpt>
      <trkpt lat="38.2562320" lon="-0.5245600">
        <ele>27.4</ele>
        <time>2022-08-30T11:48:51Z</time>
      </trkpt>
      <trkpt lat="38.2558780" lon="-0.5246030">
        <ele>27.8</ele>
        <time>2022-08-30T11:48:57Z</time>
      </trkpt>
      <trkpt lat="38.2557030" lon="-0.5246090">
        <ele>28.0</ele>
        <time>2022-08-30T11:49:00Z</time>
      </trkpt>
      <trkpt lat="38.2554680" lon="-0.5246480">
        <ele>27.8</ele>
        <time>2022-08-30T11:49:04Z</time>
      </trkpt>
      <trkpt lat="38.2552940" lon="-0.5246640">
        <ele>27.8</ele>
        <time>2022-08-30T11:49:07Z</time>
      </trkpt>
      <trkpt lat="38.2551220" lon="-0.5246880">
        <ele>28.0</ele>
        <time>2022-08-30T11:49:10Z</time>
      </trkpt>
      <trkpt lat="38.2549530" lon="-0.5247070">
        <ele>28.0</ele>
        <time>2022-08-30T11:49:13Z</time>
      </trkpt>
      <trkpt lat="38.2547900" lon="-0.5247130">
        <ele>28.2</ele>
        <time>2022-08-30T11:49:16Z</time>
      </trkpt>
      <trkpt lat="38.2547370" lon="-0.5247210">
        <ele>28.4</ele>
        <time>2022-08-30T11:49:17Z</time>
      </trkpt>
      <trkpt lat="38.2537140" lon="-0.5245540">
        <ele>20.2</ele>
        <time>2022-08-30T12:40:27Z</time>
      </trkpt>
      <trkpt lat="38.2537630" lon="-0.5245670">
        <ele>32.4</ele>
        <time>2022-08-30T12:40:28Z</time>
      </trkpt>
      <trkpt lat="38.2538940" lon="-0.5245960">
        <ele>32.6</ele>
        <time>2022-08-30T12:40:31Z</time>
      </trkpt>
      <trkpt lat="38.2539790" lon="-0.5246020">
        <ele>33.0</ele>
        <time>2022-08-30T12:40:34Z</time>
      </trkpt>
      <trkpt lat="38.2540270" lon="-0.5246040">
        <ele>32.6</ele>
        <time>2022-08-30T12:40:36Z</time>
      </trkpt>
      <trkpt lat="38.2541690" lon="-0.5246000">
        <ele>32.8</ele>
        <time>2022-08-30T12:40:39Z</time>
      </trkpt>
      <trkpt lat="38.2543780" lon="-0.5246650">
        <ele>32.8</ele>
        <time>2022-08-30T12:40:44Z</time>
      </trkpt>
      <trkpt lat="38.2544120" lon="-0.5246930">
        <ele>32.8</ele>
        <time>2022-08-30T12:40:45Z</time>
      </trkpt>
      <trkpt lat="38.2545030" lon="-0.5247140">
        <ele>32.8</ele>
        <time>2022-08-30T12:40:47Z</time>
      </trkpt>
      <trkpt lat="38.2545580" lon="-0.5247030">
        <ele>32.6</ele>
        <time>2022-08-30T12:40:48Z</time>
      </trkpt>
      <trkpt lat="38.2547320" lon="-0.5246760">
        <ele>32.2</ele>
        <time>2022-08-30T12:40:51Z</time>
      </trkpt>
      <trkpt lat="38.2547930" lon="-0.5246660">
        <ele>32.2</ele>
        <time>2022-08-30T12:40:52Z</time>
      </trkpt>
      <trkpt lat="38.2549160" lon="-0.5246510">
        <ele>32.2</ele>
        <time>2022-08-30T12:40:54Z</time>
      </trkpt>
      <trkpt lat="38.2552350" lon="-0.5246230">
        <ele>32.4</ele>
        <time>2022-08-30T12:40:59Z</time>
      </trkpt>
      <trkpt lat="38.2554500" lon="-0.5246000">
        <ele>32.6</ele>
        <time>2022-08-30T12:41:02Z</time>
      </trkpt>
      <trkpt lat="38.2559790" lon="-0.5245310">
        <ele>32.4</ele>
        <time>2022-08-30T12:41:10Z</time>
      </trkpt>
      <trkpt lat="38.2562540" lon="-0.5245140">
        <ele>32.2</ele>
        <time>2022-08-30T12:41:14Z</time>
      </trkpt>
      <trkpt lat="38.2564010" lon="-0.5245020">
        <ele>32.2</ele>
        <time>2022-08-30T12:41:16Z</time>
      </trkpt>
      <trkpt lat="38.2564500" lon="-0.5244830">
        <ele>32.0</ele>
        <time>2022-08-30T12:41:17Z</time>
      </trkpt>
      <trkpt lat="38.2565160" lon="-0.5244360">
        <ele>32.0</ele>
        <time>2022-08-30T12:41:18Z</time>
      </trkpt>
      <trkpt lat="38.2565870" lon="-0.5243030">
        <ele>31.8</ele>
        <time>2022-08-30T12:41:20Z</time>
      </trkpt>
      <trkpt lat="38.2566170" lon="-0.5242320">
        <ele>31.8</ele>
        <time>2022-08-30T12:41:21Z</time>
      </trkpt>
      <trkpt lat="38.2566930" lon="-0.5241290">
        <ele>31.6</ele>
        <time>2022-08-30T12:41:23Z</time>
      </trkpt>
      <trkpt lat="38.2568210" lon="-0.5240910">
        <ele>31.6</ele>
        <time>2022-08-30T12:41:25Z</time>
      </trkpt>
      <trkpt lat="38.2568880" lon="-0.5241200">
        <ele>31.6</ele>
        <time>2022-08-30T12:41:26Z</time>
      </trkpt>
      <trkpt lat="38.2570120" lon="-0.5241860">
        <ele>31.4</ele>
        <time>2022-08-30T12:41:28Z</time>
      </trkpt>
      <trkpt lat="38.2570960" lon="-0.5242260">
        <ele>31.4</ele>
        <time>2022-08-30T12:41:29Z</time>
      </trkpt>
      <trkpt lat="38.2571690" lon="-0.5242530">
        <ele>31.4</ele>
        <time>2022-08-30T12:41:30Z</time>
      </trkpt>
      <trkpt lat="38.2573260" lon="-0.5242850">
        <ele>31.4</ele>
        <time>2022-08-30T12:41:32Z</time>
      </trkpt>
      <trkpt lat="38.2573930" lon="-0.5242930">
        <ele>31.0</ele>
        <time>2022-08-30T12:41:34Z</time>
      </trkpt>
      <trkpt lat="38.2576180" lon="-0.5243180">
        <ele>30.6</ele>
        <time>2022-08-30T12:41:36Z</time>
      </trkpt>
      <trkpt lat="38.2577990" lon="-0.5243350">
        <ele>29.8</ele>
        <time>2022-08-30T12:41:38Z</time>
      </trkpt>
      <trkpt lat="38.2579890" lon="-0.5243410">
        <ele>28.8</ele>
        <time>2022-08-30T12:41:40Z</time>
      </trkpt>
      <trkpt lat="38.2580860" lon="-0.5243450">
        <ele>28.2</ele>
        <time>2022-08-30T12:41:41Z</time>
      </trkpt>
      <trkpt lat="38.2582880" lon="-0.5243570">
        <ele>27.0</ele>
        <time>2022-08-30T12:41:43Z</time>
      </trkpt>
      <trkpt lat="38.2587030" lon="-0.5243830">
        <ele>25.6</ele>
        <time>2022-08-30T12:41:47Z</time>
      </trkpt>
      <trkpt lat="38.2589130" lon="-0.5243960">
        <ele>24.4</ele>
        <time>2022-08-30T12:41:49Z</time>
      </trkpt>
      <trkpt lat="38.2592290" lon="-0.5244230">
        <ele>23.2</ele>
        <time>2022-08-30T12:41:52Z</time>
      </trkpt>
      <trkpt lat="38.2595380" lon="-0.5244510">
        <ele>22.0</ele>
        <time>2022-08-30T12:41:55Z</time>
      </trkpt>
      <trkpt lat="38.2598360" lon="-0.5244720">
        <ele>20.8</ele>
        <time>2022-08-30T12:41:58Z</time>
      </trkpt>
      <trkpt lat="38.2602120" lon="-0.5245050">
        <ele>19.8</ele>
        <time>2022-08-30T12:42:02Z</time>
      </trkpt>
      <trkpt lat="38.2603020" lon="-0.5245070">
        <ele>19.6</ele>
        <time>2022-08-30T12:42:03Z</time>
      </trkpt>
      <trkpt lat="38.2608880" lon="-0.5245040">
        <ele>19.0</ele>
        <time>2022-08-30T12:42:10Z</time>
      </trkpt>
      <trkpt lat="38.2609580" lon="-0.5244850">
        <ele>19.0</ele>
        <time>2022-08-30T12:42:11Z</time>
      </trkpt>
      <trkpt lat="38.2610880" lon="-0.5244350">
        <ele>18.8</ele>
        <time>2022-08-30T12:42:13Z</time>
      </trkpt>
      <trkpt lat="38.2611480" lon="-0.5244330">
        <ele>18.8</ele>
        <time>2022-08-30T12:42:14Z</time>
      </trkpt>
      <trkpt lat="38.2612030" lon="-0.5244540">
        <ele>18.6</ele>
        <time>2022-08-30T12:42:15Z</time>
      </trkpt>
      <trkpt lat="38.2612900" lon="-0.5245560">
        <ele>18.6</ele>
        <time>2022-08-30T12:42:17Z</time>
      </trkpt>
      <trkpt lat="38.2613160" lon="-0.5247140">
        <ele>18.4</ele>
        <time>2022-08-30T12:42:19Z</time>
      </trkpt>
      <trkpt lat="38.2613100" lon="-0.5248010">
        <ele>18.4</ele>
        <time>2022-08-30T12:42:20Z</time>
      </trkpt>
      <trkpt lat="38.2612940" lon="-0.5249900">
        <ele>18.4</ele>
        <time>2022-08-30T12:42:22Z</time>
      </trkpt>
      <trkpt lat="38.2613000" lon="-0.5252000">
        <ele>18.2</ele>
        <time>2022-08-30T12:42:24Z</time>
      </trkpt>
      <trkpt lat="38.2613520" lon="-0.5256310">
        <ele>17.0</ele>
        <time>2022-08-30T12:42:28Z</time>
      </trkpt>
      <trkpt lat="38.2613650" lon="-0.5257430">
        <ele>16.8</ele>
        <time>2022-08-30T12:42:29Z</time>
      </trkpt>
      <trkpt lat="38.2613790" lon="-0.5258540">
        <ele>16.4</ele>
        <time>2022-08-30T12:42:30Z</time>
      </trkpt>
      <trkpt lat="38.2614070" lon="-0.5260760">
        <ele>16.2</ele>
        <time>2022-08-30T12:42:32Z</time>
      </trkpt>
      <trkpt lat="38.2614370" lon="-0.5262990">
        <ele>16.0</ele>
        <time>2022-08-30T12:42:34Z</time>
      </trkpt>
      <trkpt lat="38.2614510" lon="-0.5264110">
        <ele>16.0</ele>
        <time>2022-08-30T12:42:35Z</time>
      </trkpt>
      <trkpt lat="38.2614960" lon="-0.5267460">
        <ele>15.8</ele>
        <time>2022-08-30T12:42:38Z</time>
      </trkpt>
      <trkpt lat="38.2615110" lon="-0.5268590">
        <ele>15.8</ele>
        <time>2022-08-30T12:42:39Z</time>
      </trkpt>
      <trkpt lat="38.2615990" lon="-0.5275340">
        <ele>15.4</ele>
        <time>2022-08-30T12:42:45Z</time>
      </trkpt>
      <trkpt lat="38.2616270" lon="-0.5277630">
        <ele>15.2</ele>
        <time>2022-08-30T12:42:47Z</time>
      </trkpt>
      <trkpt lat="38.2616750" lon="-0.5281080">
        <ele>15.2</ele>
        <time>2022-08-30T12:42:50Z</time>
      </trkpt>
      <trkpt lat="38.2617040" lon="-0.5283390">
        <ele>15.0</ele>
        <time>2022-08-30T12:42:52Z</time>
      </trkpt>
      <trkpt lat="38.2617160" lon="-0.5286870">
        <ele>15.0</ele>
        <time>2022-08-30T12:42:55Z</time>
      </trkpt>
      <trkpt lat="38.2617110" lon="-0.5289150">
        <ele>14.8</ele>
        <time>2022-08-30T12:42:57Z</time>
      </trkpt>
      <trkpt lat="38.2616940" lon="-0.5292500">
        <ele>15.2</ele>
        <time>2022-08-30T12:43:00Z</time>
      </trkpt>
      <trkpt lat="38.2616720" lon="-0.5295780">
        <ele>15.6</ele>
        <time>2022-08-30T12:43:03Z</time>
      </trkpt>
      <trkpt lat="38.2616450" lon="-0.5299070">
        <ele>16.0</ele>
        <time>2022-08-30T12:43:06Z</time>
      </trkpt>
      <trkpt lat="38.2616350" lon="-0.5300150">
        <ele>16.0</ele>
        <time>2022-08-30T12:43:07Z</time>
      </trkpt>
      <trkpt lat="38.2615810" lon="-0.5307530">
        <ele>16.4</ele>
        <time>2022-08-30T12:43:14Z</time>
      </trkpt>
      <trkpt lat="38.2615710" lon="-0.5308570">
        <ele>16.2</ele>
        <time>2022-08-30T12:43:15Z</time>
      </trkpt>
      <trkpt lat="38.2615150" lon="-0.5314690">
        <ele>16.4</ele>
        <time>2022-08-30T12:43:21Z</time>
      </trkpt>
      <trkpt lat="38.2614800" lon="-0.5320540">
        <ele>16.6</ele>
        <time>2022-08-30T12:43:27Z</time>
      </trkpt>
      <trkpt lat="38.2614680" lon="-0.5321480">
        <ele>17.0</ele>
        <time>2022-08-30T12:43:28Z</time>
      </trkpt>
      <trkpt lat="38.2614280" lon="-0.5324250">
        <ele>18.4</ele>
        <time>2022-08-30T12:43:31Z</time>
      </trkpt>
      <trkpt lat="38.2613800" lon="-0.5326930">
        <ele>19.0</ele>
        <time>2022-08-30T12:43:34Z</time>
      </trkpt>
      <trkpt lat="38.2613210" lon="-0.5329570">
        <ele>19.6</ele>
        <time>2022-08-30T12:43:37Z</time>
      </trkpt>
      <trkpt lat="38.2612970" lon="-0.5330480">
        <ele>19.8</ele>
        <time>2022-08-30T12:43:38Z</time>
      </trkpt>
      <trkpt lat="38.2612760" lon="-0.5331440">
        <ele>20.0</ele>
        <time>2022-08-30T12:43:39Z</time>
      </trkpt>
      <trkpt lat="38.2612560" lon="-0.5332420">
        <ele>20.6</ele>
        <time>2022-08-30T12:43:40Z</time>
      </trkpt>
      <trkpt lat="38.2612410" lon="-0.5333450">
        <ele>20.6</ele>
        <time>2022-08-30T12:43:41Z</time>
      </trkpt>
      <trkpt lat="38.2612200" lon="-0.5335640">
        <ele>20.8</ele>
        <time>2022-08-30T12:43:43Z</time>
      </trkpt>
      <trkpt lat="38.2612520" lon="-0.5341530">
        <ele>20.6</ele>
        <time>2022-08-30T12:43:48Z</time>
      </trkpt>
      <trkpt lat="38.2612970" lon="-0.5345150">
        <ele>19.6</ele>
        <time>2022-08-30T12:43:51Z</time>
      </trkpt>
      <trkpt lat="38.2613670" lon="-0.5350100">
        <ele>19.0</ele>
        <time>2022-08-30T12:43:55Z</time>
      </trkpt>
      <trkpt lat="38.2614040" lon="-0.5352520">
        <ele>18.4</ele>
        <time>2022-08-30T12:43:57Z</time>
      </trkpt>
      <trkpt lat="38.2614550" lon="-0.5354860">
        <ele>17.8</ele>
        <time>2022-08-30T12:43:59Z</time>
      </trkpt>
      <trkpt lat="38.2614910" lon="-0.5356000">
        <ele>17.2</ele>
        <time>2022-08-30T12:44:00Z</time>
      </trkpt>
      <trkpt lat="38.2615350" lon="-0.5357080">
        <ele>17.0</ele>
        <time>2022-08-30T12:44:01Z</time>
      </trkpt>
      <trkpt lat="38.2616610" lon="-0.5358960">
        <ele>16.8</ele>
        <time>2022-08-30T12:44:03Z</time>
      </trkpt>
      <trkpt lat="38.2617390" lon="-0.5359770">
        <ele>16.8</ele>
        <time>2022-08-30T12:44:04Z</time>
      </trkpt>
      <trkpt lat="38.2621470" lon="-0.5363080">
        <ele>16.2</ele>
        <time>2022-08-30T12:44:09Z</time>
      </trkpt>
      <trkpt lat="38.2623100" lon="-0.5364370">
        <ele>16.0</ele>
        <time>2022-08-30T12:44:11Z</time>
      </trkpt>
      <trkpt lat="38.2627770" lon="-0.5368160">
        <ele>15.2</ele>
        <time>2022-08-30T12:44:17Z</time>
      </trkpt>
      <trkpt lat="38.2629310" lon="-0.5369390">
        <ele>15.2</ele>
        <time>2022-08-30T12:44:19Z</time>
      </trkpt>
      <trkpt lat="38.2634610" lon="-0.5373730">
        <ele>15.4</ele>
        <time>2022-08-30T12:44:26Z</time>
      </trkpt>
      <trkpt lat="38.2636140" lon="-0.5374940">
        <ele>15.2</ele>
        <time>2022-08-30T12:44:28Z</time>
      </trkpt>
      <trkpt lat="38.2636880" lon="-0.5375550">
        <ele>15.0</ele>
        <time>2022-08-30T12:44:29Z</time>
      </trkpt>
      <trkpt lat="38.2640560" lon="-0.5378540">
        <ele>14.8</ele>
        <time>2022-08-30T12:44:34Z</time>
      </trkpt>
      <trkpt lat="38.2642760" lon="-0.5380290">
        <ele>14.8</ele>
        <time>2022-08-30T12:44:37Z</time>
      </trkpt>
      <trkpt lat="38.2643490" lon="-0.5380880">
        <ele>14.8</ele>
        <time>2022-08-30T12:44:38Z</time>
      </trkpt>
      <trkpt lat="38.2647450" lon="-0.5384690">
        <ele>15.4</ele>
        <time>2022-08-30T12:44:44Z</time>
      </trkpt>
      <trkpt lat="38.2648020" lon="-0.5385430">
        <ele>15.4</ele>
        <time>2022-08-30T12:44:45Z</time>
      </trkpt>
      <trkpt lat="38.2649310" lon="-0.5388020">
        <ele>15.6</ele>
        <time>2022-08-30T12:44:48Z</time>
      </trkpt>
      <trkpt lat="38.2651650" lon="-0.5394480">
        <ele>16.0</ele>
        <time>2022-08-30T12:44:55Z</time>
      </trkpt>
      <trkpt lat="38.2652230" lon="-0.5396300">
        <ele>16.2</ele>
        <time>2022-08-30T12:44:57Z</time>
      </trkpt>
      <trkpt lat="38.2654140" lon="-0.5401560">
        <ele>17.2</ele>
        <time>2022-08-30T12:45:03Z</time>
      </trkpt>
      <trkpt lat="38.2654580" lon="-0.5402350">
        <ele>17.2</ele>
        <time>2022-08-30T12:45:04Z</time>
      </trkpt>
      <trkpt lat="38.2657220" lon="-0.5405900">
        <ele>18.0</ele>
        <time>2022-08-30T12:45:09Z</time>
      </trkpt>
      <trkpt lat="38.2657810" lon="-0.5406500">
        <ele>18.0</ele>
        <time>2022-08-30T12:45:10Z</time>
      </trkpt>
      <trkpt lat="38.2658430" lon="-0.5407040">
        <ele>18.2</ele>
        <time>2022-08-30T12:45:11Z</time>
      </trkpt>
      <trkpt lat="38.2661010" lon="-0.5408660">
        <ele>18.4</ele>
        <time>2022-08-30T12:45:15Z</time>
      </trkpt>
      <trkpt lat="38.2663610" lon="-0.5409740">
        <ele>18.8</ele>
        <time>2022-08-30T12:45:19Z</time>
      </trkpt>
      <trkpt lat="38.2664210" lon="-0.5409920">
        <ele>19.2</ele>
        <time>2022-08-30T12:45:20Z</time>
      </trkpt>
      <trkpt lat="38.2664770" lon="-0.5410110">
        <ele>19.4</ele>
        <time>2022-08-30T12:45:21Z</time>
      </trkpt>
      <trkpt lat="38.2665890" lon="-0.5410450">
        <ele>20.0</ele>
        <time>2022-08-30T12:45:23Z</time>
      </trkpt>
      <trkpt lat="38.2679420" lon="-0.5411360">
        <ele>23.4</ele>
        <time>2022-08-30T12:45:54Z</time>
      </trkpt>
      <trkpt lat="38.2679770" lon="-0.5411260">
        <ele>23.4</ele>
        <time>2022-08-30T12:45:55Z</time>
      </trkpt>
      <trkpt lat="38.2685170" lon="-0.5409440">
        <ele>24.4</ele>
        <time>2022-08-30T12:46:03Z</time>
      </trkpt>
      <trkpt lat="38.2685840" lon="-0.5409230">
        <ele>24.4</ele>
        <time>2022-08-30T12:46:04Z</time>
      </trkpt>
      <trkpt lat="38.2690270" lon="-0.5407860">
        <ele>25.8</ele>
        <time>2022-08-30T12:46:11Z</time>
      </trkpt>
      <trkpt lat="38.2690860" lon="-0.5407660">
        <ele>26.0</ele>
        <time>2022-08-30T12:46:12Z</time>
      </trkpt>
      <trkpt lat="38.2694710" lon="-0.5406300">
        <ele>26.6</ele>
        <time>2022-08-30T12:46:18Z</time>
      </trkpt>
      <trkpt lat="38.2696150" lon="-0.5405780">
        <ele>26.4</ele>
        <time>2022-08-30T12:46:20Z</time>
      </trkpt>
      <trkpt lat="38.2697660" lon="-0.5405250">
        <ele>26.0</ele>
        <time>2022-08-30T12:46:22Z</time>
      </trkpt>
      <trkpt lat="38.2699210" lon="-0.5404700">
        <ele>25.6</ele>
        <time>2022-08-30T12:46:24Z</time>
      </trkpt>
      <trkpt lat="38.2701610" lon="-0.5403850">
        <ele>24.6</ele>
        <time>2022-08-30T12:46:27Z</time>
      </trkpt>
      <trkpt lat="38.2702430" lon="-0.5403570">
        <ele>24.0</ele>
        <time>2022-08-30T12:46:28Z</time>
      </trkpt>
      <trkpt lat="38.2704090" lon="-0.5403000">
        <ele>23.6</ele>
        <time>2022-08-30T12:46:30Z</time>
      </trkpt>
      <trkpt lat="38.2705770" lon="-0.5402420">
        <ele>23.2</ele>
        <time>2022-08-30T12:46:32Z</time>
      </trkpt>
      <trkpt lat="38.2707450" lon="-0.5401840">
        <ele>22.8</ele>
        <time>2022-08-30T12:46:34Z</time>
      </trkpt>
      <trkpt lat="38.2708270" lon="-0.5401550">
        <ele>22.4</ele>
        <time>2022-08-30T12:46:35Z</time>
      </trkpt>
      <trkpt lat="38.2709850" lon="-0.5400970">
        <ele>21.4</ele>
        <time>2022-08-30T12:46:37Z</time>
      </trkpt>
      <trkpt lat="38.2713640" lon="-0.5399580">
        <ele>20.8</ele>
        <time>2022-08-30T12:46:42Z</time>
      </trkpt>
      <trkpt lat="38.2729200" lon="-0.5394250">
        <ele>24.6</ele>
        <time>2022-08-30T12:49:45Z</time>
      </trkpt>
      <trkpt lat="38.2729460" lon="-0.5394150">
        <ele>24.6</ele>
        <time>2022-08-30T12:49:46Z</time>
      </trkpt>
      <trkpt lat="38.2731220" lon="-0.5393530">
        <ele>24.6</ele>
        <time>2022-08-30T12:49:49Z</time>
      </trkpt>
      <trkpt lat="38.2731890" lon="-0.5393360">
        <ele>24.6</ele>
        <time>2022-08-30T12:49:50Z</time>
      </trkpt>
      <trkpt lat="38.2732520" lon="-0.5393160">
        <ele>24.6</ele>
        <time>2022-08-30T12:49:51Z</time>
      </trkpt>
      <trkpt lat="38.2735780" lon="-0.5392060">
        <ele>24.8</ele>
        <time>2022-08-30T12:49:56Z</time>
      </trkpt>
      <trkpt lat="38.2737870" lon="-0.5391260">
        <ele>25.0</ele>
        <time>2022-08-30T12:49:59Z</time>
      </trkpt>
      <trkpt lat="38.2739340" lon="-0.5390890">
        <ele>25.0</ele>
        <time>2022-08-30T12:50:01Z</time>
      </trkpt>
      <trkpt lat="38.2743800" lon="-0.5389400">
        <ele>24.6</ele>
        <time>2022-08-30T12:50:07Z</time>
      </trkpt>
      <trkpt lat="38.2747930" lon="-0.5387730">
        <ele>24.2</ele>
        <time>2022-08-30T12:50:13Z</time>
      </trkpt>
      <trkpt lat="38.2747930" lon="-0.5387730">
        <ele>24.0</ele>
        <time>2022-08-30T12:50:14Z</time>
      </trkpt>
      <trkpt lat="38.2750830" lon="-0.5386610">
        <ele>23.8</ele>
        <time>2022-08-30T12:50:18Z</time>
      </trkpt>
      <trkpt lat="38.2751590" lon="-0.5386090">
        <ele>23.6</ele>
        <time>2022-08-30T12:50:21Z</time>
      </trkpt>
      <trkpt lat="38.2752150" lon="-0.5385230">
        <ele>23.6</ele>
        <time>2022-08-30T12:50:24Z</time>
      </trkpt>
      <trkpt lat="38.2752490" lon="-0.5384910">
        <ele>23.6</ele>
        <time>2022-08-30T12:50:25Z</time>
      </trkpt>
      <trkpt lat="38.2752990" lon="-0.5384720">
        <ele>23.6</ele>
        <time>2022-08-30T12:50:26Z</time>
      </trkpt>
      <trkpt lat="38.2754230" lon="-0.5384750">
        <ele>23.6</ele>
        <time>2022-08-30T12:50:28Z</time>
      </trkpt>
      <trkpt lat="38.2754880" lon="-0.5384800">
        <ele>23.6</ele>
        <time>2022-08-30T12:50:29Z</time>
      </trkpt>
      <trkpt lat="38.2754880" lon="-0.5384800">
        <ele>23.6</ele>
        <time>2022-08-30T12:50:30Z</time>
      </trkpt>
      <trkpt lat="38.2756220" lon="-0.5384570">
        <ele>23.4</ele>
        <time>2022-08-30T12:50:31Z</time>
      </trkpt>
      <trkpt lat="38.2758280" lon="-0.5383890">
        <ele>23.0</ele>
        <time>2022-08-30T12:50:34Z</time>
      </trkpt>
      <trkpt lat="38.2760560" lon="-0.5383070">
        <ele>22.4</ele>
        <time>2022-08-30T12:50:37Z</time>
      </trkpt>
      <trkpt lat="38.2763040" lon="-0.5382160">
        <ele>22.2</ele>
        <time>2022-08-30T12:50:40Z</time>
      </trkpt>
      <trkpt lat="38.2766460" lon="-0.5380940">
        <ele>21.8</ele>
        <time>2022-08-30T12:50:44Z</time>
      </trkpt>
      <trkpt lat="38.2769040" lon="-0.5380110">
        <ele>21.4</ele>
        <time>2022-08-30T12:50:47Z</time>
      </trkpt>
      <trkpt lat="38.2769890" lon="-0.5379810">
        <ele>21.4</ele>
        <time>2022-08-30T12:50:48Z</time>
      </trkpt>
      <trkpt lat="38.2775540" lon="-0.5377930">
        <ele>20.8</ele>
        <time>2022-08-30T12:50:55Z</time>
      </trkpt>
      <trkpt lat="38.2777120" lon="-0.5377390">
        <ele>20.8</ele>
        <time>2022-08-30T12:50:57Z</time>
      </trkpt>
      <trkpt lat="38.2781380" lon="-0.5375830">
        <ele>20.4</ele>
        <time>2022-08-30T12:51:02Z</time>
      </trkpt>
      <trkpt lat="38.2783080" lon="-0.5375130">
        <ele>19.8</ele>
        <time>2022-08-30T12:51:04Z</time>
      </trkpt>
      <trkpt lat="38.2785570" lon="-0.5374010">
        <ele>19.0</ele>
        <time>2022-08-30T12:51:07Z</time>
      </trkpt>
      <trkpt lat="38.2791270" lon="-0.5371740">
        <ele>18.2</ele>
        <time>2022-08-30T12:51:14Z</time>
      </trkpt>
      <trkpt lat="38.2796750" lon="-0.5370230">
        <ele>18.2</ele>
        <time>2022-08-30T12:51:21Z</time>
      </trkpt>
      <trkpt lat="38.2799710" lon="-0.5369270">
        <ele>18.0</ele>
        <time>2022-08-30T12:51:25Z</time>
      </trkpt>
      <trkpt lat="38.2800370" lon="-0.5369040">
        <ele>18.0</ele>
        <time>2022-08-30T12:51:26Z</time>
      </trkpt>
      <trkpt lat="38.2800930" lon="-0.5368840">
        <ele>18.0</ele>
        <time>2022-08-30T12:51:27Z</time>
      </trkpt>
      <trkpt lat="38.2801370" lon="-0.5368730">
        <ele>18.0</ele>
        <time>2022-08-30T12:51:28Z</time>
      </trkpt>
      <trkpt lat="38.2801790" lon="-0.5368640">
        <ele>18.0</ele>
        <time>2022-08-30T12:51:30Z</time>
      </trkpt>
      <trkpt lat="38.2803200" lon="-0.5368060">
        <ele>18.0</ele>
        <time>2022-08-30T12:51:32Z</time>
      </trkpt>
      <trkpt lat="38.2804380" lon="-0.5367630">
        <ele>18.0</ele>
        <time>2022-08-30T12:51:34Z</time>
      </trkpt>
      <trkpt lat="38.2805030" lon="-0.5367420">
        <ele>18.0</ele>
        <time>2022-08-30T12:51:35Z</time>
      </trkpt>
      <trkpt lat="38.2806250" lon="-0.5367040">
        <ele>18.0</ele>
        <time>2022-08-30T12:51:37Z</time>
      </trkpt>
      <trkpt lat="38.2808670" lon="-0.5366150">
        <ele>17.8</ele>
        <time>2022-08-30T12:51:41Z</time>
      </trkpt>
      <trkpt lat="38.2809270" lon="-0.5365960">
        <ele>17.8</ele>
        <time>2022-08-30T12:51:42Z</time>
      </trkpt>
      <trkpt lat="38.2809880" lon="-0.5365780">
        <ele>17.8</ele>
        <time>2022-08-30T12:51:43Z</time>
      </trkpt>
      <trkpt lat="38.2819680" lon="-0.5362170">
        <ele>17.0</ele>
        <time>2022-08-30T12:52:04Z</time>
      </trkpt>
      <trkpt lat="38.2822630" lon="-0.5361090">
        <ele>16.6</ele>
        <time>2022-08-30T12:52:08Z</time>
      </trkpt>
      <trkpt lat="38.2827370" lon="-0.5359460">
        <ele>16.2</ele>
        <time>2022-08-30T12:52:14Z</time>
      </trkpt>
      <trkpt lat="38.2828960" lon="-0.5358850">
        <ele>16.2</ele>
        <time>2022-08-30T12:52:16Z</time>
      </trkpt>
      <trkpt lat="38.2833800" lon="-0.5356830">
        <ele>16.0</ele>
        <time>2022-08-30T12:52:22Z</time>
      </trkpt>
      <trkpt lat="38.2836190" lon="-0.5355730">
        <ele>16.0</ele>
        <time>2022-08-30T12:52:25Z</time>
      </trkpt>
      <trkpt lat="38.2840870" lon="-0.5353380">
        <ele>16.0</ele>
        <time>2022-08-30T12:52:31Z</time>
      </trkpt>
      <trkpt lat="38.2844470" lon="-0.5350600">
        <ele>16.0</ele>
        <time>2022-08-30T12:52:36Z</time>
      </trkpt>
      <trkpt lat="38.2846580" lon="-0.5348850">
        <ele>15.8</ele>
        <time>2022-08-30T12:52:39Z</time>
      </trkpt>
      <trkpt lat="38.2851500" lon="-0.5344780">
        <ele>15.4</ele>
        <time>2022-08-30T12:52:46Z</time>
      </trkpt>
      <trkpt lat="38.2856340" lon="-0.5340540">
        <ele>15.0</ele>
        <time>2022-08-30T12:52:53Z</time>
      </trkpt>
      <trkpt lat="38.2861280" lon="-0.5336130">
        <ele>15.0</ele>
        <time>2022-08-30T12:53:00Z</time>
      </trkpt>
      <trkpt lat="38.2863410" lon="-0.5334230">
        <ele>15.0</ele>
        <time>2022-08-30T12:53:03Z</time>
      </trkpt>
      <trkpt lat="38.2868250" lon="-0.5329910">
        <ele>15.0</ele>
        <time>2022-08-30T12:53:10Z</time>
      </trkpt>
      <trkpt lat="38.2871610" lon="-0.5326890">
        <ele>15.2</ele>
        <time>2022-08-30T12:53:15Z</time>
      </trkpt>
      <trkpt lat="38.2876350" lon="-0.5322740">
        <ele>15.2</ele>
        <time>2022-08-30T12:53:22Z</time>
      </trkpt>
      <trkpt lat="38.2879750" lon="-0.5319750">
        <ele>15.2</ele>
        <time>2022-08-30T12:53:27Z</time>
      </trkpt>
      <trkpt lat="38.2883840" lon="-0.5316050">
        <ele>15.4</ele>
        <time>2022-08-30T12:53:34Z</time>
      </trkpt>
      <trkpt lat="38.2886570" lon="-0.5313560">
        <ele>15.4</ele>
        <time>2022-08-30T12:53:37Z</time>
      </trkpt>
      <trkpt lat="38.2891350" lon="-0.5309380">
        <ele>15.4</ele>
        <time>2022-08-30T12:53:44Z</time>
      </trkpt>
      <trkpt lat="38.2892670" lon="-0.5308190">
        <ele>15.4</ele>
        <time>2022-08-30T12:53:46Z</time>
      </trkpt>
      <trkpt lat="38.2897290" lon="-0.5304000">
        <ele>15.4</ele>
        <time>2022-08-30T12:53:53Z</time>
      </trkpt>
      <trkpt lat="38.2898650" lon="-0.5302800">
        <ele>15.4</ele>
        <time>2022-08-30T12:53:55Z</time>
      </trkpt>
      <trkpt lat="38.2903390" lon="-0.5298650">
        <ele>15.2</ele>
        <time>2022-08-30T12:54:02Z</time>
      </trkpt>
      <trkpt lat="38.2906120" lon="-0.5296280">
        <ele>15.0</ele>
        <time>2022-08-30T12:54:06Z</time>
      </trkpt>
      <trkpt lat="38.2909560" lon="-0.5293290">
        <ele>15.0</ele>
        <time>2022-08-30T12:54:11Z</time>
      </trkpt>
      <trkpt lat="38.2912940" lon="-0.5290160">
        <ele>15.4</ele>
        <time>2022-08-30T12:54:16Z</time>
      </trkpt>
      <trkpt lat="38.2917750" lon="-0.5286020">
        <ele>15.4</ele>
        <time>2022-08-30T12:54:23Z</time>
      </trkpt>
      <trkpt lat="38.2919130" lon="-0.5284790">
        <ele>15.2</ele>
        <time>2022-08-30T12:54:25Z</time>
      </trkpt>
      <trkpt lat="38.2924020" lon="-0.5280530">
        <ele>15.4</ele>
        <time>2022-08-30T12:54:32Z</time>
      </trkpt>
      <trkpt lat="38.2924750" lon="-0.5279870">
        <ele>15.2</ele>
        <time>2022-08-30T12:54:33Z</time>
      </trkpt>
      <trkpt lat="38.2929100" lon="-0.5275880">
        <ele>15.2</ele>
        <time>2022-08-30T12:54:39Z</time>
      </trkpt>
      <trkpt lat="38.2932750" lon="-0.5272670">
        <ele>15.2</ele>
        <time>2022-08-30T12:54:44Z</time>
      </trkpt>
      <trkpt lat="38.2937670" lon="-0.5268340">
        <ele>15.4</ele>
        <time>2022-08-30T12:54:51Z</time>
      </trkpt>
      <trkpt lat="38.2938370" lon="-0.5267700">
        <ele>15.2</ele>
        <time>2022-08-30T12:54:52Z</time>
      </trkpt>
      <trkpt lat="38.2943280" lon="-0.5263290">
        <ele>15.2</ele>
        <time>2022-08-30T12:54:59Z</time>
      </trkpt>
      <trkpt lat="38.2946200" lon="-0.5260670">
        <ele>15.4</ele>
        <time>2022-08-30T12:55:03Z</time>
      </trkpt>
      <trkpt lat="38.2951180" lon="-0.5256280">
        <ele>15.4</ele>
        <time>2022-08-30T12:55:10Z</time>
      </trkpt>
      <trkpt lat="38.2952560" lon="-0.5255030">
        <ele>15.0</ele>
        <time>2022-08-30T12:55:12Z</time>
      </trkpt>
      <trkpt lat="38.2957370" lon="-0.5250780">
        <ele>15.2</ele>
        <time>2022-08-30T12:55:19Z</time>
      </trkpt>
      <trkpt lat="38.2960190" lon="-0.5248400">
        <ele>15.4</ele>
        <time>2022-08-30T12:55:23Z</time>
      </trkpt>
      <trkpt lat="38.2964910" lon="-0.5244160">
        <ele>15.2</ele>
        <time>2022-08-30T12:55:30Z</time>
      </trkpt>
      <trkpt lat="38.2966940" lon="-0.5242340">
        <ele>15.2</ele>
        <time>2022-08-30T12:55:33Z</time>
      </trkpt>
      <trkpt lat="38.2971720" lon="-0.5238170">
        <ele>15.2</ele>
        <time>2022-08-30T12:55:40Z</time>
      </trkpt>
      <trkpt lat="38.2973740" lon="-0.5236380">
        <ele>15.2</ele>
        <time>2022-08-30T12:55:43Z</time>
      </trkpt>
      <trkpt lat="38.2978370" lon="-0.5232310">
        <ele>15.0</ele>
        <time>2022-08-30T12:55:50Z</time>
      </trkpt>
      <trkpt lat="38.2979660" lon="-0.5231140">
        <ele>15.2</ele>
        <time>2022-08-30T12:55:52Z</time>
      </trkpt>
      <trkpt lat="38.2983480" lon="-0.5227620">
        <ele>15.2</ele>
        <time>2022-08-30T12:55:58Z</time>
      </trkpt>
      <trkpt lat="38.2984030" lon="-0.5226930">
        <ele>15.2</ele>
        <time>2022-08-30T12:55:59Z</time>
      </trkpt>
      <trkpt lat="38.2987410" lon="-0.5221740">
        <ele>15.0</ele>
        <time>2022-08-30T12:56:06Z</time>
      </trkpt>
      <trkpt lat="38.2989370" lon="-0.5218080">
        <ele>14.8</ele>
        <time>2022-08-30T12:56:11Z</time>
      </trkpt>
      <trkpt lat="38.2990110" lon="-0.5216690">
        <ele>15.0</ele>
        <time>2022-08-30T12:56:13Z</time>
      </trkpt>
      <trkpt lat="38.2990110" lon="-0.5216690">
        <ele>21.8</ele>
        <time>2022-08-30T13:50:13Z</time>
      </trkpt>
      <trkpt lat="38.2990110" lon="-0.5216690">
        <ele>21.8</ele>
        <time>2022-08-30T13:50:14Z</time>
      </trkpt>
      <trkpt lat="38.3137810" lon="-0.5162350">
        <ele>21.8</ele>
        <time>2022-08-30T13:50:16Z</time>
      </trkpt>
      <trkpt lat="38.3138400" lon="-0.5161100">
        <ele>22.2</ele>
        <time>2022-08-30T13:50:17Z</time>
      </trkpt>
      <trkpt lat="38.3138750" lon="-0.5161100">
        <ele>21.8</ele>
        <time>2022-08-30T13:50:18Z</time>
      </trkpt>
      <trkpt lat="38.3140000" lon="-0.5160870">
        <ele>21.8</ele>
        <time>2022-08-30T13:50:20Z</time>
      </trkpt>
      <trkpt lat="38.3142740" lon="-0.5160100">
        <ele>21.6</ele>
        <time>2022-08-30T13:50:24Z</time>
      </trkpt>
      <trkpt lat="38.3144020" lon="-0.5159550">
        <ele>21.6</ele>
        <time>2022-08-30T13:50:26Z</time>
      </trkpt>
      <trkpt lat="38.3149040" lon="-0.5156930">
        <ele>21.6</ele>
        <time>2022-08-30T13:50:34Z</time>
      </trkpt>
      <trkpt lat="38.3149680" lon="-0.5156600">
        <ele>21.6</ele>
        <time>2022-08-30T13:50:35Z</time>
      </trkpt>
      <trkpt lat="38.3154700" lon="-0.5154150">
        <ele>21.6</ele>
        <time>2022-08-30T13:50:43Z</time>
      </trkpt>
      <trkpt lat="38.3155280" lon="-0.5153840">
        <ele>21.6</ele>
        <time>2022-08-30T13:50:44Z</time>
      </trkpt>
      <trkpt lat="38.3158440" lon="-0.5152580">
        <ele>21.6</ele>
        <time>2022-08-30T13:50:49Z</time>
      </trkpt>
      <trkpt lat="38.3163190" lon="-0.5150900">
        <ele>21.4</ele>
        <time>2022-08-30T13:50:56Z</time>
      </trkpt>
      <trkpt lat="38.3164600" lon="-0.5150430">
        <ele>21.4</ele>
        <time>2022-08-30T13:50:58Z</time>
      </trkpt>
      <trkpt lat="38.3170390" lon="-0.5148390">
        <ele>21.2</ele>
        <time>2022-08-30T13:51:07Z</time>
      </trkpt>
      <trkpt lat="38.3171790" lon="-0.5147910">
        <ele>21.0</ele>
        <time>2022-08-30T13:51:09Z</time>
      </trkpt>
      <trkpt lat="38.3175320" lon="-0.5146730">
        <ele>20.6</ele>
        <time>2022-08-30T13:51:14Z</time>
      </trkpt>
      <trkpt lat="38.3177450" lon="-0.5146020">
        <ele>20.4</ele>
        <time>2022-08-30T13:51:17Z</time>
      </trkpt>
      <trkpt lat="38.3183040" lon="-0.5144150">
        <ele>20.4</ele>
        <time>2022-08-30T13:51:25Z</time>
      </trkpt>
      <trkpt lat="38.3183730" lon="-0.5143880">
        <ele>20.4</ele>
        <time>2022-08-30T13:51:26Z</time>
      </trkpt>
      <trkpt lat="38.3188860" lon="-0.5141800">
        <ele>20.2</ele>
        <time>2022-08-30T13:51:34Z</time>
      </trkpt>
      <trkpt lat="38.3190920" lon="-0.5140870">
        <ele>20.0</ele>
        <time>2022-08-30T13:51:37Z</time>
      </trkpt>
      <trkpt lat="38.3192170" lon="-0.5140330">
        <ele>20.0</ele>
        <time>2022-08-30T13:51:39Z</time>
      </trkpt>
      <trkpt lat="38.3193390" lon="-0.5139830">
        <ele>20.0</ele>
        <time>2022-08-30T13:51:41Z</time>
      </trkpt>
      <trkpt lat="38.3194030" lon="-0.5139660">
        <ele>20.0</ele>
        <time>2022-08-30T13:51:42Z</time>
      </trkpt>
      <trkpt lat="38.3195820" lon="-0.5139200">
        <ele>20.0</ele>
        <time>2022-08-30T13:51:45Z</time>
      </trkpt>
      <trkpt lat="38.3196200" lon="-0.5139170">
        <ele>20.0</ele>
        <time>2022-08-30T13:51:46Z</time>
      </trkpt>
      <trkpt lat="38.3197150" lon="-0.5139320">
        <ele>20.0</ele>
        <time>2022-08-30T13:51:48Z</time>
      </trkpt>
      <trkpt lat="38.3197890" lon="-0.5138770">
        <ele>20.0</ele>
        <time>2022-08-30T13:51:50Z</time>
      </trkpt>
      <trkpt lat="38.3198200" lon="-0.5138300">
        <ele>20.0</ele>
        <time>2022-08-30T13:51:51Z</time>
      </trkpt>
      <trkpt lat="38.3198530" lon="-0.5137970">
        <ele>20.0</ele>
        <time>2022-08-30T13:51:52Z</time>
      </trkpt>
      <trkpt lat="38.3199600" lon="-0.5137320">
        <ele>20.0</ele>
        <time>2022-08-30T13:51:54Z</time>
      </trkpt>
      <trkpt lat="38.3200010" lon="-0.5137130">
        <ele>20.2</ele>
        <time>2022-08-30T13:51:55Z</time>
      </trkpt>
      <trkpt lat="38.3201170" lon="-0.5136600">
        <ele>20.2</ele>
        <time>2022-08-30T13:51:57Z</time>
      </trkpt>
      <trkpt lat="38.3203900" lon="-0.5135310">
        <ele>20.2</ele>
        <time>2022-08-30T13:52:02Z</time>
      </trkpt>
      <trkpt lat="38.3204930" lon="-0.5134910">
        <ele>20.0</ele>
        <time>2022-08-30T13:52:04Z</time>
      </trkpt>
      <trkpt lat="38.3206810" lon="-0.5134170">
        <ele>19.8</ele>
        <time>2022-08-30T13:52:07Z</time>
      </trkpt>
      <trkpt lat="38.3208520" lon="-0.5133380">
        <ele>19.6</ele>
        <time>2022-08-30T13:52:10Z</time>
      </trkpt>
      <trkpt lat="38.3209670" lon="-0.5132860">
        <ele>19.6</ele>
        <time>2022-08-30T13:52:12Z</time>
      </trkpt>
      <trkpt lat="38.3215200" lon="-0.5130500">
        <ele>19.8</ele>
        <time>2022-08-30T13:52:22Z</time>
      </trkpt>
      <trkpt lat="38.3217520" lon="-0.5129490">
        <ele>20.0</ele>
        <time>2022-08-30T13:52:26Z</time>
      </trkpt>
      <trkpt lat="38.3220850" lon="-0.5128120">
        <ele>20.2</ele>
        <time>2022-08-30T13:52:32Z</time>
      </trkpt>
      <trkpt lat="38.3223990" lon="-0.5126770">
        <ele>20.4</ele>
        <time>2022-08-30T13:52:38Z</time>
      </trkpt>
      <trkpt lat="38.3226350" lon="-0.5125910">
        <ele>20.4</ele>
        <time>2022-08-30T13:52:43Z</time>
      </trkpt>
      <trkpt lat="38.3227060" lon="-0.5125620">
        <ele>20.4</ele>
        <time>2022-08-30T13:52:46Z</time>
      </trkpt>
      <trkpt lat="38.3227390" lon="-0.5125500">
        <ele>20.4</ele>
        <time>2022-08-30T13:52:47Z</time>
      </trkpt>
      <trkpt lat="38.3228700" lon="-0.5124890">
        <ele>20.6</ele>
        <time>2022-08-30T13:52:50Z</time>
      </trkpt>
      <trkpt lat="38.3229240" lon="-0.5124640">
        <ele>20.6</ele>
        <time>2022-08-30T13:52:51Z</time>
      </trkpt>
      <trkpt lat="38.3230370" lon="-0.5124040">
        <ele>20.6</ele>
        <time>2022-08-30T13:52:53Z</time>
      </trkpt>
      <trkpt lat="38.3232690" lon="-0.5122920">
        <ele>20.6</ele>
        <time>2022-08-30T13:52:57Z</time>
      </trkpt>
      <trkpt lat="38.3233880" lon="-0.5122470">
        <ele>20.4</ele>
        <time>2022-08-30T13:52:59Z</time>
      </trkpt>
      <trkpt lat="38.3237310" lon="-0.5121070">
        <ele>20.4</ele>
        <time>2022-08-30T13:53:05Z</time>
      </trkpt>
      <trkpt lat="38.3241180" lon="-0.5119720">
        <ele>20.6</ele>
        <time>2022-08-30T13:53:12Z</time>
      </trkpt>
      <trkpt lat="38.3242690" lon="-0.5119170">
        <ele>20.8</ele>
        <time>2022-08-30T13:53:15Z</time>
      </trkpt>
      <trkpt lat="38.3244130" lon="-0.5118620">
        <ele>20.8</ele>
        <time>2022-08-30T13:53:18Z</time>
      </trkpt>
      <trkpt lat="38.3245050" lon="-0.5118270">
        <ele>20.8</ele>
        <time>2022-08-30T13:53:20Z</time>
      </trkpt>
      <trkpt lat="38.3246120" lon="-0.5117990">
        <ele>21.0</ele>
        <time>2022-08-30T13:53:23Z</time>
      </trkpt>
      <trkpt lat="38.3246330" lon="-0.5118160">
        <ele>21.0</ele>
        <time>2022-08-30T13:53:24Z</time>
      </trkpt>
      <trkpt lat="38.3246460" lon="-0.5118440">
        <ele>21.0</ele>
        <time>2022-08-30T13:53:25Z</time>
      </trkpt>
      <trkpt lat="38.3246690" lon="-0.5118860">
        <ele>21.2</ele>
        <time>2022-08-30T13:53:27Z</time>
      </trkpt>
      <trkpt lat="38.3246890" lon="-0.5118920">
        <ele>21.2</ele>
        <time>2022-08-30T13:53:28Z</time>
      </trkpt>
      <trkpt lat="38.3248050" lon="-0.5118630">
        <ele>21.4</ele>
        <time>2022-08-30T13:53:31Z</time>
      </trkpt>
      <trkpt lat="38.3248610" lon="-0.5118450">
        <ele>21.6</ele>
        <time>2022-08-30T13:53:32Z</time>
      </trkpt>
      <trkpt lat="38.3249890" lon="-0.5117870">
        <ele>21.6</ele>
        <time>2022-08-30T13:53:35Z</time>
      </trkpt>
      <trkpt lat="38.3251030" lon="-0.5116940">
        <ele>21.8</ele>
        <time>2022-08-30T13:53:38Z</time>
      </trkpt>
      <trkpt lat="38.3251640" lon="-0.5116010">
        <ele>22.0</ele>
        <time>2022-08-30T13:53:40Z</time>
      </trkpt>
      <trkpt lat="38.3252370" lon="-0.5115490">
        <ele>22.0</ele>
        <time>2022-08-30T13:53:42Z</time>
      </trkpt>
      <trkpt lat="38.3253070" lon="-0.5115190">
        <ele>22.2</ele>
        <time>2022-08-30T13:53:44Z</time>
      </trkpt>
      <trkpt lat="38.3254900" lon="-0.5114340">
        <ele>22.6</ele>
        <time>2022-08-30T13:53:49Z</time>
      </trkpt>
      <trkpt lat="38.3255240" lon="-0.5114180">
        <ele>22.8</ele>
        <time>2022-08-30T13:53:50Z</time>
      </trkpt>
      <trkpt lat="38.3255950" lon="-0.5113800">
        <ele>23.2</ele>
        <time>2022-08-30T13:53:52Z</time>
      </trkpt>
      <trkpt lat="38.3257690" lon="-0.5113050">
        <ele>23.8</ele>
        <time>2022-08-30T13:53:57Z</time>
      </trkpt>
      <trkpt lat="38.3258840" lon="-0.5112550">
        <ele>24.0</ele>
        <time>2022-08-30T13:54:00Z</time>
      </trkpt>
      <trkpt lat="38.3259240" lon="-0.5112420">
        <ele>24.2</ele>
        <time>2022-08-30T13:54:01Z</time>
      </trkpt>
      <trkpt lat="38.3262350" lon="-0.5111240">
        <ele>25.0</ele>
        <time>2022-08-30T13:54:09Z</time>
      </trkpt>
      <trkpt lat="38.3263440" lon="-0.5110830">
        <ele>25.2</ele>
        <time>2022-08-30T13:54:12Z</time>
      </trkpt>
      <trkpt lat="38.3265650" lon="-0.5109940">
        <ele>26.0</ele>
        <time>2022-08-30T13:54:17Z</time>
      </trkpt>
      <trkpt lat="38.3267360" lon="-0.5109360">
        <ele>26.2</ele>
        <time>2022-08-30T13:54:20Z</time>
      </trkpt>
      <trkpt lat="38.3268460" lon="-0.5108940">
        <ele>26.4</ele>
        <time>2022-08-30T13:54:22Z</time>
      </trkpt>
      <trkpt lat="38.3271890" lon="-0.5107540">
        <ele>27.4</ele>
        <time>2022-08-30T13:54:29Z</time>
      </trkpt>
      <trkpt lat="38.3272370" lon="-0.5107310">
        <ele>27.4</ele>
        <time>2022-08-30T13:54:30Z</time>
      </trkpt>
      <trkpt lat="38.3275450" lon="-0.5105680">
        <ele>27.6</ele>
        <time>2022-08-30T13:54:36Z</time>
      </trkpt>
      <trkpt lat="38.3276520" lon="-0.5104940">
        <ele>27.4</ele>
        <time>2022-08-30T13:54:38Z</time>
      </trkpt>
      <trkpt lat="38.3277070" lon="-0.5104540">
        <ele>27.4</ele>
        <time>2022-08-30T13:54:39Z</time>
      </trkpt>
      <trkpt lat="38.3278210" lon="-0.5103700">
        <ele>27.2</ele>
        <time>2022-08-30T13:54:41Z</time>
      </trkpt>
      <trkpt lat="38.3279880" lon="-0.5102340">
        <ele>26.8</ele>
        <time>2022-08-30T13:54:44Z</time>
      </trkpt>
      <trkpt lat="38.3280440" lon="-0.5101850">
        <ele>26.6</ele>
        <time>2022-08-30T13:54:45Z</time>
      </trkpt>
      <trkpt lat="38.3281000" lon="-0.5101340">
        <ele>26.4</ele>
        <time>2022-08-30T13:54:46Z</time>
      </trkpt>
      <trkpt lat="38.3282050" lon="-0.5100280">
        <ele>25.8</ele>
        <time>2022-08-30T13:54:48Z</time>
      </trkpt>
      <trkpt lat="38.3283000" lon="-0.5099300">
        <ele>25.2</ele>
        <time>2022-08-30T13:54:50Z</time>
      </trkpt>
      <trkpt lat="38.3283460" lon="-0.5098870">
        <ele>24.8</ele>
        <time>2022-08-30T13:54:51Z</time>
      </trkpt>
      <trkpt lat="38.3283940" lon="-0.5098550">
        <ele>24.8</ele>
        <time>2022-08-30T13:54:52Z</time>
      </trkpt>
      <trkpt lat="38.3284460" lon="-0.5098320">
        <ele>24.2</ele>
        <time>2022-08-30T13:54:53Z</time>
      </trkpt>
      <trkpt lat="38.3284970" lon="-0.5098030">
        <ele>23.8</ele>
        <time>2022-08-30T13:54:54Z</time>
      </trkpt>
      <trkpt lat="38.3286400" lon="-0.5096800">
        <ele>23.2</ele>
        <time>2022-08-30T13:54:57Z</time>
      </trkpt>
      <trkpt lat="38.3286860" lon="-0.5096360">
        <ele>23.0</ele>
        <time>2022-08-30T13:54:58Z</time>
      </trkpt>
      <trkpt lat="38.3288860" lon="-0.5094590">
        <ele>21.8</ele>
        <time>2022-08-30T13:55:02Z</time>
      </trkpt>
      <trkpt lat="38.3289430" lon="-0.5094110">
        <ele>21.6</ele>
        <time>2022-08-30T13:55:03Z</time>
      </trkpt>
      <trkpt lat="38.3290490" lon="-0.5093190">
        <ele>21.4</ele>
        <time>2022-08-30T13:55:05Z</time>
      </trkpt>
      <trkpt lat="38.3291060" lon="-0.5092790">
        <ele>21.4</ele>
        <time>2022-08-30T13:55:06Z</time>
      </trkpt>
      <trkpt lat="38.3292150" lon="-0.5091900">
        <ele>21.2</ele>
        <time>2022-08-30T13:55:08Z</time>
      </trkpt>
      <trkpt lat="38.3293640" lon="-0.5090570">
        <ele>20.8</ele>
        <time>2022-08-30T13:55:11Z</time>
      </trkpt>
      <trkpt lat="38.3294080" lon="-0.5090150">
        <ele>20.8</ele>
        <time>2022-08-30T13:55:12Z</time>
      </trkpt>
      <trkpt lat="38.3294450" lon="-0.5089960">
        <ele>20.6</ele>
        <time>2022-08-30T13:55:13Z</time>
      </trkpt>
      <trkpt lat="38.3295020" lon="-0.5089490">
        <ele>20.6</ele>
        <time>2022-08-30T13:55:15Z</time>
      </trkpt>
      <trkpt lat="38.3295220" lon="-0.5089150">
        <ele>20.4</ele>
        <time>2022-08-30T13:55:16Z</time>
      </trkpt>
      <trkpt lat="38.3295280" lon="-0.5088340">
        <ele>20.4</ele>
        <time>2022-08-30T13:55:18Z</time>
      </trkpt>
      <trkpt lat="38.3295180" lon="-0.5087990">
        <ele>20.4</ele>
        <time>2022-08-30T13:55:19Z</time>
      </trkpt>
      <trkpt lat="38.3295170" lon="-0.5087520">
        <ele>20.6</ele>
        <time>2022-08-30T13:55:21Z</time>
      </trkpt>
      <trkpt lat="38.3295280" lon="-0.5087290">
        <ele>20.6</ele>
        <time>2022-08-30T13:55:22Z</time>
      </trkpt>
      <trkpt lat="38.3296080" lon="-0.5086480">
        <ele>20.8</ele>
        <time>2022-08-30T13:55:25Z</time>
      </trkpt>
      <trkpt lat="38.3296450" lon="-0.5086170">
        <ele>20.8</ele>
        <time>2022-08-30T13:55:26Z</time>
      </trkpt>
      <trkpt lat="38.3297210" lon="-0.5085520">
        <ele>21.0</ele>
        <time>2022-08-30T13:55:28Z</time>
      </trkpt>
      <trkpt lat="38.3299350" lon="-0.5083720">
        <ele>21.0</ele>
        <time>2022-08-30T13:55:33Z</time>
      </trkpt>
      <trkpt lat="38.3300640" lon="-0.5082560">
        <ele>21.0</ele>
        <time>2022-08-30T13:55:36Z</time>
      </trkpt>
      <trkpt lat="38.3301940" lon="-0.5081600">
        <ele>21.0</ele>
        <time>2022-08-30T13:55:39Z</time>
      </trkpt>
    </trkseg>
  </trk>
</gpx>
